<?xml version='1.0' encoding='UTF-8'?><gpx version="1.1" creator="JPX - https://github.com/jenetics/jpx" xmlns="http://www.topografix.com/GPX/1/1"><trk><trkseg><trkpt lat="45.94584232825217" lon="12.796251301565443"><ele>31.999999999999996</ele><time>2026-04-19T09:11:29Z</time></trkpt><trkpt lat="45.94577536604317" lon="12.79624870561456"><ele>32.0</ele><time>2026-04-19T09:11:30Z</time></trkpt><trkpt lat="45.94565866747689" lon="12.796212991350233"><ele>32.0</ele><time>2026-04-19T09:11:32Z</time></trkpt><trkpt lat="45.945591631308716" lon="12.796189697128394"><ele>32.0</ele><time>2026-04-19T09:11:33Z</time></trkpt><trkpt lat="45.94551613667587" lon="12.796163759420406"><ele>31.999999999999996</ele><time>2026-04-19T09:11:34Z</time></trkpt><trkpt lat="45.94544281564584" lon="12.796131232782082"><ele>32.0</ele><time>2026-04-19T09:11:35Z</time></trkpt><trkpt lat="45.94537044537831" lon="12.796100408952597"><ele>31.999999999999996</ele><time>2026-04-19T09:11:36Z</time></trkpt><trkpt lat="45.94529883682842" lon="12.796066686379854"><ele>32.0</ele><time>2026-04-19T09:11:37Z</time></trkpt><trkpt lat="45.94521206861143" lon="12.796029797832006"><ele>32.0</ele><time>2026-04-19T09:11:38Z</time></trkpt><trkpt lat="45.94513147095335" lon="12.795985938372336"><ele>32.0</ele><time>2026-04-19T09:11:39Z</time></trkpt><trkpt lat="45.94505354964378" lon="12.795941899350346"><ele>31.999999999999996</ele><time>2026-04-19T09:11:40Z</time></trkpt><trkpt lat="45.94497662815699" lon="12.795884072041593"><ele>32.0</ele><time>2026-04-19T09:11:41Z</time></trkpt><trkpt lat="45.944886104874136" lon="12.795834029349383"><ele>31.8</ele><time>2026-04-19T09:11:42Z</time></trkpt><trkpt lat="45.944809027185414" lon="12.795781514931958"><ele>31.6</ele><time>2026-04-19T09:11:43Z</time></trkpt><trkpt lat="45.944728607172166" lon="12.795723794925022"><ele>31.400000000000002</ele><time>2026-04-19T09:11:44Z</time></trkpt><trkpt lat="45.944661335370576" lon="12.795633547563625"><ele>31.200000000000003</ele><time>2026-04-19T09:11:45Z</time></trkpt><trkpt lat="45.944583640958335" lon="12.795529469042338"><ele>31.0</ele><time>2026-04-19T09:11:46Z</time></trkpt><trkpt lat="45.94449774710683" lon="12.795432401498186"><ele>31.0</ele><time>2026-04-19T09:11:47Z</time></trkpt><trkpt lat="45.94441372589041" lon="12.795336371013496"><ele>31.0</ele><time>2026-04-19T09:11:48Z</time></trkpt><trkpt lat="45.944327424383914" lon="12.795248668643495"><ele>31.0</ele><time>2026-04-19T09:11:49Z</time></trkpt><trkpt lat="45.94423615033814" lon="12.795148673099671"><ele>31.0</ele><time>2026-04-19T09:11:50Z</time></trkpt><trkpt lat="45.94414348410754" lon="12.795049239277665"><ele>31.0</ele><time>2026-04-19T09:11:51Z</time></trkpt><trkpt lat="45.94405456193994" lon="12.7949491625322"><ele>31.0</ele><time>2026-04-19T09:11:52Z</time></trkpt><trkpt lat="45.94396511559634" lon="12.794853711666757"><ele>31.0</ele><time>2026-04-19T09:11:53Z</time></trkpt><trkpt lat="45.943883551145085" lon="12.794766561852398"><ele>31.0</ele><time>2026-04-19T09:11:54Z</time></trkpt><trkpt lat="45.94380796960786" lon="12.7946796799525"><ele>31.0</ele><time>2026-04-19T09:11:55Z</time></trkpt><trkpt lat="45.94373124301294" lon="12.794598047999584"><ele>31.0</ele><time>2026-04-19T09:11:56Z</time></trkpt><trkpt lat="45.943659733049024" lon="12.794524397107004"><ele>31.0</ele><time>2026-04-19T09:11:57Z</time></trkpt><trkpt lat="45.9435821103295" lon="12.794436773517797"><ele>31.0</ele><time>2026-04-19T09:11:58Z</time></trkpt><trkpt lat="45.94350972925241" lon="12.79433472001663"><ele>31.0</ele><time>2026-04-19T09:11:59Z</time></trkpt><trkpt lat="45.94342066638413" lon="12.79423724926945"><ele>31.0</ele><time>2026-04-19T09:11:59.999Z</time></trkpt><trkpt lat="45.943333314301775" lon="12.794141650985832"><ele>31.0</ele><time>2026-04-19T09:12:00.999Z</time></trkpt><trkpt lat="45.943229327178635" lon="12.794083476250234"><ele>30.6</ele><time>2026-04-19T09:12:01.999Z</time></trkpt><trkpt lat="45.94313078713786" lon="12.794018142445347"><ele>30.200000000000003</ele><time>2026-04-19T09:12:02.999Z</time></trkpt><trkpt lat="45.943041414196706" lon="12.79394167107667"><ele>29.799999999999997</ele><time>2026-04-19T09:12:03.999Z</time></trkpt><trkpt lat="45.942964372157974" lon="12.793845553535698"><ele>29.4</ele><time>2026-04-19T09:12:04.999Z</time></trkpt><trkpt lat="45.94290017043321" lon="12.793725341503979"><ele>29.0</ele><time>2026-04-19T09:12:05.999Z</time></trkpt><trkpt lat="45.94284352849769" lon="12.793602218220427"><ele>28.4</ele><time>2026-04-19T09:12:06.999Z</time></trkpt><trkpt lat="45.94279192263498" lon="12.793477301351452"><ele>27.799999999999997</ele><time>2026-04-19T09:12:07.999Z</time></trkpt><trkpt lat="45.942736838144924" lon="12.793335444279741"><ele>27.200000000000003</ele><time>2026-04-19T09:12:08.999Z</time></trkpt><trkpt lat="45.94267677916849" lon="12.793202654054983"><ele>26.6</ele><time>2026-04-19T09:12:09.999Z</time></trkpt><trkpt lat="45.94261820653362" lon="12.793077126150399"><ele>26.0</ele><time>2026-04-19T09:12:10.999Z</time></trkpt><trkpt lat="45.94256065980056" lon="12.792955799638206"><ele>26.0</ele><time>2026-04-19T09:12:11.999Z</time></trkpt><trkpt lat="45.942493592622625" lon="12.79285583130104"><ele>26.0</ele><time>2026-04-19T09:12:12.999Z</time></trkpt><trkpt lat="45.9424146643192" lon="12.792770791746495"><ele>26.0</ele><time>2026-04-19T09:12:13.999Z</time></trkpt><trkpt lat="45.94234207557113" lon="12.792668381693638"><ele>26.0</ele><time>2026-04-19T09:12:14.999Z</time></trkpt><trkpt lat="45.942270632425334" lon="12.79258232169063"><ele>26.0</ele><time>2026-04-19T09:12:15.999Z</time></trkpt><trkpt lat="45.94220383366387" lon="12.792507962558894"><ele>26.200000000000003</ele><time>2026-04-19T09:12:16.999Z</time></trkpt><trkpt lat="45.94212261379158" lon="12.792442809354133"><ele>26.400000000000002</ele><time>2026-04-19T09:12:17.999Z</time></trkpt><trkpt lat="45.94203189685299" lon="12.792410787558207"><ele>26.6</ele><time>2026-04-19T09:12:18.999Z</time></trkpt><trkpt lat="45.94193509440863" lon="12.79239897255807"><ele>26.8</ele><time>2026-04-19T09:12:19.999Z</time></trkpt><trkpt lat="45.94184177793207" lon="12.792403588122955"><ele>27.0</ele><time>2026-04-19T09:12:20.999Z</time></trkpt><trkpt lat="45.94176756478063" lon="12.792402469085895"><ele>27.75</ele><time>2026-04-19T09:12:21.999Z</time></trkpt><trkpt lat="45.94166951895567" lon="12.792351587243097"><ele>28.5</ele><time>2026-04-19T09:12:22.999Z</time></trkpt><trkpt lat="45.94156939846123" lon="12.792279511485747"><ele>29.25</ele><time>2026-04-19T09:12:23.999Z</time></trkpt><trkpt lat="45.941466263836304" lon="12.792187265424586"><ele>30.0</ele><time>2026-04-19T09:12:24.999Z</time></trkpt><trkpt lat="45.941367909331746" lon="12.792102862847422"><ele>30.0</ele><time>2026-04-19T09:12:25.999Z</time></trkpt><trkpt lat="45.94128825525807" lon="12.79201102132548"><ele>30.0</ele><time>2026-04-19T09:12:26.999Z</time></trkpt><trkpt lat="45.941219244673306" lon="12.791925606900163"><ele>30.0</ele><time>2026-04-19T09:12:28Z</time></trkpt><trkpt lat="45.94113987122734" lon="12.791810887198432"><ele>30.0</ele><time>2026-04-19T09:12:29Z</time></trkpt><trkpt lat="45.941070056023335" lon="12.791693389724687"><ele>30.0</ele><time>2026-04-19T09:12:30Z</time></trkpt><trkpt lat="45.94101183896017" lon="12.791582700796306"><ele>29.6</ele><time>2026-04-19T09:12:31Z</time></trkpt><trkpt lat="45.94093900569319" lon="12.791462276380777"><ele>29.2</ele><time>2026-04-19T09:12:32Z</time></trkpt><trkpt lat="45.94086737840018" lon="12.791353425200725"><ele>28.799999999999997</ele><time>2026-04-19T09:12:33Z</time></trkpt><trkpt lat="45.94079786407552" lon="12.791248539259957"><ele>28.4</ele><time>2026-04-19T09:12:34Z</time></trkpt><trkpt lat="45.94072411552435" lon="12.79114373815678"><ele>28.0</ele><time>2026-04-19T09:12:35Z</time></trkpt><trkpt lat="45.94064896047703" lon="12.791060520573325"><ele>27.599999999999998</ele><time>2026-04-19T09:12:36Z</time></trkpt><trkpt lat="45.940564130381475" lon="12.790980038478901"><ele>27.199999999999996</ele><time>2026-04-19T09:12:37Z</time></trkpt><trkpt lat="45.94048310419892" lon="12.790905971210808"><ele>26.8</ele><time>2026-04-19T09:12:38Z</time></trkpt><trkpt lat="45.94040747071544" lon="12.790815880180448"><ele>26.4</ele><time>2026-04-19T09:12:39Z</time></trkpt><trkpt lat="45.94033413409997" lon="12.790712123123557"><ele>26.0</ele><time>2026-04-19T09:12:40Z</time></trkpt><trkpt lat="45.94025280733273" lon="12.79060743213623"><ele>26.0</ele><time>2026-04-19T09:12:41Z</time></trkpt><trkpt lat="45.940170633951276" lon="12.79052122249163"><ele>26.0</ele><time>2026-04-19T09:12:42Z</time></trkpt><trkpt lat="45.94008899093718" lon="12.790424414076998"><ele>26.0</ele><time>2026-04-19T09:12:43Z</time></trkpt><trkpt lat="45.94000872834733" lon="12.790338062540465"><ele>26.0</ele><time>2026-04-19T09:12:44Z</time></trkpt><trkpt lat="45.939930801129776" lon="12.790255036994699"><ele>26.0</ele><time>2026-04-19T09:12:45Z</time></trkpt><trkpt lat="45.93985250343874" lon="12.790178235163843"><ele>26.333333333333332</ele><time>2026-04-19T09:12:46Z</time></trkpt><trkpt lat="45.93977568232285" lon="12.790105035424236"><ele>26.666666666666664</ele><time>2026-04-19T09:12:47Z</time></trkpt><trkpt lat="45.939708423875395" lon="12.790036699260137"><ele>27.0</ele><time>2026-04-19T09:12:48Z</time></trkpt><trkpt lat="45.939644083256134" lon="12.789985079460322"><ele>27.333333333333336</ele><time>2026-04-19T09:12:49Z</time></trkpt><trkpt lat="45.93958415595703" lon="12.789953371005502"><ele>27.666666666666668</ele><time>2026-04-19T09:12:50Z</time></trkpt><trkpt lat="45.939516633738016" lon="12.789881611514712"><ele>28.0</ele><time>2026-04-19T09:12:52Z</time></trkpt><trkpt lat="45.939559907949594" lon="12.78977313951093"><ele>28.000000000000004</ele><time>2026-04-19T09:12:54Z</time></trkpt><trkpt lat="45.939626110179304" lon="12.78970935656293"><ele>28.0</ele><time>2026-04-19T09:12:55Z</time></trkpt><trkpt lat="45.939686562986495" lon="12.789623656632168"><ele>28.0</ele><time>2026-04-19T09:12:56Z</time></trkpt><trkpt lat="45.93974829048313" lon="12.789541456614543"><ele>28.0</ele><time>2026-04-19T09:12:57Z</time></trkpt><trkpt lat="45.93981493126817" lon="12.789443608237237"><ele>28.000000000000004</ele><time>2026-04-19T09:12:58Z</time></trkpt><trkpt lat="45.93988543516779" lon="12.789341699339202"><ele>28.0</ele><time>2026-04-19T09:12:59Z</time></trkpt><trkpt lat="45.939947655383094" lon="12.789241742790683"><ele>27.833333333333336</ele><time>2026-04-19T09:13:00Z</time></trkpt><trkpt lat="45.940005712304696" lon="12.789152007443665"><ele>27.666666666666668</ele><time>2026-04-19T09:13:01Z</time></trkpt><trkpt lat="45.94005557035318" lon="12.789071923123085"><ele>27.5</ele><time>2026-04-19T09:13:02Z</time></trkpt><trkpt lat="45.94012394433403" lon="12.788960265654392"><ele>27.333333333333336</ele><time>2026-04-19T09:13:04Z</time></trkpt><trkpt lat="45.940203317097335" lon="12.788958709143543"><ele>27.166666666666668</ele><time>2026-04-19T09:13:07Z</time></trkpt><trkpt lat="45.9402825401855" lon="12.78902410257148"><ele>27.0</ele><time>2026-04-19T09:13:09Z</time></trkpt><trkpt lat="45.94036017118464" lon="12.788982138770923"><ele>27.0</ele><time>2026-04-19T09:13:12Z</time></trkpt><trkpt lat="45.94038402306182" lon="12.788889842323083"><ele>27.000000000000004</ele><time>2026-04-19T09:13:15Z</time></trkpt><trkpt lat="45.94048445690698" lon="12.788892949797422"><ele>27.000000000000004</ele><time>2026-04-19T09:13:18Z</time></trkpt><trkpt lat="45.940560879933265" lon="12.788936319007497"><ele>27.0</ele><time>2026-04-19T09:13:19Z</time></trkpt><trkpt lat="45.940661267861834" lon="12.789049972023706"><ele>27.0</ele><time>2026-04-19T09:13:21Z</time></trkpt><trkpt lat="45.94070564538372" lon="12.78913862921088"><ele>27.0</ele><time>2026-04-19T09:13:22Z</time></trkpt><trkpt lat="45.94073986026368" lon="12.78925334079689"><ele>27.000000000000004</ele><time>2026-04-19T09:13:23Z</time></trkpt><trkpt lat="45.94077735009955" lon="12.789353576027406"><ele>27.000000000000004</ele><time>2026-04-19T09:13:24Z</time></trkpt><trkpt lat="45.94084524498352" lon="12.789431401813573"><ele>27.0</ele><time>2026-04-19T09:13:25Z</time></trkpt><trkpt lat="45.94093718965374" lon="12.78950129694218"><ele>27.0</ele><time>2026-04-19T09:13:26Z</time></trkpt><trkpt lat="45.94103182944302" lon="12.78957322625465"><ele>26.833333333333332</ele><time>2026-04-19T09:13:27Z</time></trkpt><trkpt lat="45.941111405328215" lon="12.789643813878005"><ele>26.666666666666664</ele><time>2026-04-19T09:13:28Z</time></trkpt><trkpt lat="45.941175660887716" lon="12.789710159148715"><ele>26.5</ele><time>2026-04-19T09:13:29Z</time></trkpt><trkpt lat="45.941235453534965" lon="12.789798139672776"><ele>26.333333333333332</ele><time>2026-04-19T09:13:30Z</time></trkpt><trkpt lat="45.94128368827533" lon="12.789886526758409"><ele>26.166666666666664</ele><time>2026-04-19T09:13:31Z</time></trkpt><trkpt lat="45.941331536124295" lon="12.789949086047862"><ele>26.0</ele><time>2026-04-19T09:13:32Z</time></trkpt><trkpt lat="45.941455078477865" lon="12.789969871989369"><ele>26.0</ele><time>2026-04-19T09:13:34Z</time></trkpt><trkpt lat="45.941533960422674" lon="12.789908489146484"><ele>26.0</ele><time>2026-04-19T09:13:35Z</time></trkpt><trkpt lat="45.9416092446131" lon="12.78981492258142"><ele>26.0</ele><time>2026-04-19T09:13:36Z</time></trkpt><trkpt lat="45.94169591560798" lon="12.78971003170911"><ele>26.0</ele><time>2026-04-19T09:13:37Z</time></trkpt><trkpt lat="45.94179138483553" lon="12.789618439050894"><ele>26.0</ele><time>2026-04-19T09:13:38Z</time></trkpt><trkpt lat="45.94188889388503" lon="12.789516090313159"><ele>26.0</ele><time>2026-04-19T09:13:39Z</time></trkpt><trkpt lat="45.94199511263714" lon="12.789414485396254"><ele>26.0</ele><time>2026-04-19T09:13:40Z</time></trkpt><trkpt lat="45.9420903602193" lon="12.789315893040522"><ele>26.0</ele><time>2026-04-19T09:13:41Z</time></trkpt><trkpt lat="45.94217897044907" lon="12.789234322772257"><ele>26.0</ele><time>2026-04-19T09:13:42Z</time></trkpt><trkpt lat="45.94225774548539" lon="12.7891514528231"><ele>26.0</ele><time>2026-04-19T09:13:43Z</time></trkpt><trkpt lat="45.94232488894999" lon="12.78909023745602"><ele>26.0</ele><time>2026-04-19T09:13:44Z</time></trkpt><trkpt lat="45.94241834012889" lon="12.789014370618188"><ele>26.0</ele><time>2026-04-19T09:13:46Z</time></trkpt><trkpt lat="45.94243240921714" lon="12.788925934232859"><ele>26.0</ele><time>2026-04-19T09:13:49Z</time></trkpt><trkpt lat="45.9423662477365" lon="12.78876445088625"><ele>26.0</ele><time>2026-04-19T09:13:51Z</time></trkpt><trkpt lat="45.942282443943704" lon="12.788649446828527"><ele>26.0</ele><time>2026-04-19T09:13:52Z</time></trkpt><trkpt lat="45.942221316302124" lon="12.788535298844392"><ele>26.0</ele><time>2026-04-19T09:13:53Z</time></trkpt><trkpt lat="45.94215856192136" lon="12.78842613945368"><ele>26.0</ele><time>2026-04-19T09:13:54Z</time></trkpt><trkpt lat="45.942090847240685" lon="12.788304278703315"><ele>26.0</ele><time>2026-04-19T09:13:55Z</time></trkpt><trkpt lat="45.942021969879754" lon="12.788179026843235"><ele>26.0</ele><time>2026-04-19T09:13:56Z</time></trkpt><trkpt lat="45.94194779955608" lon="12.788042571305475"><ele>26.0</ele><time>2026-04-19T09:13:57Z</time></trkpt><trkpt lat="45.94186542537626" lon="12.787899415402375"><ele>26.0</ele><time>2026-04-19T09:13:58Z</time></trkpt><trkpt lat="45.941785548745585" lon="12.787749571709577"><ele>26.0</ele><time>2026-04-19T09:13:59Z</time></trkpt><trkpt lat="45.94169886098424" lon="12.78758733177445"><ele>26.0</ele><time>2026-04-19T09:14:00Z</time></trkpt><trkpt lat="45.941609206142935" lon="12.787423236457872"><ele>26.0</ele><time>2026-04-19T09:14:01Z</time></trkpt><trkpt lat="45.941515083551685" lon="12.7872551044631"><ele>25.666666666666664</ele><time>2026-04-19T09:14:02Z</time></trkpt><trkpt lat="45.941416463261966" lon="12.787085263048429"><ele>25.333333333333336</ele><time>2026-04-19T09:14:03Z</time></trkpt><trkpt lat="45.94133258913917" lon="12.786926801390843"><ele>25.0</ele><time>2026-04-19T09:14:04Z</time></trkpt><trkpt lat="45.94123274747128" lon="12.786746426431293"><ele>25.0</ele><time>2026-04-19T09:14:05Z</time></trkpt><trkpt lat="45.94113129435552" lon="12.786576641448368"><ele>25.0</ele><time>2026-04-19T09:14:06Z</time></trkpt><trkpt lat="45.94103055259771" lon="12.786395529321297"><ele>25.0</ele><time>2026-04-19T09:14:07Z</time></trkpt><trkpt lat="45.940935611601546" lon="12.78622305827978"><ele>25.0</ele><time>2026-04-19T09:14:08Z</time></trkpt><trkpt lat="45.94083739618675" lon="12.786063588021445"><ele>25.0</ele><time>2026-04-19T09:14:09Z</time></trkpt><trkpt lat="45.94074022056252" lon="12.785926376133823"><ele>25.0</ele><time>2026-04-19T09:14:10Z</time></trkpt><trkpt lat="45.94065813943747" lon="12.785800123681687"><ele>25.0</ele><time>2026-04-19T09:14:11Z</time></trkpt><trkpt lat="45.94059031647401" lon="12.785683916563157"><ele>25.000000000000004</ele><time>2026-04-19T09:14:12Z</time></trkpt><trkpt lat="45.94053054788232" lon="12.78557583169023"><ele>25.0</ele><time>2026-04-19T09:14:13Z</time></trkpt><trkpt lat="45.940469213596586" lon="12.7854754042134"><ele>25.0</ele><time>2026-04-19T09:14:14Z</time></trkpt><trkpt lat="45.9404181131782" lon="12.785382156596214"><ele>25.0</ele><time>2026-04-19T09:14:15Z</time></trkpt><trkpt lat="45.940378886469276" lon="12.785294929164635"><ele>25.000000000000004</ele><time>2026-04-19T09:14:16Z</time></trkpt><trkpt lat="45.940330290723615" lon="12.78520480288444"><ele>25.0</ele><time>2026-04-19T09:14:17Z</time></trkpt><trkpt lat="45.940279293278174" lon="12.785116116632373"><ele>24.8</ele><time>2026-04-19T09:14:18Z</time></trkpt><trkpt lat="45.94024331418071" lon="12.785031328600269"><ele>24.6</ele><time>2026-04-19T09:14:19Z</time></trkpt><trkpt lat="45.94019239787535" lon="12.78495800167256"><ele>24.4</ele><time>2026-04-19T09:14:20Z</time></trkpt><trkpt lat="45.940116288962386" lon="12.784815905305127"><ele>24.2</ele><time>2026-04-19T09:14:22Z</time></trkpt><trkpt lat="45.94004942594083" lon="12.784693624420079"><ele>24.0</ele><time>2026-04-19T09:14:24Z</time></trkpt><trkpt lat="45.93997800027371" lon="12.78457928133259"><ele>23.857142857142854</ele><time>2026-04-19T09:14:26Z</time></trkpt><trkpt lat="45.93992389112167" lon="12.784470337687416"><ele>23.714285714285715</ele><time>2026-04-19T09:14:28Z</time></trkpt><trkpt lat="45.9399146162556" lon="12.784378584779171"><ele>23.57142857142857</ele><time>2026-04-19T09:14:34Z</time></trkpt><trkpt lat="45.93998458678411" lon="12.784327841313424"><ele>23.428571428571427</ele><time>2026-04-19T09:14:38Z</time></trkpt><trkpt lat="45.93992387040489" lon="12.784253178606546"><ele>23.285714285714285</ele><time>2026-04-19T09:14:40Z</time></trkpt><trkpt lat="45.9398627667211" lon="12.784215119941504"><ele>23.142857142857142</ele><time>2026-04-19T09:14:41Z</time></trkpt><trkpt lat="45.939802545601836" lon="12.784182907613593"><ele>23.0</ele><time>2026-04-19T09:14:43Z</time></trkpt><trkpt lat="45.93977888248382" lon="12.784281252563353"><ele>23.0</ele><time>2026-04-19T09:14:46Z</time></trkpt><trkpt lat="45.93978962417171" lon="12.784437011625704"><ele>23.0</ele><time>2026-04-19T09:14:48Z</time></trkpt><trkpt lat="45.939817339499704" lon="12.784532712781182"><ele>23.0</ele><time>2026-04-19T09:14:49Z</time></trkpt><trkpt lat="45.939869709537824" lon="12.78461962348505"><ele>23.0</ele><time>2026-04-19T09:14:50Z</time></trkpt><trkpt lat="45.939954342116295" lon="12.784636795052547"><ele>23.0</ele><time>2026-04-19T09:14:51Z</time></trkpt><trkpt lat="45.93999982536763" lon="12.784719785440657"><ele>23.0</ele><time>2026-04-19T09:14:53Z</time></trkpt><trkpt lat="45.93981590080642" lon="12.784958151765798"><ele>23.0</ele><time>2026-04-19T09:14:55Z</time></trkpt><trkpt lat="45.93974197739733" lon="12.785045788227201"><ele>23.0</ele><time>2026-04-19T09:14:56Z</time></trkpt><trkpt lat="45.939659361231946" lon="12.785135985579661"><ele>23.0</ele><time>2026-04-19T09:14:57Z</time></trkpt><trkpt lat="45.93957827102233" lon="12.78524528048113"><ele>23.0</ele><time>2026-04-19T09:14:58Z</time></trkpt><trkpt lat="45.939497781544766" lon="12.785363808618925"><ele>23.0</ele><time>2026-04-19T09:14:59Z</time></trkpt><trkpt lat="45.939407540049444" lon="12.785482204222651"><ele>23.25</ele><time>2026-04-19T09:15:00Z</time></trkpt><trkpt lat="45.939313337140284" lon="12.785605480228938"><ele>23.5</ele><time>2026-04-19T09:15:01Z</time></trkpt><trkpt lat="45.93921428070647" lon="12.785736856580796"><ele>23.75</ele><time>2026-04-19T09:15:02Z</time></trkpt><trkpt lat="45.93910346423473" lon="12.785876848482074"><ele>24.0</ele><time>2026-04-19T09:15:03Z</time></trkpt><trkpt lat="45.939013944329886" lon="12.786000909896616"><ele>24.2</ele><time>2026-04-19T09:15:04Z</time></trkpt><trkpt lat="45.93893481768714" lon="12.786109705816452"><ele>24.4</ele><time>2026-04-19T09:15:05Z</time></trkpt><trkpt lat="45.93886022543833" lon="12.786204608369676"><ele>24.6</ele><time>2026-04-19T09:15:06Z</time></trkpt><trkpt lat="45.938795442809216" lon="12.786294450766949"><ele>24.8</ele><time>2026-04-19T09:15:07Z</time></trkpt><trkpt lat="45.93873629570654" lon="12.78637673812325"><ele>25.0</ele><time>2026-04-19T09:15:08Z</time></trkpt><trkpt lat="45.93868313538253" lon="12.78644643154694"><ele>25.000000000000004</ele><time>2026-04-19T09:15:09Z</time></trkpt><trkpt lat="45.93863033642904" lon="12.786499258734464"><ele>25.0</ele><time>2026-04-19T09:15:10Z</time></trkpt><trkpt lat="45.938566726203305" lon="12.78652097348851"><ele>25.0</ele><time>2026-04-19T09:15:11Z</time></trkpt><trkpt lat="45.93848629942933" lon="12.78651093624218"><ele>25.0</ele><time>2026-04-19T09:15:12Z</time></trkpt><trkpt lat="45.93840975012765" lon="12.786468944551713"><ele>25.000000000000004</ele><time>2026-04-19T09:15:13Z</time></trkpt><trkpt lat="45.93832977477372" lon="12.786396899870315"><ele>25.0</ele><time>2026-04-19T09:15:14Z</time></trkpt><trkpt lat="45.93825260564145" lon="12.786320733634836"><ele>25.000000000000004</ele><time>2026-04-19T09:15:15Z</time></trkpt><trkpt lat="45.93816435212054" lon="12.786245533535846"><ele>25.0</ele><time>2026-04-19T09:15:16Z</time></trkpt><trkpt lat="45.93809079590647" lon="12.786183829637773"><ele>25.0</ele><time>2026-04-19T09:15:17Z</time></trkpt><trkpt lat="45.93801467726614" lon="12.786143044683154"><ele>25.0</ele><time>2026-04-19T09:15:18Z</time></trkpt><trkpt lat="45.93793431716566" lon="12.786119395887948"><ele>25.000000000000004</ele><time>2026-04-19T09:15:19Z</time></trkpt><trkpt lat="45.93784545293855" lon="12.786108544452539"><ele>25.0</ele><time>2026-04-19T09:15:20Z</time></trkpt><trkpt lat="45.937760533673746" lon="12.786083327518913"><ele>25.0</ele><time>2026-04-19T09:15:21Z</time></trkpt><trkpt lat="45.93766823884348" lon="12.786051461247308"><ele>25.0</ele><time>2026-04-19T09:15:22Z</time></trkpt><trkpt lat="45.93757495148234" lon="12.786007340336369"><ele>25.0</ele><time>2026-04-19T09:15:23Z</time></trkpt><trkpt lat="45.93748054871977" lon="12.785959050771293"><ele>25.0</ele><time>2026-04-19T09:15:24Z</time></trkpt><trkpt lat="45.93738782974487" lon="12.78589180742097"><ele>25.0</ele><time>2026-04-19T09:15:25Z</time></trkpt><trkpt lat="45.93729395084479" lon="12.785825338612767"><ele>25.333333333333336</ele><time>2026-04-19T09:15:26Z</time></trkpt><trkpt lat="45.93720627511751" lon="12.78577184744886"><ele>25.666666666666668</ele><time>2026-04-19T09:15:27Z</time></trkpt><trkpt lat="45.9371289857703" lon="12.785724614718491"><ele>26.0</ele><time>2026-04-19T09:15:28Z</time></trkpt><trkpt lat="45.9370562303392" lon="12.785683042387037"><ele>26.333333333333336</ele><time>2026-04-19T09:15:29Z</time></trkpt><trkpt lat="45.936986225694035" lon="12.785619649920138"><ele>26.666666666666668</ele><time>2026-04-19T09:15:30Z</time></trkpt><trkpt lat="45.93690967835447" lon="12.785569417218461"><ele>27.0</ele><time>2026-04-19T09:15:31Z</time></trkpt><trkpt lat="45.93684901413652" lon="12.785530727751517"><ele>27.0</ele><time>2026-04-19T09:15:32Z</time></trkpt><trkpt lat="45.93679462995486" lon="12.785483945176594"><ele>27.0</ele><time>2026-04-19T09:15:33Z</time></trkpt><trkpt lat="45.93673715545471" lon="12.785357970785801"><ele>27.0</ele><time>2026-04-19T09:15:35Z</time></trkpt><trkpt lat="45.9366631124471" lon="12.78518985468937"><ele>27.0</ele><time>2026-04-19T09:15:37Z</time></trkpt><trkpt lat="45.9366164111877" lon="12.785115066801234"><ele>27.0</ele><time>2026-04-19T09:15:38Z</time></trkpt><trkpt lat="45.936561262045586" lon="12.785057278098304"><ele>27.0</ele><time>2026-04-19T09:15:39Z</time></trkpt><trkpt lat="45.9365006181281" lon="12.785011963087102"><ele>27.0</ele><time>2026-04-19T09:15:40Z</time></trkpt><trkpt lat="45.93639464921515" lon="12.784954316583923"><ele>27.0</ele><time>2026-04-19T09:15:41Z</time></trkpt><trkpt lat="45.936264583343736" lon="12.784889826840157"><ele>27.0</ele><time>2026-04-19T09:15:42Z</time></trkpt><trkpt lat="45.93615439559287" lon="12.78483395248039"><ele>27.0</ele><time>2026-04-19T09:15:43Z</time></trkpt><trkpt lat="45.93605362874126" lon="12.784784691019313"><ele>27.0</ele><time>2026-04-19T09:15:44Z</time></trkpt><trkpt lat="45.93596760768232" lon="12.78474218108257"><ele>27.000000000000004</ele><time>2026-04-19T09:15:45Z</time></trkpt><trkpt lat="45.935901070705825" lon="12.784694876519579"><ele>27.000000000000004</ele><time>2026-04-19T09:15:46Z</time></trkpt><trkpt lat="45.93582341746828" lon="12.784633864549097"><ele>27.0</ele><time>2026-04-19T09:15:47Z</time></trkpt><trkpt lat="45.935738795794215" lon="12.784573795579075"><ele>27.0</ele><time>2026-04-19T09:15:48Z</time></trkpt><trkpt lat="45.93564266526878" lon="12.784523226727135"><ele>27.333333333333332</ele><time>2026-04-19T09:15:49Z</time></trkpt><trkpt lat="45.93555146270955" lon="12.78448294763486"><ele>27.666666666666664</ele><time>2026-04-19T09:15:50Z</time></trkpt><trkpt lat="45.93545979591253" lon="12.784475933149837"><ele>28.0</ele><time>2026-04-19T09:15:51Z</time></trkpt><trkpt lat="45.93538220666411" lon="12.784442575829937"><ele>28.333333333333332</ele><time>2026-04-19T09:15:52Z</time></trkpt><trkpt lat="45.93531815094988" lon="12.784417392657334"><ele>28.666666666666664</ele><time>2026-04-19T09:15:53Z</time></trkpt><trkpt lat="45.93525511257288" lon="12.784393701912723"><ele>29.0</ele><time>2026-04-19T09:15:54Z</time></trkpt><trkpt lat="45.93517623134645" lon="12.784365447505365"><ele>28.999999999999996</ele><time>2026-04-19T09:15:55Z</time></trkpt><trkpt lat="45.93509332463552" lon="12.784349082962434"><ele>29.0</ele><time>2026-04-19T09:15:56Z</time></trkpt><trkpt lat="45.935025834323255" lon="12.784324081212285"><ele>29.0</ele><time>2026-04-19T09:15:57Z</time></trkpt><trkpt lat="45.93494919192059" lon="12.784310535782623"><ele>29.0</ele><time>2026-04-19T09:15:58Z</time></trkpt><trkpt lat="45.934879786394944" lon="12.78431013897"><ele>28.999999999999996</ele><time>2026-04-19T09:15:59Z</time></trkpt><trkpt lat="45.93480181618819" lon="12.78433540113701"><ele>29.0</ele><time>2026-04-19T09:16:00Z</time></trkpt><trkpt lat="45.934724714933374" lon="12.78437846984782"><ele>29.333333333333332</ele><time>2026-04-19T09:16:01Z</time></trkpt><trkpt lat="45.934652877735665" lon="12.784436015670115"><ele>29.666666666666664</ele><time>2026-04-19T09:16:02Z</time></trkpt><trkpt lat="45.93458574162579" lon="12.78448760562851"><ele>30.0</ele><time>2026-04-19T09:16:03Z</time></trkpt><trkpt lat="45.93452076570873" lon="12.78451483249507"><ele>30.333333333333336</ele><time>2026-04-19T09:16:04Z</time></trkpt><trkpt lat="45.934453728464995" lon="12.784527689432663"><ele>30.666666666666668</ele><time>2026-04-19T09:16:05Z</time></trkpt><trkpt lat="45.934376523485824" lon="12.784508434023548"><ele>31.0</ele><time>2026-04-19T09:16:06Z</time></trkpt><trkpt lat="45.93429394638371" lon="12.784468231514868"><ele>31.8</ele><time>2026-04-19T09:16:07Z</time></trkpt><trkpt lat="45.93420564363738" lon="12.784419816963288"><ele>32.6</ele><time>2026-04-19T09:16:08Z</time></trkpt><trkpt lat="45.93412229113468" lon="12.784405449670052"><ele>33.4</ele><time>2026-04-19T09:16:09Z</time></trkpt><trkpt lat="45.934037322981325" lon="12.78440961745346"><ele>34.2</ele><time>2026-04-19T09:16:10Z</time></trkpt><trkpt lat="45.93394376988093" lon="12.784425898103423"><ele>35.0</ele><time>2026-04-19T09:16:11Z</time></trkpt><trkpt lat="45.93385176365917" lon="12.784448205063109"><ele>35.0</ele><time>2026-04-19T09:16:12Z</time></trkpt><trkpt lat="45.9337692616549" lon="12.784465229435979"><ele>35.0</ele><time>2026-04-19T09:16:13Z</time></trkpt><trkpt lat="45.93369263921847" lon="12.784478278937488"><ele>35.0</ele><time>2026-04-19T09:16:14Z</time></trkpt><trkpt lat="45.93358508196379" lon="12.784539515135029"><ele>35.0</ele><time>2026-04-19T09:16:16Z</time></trkpt><trkpt lat="45.9335046115977" lon="12.784612436845158"><ele>35.0</ele><time>2026-04-19T09:16:18Z</time></trkpt><trkpt lat="45.93347154284019" lon="12.784719440029502"><ele>35.0</ele><time>2026-04-19T09:16:20Z</time></trkpt><trkpt lat="45.93344227767838" lon="12.784808585339492"><ele>35.0</ele><time>2026-04-19T09:16:21Z</time></trkpt><trkpt lat="45.93340671706172" lon="12.784903916738955"><ele>35.0</ele><time>2026-04-19T09:16:22Z</time></trkpt><trkpt lat="45.93336269437388" lon="12.78501072510493"><ele>35.0</ele><time>2026-04-19T09:16:23Z</time></trkpt><trkpt lat="45.93330469390776" lon="12.785159598062721"><ele>35.0</ele><time>2026-04-19T09:16:24Z</time></trkpt><trkpt lat="45.93325287660565" lon="12.785320659392507"><ele>34.5</ele><time>2026-04-19T09:16:25Z</time></trkpt><trkpt lat="45.933221137149694" lon="12.785446705995126"><ele>34.0</ele><time>2026-04-19T09:16:26Z</time></trkpt><trkpt lat="45.93319374966485" lon="12.785551820860176"><ele>33.5</ele><time>2026-04-19T09:16:27Z</time></trkpt><trkpt lat="45.93316180259834" lon="12.785661437341235"><ele>33.0</ele><time>2026-04-19T09:16:28Z</time></trkpt><trkpt lat="45.93312289098147" lon="12.785756311606189"><ele>32.5</ele><time>2026-04-19T09:16:29Z</time></trkpt><trkpt lat="45.93307811067336" lon="12.785851381260192"><ele>32.0</ele><time>2026-04-19T09:16:30Z</time></trkpt><trkpt lat="45.93304963514273" lon="12.785940410901329"><ele>30.6</ele><time>2026-04-19T09:16:31Z</time></trkpt><trkpt lat="45.93300930554723" lon="12.786042809435111"><ele>29.200000000000003</ele><time>2026-04-19T09:16:32Z</time></trkpt><trkpt lat="45.9329764342426" lon="12.78613827903841"><ele>27.8</ele><time>2026-04-19T09:16:33Z</time></trkpt><trkpt lat="45.93292646820097" lon="12.786285354982988"><ele>26.4</ele><time>2026-04-19T09:16:35Z</time></trkpt><trkpt lat="45.93288914251646" lon="12.78637530736377"><ele>25.0</ele><time>2026-04-19T09:16:38Z</time></trkpt><trkpt lat="45.93280560833389" lon="12.786501617390185"><ele>25.000000000000004</ele><time>2026-04-19T09:16:40Z</time></trkpt><trkpt lat="45.93275302095612" lon="12.786576348348786"><ele>25.0</ele><time>2026-04-19T09:16:41Z</time></trkpt><trkpt lat="45.93269213188671" lon="12.786653750042667"><ele>25.0</ele><time>2026-04-19T09:16:42Z</time></trkpt><trkpt lat="45.932617276909845" lon="12.786752948196945"><ele>25.0</ele><time>2026-04-19T09:16:43Z</time></trkpt><trkpt lat="45.93254431342641" lon="12.78683483921172"><ele>25.000000000000004</ele><time>2026-04-19T09:16:44Z</time></trkpt><trkpt lat="45.93247149272682" lon="12.786921312265628"><ele>25.0</ele><time>2026-04-19T09:16:45Z</time></trkpt><trkpt lat="45.932396697769455" lon="12.787017421793978"><ele>24.8</ele><time>2026-04-19T09:16:46Z</time></trkpt><trkpt lat="45.93231016556361" lon="12.78712279359781"><ele>24.6</ele><time>2026-04-19T09:16:47Z</time></trkpt><trkpt lat="45.93222819960692" lon="12.78722725215313"><ele>24.4</ele><time>2026-04-19T09:16:48Z</time></trkpt><trkpt lat="45.93214705766445" lon="12.787328346221393"><ele>24.2</ele><time>2026-04-19T09:16:49Z</time></trkpt><trkpt lat="45.932062315581625" lon="12.787436015942642"><ele>24.0</ele><time>2026-04-19T09:16:50Z</time></trkpt><trkpt lat="45.93198944689356" lon="12.787539508245027"><ele>24.0</ele><time>2026-04-19T09:16:51Z</time></trkpt><trkpt lat="45.93191099530683" lon="12.787634394743531"><ele>24.0</ele><time>2026-04-19T09:16:52Z</time></trkpt><trkpt lat="45.93183752412741" lon="12.787731150004566"><ele>24.0</ele><time>2026-04-19T09:16:53Z</time></trkpt><trkpt lat="45.931751112462294" lon="12.787836369905762"><ele>24.0</ele><time>2026-04-19T09:16:54Z</time></trkpt><trkpt lat="45.93166588370388" lon="12.787941444499564"><ele>24.0</ele><time>2026-04-19T09:16:55Z</time></trkpt><trkpt lat="45.93158326922853" lon="12.788043077721426"><ele>24.0</ele><time>2026-04-19T09:16:56Z</time></trkpt><trkpt lat="45.931503593401644" lon="12.788146671759515"><ele>24.0</ele><time>2026-04-19T09:16:57Z</time></trkpt><trkpt lat="45.93142530759554" lon="12.788246340541493"><ele>24.0</ele><time>2026-04-19T09:16:58Z</time></trkpt><trkpt lat="45.9313453751762" lon="12.788346429365436"><ele>24.0</ele><time>2026-04-19T09:16:59Z</time></trkpt><trkpt lat="45.93126891760493" lon="12.78843992712872"><ele>24.0</ele><time>2026-04-19T09:17:00Z</time></trkpt><trkpt lat="45.93118776654676" lon="12.788545142375801"><ele>24.0</ele><time>2026-04-19T09:17:01Z</time></trkpt><trkpt lat="45.931103219431655" lon="12.788653303497801"><ele>24.0</ele><time>2026-04-19T09:17:02Z</time></trkpt><trkpt lat="45.93102737749792" lon="12.788758082906975"><ele>24.0</ele><time>2026-04-19T09:17:03Z</time></trkpt><trkpt lat="45.93095371524864" lon="12.788849938189504"><ele>24.0</ele><time>2026-04-19T09:17:04Z</time></trkpt><trkpt lat="45.93089278240781" lon="12.788942661294614"><ele>24.0</ele><time>2026-04-19T09:17:05Z</time></trkpt><trkpt lat="45.930817545562334" lon="12.789038707829015"><ele>23.799999999999997</ele><time>2026-04-19T09:17:06Z</time></trkpt><trkpt lat="45.930720580082486" lon="12.789153223616381"><ele>23.599999999999998</ele><time>2026-04-19T09:17:07Z</time></trkpt><trkpt lat="45.93064786395042" lon="12.789246353617907"><ele>23.4</ele><time>2026-04-19T09:17:08Z</time></trkpt><trkpt lat="45.93056970746218" lon="12.789345603230942"><ele>23.2</ele><time>2026-04-19T09:17:09Z</time></trkpt><trkpt lat="45.93049132505757" lon="12.789443881547644"><ele>23.0</ele><time>2026-04-19T09:17:10Z</time></trkpt><trkpt lat="45.93042222578801" lon="12.789532136824807"><ele>23.0</ele><time>2026-04-19T09:17:11Z</time></trkpt><trkpt lat="45.93036103476077" lon="12.78960950409699"><ele>23.0</ele><time>2026-04-19T09:17:12Z</time></trkpt><trkpt lat="45.93026829819416" lon="12.78971001423583"><ele>23.0</ele><time>2026-04-19T09:17:14Z</time></trkpt><trkpt lat="45.93024454075799" lon="12.789801248710061"><ele>23.0</ele><time>2026-04-19T09:17:17Z</time></trkpt><trkpt lat="45.93028091991022" lon="12.7899158115021"><ele>23.0</ele><time>2026-04-19T09:17:19Z</time></trkpt><trkpt lat="45.93033928162377" lon="12.790012096605462"><ele>23.0</ele><time>2026-04-19T09:17:20Z</time></trkpt><trkpt lat="45.930418225496524" lon="12.790111784678365"><ele>23.0</ele><time>2026-04-19T09:17:21Z</time></trkpt><trkpt lat="45.930484526410524" lon="12.790205095001225"><ele>23.0</ele><time>2026-04-19T09:17:22Z</time></trkpt><trkpt lat="45.930519369796826" lon="12.790294371772942"><ele>23.0</ele><time>2026-04-19T09:17:24Z</time></trkpt><trkpt lat="45.93044984300808" lon="12.790345461027577"><ele>23.0</ele><time>2026-04-19T09:17:26Z</time></trkpt><trkpt lat="45.93033226431655" lon="12.790210132192703"><ele>23.0</ele><time>2026-04-19T09:17:28Z</time></trkpt><trkpt lat="45.93029340968202" lon="12.790124283564818"><ele>23.0</ele><time>2026-04-19T09:17:29Z</time></trkpt><trkpt lat="45.93021916585995" lon="12.789991346388408"><ele>23.0</ele><time>2026-04-19T09:17:32Z</time></trkpt><trkpt lat="45.930161122562765" lon="12.789895000215685"><ele>23.0</ele><time>2026-04-19T09:17:33Z</time></trkpt><trkpt lat="45.93008720656281" lon="12.789790197121976"><ele>23.0</ele><time>2026-04-19T09:17:34Z</time></trkpt><trkpt lat="45.93000355770541" lon="12.78967671266661"><ele>23.0</ele><time>2026-04-19T09:17:35Z</time></trkpt><trkpt lat="45.92991477550685" lon="12.789548398488025"><ele>23.0</ele><time>2026-04-19T09:17:36Z</time></trkpt><trkpt lat="45.929834180808506" lon="12.78943609075536"><ele>23.0</ele><time>2026-04-19T09:17:37Z</time></trkpt><trkpt lat="45.92975990079613" lon="12.789325227528373"><ele>23.0</ele><time>2026-04-19T09:17:38Z</time></trkpt><trkpt lat="45.929678138505764" lon="12.789219778845496"><ele>23.0</ele><time>2026-04-19T09:17:39Z</time></trkpt><trkpt lat="45.929582395384756" lon="12.789111784987396"><ele>23.0</ele><time>2026-04-19T09:17:40Z</time></trkpt><trkpt lat="45.9294822316937" lon="12.789010820529738"><ele>23.0</ele><time>2026-04-19T09:17:41Z</time></trkpt><trkpt lat="45.92939075908039" lon="12.788888303193167"><ele>23.0</ele><time>2026-04-19T09:17:42Z</time></trkpt><trkpt lat="45.92928899765411" lon="12.78878650708318"><ele>23.0</ele><time>2026-04-19T09:17:43Z</time></trkpt><trkpt lat="45.9291947881762" lon="12.788668644901563"><ele>23.25</ele><time>2026-04-19T09:17:44Z</time></trkpt><trkpt lat="45.92909182141555" lon="12.788553622467212"><ele>23.5</ele><time>2026-04-19T09:17:45Z</time></trkpt><trkpt lat="45.92899533083866" lon="12.788442303683818"><ele>23.75</ele><time>2026-04-19T09:17:46Z</time></trkpt><trkpt lat="45.9288918369248" lon="12.788331883476937"><ele>24.0</ele><time>2026-04-19T09:17:47Z</time></trkpt><trkpt lat="45.92879142863061" lon="12.7882334043538"><ele>24.0</ele><time>2026-04-19T09:17:48Z</time></trkpt><trkpt lat="45.92869565347163" lon="12.788102196203438"><ele>24.0</ele><time>2026-04-19T09:17:49Z</time></trkpt><trkpt lat="45.92857708626604" lon="12.787958513102325"><ele>24.0</ele><time>2026-04-19T09:17:50Z</time></trkpt><trkpt lat="45.928439765866834" lon="12.787825631379652"><ele>23.5</ele><time>2026-04-19T09:17:51Z</time></trkpt><trkpt lat="45.92831049683172" lon="12.787690862683307"><ele>23.0</ele><time>2026-04-19T09:17:52Z</time></trkpt><trkpt lat="45.928209519333585" lon="12.787594318688347"><ele>22.5</ele><time>2026-04-19T09:17:53Z</time></trkpt><trkpt lat="45.92811247576431" lon="12.787462855076567"><ele>22.0</ele><time>2026-04-19T09:17:54Z</time></trkpt><trkpt lat="45.92801916552671" lon="12.78737632448507"><ele>22.0</ele><time>2026-04-19T09:17:55Z</time></trkpt><trkpt lat="45.927946836301324" lon="12.787304144229228"><ele>22.0</ele><time>2026-04-19T09:17:56Z</time></trkpt><trkpt lat="45.927871794872175" lon="12.787245859424608"><ele>22.0</ele><time>2026-04-19T09:17:57Z</time></trkpt><trkpt lat="45.92780931213508" lon="12.787192879191934"><ele>22.0</ele><time>2026-04-19T09:17:58Z</time></trkpt><trkpt lat="45.92767831059085" lon="12.78721104789062"><ele>22.0</ele><time>2026-04-19T09:18:00Z</time></trkpt><trkpt lat="45.92757804535218" lon="12.787268256104898"><ele>22.25</ele><time>2026-04-19T09:18:01Z</time></trkpt><trkpt lat="45.92746185809813" lon="12.787345549012864"><ele>22.5</ele><time>2026-04-19T09:18:02Z</time></trkpt><trkpt lat="45.92732846408517" lon="12.787423078293482"><ele>22.75</ele><time>2026-04-19T09:18:03Z</time></trkpt><trkpt lat="45.92721184513515" lon="12.787487697601012"><ele>23.0</ele><time>2026-04-19T09:18:04Z</time></trkpt><trkpt lat="45.92710640248638" lon="12.78753524803453"><ele>23.0</ele><time>2026-04-19T09:18:05Z</time></trkpt><trkpt lat="45.92700553802601" lon="12.78756257011092"><ele>23.0</ele><time>2026-04-19T09:18:06Z</time></trkpt><trkpt lat="45.92688739841552" lon="12.787572275928412"><ele>23.0</ele><time>2026-04-19T09:18:07Z</time></trkpt><trkpt lat="45.92675321212872" lon="12.787575984819803"><ele>23.0</ele><time>2026-04-19T09:18:08Z</time></trkpt><trkpt lat="45.92661257510194" lon="12.787578016911205"><ele>23.0</ele><time>2026-04-19T09:18:09Z</time></trkpt><trkpt lat="45.92645990417169" lon="12.787581427005314"><ele>23.0</ele><time>2026-04-19T09:18:10Z</time></trkpt><trkpt lat="45.926320950424625" lon="12.787577356247718"><ele>23.0</ele><time>2026-04-19T09:18:11Z</time></trkpt><trkpt lat="45.926193234537514" lon="12.787576019467231"><ele>23.0</ele><time>2026-04-19T09:18:12Z</time></trkpt><trkpt lat="45.926071235888" lon="12.787582220304616"><ele>23.0</ele><time>2026-04-19T09:18:13Z</time></trkpt><trkpt lat="45.92595727843891" lon="12.787585573382312"><ele>23.0</ele><time>2026-04-19T09:18:14Z</time></trkpt><trkpt lat="45.92584221738002" lon="12.78758542176393"><ele>23.0</ele><time>2026-04-19T09:18:15Z</time></trkpt><trkpt lat="45.925729680432916" lon="12.787581929257483"><ele>23.0</ele><time>2026-04-19T09:18:16Z</time></trkpt><trkpt lat="45.92562153849911" lon="12.787581268356494"><ele>22.833333333333336</ele><time>2026-04-19T09:18:17Z</time></trkpt><trkpt lat="45.92552837733837" lon="12.787581855080948"><ele>22.666666666666668</ele><time>2026-04-19T09:18:18Z</time></trkpt><trkpt lat="45.925445607758256" lon="12.787582503483753"><ele>22.5</ele><time>2026-04-19T09:18:19Z</time></trkpt><trkpt lat="45.925367106765435" lon="12.787580862371943"><ele>22.333333333333332</ele><time>2026-04-19T09:18:20Z</time></trkpt><trkpt lat="45.925297615379094" lon="12.787572363163262"><ele>22.166666666666664</ele><time>2026-04-19T09:18:21Z</time></trkpt><trkpt lat="45.92518437441669" lon="12.787588783010102"><ele>22.0</ele><time>2026-04-19T09:18:23Z</time></trkpt><trkpt lat="45.92512201480542" lon="12.787715073517539"><ele>22.400000000000002</ele><time>2026-04-19T09:18:25Z</time></trkpt><trkpt lat="45.92515580553356" lon="12.787869365281308"><ele>22.8</ele><time>2026-04-19T09:18:27Z</time></trkpt><trkpt lat="45.925200073436436" lon="12.787974436042205"><ele>23.2</ele><time>2026-04-19T09:18:28Z</time></trkpt><trkpt lat="45.925255571104714" lon="12.788100904618556"><ele>23.6</ele><time>2026-04-19T09:18:29Z</time></trkpt><trkpt lat="45.92531290512995" lon="12.788252230667059"><ele>24.0</ele><time>2026-04-19T09:18:30Z</time></trkpt><trkpt lat="45.92527881234311" lon="12.788499979505323"><ele>23.75</ele><time>2026-04-19T09:18:31Z</time></trkpt><trkpt lat="45.92534965891375" lon="12.788699276588371"><ele>23.5</ele><time>2026-04-19T09:18:32Z</time></trkpt><trkpt lat="45.92541384293781" lon="12.788879831396429"><ele>23.25</ele><time>2026-04-19T09:18:33Z</time></trkpt><trkpt lat="45.925469754495104" lon="12.789037115090244"><ele>23.0</ele><time>2026-04-19T09:18:34Z</time></trkpt><trkpt lat="45.925519901490375" lon="12.789176444090176"><ele>23.0</ele><time>2026-04-19T09:18:35Z</time></trkpt><trkpt lat="45.92556688594887" lon="12.789306504877736"><ele>23.0</ele><time>2026-04-19T09:18:36Z</time></trkpt><trkpt lat="45.92561663727152" lon="12.789432421918912"><ele>23.0</ele><time>2026-04-19T09:18:37Z</time></trkpt><trkpt lat="45.9256655157443" lon="12.789544652567601"><ele>23.0</ele><time>2026-04-19T09:18:38Z</time></trkpt><trkpt lat="45.92570430109873" lon="12.789636670823445"><ele>23.0</ele><time>2026-04-19T09:18:39Z</time></trkpt><trkpt lat="45.92572655051651" lon="12.7897321698428"><ele>23.0</ele><time>2026-04-19T09:18:41Z</time></trkpt><trkpt lat="45.92563030004902" lon="12.789887440217491"><ele>23.0</ele><time>2026-04-19T09:18:44Z</time></trkpt><trkpt lat="45.92551299043286" lon="12.789957319738603"><ele>23.0</ele><time>2026-04-19T09:18:45Z</time></trkpt><trkpt lat="45.9253828373153" lon="12.79002284433857"><ele>23.0</ele><time>2026-04-19T09:18:46Z</time></trkpt><trkpt lat="45.92526578821647" lon="12.790075315042174"><ele>23.0</ele><time>2026-04-19T09:18:47Z</time></trkpt><trkpt lat="45.92517635360806" lon="12.79012701740018"><ele>23.0</ele><time>2026-04-19T09:18:48Z</time></trkpt><trkpt lat="45.92510872920774" lon="12.790172908970458"><ele>23.0</ele><time>2026-04-19T09:18:49Z</time></trkpt><trkpt lat="45.92503920453031" lon="12.790258746452073"><ele>23.0</ele><time>2026-04-19T09:18:51Z</time></trkpt><trkpt lat="45.92506139869431" lon="12.790429421668374"><ele>23.0</ele><time>2026-04-19T09:18:53Z</time></trkpt><trkpt lat="45.92510925437828" lon="12.790527804282315"><ele>23.0</ele><time>2026-04-19T09:18:54Z</time></trkpt><trkpt lat="45.925193487827556" lon="12.79065040201296"><ele>23.25</ele><time>2026-04-19T09:18:55Z</time></trkpt><trkpt lat="45.92528461537629" lon="12.790798271077856"><ele>23.5</ele><time>2026-04-19T09:18:56Z</time></trkpt><trkpt lat="45.925378717575086" lon="12.79095976004812"><ele>23.75</ele><time>2026-04-19T09:18:57Z</time></trkpt><trkpt lat="45.92548083034649" lon="12.791145927147072"><ele>24.0</ele><time>2026-04-19T09:18:58Z</time></trkpt><trkpt lat="45.92559601556748" lon="12.79135868017786"><ele>24.333333333333336</ele><time>2026-04-19T09:18:59Z</time></trkpt><trkpt lat="45.92569750311664" lon="12.791595218428869"><ele>24.666666666666668</ele><time>2026-04-19T09:19:00Z</time></trkpt><trkpt lat="45.92580209043332" lon="12.791768010464166"><ele>25.0</ele><time>2026-04-19T09:19:01Z</time></trkpt><trkpt lat="45.92589650071269" lon="12.79192666930796"><ele>24.5</ele><time>2026-04-19T09:19:02Z</time></trkpt><trkpt lat="45.925970827971824" lon="12.792069086338165"><ele>24.0</ele><time>2026-04-19T09:19:03Z</time></trkpt><trkpt lat="45.92604307596943" lon="12.792208400734832"><ele>23.5</ele><time>2026-04-19T09:19:04Z</time></trkpt><trkpt lat="45.926114789639534" lon="12.792340602739333"><ele>23.0</ele><time>2026-04-19T09:19:05Z</time></trkpt><trkpt lat="45.926181495612674" lon="12.792474956796623"><ele>23.0</ele><time>2026-04-19T09:19:06Z</time></trkpt><trkpt lat="45.926244987776116" lon="12.792594881196555"><ele>23.0</ele><time>2026-04-19T09:19:07Z</time></trkpt><trkpt lat="45.92630106266868" lon="12.792719230523101"><ele>23.0</ele><time>2026-04-19T09:19:08Z</time></trkpt><trkpt lat="45.926348280128856" lon="12.792821010339097"><ele>23.0</ele><time>2026-04-19T09:19:09Z</time></trkpt><trkpt lat="45.92639364456188" lon="12.792904297314394"><ele>23.0</ele><time>2026-04-19T09:19:10Z</time></trkpt><trkpt lat="45.9264327723655" lon="12.792981281756523"><ele>23.0</ele><time>2026-04-19T09:19:11Z</time></trkpt><trkpt lat="45.92646359196404" lon="12.79311373023532"><ele>23.5</ele><time>2026-04-19T09:19:13Z</time></trkpt><trkpt lat="45.92636633783147" lon="12.793230546104626"><ele>24.0</ele><time>2026-04-19T09:19:15Z</time></trkpt><trkpt lat="45.926279399744416" lon="12.793333595126978"><ele>24.5</ele><time>2026-04-19T09:19:16Z</time></trkpt><trkpt lat="45.92616886064056" lon="12.79345755454818"><ele>25.0</ele><time>2026-04-19T09:19:17Z</time></trkpt><trkpt lat="45.926051831477" lon="12.793590535774571"><ele>25.5</ele><time>2026-04-19T09:19:18Z</time></trkpt><trkpt lat="45.92591674561701" lon="12.793744034976063"><ele>26.0</ele><time>2026-04-19T09:19:19Z</time></trkpt><trkpt lat="45.92580266195604" lon="12.793872886096324"><ele>26.5</ele><time>2026-04-19T09:19:20Z</time></trkpt><trkpt lat="45.92572054093775" lon="12.793992485012739"><ele>27.0</ele><time>2026-04-19T09:19:21Z</time></trkpt><trkpt lat="45.925623150452104" lon="12.794092578025955"><ele>27.0</ele><time>2026-04-19T09:19:22Z</time></trkpt><trkpt lat="45.92554211105068" lon="12.794176626960027"><ele>27.000000000000004</ele><time>2026-04-19T09:19:23Z</time></trkpt><trkpt lat="45.92546613586632" lon="12.794228218931517"><ele>27.000000000000004</ele><time>2026-04-19T09:19:24Z</time></trkpt><trkpt lat="45.92542424462644" lon="12.794303808133458"><ele>27.0</ele><time>2026-04-19T09:19:25Z</time></trkpt><trkpt lat="45.9253632541686" lon="12.794391394455486"><ele>27.0</ele><time>2026-04-19T09:19:27Z</time></trkpt><trkpt lat="45.92540009297837" lon="12.794559932276586"><ele>27.400000000000002</ele><time>2026-04-19T09:19:29Z</time></trkpt><trkpt lat="45.92545453553638" lon="12.79465995701139"><ele>27.800000000000004</ele><time>2026-04-19T09:19:30Z</time></trkpt><trkpt lat="45.925523718333395" lon="12.794763229530911"><ele>28.2</ele><time>2026-04-19T09:19:31Z</time></trkpt><trkpt lat="45.925597748768766" lon="12.794873519032048"><ele>28.6</ele><time>2026-04-19T09:19:32Z</time></trkpt><trkpt lat="45.925675478375425" lon="12.795003528533089"><ele>29.0</ele><time>2026-04-19T09:19:33Z</time></trkpt><trkpt lat="45.92575248497925" lon="12.795133314834041"><ele>29.0</ele><time>2026-04-19T09:19:34Z</time></trkpt><trkpt lat="45.925830632722146" lon="12.795262368436472"><ele>29.0</ele><time>2026-04-19T09:19:35Z</time></trkpt><trkpt lat="45.92589977308738" lon="12.79539564588727"><ele>29.0</ele><time>2026-04-19T09:19:36Z</time></trkpt><trkpt lat="45.92597203140516" lon="12.795519603476107"><ele>29.0</ele><time>2026-04-19T09:19:37Z</time></trkpt><trkpt lat="45.92604395777372" lon="12.795640995423508"><ele>28.75</ele><time>2026-04-19T09:19:38Z</time></trkpt><trkpt lat="45.92611950750419" lon="12.795762728562279"><ele>28.5</ele><time>2026-04-19T09:19:39Z</time></trkpt><trkpt lat="45.92620070644794" lon="12.79589864099961"><ele>28.25</ele><time>2026-04-19T09:19:40Z</time></trkpt><trkpt lat="45.9262916999791" lon="12.796056304129872"><ele>28.0</ele><time>2026-04-19T09:19:41Z</time></trkpt><trkpt lat="45.926389232419076" lon="12.796210165824977"><ele>28.0</ele><time>2026-04-19T09:19:42Z</time></trkpt><trkpt lat="45.92646889241827" lon="12.796370294869625"><ele>28.0</ele><time>2026-04-19T09:19:43Z</time></trkpt><trkpt lat="45.92656283454875" lon="12.796495046045006"><ele>28.0</ele><time>2026-04-19T09:19:44Z</time></trkpt><trkpt lat="45.9266363837714" lon="12.796627994871837"><ele>28.0</ele><time>2026-04-19T09:19:45Z</time></trkpt><trkpt lat="45.926725861359856" lon="12.796759757657552"><ele>27.75</ele><time>2026-04-19T09:19:46Z</time></trkpt><trkpt lat="45.926814456547355" lon="12.796870670231627"><ele>27.5</ele><time>2026-04-19T09:19:47Z</time></trkpt><trkpt lat="45.926893833418845" lon="12.797001983039163"><ele>27.25</ele><time>2026-04-19T09:19:48Z</time></trkpt><trkpt lat="45.92698633692681" lon="12.797120676975897"><ele>27.0</ele><time>2026-04-19T09:19:49Z</time></trkpt><trkpt lat="45.92709269119903" lon="12.797220769086088"><ele>27.0</ele><time>2026-04-19T09:19:50Z</time></trkpt><trkpt lat="45.92717787812758" lon="12.797332288997318"><ele>27.0</ele><time>2026-04-19T09:19:51Z</time></trkpt><trkpt lat="45.92726824573987" lon="12.797444173807854"><ele>27.0</ele><time>2026-04-19T09:19:52Z</time></trkpt><trkpt lat="45.927356411238954" lon="12.797557239627132"><ele>27.0</ele><time>2026-04-19T09:19:53Z</time></trkpt><trkpt lat="45.92745144742926" lon="12.797688754334992"><ele>26.75</ele><time>2026-04-19T09:19:54Z</time></trkpt><trkpt lat="45.92755642482501" lon="12.797829772817943"><ele>26.5</ele><time>2026-04-19T09:19:55Z</time></trkpt><trkpt lat="45.92766594813129" lon="12.797961575268092"><ele>26.25</ele><time>2026-04-19T09:19:56Z</time></trkpt><trkpt lat="45.92777795691938" lon="12.79810497482119"><ele>26.0</ele><time>2026-04-19T09:19:57Z</time></trkpt><trkpt lat="45.92787188335511" lon="12.798224194648027"><ele>26.0</ele><time>2026-04-19T09:19:58Z</time></trkpt><trkpt lat="45.927955455226446" lon="12.798362722190284"><ele>26.0</ele><time>2026-04-19T09:19:59Z</time></trkpt><trkpt lat="45.92804969666763" lon="12.79848911217466"><ele>26.0</ele><time>2026-04-19T09:20:00Z</time></trkpt><trkpt lat="45.92814336518114" lon="12.798614241499243"><ele>26.0</ele><time>2026-04-19T09:20:01Z</time></trkpt><trkpt lat="45.92824373890233" lon="12.798748229717658"><ele>26.25</ele><time>2026-04-19T09:20:02Z</time></trkpt><trkpt lat="45.92834274732971" lon="12.798883361555243"><ele>26.5</ele><time>2026-04-19T09:20:03Z</time></trkpt><trkpt lat="45.928436658807136" lon="12.799018950416158"><ele>26.75</ele><time>2026-04-19T09:20:04Z</time></trkpt><trkpt lat="45.92853051393052" lon="12.79916741063398"><ele>27.0</ele><time>2026-04-19T09:20:05Z</time></trkpt><trkpt lat="45.92862421116153" lon="12.799325139021896"><ele>27.0</ele><time>2026-04-19T09:20:06Z</time></trkpt><trkpt lat="45.92871971145811" lon="12.79949296108331"><ele>27.0</ele><time>2026-04-19T09:20:07Z</time></trkpt><trkpt lat="45.928811391184645" lon="12.799652170519549"><ele>27.0</ele><time>2026-04-19T09:20:08Z</time></trkpt><trkpt lat="45.92890524181715" lon="12.799813617365858"><ele>27.0</ele><time>2026-04-19T09:20:09Z</time></trkpt><trkpt lat="45.929001483517204" lon="12.799979177454953"><ele>27.0</ele><time>2026-04-19T09:20:10Z</time></trkpt><trkpt lat="45.92909627153357" lon="12.80012625567063"><ele>27.0</ele><time>2026-04-19T09:20:11Z</time></trkpt><trkpt lat="45.92920822441201" lon="12.800244059662646"><ele>27.0</ele><time>2026-04-19T09:20:12Z</time></trkpt><trkpt lat="45.92932027742519" lon="12.800374961813242"><ele>27.0</ele><time>2026-04-19T09:20:13Z</time></trkpt><trkpt lat="45.929431399464306" lon="12.800506805351677"><ele>27.0</ele><time>2026-04-19T09:20:14Z</time></trkpt><trkpt lat="45.929525824342115" lon="12.800654759630847"><ele>27.0</ele><time>2026-04-19T09:20:15Z</time></trkpt><trkpt lat="45.929647528203596" lon="12.800782732755575"><ele>27.0</ele><time>2026-04-19T09:20:16Z</time></trkpt><trkpt lat="45.92974207215649" lon="12.80093839485823"><ele>27.0</ele><time>2026-04-19T09:20:17Z</time></trkpt><trkpt lat="45.9298435651497" lon="12.801072425457702"><ele>27.0</ele><time>2026-04-19T09:20:18Z</time></trkpt><trkpt lat="45.92995611467884" lon="12.801221057209084"><ele>27.0</ele><time>2026-04-19T09:20:19Z</time></trkpt><trkpt lat="45.93007498474949" lon="12.801350900264396"><ele>27.0</ele><time>2026-04-19T09:20:20Z</time></trkpt><trkpt lat="45.930183742306106" lon="12.801496636660092"><ele>27.0</ele><time>2026-04-19T09:20:21Z</time></trkpt><trkpt lat="45.93031692131514" lon="12.80163741971301"><ele>27.0</ele><time>2026-04-19T09:20:22Z</time></trkpt><trkpt lat="45.93045657327033" lon="12.801794740125212"><ele>27.0</ele><time>2026-04-19T09:20:23Z</time></trkpt><trkpt lat="45.93060060711796" lon="12.801962746067666"><ele>27.0</ele><time>2026-04-19T09:20:24Z</time></trkpt><trkpt lat="45.93073854207823" lon="12.802143972799986"><ele>27.0</ele><time>2026-04-19T09:20:25Z</time></trkpt><trkpt lat="45.93087990733654" lon="12.802289973513247"><ele>27.0</ele><time>2026-04-19T09:20:26Z</time></trkpt><trkpt lat="45.93098442510184" lon="12.80240302703678"><ele>26.75</ele><time>2026-04-19T09:20:27Z</time></trkpt><trkpt lat="45.93109571107541" lon="12.802529089010054"><ele>26.5</ele><time>2026-04-19T09:20:28Z</time></trkpt><trkpt lat="45.93119023562719" lon="12.80266441393838"><ele>26.25</ele><time>2026-04-19T09:20:29Z</time></trkpt><trkpt lat="45.93129391418529" lon="12.802784031208734"><ele>26.0</ele><time>2026-04-19T09:20:30Z</time></trkpt><trkpt lat="45.93139847135004" lon="12.802904662084238"><ele>26.0</ele><time>2026-04-19T09:20:31Z</time></trkpt><trkpt lat="45.931504043558085" lon="12.803026464061814"><ele>26.0</ele><time>2026-04-19T09:20:32Z</time></trkpt><trkpt lat="45.93161315568267" lon="12.803152350113573"><ele>26.0</ele><time>2026-04-19T09:20:33Z</time></trkpt><trkpt lat="45.93172308846075" lon="12.80327534306647"><ele>26.0</ele><time>2026-04-19T09:20:34Z</time></trkpt><trkpt lat="45.93181513515879" lon="12.803377859202241"><ele>26.0</ele><time>2026-04-19T09:20:35Z</time></trkpt><trkpt lat="45.931900129245044" lon="12.803481609419181"><ele>26.0</ele><time>2026-04-19T09:20:36Z</time></trkpt><trkpt lat="45.931982940224636" lon="12.803600481795167"><ele>26.0</ele><time>2026-04-19T09:20:37Z</time></trkpt><trkpt lat="45.93206005899593" lon="12.80373460480787"><ele>26.0</ele><time>2026-04-19T09:20:38Z</time></trkpt><trkpt lat="45.93213899584059" lon="12.803886168821581"><ele>26.5</ele><time>2026-04-19T09:20:39Z</time></trkpt><trkpt lat="45.93221683666158" lon="12.804039325324743"><ele>27.0</ele><time>2026-04-19T09:20:40Z</time></trkpt><trkpt lat="45.93229346925879" lon="12.804188449929127"><ele>27.5</ele><time>2026-04-19T09:20:41Z</time></trkpt><trkpt lat="45.93237142514254" lon="12.804339346775164"><ele>28.0</ele><time>2026-04-19T09:20:42Z</time></trkpt><trkpt lat="45.93245137834411" lon="12.804494109674854"><ele>28.25</ele><time>2026-04-19T09:20:43Z</time></trkpt><trkpt lat="45.93252850354021" lon="12.80464800481591"><ele>28.5</ele><time>2026-04-19T09:20:44Z</time></trkpt><trkpt lat="45.93261108107079" lon="12.804800109473252"><ele>28.75</ele><time>2026-04-19T09:20:45Z</time></trkpt><trkpt lat="45.932677415863665" lon="12.804936004695621"><ele>29.0</ele><time>2026-04-19T09:20:46Z</time></trkpt><trkpt lat="45.93274259706891" lon="12.805090937114493"><ele>28.0</ele><time>2026-04-19T09:20:47Z</time></trkpt><trkpt lat="45.93280283120659" lon="12.805270290849345"><ele>27.0</ele><time>2026-04-19T09:20:48Z</time></trkpt><trkpt lat="45.932860823236666" lon="12.805446145655365"><ele>26.0</ele><time>2026-04-19T09:20:49Z</time></trkpt><trkpt lat="45.932935608686094" lon="12.805627914251737"><ele>25.0</ele><time>2026-04-19T09:20:50Z</time></trkpt><trkpt lat="45.93300367745116" lon="12.80580753949317"><ele>25.0</ele><time>2026-04-19T09:20:51Z</time></trkpt><trkpt lat="45.93306413326864" lon="12.805962378581729"><ele>25.0</ele><time>2026-04-19T09:20:52Z</time></trkpt><trkpt lat="45.9331201976989" lon="12.806100421178717"><ele>25.0</ele><time>2026-04-19T09:20:53Z</time></trkpt><trkpt lat="45.933171226807005" lon="12.80622232558864"><ele>25.0</ele><time>2026-04-19T09:20:54Z</time></trkpt><trkpt lat="45.93321285848222" lon="12.806317325158393"><ele>25.0</ele><time>2026-04-19T09:20:55Z</time></trkpt><trkpt lat="45.93320733516448" lon="12.806429617735912"><ele>25.25</ele><time>2026-04-19T09:20:57Z</time></trkpt><trkpt lat="45.93311288050102" lon="12.806560918149716"><ele>25.5</ele><time>2026-04-19T09:20:59Z</time></trkpt><trkpt lat="45.93302284110306" lon="12.806623830544673"><ele>25.75</ele><time>2026-04-19T09:21:00Z</time></trkpt><trkpt lat="45.93292917570733" lon="12.806719704765749"><ele>26.0</ele><time>2026-04-19T09:21:01Z</time></trkpt><trkpt lat="45.932816740794806" lon="12.806801438126753"><ele>26.200000000000003</ele><time>2026-04-19T09:21:02Z</time></trkpt><trkpt lat="45.93270431238854" lon="12.806870505216413"><ele>26.400000000000002</ele><time>2026-04-19T09:21:03Z</time></trkpt><trkpt lat="45.93262189500049" lon="12.80693285189033"><ele>26.6</ele><time>2026-04-19T09:21:04Z</time></trkpt><trkpt lat="45.932550926759774" lon="12.80699338852209"><ele>26.8</ele><time>2026-04-19T09:21:05Z</time></trkpt><trkpt lat="45.93249564213112" lon="12.807078966987621"><ele>27.0</ele><time>2026-04-19T09:21:06Z</time></trkpt><trkpt lat="45.93245233742094" lon="12.807194522812322"><ele>27.25</ele><time>2026-04-19T09:21:07Z</time></trkpt><trkpt lat="45.93241968583838" lon="12.807360960376037"><ele>27.5</ele><time>2026-04-19T09:21:08Z</time></trkpt><trkpt lat="45.93238851021392" lon="12.807543320464184"><ele>27.75</ele><time>2026-04-19T09:21:09Z</time></trkpt><trkpt lat="45.93235595729298" lon="12.807706803466749"><ele>28.0</ele><time>2026-04-19T09:21:10Z</time></trkpt><trkpt lat="45.932327960879405" lon="12.807843025728952"><ele>28.0</ele><time>2026-04-19T09:21:11Z</time></trkpt><trkpt lat="45.9322871151435" lon="12.8079567436075"><ele>27.999999999999996</ele><time>2026-04-19T09:21:12Z</time></trkpt><trkpt lat="45.93220547393013" lon="12.808038283294163"><ele>27.999999999999996</ele><time>2026-04-19T09:21:13Z</time></trkpt><trkpt lat="45.932126988771024" lon="12.808105804859968"><ele>28.0</ele><time>2026-04-19T09:21:14Z</time></trkpt><trkpt lat="45.93205858635002" lon="12.808199029361168"><ele>28.0</ele><time>2026-04-19T09:21:15Z</time></trkpt><trkpt lat="45.93197954598788" lon="12.808276577376512"><ele>28.0</ele><time>2026-04-19T09:21:16Z</time></trkpt><trkpt lat="45.93192663334221" lon="12.808376438984663"><ele>27.999999999999996</ele><time>2026-04-19T09:21:17Z</time></trkpt><trkpt lat="45.93189373657633" lon="12.808507031231095"><ele>27.999999999999996</ele><time>2026-04-19T09:21:18Z</time></trkpt><trkpt lat="45.93188677218914" lon="12.808666487268388"><ele>28.0</ele><time>2026-04-19T09:21:19Z</time></trkpt><trkpt lat="45.93189863592447" lon="12.808835701144625"><ele>28.0</ele><time>2026-04-19T09:21:20Z</time></trkpt><trkpt lat="45.93193417242732" lon="12.809007280805636"><ele>27.666666666666668</ele><time>2026-04-19T09:21:21Z</time></trkpt><trkpt lat="45.93198313022944" lon="12.809194998879564"><ele>27.333333333333336</ele><time>2026-04-19T09:21:22Z</time></trkpt><trkpt lat="45.9320954975133" lon="12.80937914476913"><ele>27.0</ele><time>2026-04-19T09:21:23Z</time></trkpt><trkpt lat="45.932219492398936" lon="12.809571825778354"><ele>26.75</ele><time>2026-04-19T09:21:24Z</time></trkpt><trkpt lat="45.932339434081854" lon="12.809716461635812"><ele>26.5</ele><time>2026-04-19T09:21:25Z</time></trkpt><trkpt lat="45.93244184848143" lon="12.809834771166754"><ele>26.25</ele><time>2026-04-19T09:21:26Z</time></trkpt><trkpt lat="45.93252787412324" lon="12.80993814636689"><ele>26.0</ele><time>2026-04-19T09:21:27Z</time></trkpt><trkpt lat="45.93259790374873" lon="12.810042174030967"><ele>26.0</ele><time>2026-04-19T09:21:28Z</time></trkpt><trkpt lat="45.9326552414411" lon="12.810150947022814"><ele>26.0</ele><time>2026-04-19T09:21:29Z</time></trkpt><trkpt lat="45.93269097717792" lon="12.810288179630716"><ele>26.0</ele><time>2026-04-19T09:21:30Z</time></trkpt><trkpt lat="45.93269978423976" lon="12.810429057779928"><ele>26.0</ele><time>2026-04-19T09:21:31Z</time></trkpt><trkpt lat="45.93269169491554" lon="12.810630959190926"><ele>26.0</ele><time>2026-04-19T09:21:32Z</time></trkpt><trkpt lat="45.93267054907402" lon="12.810849549569157"><ele>26.333333333333332</ele><time>2026-04-19T09:21:33Z</time></trkpt><trkpt lat="45.93264348615592" lon="12.81109806674346"><ele>26.666666666666664</ele><time>2026-04-19T09:21:34Z</time></trkpt><trkpt lat="45.93262200560772" lon="12.811340763487198"><ele>27.0</ele><time>2026-04-19T09:21:35Z</time></trkpt><trkpt lat="45.93259751994868" lon="12.81153552533776"><ele>27.0</ele><time>2026-04-19T09:21:36Z</time></trkpt><trkpt lat="45.93259926187037" lon="12.81168460819108"><ele>27.0</ele><time>2026-04-19T09:21:37Z</time></trkpt><trkpt lat="45.93258307951421" lon="12.811813783478895"><ele>27.0</ele><time>2026-04-19T09:21:38Z</time></trkpt><trkpt lat="45.93256301566247" lon="12.811989043017196"><ele>27.0</ele><time>2026-04-19T09:21:39Z</time></trkpt><trkpt lat="45.93247794894478" lon="12.812189475309594"><ele>27.25</ele><time>2026-04-19T09:21:40Z</time></trkpt><trkpt lat="45.932385947514895" lon="12.81240660654587"><ele>27.5</ele><time>2026-04-19T09:21:41Z</time></trkpt><trkpt lat="45.93230014245051" lon="12.812576918789292"><ele>27.75</ele><time>2026-04-19T09:21:42Z</time></trkpt><trkpt lat="45.93222832465468" lon="12.812705961068206"><ele>28.0</ele><time>2026-04-19T09:21:43Z</time></trkpt><trkpt lat="45.932150417406866" lon="12.812799568419296"><ele>28.0</ele><time>2026-04-19T09:21:44Z</time></trkpt><trkpt lat="45.93206560560104" lon="12.812886914387231"><ele>27.999999999999996</ele><time>2026-04-19T09:21:45Z</time></trkpt><trkpt lat="45.93200716386504" lon="12.812994284066813"><ele>27.999999999999996</ele><time>2026-04-19T09:21:46Z</time></trkpt><trkpt lat="45.93196495634386" lon="12.813130202151266"><ele>28.0</ele><time>2026-04-19T09:21:47Z</time></trkpt><trkpt lat="45.931944086965416" lon="12.813280731006603"><ele>28.0</ele><time>2026-04-19T09:21:48Z</time></trkpt><trkpt lat="45.9319438698695" lon="12.81344059982265"><ele>28.333333333333336</ele><time>2026-04-19T09:21:49Z</time></trkpt><trkpt lat="45.93197835411726" lon="12.813653252784542"><ele>28.666666666666664</ele><time>2026-04-19T09:21:50Z</time></trkpt><trkpt lat="45.93203962558832" lon="12.813883952121598"><ele>29.0</ele><time>2026-04-19T09:21:51Z</time></trkpt><trkpt lat="45.932120379039056" lon="12.814132299668747"><ele>29.333333333333332</ele><time>2026-04-19T09:21:52Z</time></trkpt><trkpt lat="45.93221328553304" lon="12.814391843782232"><ele>29.666666666666664</ele><time>2026-04-19T09:21:53Z</time></trkpt><trkpt lat="45.93230695093462" lon="12.814648805509703"><ele>30.0</ele><time>2026-04-19T09:21:54Z</time></trkpt><trkpt lat="45.9323821929002" lon="12.814873329910794"><ele>30.0</ele><time>2026-04-19T09:21:55Z</time></trkpt><trkpt lat="45.932440688010885" lon="12.815075416365529"><ele>30.0</ele><time>2026-04-19T09:21:56Z</time></trkpt><trkpt lat="45.932493173815345" lon="12.81525474744618"><ele>30.0</ele><time>2026-04-19T09:21:57Z</time></trkpt><trkpt lat="45.93254300397175" lon="12.815444155365517"><ele>30.0</ele><time>2026-04-19T09:21:58Z</time></trkpt><trkpt lat="45.93258203810804" lon="12.81560617114774"><ele>30.0</ele><time>2026-04-19T09:21:59Z</time></trkpt><trkpt lat="45.93261870925884" lon="12.815761167173813"><ele>30.0</ele><time>2026-04-19T09:22:00Z</time></trkpt><trkpt lat="45.93265801865892" lon="12.815918986878868"><ele>30.0</ele><time>2026-04-19T09:22:01Z</time></trkpt><trkpt lat="45.932689218810914" lon="12.816078730316622"><ele>30.0</ele><time>2026-04-19T09:22:02Z</time></trkpt><trkpt lat="45.932752350452155" lon="12.816236610774594"><ele>30.0</ele><time>2026-04-19T09:22:03Z</time></trkpt><trkpt lat="45.93282212384801" lon="12.816405496937067"><ele>30.0</ele><time>2026-04-19T09:22:04Z</time></trkpt><trkpt lat="45.93289448682503" lon="12.816581567854833"><ele>30.0</ele><time>2026-04-19T09:22:05Z</time></trkpt><trkpt lat="45.93299022443087" lon="12.816815368208584"><ele>29.333333333333336</ele><time>2026-04-19T09:22:06Z</time></trkpt><trkpt lat="45.933120894446354" lon="12.81706965920658"><ele>28.666666666666668</ele><time>2026-04-19T09:22:07Z</time></trkpt><trkpt lat="45.93325618135828" lon="12.81728416672742"><ele>28.0</ele><time>2026-04-19T09:22:08Z</time></trkpt><trkpt lat="45.933368137000464" lon="12.817472103363215"><ele>28.0</ele><time>2026-04-19T09:22:09Z</time></trkpt><trkpt lat="45.93346055789026" lon="12.817653470116692"><ele>28.0</ele><time>2026-04-19T09:22:10Z</time></trkpt><trkpt lat="45.93353831700148" lon="12.817837873139888"><ele>28.0</ele><time>2026-04-19T09:22:11Z</time></trkpt><trkpt lat="45.933616084897096" lon="12.818007732272008"><ele>28.0</ele><time>2026-04-19T09:22:12Z</time></trkpt><trkpt lat="45.93369533530385" lon="12.818195954959663"><ele>28.0</ele><time>2026-04-19T09:22:13Z</time></trkpt><trkpt lat="45.93376783334129" lon="12.818366266289086"><ele>28.0</ele><time>2026-04-19T09:22:14Z</time></trkpt><trkpt lat="45.93383377669654" lon="12.81851759347609"><ele>28.0</ele><time>2026-04-19T09:22:15Z</time></trkpt><trkpt lat="45.93390474679653" lon="12.81867725557515"><ele>28.0</ele><time>2026-04-19T09:22:16Z</time></trkpt><trkpt lat="45.93397217925143" lon="12.818848763189333"><ele>28.5</ele><time>2026-04-19T09:22:17Z</time></trkpt><trkpt lat="45.934046315087386" lon="12.819018633223324"><ele>29.0</ele><time>2026-04-19T09:22:18Z</time></trkpt><trkpt lat="45.93412781052361" lon="12.819191446093908"><ele>29.5</ele><time>2026-04-19T09:22:19Z</time></trkpt><trkpt lat="45.934220308105445" lon="12.819353027409518"><ele>30.0</ele><time>2026-04-19T09:22:20Z</time></trkpt><trkpt lat="45.93428966706489" lon="12.81954978598116"><ele>30.0</ele><time>2026-04-19T09:22:21Z</time></trkpt><trkpt lat="45.934369976486074" lon="12.819739962417787"><ele>30.0</ele><time>2026-04-19T09:22:22Z</time></trkpt><trkpt lat="45.934454055164075" lon="12.819925251395725"><ele>30.0</ele><time>2026-04-19T09:22:23Z</time></trkpt><trkpt lat="45.93452497784686" lon="12.820092134329805"><ele>30.0</ele><time>2026-04-19T09:22:24Z</time></trkpt><trkpt lat="45.934587022262896" lon="12.820257151430884"><ele>29.5</ele><time>2026-04-19T09:22:25Z</time></trkpt><trkpt lat="45.93464772185861" lon="12.820413512037087"><ele>29.0</ele><time>2026-04-19T09:22:26Z</time></trkpt><trkpt lat="45.93470757858383" lon="12.820572144448429"><ele>28.5</ele><time>2026-04-19T09:22:27Z</time></trkpt><trkpt lat="45.934768465750736" lon="12.820716989522065"><ele>28.0</ele><time>2026-04-19T09:22:28Z</time></trkpt><trkpt lat="45.93483067081491" lon="12.82087484973301"><ele>28.5</ele><time>2026-04-19T09:22:29Z</time></trkpt><trkpt lat="45.934897193114885" lon="12.821039567964748"><ele>29.0</ele><time>2026-04-19T09:22:30Z</time></trkpt><trkpt lat="45.93495978639594" lon="12.821187762485357"><ele>29.5</ele><time>2026-04-19T09:22:31Z</time></trkpt><trkpt lat="45.93502199663178" lon="12.821321836527458"><ele>30.0</ele><time>2026-04-19T09:22:32Z</time></trkpt><trkpt lat="45.935076060709896" lon="12.821476505949317"><ele>30.0</ele><time>2026-04-19T09:22:33Z</time></trkpt><trkpt lat="45.93515454002344" lon="12.821629535106473"><ele>30.0</ele><time>2026-04-19T09:22:34Z</time></trkpt><trkpt lat="45.935252432851414" lon="12.82180622213974"><ele>30.0</ele><time>2026-04-19T09:22:35Z</time></trkpt><trkpt lat="45.93533819650367" lon="12.821944173976744"><ele>30.0</ele><time>2026-04-19T09:22:36Z</time></trkpt><trkpt lat="45.93541822392296" lon="12.822060627840836"><ele>30.0</ele><time>2026-04-19T09:22:37Z</time></trkpt><trkpt lat="45.93550026502002" lon="12.822188257923099"><ele>30.0</ele><time>2026-04-19T09:22:38Z</time></trkpt><trkpt lat="45.935566288741484" lon="12.822337873556117"><ele>30.0</ele><time>2026-04-19T09:22:39Z</time></trkpt><trkpt lat="45.93565681731704" lon="12.822462710780103"><ele>30.0</ele><time>2026-04-19T09:22:40Z</time></trkpt><trkpt lat="45.935735617599555" lon="12.822606436461246"><ele>30.0</ele><time>2026-04-19T09:22:41Z</time></trkpt><trkpt lat="45.935826247812216" lon="12.822744851516928"><ele>30.0</ele><time>2026-04-19T09:22:42Z</time></trkpt><trkpt lat="45.93592130607126" lon="12.822886015784128"><ele>30.0</ele><time>2026-04-19T09:22:43Z</time></trkpt><trkpt lat="45.9360298631248" lon="12.823028593280572"><ele>30.0</ele><time>2026-04-19T09:22:44Z</time></trkpt><trkpt lat="45.93613692183051" lon="12.82317661035056"><ele>30.0</ele><time>2026-04-19T09:22:45Z</time></trkpt><trkpt lat="45.936246607633485" lon="12.823325206554562"><ele>30.0</ele><time>2026-04-19T09:22:46Z</time></trkpt><trkpt lat="45.93634777525353" lon="12.823469421826474"><ele>30.0</ele><time>2026-04-19T09:22:47Z</time></trkpt><trkpt lat="45.93644623630947" lon="12.823605225775305"><ele>30.0</ele><time>2026-04-19T09:22:48Z</time></trkpt><trkpt lat="45.936544922035154" lon="12.823738524338374"><ele>30.0</ele><time>2026-04-19T09:22:49Z</time></trkpt><trkpt lat="45.936639121467756" lon="12.82387572862746"><ele>30.0</ele><time>2026-04-19T09:22:50Z</time></trkpt><trkpt lat="45.936728603254174" lon="12.824003527898673"><ele>30.0</ele><time>2026-04-19T09:22:51Z</time></trkpt><trkpt lat="45.93683433621494" lon="12.82412241056147"><ele>30.0</ele><time>2026-04-19T09:22:52Z</time></trkpt><trkpt lat="45.93691495279379" lon="12.824244920858318"><ele>30.0</ele><time>2026-04-19T09:22:53Z</time></trkpt><trkpt lat="45.9369877505071" lon="12.824369006447636"><ele>30.0</ele><time>2026-04-19T09:22:54Z</time></trkpt><trkpt lat="45.93705425415262" lon="12.82448979882804"><ele>30.0</ele><time>2026-04-19T09:22:55Z</time></trkpt><trkpt lat="45.93713649042345" lon="12.824618737921737"><ele>30.0</ele><time>2026-04-19T09:22:56Z</time></trkpt><trkpt lat="45.937200504677534" lon="12.824758325570908"><ele>30.0</ele><time>2026-04-19T09:22:57Z</time></trkpt><trkpt lat="45.93725315195641" lon="12.82488147527822"><ele>30.0</ele><time>2026-04-19T09:22:58Z</time></trkpt><trkpt lat="45.937282850778914" lon="12.825001982361382"><ele>30.0</ele><time>2026-04-19T09:22:59Z</time></trkpt><trkpt lat="45.93732378646247" lon="12.825073573289414"><ele>30.0</ele><time>2026-04-19T09:23:00Z</time></trkpt><trkpt lat="45.93731775984334" lon="12.825173704492903"><ele>30.0</ele><time>2026-04-19T09:23:02Z</time></trkpt><trkpt lat="45.93720845386261" lon="12.825235948902195"><ele>30.0</ele><time>2026-04-19T09:23:04Z</time></trkpt><trkpt lat="45.937108102892424" lon="12.82532717610683"><ele>30.0</ele><time>2026-04-19T09:23:05Z</time></trkpt><trkpt lat="45.93698622089785" lon="12.825458298170291"><ele>30.0</ele><time>2026-04-19T09:23:06Z</time></trkpt><trkpt lat="45.93685042880096" lon="12.825569617864982"><ele>30.0</ele><time>2026-04-19T09:23:07Z</time></trkpt><trkpt lat="45.936693228520745" lon="12.825706793897867"><ele>29.333333333333336</ele><time>2026-04-19T09:23:08Z</time></trkpt><trkpt lat="45.93655139012391" lon="12.825813188264691"><ele>28.666666666666668</ele><time>2026-04-19T09:23:09Z</time></trkpt><trkpt lat="45.936424986295094" lon="12.825922095042523"><ele>28.0</ele><time>2026-04-19T09:23:10Z</time></trkpt><trkpt lat="45.93629708472774" lon="12.826036136455315"><ele>28.0</ele><time>2026-04-19T09:23:11Z</time></trkpt><trkpt lat="45.93617685471245" lon="12.826155558643885"><ele>28.0</ele><time>2026-04-19T09:23:12Z</time></trkpt><trkpt lat="45.936047598570994" lon="12.826277005564807"><ele>28.0</ele><time>2026-04-19T09:23:13Z</time></trkpt><trkpt lat="45.93593143372973" lon="12.82641328248437"><ele>28.5</ele><time>2026-04-19T09:23:14Z</time></trkpt><trkpt lat="45.93580620574076" lon="12.826536770405937"><ele>29.0</ele><time>2026-04-19T09:23:15Z</time></trkpt><trkpt lat="45.93568671458768" lon="12.826647599150471"><ele>29.5</ele><time>2026-04-19T09:23:16Z</time></trkpt><trkpt lat="45.93557986234268" lon="12.826736718411121"><ele>30.0</ele><time>2026-04-19T09:23:17Z</time></trkpt><trkpt lat="45.93547636532991" lon="12.826834878569704"><ele>30.0</ele><time>2026-04-19T09:23:18Z</time></trkpt><trkpt lat="45.93537976512679" lon="12.826926092679377"><ele>30.0</ele><time>2026-04-19T09:23:19Z</time></trkpt><trkpt lat="45.93528010084306" lon="12.827006501396228"><ele>30.0</ele><time>2026-04-19T09:23:20Z</time></trkpt><trkpt lat="45.93519151885223" lon="12.827115599113345"><ele>30.0</ele><time>2026-04-19T09:23:21Z</time></trkpt><trkpt lat="45.935109166455746" lon="12.827248929576925"><ele>30.0</ele><time>2026-04-19T09:23:22Z</time></trkpt><trkpt lat="45.93502479299932" lon="12.827421114141695"><ele>30.0</ele><time>2026-04-19T09:23:23Z</time></trkpt><trkpt lat="45.934950119473655" lon="12.8275703954648"><ele>30.0</ele><time>2026-04-19T09:23:24Z</time></trkpt><trkpt lat="45.93485924759669" lon="12.827698339246599"><ele>30.0</ele><time>2026-04-19T09:23:25Z</time></trkpt><trkpt lat="45.934791313779606" lon="12.827770254190964"><ele>30.0</ele><time>2026-04-19T09:23:26Z</time></trkpt><trkpt lat="45.93473217712033" lon="12.827829784458538"><ele>30.0</ele><time>2026-04-19T09:23:27Z</time></trkpt><trkpt lat="45.934661798216446" lon="12.827853407961651"><ele>30.0</ele><time>2026-04-19T09:23:28Z</time></trkpt><trkpt lat="45.934598507740574" lon="12.82785284737121"><ele>30.0</ele><time>2026-04-19T09:23:29Z</time></trkpt><trkpt lat="45.93453231790541" lon="12.827755163818114"><ele>30.0</ele><time>2026-04-19T09:23:30Z</time></trkpt><trkpt lat="45.934448495191646" lon="12.827712252225854"><ele>30.0</ele><time>2026-04-19T09:23:31Z</time></trkpt><trkpt lat="45.93438195967446" lon="12.827687850056238"><ele>30.0</ele><time>2026-04-19T09:23:32Z</time></trkpt><trkpt lat="45.934314217484" lon="12.827704331114143"><ele>30.0</ele><time>2026-04-19T09:23:33Z</time></trkpt><trkpt lat="45.93424295282881" lon="12.827842881634881"><ele>30.0</ele><time>2026-04-19T09:23:34Z</time></trkpt><trkpt lat="45.93416417672843" lon="12.827994537359967"><ele>30.0</ele><time>2026-04-19T09:23:35Z</time></trkpt><trkpt lat="45.93407771203241" lon="12.82814189244171"><ele>30.0</ele><time>2026-04-19T09:23:36Z</time></trkpt><trkpt lat="45.93400464170112" lon="12.828240753312713"><ele>30.0</ele><time>2026-04-19T09:23:37Z</time></trkpt><trkpt lat="45.93392976112813" lon="12.8283434579261"><ele>30.0</ele><time>2026-04-19T09:23:38Z</time></trkpt><trkpt lat="45.93386248770721" lon="12.828424244117707"><ele>30.0</ele><time>2026-04-19T09:23:39Z</time></trkpt><trkpt lat="45.933796596469904" lon="12.82848904817115"><ele>30.0</ele><time>2026-04-19T09:23:40Z</time></trkpt><trkpt lat="45.933737927506634" lon="12.828534801831365"><ele>30.0</ele><time>2026-04-19T09:23:41Z</time></trkpt><trkpt lat="45.93365552459109" lon="12.828545323316582"><ele>30.0</ele><time>2026-04-19T09:23:42Z</time></trkpt><trkpt lat="45.93357022946382" lon="12.82855070570888"><ele>30.0</ele><time>2026-04-19T09:23:43Z</time></trkpt><trkpt lat="45.93348439563326" lon="12.828545852065947"><ele>30.0</ele><time>2026-04-19T09:23:44Z</time></trkpt><trkpt lat="45.933404326769256" lon="12.828561550290013"><ele>30.0</ele><time>2026-04-19T09:23:45Z</time></trkpt><trkpt lat="45.933335029968106" lon="12.828553751832303"><ele>30.0</ele><time>2026-04-19T09:23:46Z</time></trkpt><trkpt lat="45.933217748835766" lon="12.828537179955296"><ele>30.0</ele><time>2026-04-19T09:23:48Z</time></trkpt><trkpt lat="45.93317464249054" lon="12.828624769757162"><ele>29.833333333333332</ele><time>2026-04-19T09:23:49Z</time></trkpt><trkpt lat="45.933126645864554" lon="12.828698643370101"><ele>29.666666666666664</ele><time>2026-04-19T09:23:50Z</time></trkpt><trkpt lat="45.93307755296825" lon="12.828768009920804"><ele>29.5</ele><time>2026-04-19T09:23:51Z</time></trkpt><trkpt lat="45.93302911746162" lon="12.828842162543626"><ele>29.333333333333332</ele><time>2026-04-19T09:23:52Z</time></trkpt><trkpt lat="45.93295924083321" lon="12.828905190570527"><ele>29.166666666666664</ele><time>2026-04-19T09:23:53Z</time></trkpt><trkpt lat="45.932896266969514" lon="12.82900801937072"><ele>29.0</ele><time>2026-04-19T09:23:55Z</time></trkpt><trkpt lat="45.93283564186816" lon="12.829072170888706"><ele>29.0</ele><time>2026-04-19T09:23:57Z</time></trkpt><trkpt lat="45.93288210438579" lon="12.829267239997998"><ele>29.0</ele><time>2026-04-19T09:23:59Z</time></trkpt><trkpt lat="45.93293963817566" lon="12.829358544077603"><ele>29.0</ele><time>2026-04-19T09:24:00Z</time></trkpt><trkpt lat="45.93301312074451" lon="12.829467382351055"><ele>29.0</ele><time>2026-04-19T09:24:01Z</time></trkpt><trkpt lat="45.93308341369355" lon="12.829574575974414"><ele>29.0</ele><time>2026-04-19T09:24:02Z</time></trkpt><trkpt lat="45.933148398545285" lon="12.829679827950075"><ele>29.0</ele><time>2026-04-19T09:24:03Z</time></trkpt><trkpt lat="45.93320536997536" lon="12.829784225215537"><ele>29.0</ele><time>2026-04-19T09:24:04Z</time></trkpt><trkpt lat="45.93325514682871" lon="12.829897200961808"><ele>29.0</ele><time>2026-04-19T09:24:05Z</time></trkpt><trkpt lat="45.933326585137884" lon="12.829987777549436"><ele>29.0</ele><time>2026-04-19T09:24:06Z</time></trkpt><trkpt lat="45.93338207688006" lon="12.830096011408946"><ele>29.0</ele><time>2026-04-19T09:24:07Z</time></trkpt><trkpt lat="45.933440515966424" lon="12.830214666909557"><ele>29.0</ele><time>2026-04-19T09:24:08Z</time></trkpt><trkpt lat="45.93349616710139" lon="12.830327661727036"><ele>29.0</ele><time>2026-04-19T09:24:09Z</time></trkpt><trkpt lat="45.933559958216726" lon="12.830454328922942"><ele>29.0</ele><time>2026-04-19T09:24:10Z</time></trkpt><trkpt lat="45.9336066107758" lon="12.830560082056076"><ele>29.0</ele><time>2026-04-19T09:24:11Z</time></trkpt><trkpt lat="45.93367650354857" lon="12.830656434529295"><ele>29.0</ele><time>2026-04-19T09:24:12Z</time></trkpt><trkpt lat="45.933744779071354" lon="12.830765921620204"><ele>29.0</ele><time>2026-04-19T09:24:13Z</time></trkpt><trkpt lat="45.93381265316164" lon="12.83087522793481"><ele>29.0</ele><time>2026-04-19T09:24:14Z</time></trkpt><trkpt lat="45.933878477936595" lon="12.830990514894037"><ele>29.0</ele><time>2026-04-19T09:24:15Z</time></trkpt><trkpt lat="45.93394963195148" lon="12.831105512732488"><ele>29.0</ele><time>2026-04-19T09:24:16Z</time></trkpt><trkpt lat="45.934023436727756" lon="12.831208696800605"><ele>29.0</ele><time>2026-04-19T09:24:17Z</time></trkpt><trkpt lat="45.93409079969626" lon="12.831317168188267"><ele>29.0</ele><time>2026-04-19T09:24:18Z</time></trkpt><trkpt lat="45.93415187957391" lon="12.831436108297817"><ele>29.0</ele><time>2026-04-19T09:24:19Z</time></trkpt><trkpt lat="45.934228490540484" lon="12.831540512643606"><ele>29.0</ele><time>2026-04-19T09:24:20Z</time></trkpt><trkpt lat="45.93430299905483" lon="12.831641792533588"><ele>29.0</ele><time>2026-04-19T09:24:21Z</time></trkpt><trkpt lat="45.934381896940714" lon="12.831748904221067"><ele>29.0</ele><time>2026-04-19T09:24:22Z</time></trkpt><trkpt lat="45.93446726251865" lon="12.83185797763458"><ele>30.0</ele><time>2026-04-19T09:24:23Z</time></trkpt><trkpt lat="45.93455567835136" lon="12.831979001361436"><ele>31.0</ele><time>2026-04-19T09:24:24Z</time></trkpt><trkpt lat="45.93463982899419" lon="12.832101777728694"><ele>32.0</ele><time>2026-04-19T09:24:25Z</time></trkpt><trkpt lat="45.934723190724405" lon="12.832219462867634"><ele>33.0</ele><time>2026-04-19T09:24:26Z</time></trkpt><trkpt lat="45.93479744059554" lon="12.832341097434243"><ele>33.0</ele><time>2026-04-19T09:24:27Z</time></trkpt><trkpt lat="45.934875709296726" lon="12.832458482960764"><ele>33.0</ele><time>2026-04-19T09:24:28Z</time></trkpt><trkpt lat="45.93495771172298" lon="12.832571223385617"><ele>33.0</ele><time>2026-04-19T09:24:29Z</time></trkpt><trkpt lat="45.935026937118515" lon="12.832682767289725"><ele>33.0</ele><time>2026-04-19T09:24:30Z</time></trkpt><trkpt lat="45.93508968103557" lon="12.832779593270958"><ele>33.0</ele><time>2026-04-19T09:24:31Z</time></trkpt><trkpt lat="45.935162250224124" lon="12.83287196352697"><ele>33.0</ele><time>2026-04-19T09:24:32Z</time></trkpt><trkpt lat="45.9352139294196" lon="12.832972461060622"><ele>33.0</ele><time>2026-04-19T09:24:33Z</time></trkpt><trkpt lat="45.9352791671456" lon="12.833092183629892"><ele>33.0</ele><time>2026-04-19T09:24:34Z</time></trkpt><trkpt lat="45.935347280134714" lon="12.833218046797015"><ele>33.0</ele><time>2026-04-19T09:24:35Z</time></trkpt><trkpt lat="45.93539377040242" lon="12.833349881667129"><ele>33.0</ele><time>2026-04-19T09:24:36Z</time></trkpt><trkpt lat="45.935464563533564" lon="12.833478125575382"><ele>33.0</ele><time>2026-04-19T09:24:37Z</time></trkpt><trkpt lat="45.93553495829797" lon="12.833605545963236"><ele>33.0</ele><time>2026-04-19T09:24:38Z</time></trkpt><trkpt lat="45.93559223521504" lon="12.83372849021174"><ele>33.0</ele><time>2026-04-19T09:24:39Z</time></trkpt><trkpt lat="45.935653948485964" lon="12.83385535628288"><ele>33.0</ele><time>2026-04-19T09:24:40Z</time></trkpt><trkpt lat="45.93572111923363" lon="12.833996472017205"><ele>33.0</ele><time>2026-04-19T09:24:41Z</time></trkpt><trkpt lat="45.93578515150493" lon="12.834131145891009"><ele>33.0</ele><time>2026-04-19T09:24:42Z</time></trkpt><trkpt lat="45.9358387144311" lon="12.834253291107753"><ele>33.0</ele><time>2026-04-19T09:24:43Z</time></trkpt><trkpt lat="45.935883912123145" lon="12.834368626849288"><ele>33.0</ele><time>2026-04-19T09:24:44Z</time></trkpt><trkpt lat="45.93591409008284" lon="12.834479372364845"><ele>33.0</ele><time>2026-04-19T09:24:45Z</time></trkpt><trkpt lat="45.935950983593436" lon="12.83458632720806"><ele>33.0</ele><time>2026-04-19T09:24:46Z</time></trkpt><trkpt lat="45.93596495018481" lon="12.834709454517178"><ele>33.0</ele><time>2026-04-19T09:24:47Z</time></trkpt><trkpt lat="45.93598433235571" lon="12.834836236370853"><ele>33.166666666666664</ele><time>2026-04-19T09:24:48Z</time></trkpt><trkpt lat="45.936001559424305" lon="12.834966825341088"><ele>33.333333333333336</ele><time>2026-04-19T09:24:49Z</time></trkpt><trkpt lat="45.936027238048304" lon="12.835102413757058"><ele>33.5</ele><time>2026-04-19T09:24:50Z</time></trkpt><trkpt lat="45.936052239474066" lon="12.83523605719521"><ele>33.66666666666667</ele><time>2026-04-19T09:24:51Z</time></trkpt><trkpt lat="45.93607633238913" lon="12.835348260088841"><ele>33.833333333333336</ele><time>2026-04-19T09:24:52Z</time></trkpt><trkpt lat="45.93610907525929" lon="12.835445449958684"><ele>34.0</ele><time>2026-04-19T09:24:53Z</time></trkpt><trkpt lat="45.93613674544153" lon="12.835539390767389"><ele>34.2</ele><time>2026-04-19T09:24:54Z</time></trkpt><trkpt lat="45.93615454098978" lon="12.835680326424889"><ele>34.4</ele><time>2026-04-19T09:24:56Z</time></trkpt><trkpt lat="45.93608261280625" lon="12.835781371017084"><ele>34.6</ele><time>2026-04-19T09:24:58Z</time></trkpt><trkpt lat="45.936002704436355" lon="12.835848118729931"><ele>34.8</ele><time>2026-04-19T09:24:59Z</time></trkpt><trkpt lat="45.93592461815365" lon="12.835930709556411"><ele>35.0</ele><time>2026-04-19T09:25:00Z</time></trkpt><trkpt lat="45.93584623071948" lon="12.836012502108321"><ele>34.5</ele><time>2026-04-19T09:25:01Z</time></trkpt><trkpt lat="45.93575645530545" lon="12.83610643239977"><ele>34.0</ele><time>2026-04-19T09:25:02Z</time></trkpt><trkpt lat="45.93566245903948" lon="12.836207566154355"><ele>33.5</ele><time>2026-04-19T09:25:03Z</time></trkpt><trkpt lat="45.935567576270344" lon="12.836303315449165"><ele>33.0</ele><time>2026-04-19T09:25:04Z</time></trkpt><trkpt lat="45.93548020369515" lon="12.836399384304574"><ele>33.0</ele><time>2026-04-19T09:25:05Z</time></trkpt><trkpt lat="45.935377395902556" lon="12.836492018752562"><ele>33.0</ele><time>2026-04-19T09:25:06Z</time></trkpt><trkpt lat="45.93527650153466" lon="12.836603372759962"><ele>33.0</ele><time>2026-04-19T09:25:07Z</time></trkpt><trkpt lat="45.935180638480674" lon="12.836715706111066"><ele>33.0</ele><time>2026-04-19T09:25:08Z</time></trkpt><trkpt lat="45.93508378378004" lon="12.836817762901935"><ele>32.25</ele><time>2026-04-19T09:25:09Z</time></trkpt><trkpt lat="45.934981786102384" lon="12.83693532377907"><ele>31.5</ele><time>2026-04-19T09:25:10Z</time></trkpt><trkpt lat="45.93487956845309" lon="12.83705375815472"><ele>30.75</ele><time>2026-04-19T09:25:11Z</time></trkpt><trkpt lat="45.93477752282224" lon="12.837167284257848"><ele>30.0</ele><time>2026-04-19T09:25:12Z</time></trkpt><trkpt lat="45.93467149149974" lon="12.837278996506958"><ele>30.0</ele><time>2026-04-19T09:25:13Z</time></trkpt><trkpt lat="45.93457142497306" lon="12.83738838097738"><ele>30.0</ele><time>2026-04-19T09:25:14Z</time></trkpt><trkpt lat="45.934474400825465" lon="12.837472200492675"><ele>30.0</ele><time>2026-04-19T09:25:15Z</time></trkpt><trkpt lat="45.93439438344086" lon="12.837563674908331"><ele>30.0</ele><time>2026-04-19T09:25:16Z</time></trkpt><trkpt lat="45.93431462419016" lon="12.837638590092931"><ele>30.0</ele><time>2026-04-19T09:25:17Z</time></trkpt><trkpt lat="45.93423583800429" lon="12.8377004740142"><ele>30.0</ele><time>2026-04-19T09:25:18Z</time></trkpt><trkpt lat="45.93416381642525" lon="12.837742539275535"><ele>30.0</ele><time>2026-04-19T09:25:19Z</time></trkpt><trkpt lat="45.93409594077067" lon="12.837773778706412"><ele>30.0</ele><time>2026-04-19T09:25:20Z</time></trkpt><trkpt lat="45.93400336461694" lon="12.837802244519592"><ele>30.0</ele><time>2026-04-19T09:25:22Z</time></trkpt><trkpt lat="45.933980054851006" lon="12.837886376235753"><ele>30.0</ele><time>2026-04-19T09:25:24Z</time></trkpt><trkpt lat="45.93404090755497" lon="12.838015741389365"><ele>30.0</ele><time>2026-04-19T09:25:26Z</time></trkpt><trkpt lat="45.934095338877974" lon="12.838111359900134"><ele>30.0</ele><time>2026-04-19T09:25:27Z</time></trkpt><trkpt lat="45.93417464836539" lon="12.838230221514655"><ele>30.0</ele><time>2026-04-19T09:25:28Z</time></trkpt><trkpt lat="45.93422927772387" lon="12.838372572535025"><ele>30.0</ele><time>2026-04-19T09:25:29Z</time></trkpt><trkpt lat="45.934294085482776" lon="12.83851165335176"><ele>30.0</ele><time>2026-04-19T09:25:30Z</time></trkpt><trkpt lat="45.93436517719298" lon="12.838633841348045"><ele>30.4</ele><time>2026-04-19T09:25:31Z</time></trkpt><trkpt lat="45.93441776759285" lon="12.838777902529126"><ele>30.8</ele><time>2026-04-19T09:25:32Z</time></trkpt><trkpt lat="45.93446035219844" lon="12.838925159874266"><ele>31.200000000000003</ele><time>2026-04-19T09:25:33Z</time></trkpt><trkpt lat="45.93448840144238" lon="12.839034957019337"><ele>31.6</ele><time>2026-04-19T09:25:34Z</time></trkpt><trkpt lat="45.9345132859153" lon="12.839154971522822"><ele>32.0</ele><time>2026-04-19T09:25:35Z</time></trkpt><trkpt lat="45.93452958809793" lon="12.839260621534617"><ele>31.833333333333332</ele><time>2026-04-19T09:25:36Z</time></trkpt><trkpt lat="45.93452517706676" lon="12.839414470258033"><ele>31.666666666666664</ele><time>2026-04-19T09:25:38Z</time></trkpt><trkpt lat="45.93453030675336" lon="12.839514071356794"><ele>31.5</ele><time>2026-04-19T09:25:39Z</time></trkpt><trkpt lat="45.93449980032748" lon="12.839618968664968"><ele>31.333333333333336</ele><time>2026-04-19T09:25:40Z</time></trkpt><trkpt lat="45.93443707531906" lon="12.839697498048936"><ele>31.166666666666668</ele><time>2026-04-19T09:25:41Z</time></trkpt><trkpt lat="45.93433294082243" lon="12.83974718396483"><ele>31.0</ele><time>2026-04-19T09:25:42Z</time></trkpt><trkpt lat="45.93420926991874" lon="12.839804352992665"><ele>31.0</ele><time>2026-04-19T09:25:43Z</time></trkpt><trkpt lat="45.93406695298554" lon="12.839870350005"><ele>31.0</ele><time>2026-04-19T09:25:44Z</time></trkpt><trkpt lat="45.93391933902825" lon="12.839940301267395"><ele>31.0</ele><time>2026-04-19T09:25:45Z</time></trkpt><trkpt lat="45.93380285959299" lon="12.840003453191057"><ele>31.0</ele><time>2026-04-19T09:25:46Z</time></trkpt><trkpt lat="45.93369402906637" lon="12.84006207489803"><ele>31.000000000000004</ele><time>2026-04-19T09:25:47Z</time></trkpt><trkpt lat="45.93360215294233" lon="12.840075549606421"><ele>31.0</ele><time>2026-04-19T09:25:48Z</time></trkpt><trkpt lat="45.93351122994126" lon="12.840066324999144"><ele>31.0</ele><time>2026-04-19T09:25:49Z</time></trkpt><trkpt lat="45.93342960820561" lon="12.84004912998681"><ele>31.0</ele><time>2026-04-19T09:25:50Z</time></trkpt><trkpt lat="45.933361555921756" lon="12.84006267577722"><ele>31.000000000000004</ele><time>2026-04-19T09:25:51Z</time></trkpt><trkpt lat="45.933301222003784" lon="12.84010103326045"><ele>31.0</ele><time>2026-04-19T09:25:52Z</time></trkpt><trkpt lat="45.93322119967548" lon="12.840180645630292"><ele>31.0</ele><time>2026-04-19T09:25:54Z</time></trkpt><trkpt lat="45.933191700532475" lon="12.840287442723326"><ele>31.0</ele><time>2026-04-19T09:25:58Z</time></trkpt><trkpt lat="45.933269232350206" lon="12.840361986031569"><ele>31.0</ele><time>2026-04-19T09:26:00Z</time></trkpt><trkpt lat="45.93337798448021" lon="12.840436862645948"><ele>31.0</ele><time>2026-04-19T09:26:02Z</time></trkpt><trkpt lat="45.93346447399419" lon="12.840499527378954"><ele>31.0</ele><time>2026-04-19T09:26:03Z</time></trkpt><trkpt lat="45.93356212193583" lon="12.840548637301028"><ele>31.200000000000003</ele><time>2026-04-19T09:26:04Z</time></trkpt><trkpt lat="45.933651931352145" lon="12.840613128633125"><ele>31.400000000000002</ele><time>2026-04-19T09:26:05Z</time></trkpt><trkpt lat="45.933745369750255" lon="12.840668636782167"><ele>31.6</ele><time>2026-04-19T09:26:06Z</time></trkpt><trkpt lat="45.933846940537784" lon="12.84074373028977"><ele>31.8</ele><time>2026-04-19T09:26:07Z</time></trkpt><trkpt lat="45.93395865754082" lon="12.84081591772952"><ele>32.0</ele><time>2026-04-19T09:26:08Z</time></trkpt><trkpt lat="45.93406033829651" lon="12.840912237572345"><ele>32.0</ele><time>2026-04-19T09:26:09Z</time></trkpt><trkpt lat="45.9341635088524" lon="12.840980325157593"><ele>32.0</ele><time>2026-04-19T09:26:10Z</time></trkpt><trkpt lat="45.93425951145994" lon="12.84103695976329"><ele>32.0</ele><time>2026-04-19T09:26:11Z</time></trkpt><trkpt lat="45.93435076773131" lon="12.841058572137348"><ele>32.0</ele><time>2026-04-19T09:26:12Z</time></trkpt><trkpt lat="45.93440629945892" lon="12.841106871459903"><ele>32.0</ele><time>2026-04-19T09:26:13Z</time></trkpt><trkpt lat="45.93450107697292" lon="12.841154734738735"><ele>32.0</ele><time>2026-04-19T09:26:15Z</time></trkpt><trkpt lat="45.934494973046824" lon="12.84140369854512"><ele>32.0</ele><time>2026-04-19T09:26:16Z</time></trkpt><trkpt lat="45.93451436933501" lon="12.841572472662417"><ele>32.0</ele><time>2026-04-19T09:26:17Z</time></trkpt><trkpt lat="45.93453288631286" lon="12.841718758345458"><ele>32.0</ele><time>2026-04-19T09:26:18Z</time></trkpt><trkpt lat="45.93456290563923" lon="12.841832731411241"><ele>32.166666666666664</ele><time>2026-04-19T09:26:19Z</time></trkpt><trkpt lat="45.934576701381744" lon="12.841944081322298"><ele>32.33333333333333</ele><time>2026-04-19T09:26:20Z</time></trkpt><trkpt lat="45.93456393152062" lon="12.842050289929384"><ele>32.5</ele><time>2026-04-19T09:26:21Z</time></trkpt><trkpt lat="45.934531503863646" lon="12.842153848617315"><ele>32.666666666666664</ele><time>2026-04-19T09:26:22Z</time></trkpt><trkpt lat="45.93445918250705" lon="12.842240009143762"><ele>32.833333333333336</ele><time>2026-04-19T09:26:23Z</time></trkpt><trkpt lat="45.93437765085979" lon="12.842349038414426"><ele>33.0</ele><time>2026-04-19T09:26:24Z</time></trkpt><trkpt lat="45.93427783971523" lon="12.842464245697904"><ele>33.0</ele><time>2026-04-19T09:26:25Z</time></trkpt><trkpt lat="45.93417898920588" lon="12.84257479625218"><ele>33.0</ele><time>2026-04-19T09:26:26Z</time></trkpt><trkpt lat="45.93408568429635" lon="12.842692162342146"><ele>33.0</ele><time>2026-04-19T09:26:27Z</time></trkpt><trkpt lat="45.93399133138375" lon="12.842813855022092"><ele>33.0</ele><time>2026-04-19T09:26:28Z</time></trkpt><trkpt lat="45.93390621157794" lon="12.842916034859964"><ele>33.0</ele><time>2026-04-19T09:26:29Z</time></trkpt><trkpt lat="45.93383064182028" lon="12.84300366377759"><ele>33.0</ele><time>2026-04-19T09:26:30Z</time></trkpt><trkpt lat="45.93376637997639" lon="12.843077223842366"><ele>33.0</ele><time>2026-04-19T09:26:31Z</time></trkpt><trkpt lat="45.93371153913441" lon="12.843142429716094"><ele>33.0</ele><time>2026-04-19T09:26:32Z</time></trkpt><trkpt lat="45.93365799908571" lon="12.843257243866377"><ele>33.0</ele><time>2026-04-19T09:26:34Z</time></trkpt><trkpt lat="45.93373028300327" lon="12.843434582246216"><ele>33.25</ele><time>2026-04-19T09:26:36Z</time></trkpt><trkpt lat="45.93381362001439" lon="12.843541034194438"><ele>33.5</ele><time>2026-04-19T09:26:37Z</time></trkpt><trkpt lat="45.93388826000756" lon="12.843702164484446"><ele>33.75</ele><time>2026-04-19T09:26:38Z</time></trkpt><trkpt lat="45.933976772633734" lon="12.843823657281643"><ele>34.0</ele><time>2026-04-19T09:26:39Z</time></trkpt><trkpt lat="45.93403703744039" lon="12.843937570795267"><ele>34.0</ele><time>2026-04-19T09:26:40Z</time></trkpt><trkpt lat="45.93407286902502" lon="12.844035653373536"><ele>34.0</ele><time>2026-04-19T09:26:41Z</time></trkpt><trkpt lat="45.93410856067542" lon="12.84411062336841"><ele>34.0</ele><time>2026-04-19T09:26:42Z</time></trkpt><trkpt lat="45.93411592655522" lon="12.844202517353173"><ele>34.0</ele><time>2026-04-19T09:26:46Z</time></trkpt><trkpt lat="45.93404938181152" lon="12.844391635448469"><ele>34.0</ele><time>2026-04-19T09:26:48Z</time></trkpt><trkpt lat="45.93399163345825" lon="12.844519339030409"><ele>34.25</ele><time>2026-04-19T09:26:49Z</time></trkpt><trkpt lat="45.93393017160105" lon="12.84466769085784"><ele>34.5</ele><time>2026-04-19T09:26:50Z</time></trkpt><trkpt lat="45.93385609906974" lon="12.844827306386751"><ele>34.75</ele><time>2026-04-19T09:26:51Z</time></trkpt><trkpt lat="45.93378243961563" lon="12.844986345537816"><ele>35.0</ele><time>2026-04-19T09:26:52Z</time></trkpt><trkpt lat="45.933699770977235" lon="12.845150938373463"><ele>34.25</ele><time>2026-04-19T09:26:53Z</time></trkpt><trkpt lat="45.93361164919884" lon="12.845312571484985"><ele>33.5</ele><time>2026-04-19T09:26:54Z</time></trkpt><trkpt lat="45.933535016178205" lon="12.845470533796616"><ele>32.75</ele><time>2026-04-19T09:26:55Z</time></trkpt><trkpt lat="45.93346500105139" lon="12.845623335523838"><ele>32.0</ele><time>2026-04-19T09:26:56Z</time></trkpt><trkpt lat="45.93339208353927" lon="12.845763171900318"><ele>32.5</ele><time>2026-04-19T09:26:57Z</time></trkpt><trkpt lat="45.933316078581264" lon="12.845913720513874"><ele>33.0</ele><time>2026-04-19T09:26:58Z</time></trkpt><trkpt lat="45.933246127606" lon="12.846046531696063"><ele>33.5</ele><time>2026-04-19T09:26:59Z</time></trkpt><trkpt lat="45.93320460336903" lon="12.846180905414041"><ele>34.0</ele><time>2026-04-19T09:27:00Z</time></trkpt><trkpt lat="45.933180801008746" lon="12.846329944673723"><ele>34.0</ele><time>2026-04-19T09:27:01Z</time></trkpt><trkpt lat="45.93317026135526" lon="12.846525399897498"><ele>34.0</ele><time>2026-04-19T09:27:02Z</time></trkpt><trkpt lat="45.93316921881239" lon="12.84669880017908"><ele>34.0</ele><time>2026-04-19T09:27:03Z</time></trkpt><trkpt lat="45.93318218078011" lon="12.846852203699763"><ele>34.0</ele><time>2026-04-19T09:27:04Z</time></trkpt><trkpt lat="45.93319111297218" lon="12.847042570598875"><ele>34.0</ele><time>2026-04-19T09:27:05Z</time></trkpt><trkpt lat="45.93318732009976" lon="12.847223423213846"><ele>34.0</ele><time>2026-04-19T09:27:06Z</time></trkpt><trkpt lat="45.93316228476987" lon="12.847399463643786"><ele>34.0</ele><time>2026-04-19T09:27:07Z</time></trkpt><trkpt lat="45.93310983952288" lon="12.847564589739546"><ele>34.0</ele><time>2026-04-19T09:27:08Z</time></trkpt><trkpt lat="45.9330559028057" lon="12.847723789002059"><ele>33.8</ele><time>2026-04-19T09:27:09Z</time></trkpt><trkpt lat="45.93299768219429" lon="12.847864839127551"><ele>33.599999999999994</ele><time>2026-04-19T09:27:10Z</time></trkpt><trkpt lat="45.93292644136588" lon="12.84798515637153"><ele>33.4</ele><time>2026-04-19T09:27:11Z</time></trkpt><trkpt lat="45.932865761304484" lon="12.848083571541896"><ele>33.199999999999996</ele><time>2026-04-19T09:27:12Z</time></trkpt><trkpt lat="45.932815209309176" lon="12.84815783048172"><ele>33.0</ele><time>2026-04-19T09:27:13Z</time></trkpt><trkpt lat="45.93279034523212" lon="12.848374452194317"><ele>32.75</ele><time>2026-04-19T09:27:15Z</time></trkpt><trkpt lat="45.9328195554287" lon="12.848512452954019"><ele>32.5</ele><time>2026-04-19T09:27:16Z</time></trkpt><trkpt lat="45.93285891552552" lon="12.84866386178907"><ele>32.25</ele><time>2026-04-19T09:27:17Z</time></trkpt><trkpt lat="45.93289285951413" lon="12.848829613801149"><ele>32.0</ele><time>2026-04-19T09:27:18Z</time></trkpt><trkpt lat="45.9329045200691" lon="12.849019527301085"><ele>32.0</ele><time>2026-04-19T09:27:19Z</time></trkpt><trkpt lat="45.932882614336876" lon="12.849220751443161"><ele>32.0</ele><time>2026-04-19T09:27:20Z</time></trkpt><trkpt lat="45.93285799255107" lon="12.84942682655993"><ele>32.0</ele><time>2026-04-19T09:27:21Z</time></trkpt><trkpt lat="45.93285228855091" lon="12.849639246936002"><ele>32.0</ele><time>2026-04-19T09:27:22Z</time></trkpt><trkpt lat="45.9328671126318" lon="12.849836103352818"><ele>32.0</ele><time>2026-04-19T09:27:23Z</time></trkpt><trkpt lat="45.93290056653235" lon="12.850020920062693"><ele>32.0</ele><time>2026-04-19T09:27:24Z</time></trkpt><trkpt lat="45.9329343737753" lon="12.850216278677035"><ele>32.0</ele><time>2026-04-19T09:27:25Z</time></trkpt><trkpt lat="45.93297955097398" lon="12.850418336394103"><ele>32.0</ele><time>2026-04-19T09:27:26Z</time></trkpt><trkpt lat="45.93304320456373" lon="12.850640888235002"><ele>32.666666666666664</ele><time>2026-04-19T09:27:27Z</time></trkpt><trkpt lat="45.93310044183456" lon="12.850856947108925"><ele>33.333333333333336</ele><time>2026-04-19T09:27:28Z</time></trkpt><trkpt lat="45.93317434886606" lon="12.851058261803638"><ele>34.0</ele><time>2026-04-19T09:27:29Z</time></trkpt><trkpt lat="45.93323918814886" lon="12.851252372088874"><ele>34.0</ele><time>2026-04-19T09:27:30Z</time></trkpt><trkpt lat="45.93329918114553" lon="12.851413972313065"><ele>34.0</ele><time>2026-04-19T09:27:31Z</time></trkpt><trkpt lat="45.933321464935695" lon="12.851563424842837"><ele>34.0</ele><time>2026-04-19T09:27:32Z</time></trkpt><trkpt lat="45.93333752898013" lon="12.851739457641216"><ele>34.0</ele><time>2026-04-19T09:27:33Z</time></trkpt><trkpt lat="45.933325977331094" lon="12.851908256283219"><ele>33.75</ele><time>2026-04-19T09:27:34Z</time></trkpt><trkpt lat="45.93329050961554" lon="12.852101493708298"><ele>33.5</ele><time>2026-04-19T09:27:35Z</time></trkpt><trkpt lat="45.93325273480424" lon="12.85231559063366"><ele>33.25</ele><time>2026-04-19T09:27:36Z</time></trkpt><trkpt lat="45.93321520373187" lon="12.852514576087573"><ele>33.0</ele><time>2026-04-19T09:27:37Z</time></trkpt><trkpt lat="45.93319597596264" lon="12.852695835768047"><ele>33.25</ele><time>2026-04-19T09:27:38Z</time></trkpt><trkpt lat="45.93318917762887" lon="12.852871773965504"><ele>33.5</ele><time>2026-04-19T09:27:39Z</time></trkpt><trkpt lat="45.93319746772375" lon="12.853065471833654"><ele>33.75</ele><time>2026-04-19T09:27:40Z</time></trkpt><trkpt lat="45.93321029212728" lon="12.85326464726073"><ele>34.0</ele><time>2026-04-19T09:27:41Z</time></trkpt><trkpt lat="45.93322840614944" lon="12.853466706461472"><ele>34.0</ele><time>2026-04-19T09:27:42Z</time></trkpt><trkpt lat="45.93327664814075" lon="12.853660398904566"><ele>34.0</ele><time>2026-04-19T09:27:43Z</time></trkpt><trkpt lat="45.93335644246983" lon="12.853869621530128"><ele>34.0</ele><time>2026-04-19T09:27:44Z</time></trkpt><trkpt lat="45.93345197944693" lon="12.854092046936723"><ele>33.333333333333336</ele><time>2026-04-19T09:27:45Z</time></trkpt><trkpt lat="45.93352763272451" lon="12.854307947233952"><ele>32.666666666666664</ele><time>2026-04-19T09:27:46Z</time></trkpt><trkpt lat="45.93359789220271" lon="12.85449606462526"><ele>32.0</ele><time>2026-04-19T09:27:47Z</time></trkpt><trkpt lat="45.93368350263476" lon="12.854664858789643"><ele>32.0</ele><time>2026-04-19T09:27:48Z</time></trkpt><trkpt lat="45.933790470620174" lon="12.854831200510182"><ele>32.0</ele><time>2026-04-19T09:27:49Z</time></trkpt><trkpt lat="45.93391313915563" lon="12.855002135881108"><ele>32.0</ele><time>2026-04-19T09:27:50Z</time></trkpt><trkpt lat="45.93402542198526" lon="12.855162550276397"><ele>32.0</ele><time>2026-04-19T09:27:51Z</time></trkpt><trkpt lat="45.93412117812381" lon="12.85533694700795"><ele>32.0</ele><time>2026-04-19T09:27:52Z</time></trkpt><trkpt lat="45.93420615339973" lon="12.85553644818282"><ele>32.0</ele><time>2026-04-19T09:27:53Z</time></trkpt><trkpt lat="45.9342964320659" lon="12.855757934017715"><ele>32.0</ele><time>2026-04-19T09:27:54Z</time></trkpt><trkpt lat="45.9343933362268" lon="12.855983809105433"><ele>32.0</ele><time>2026-04-19T09:27:55Z</time></trkpt><trkpt lat="45.934484639761884" lon="12.856206764399104"><ele>32.0</ele><time>2026-04-19T09:27:56Z</time></trkpt><trkpt lat="45.9345658483587" lon="12.856410158299484"><ele>32.0</ele><time>2026-04-19T09:27:57Z</time></trkpt><trkpt lat="45.934650954954904" lon="12.856620653074788"><ele>32.0</ele><time>2026-04-19T09:27:58Z</time></trkpt><trkpt lat="45.934732370142626" lon="12.856796166277297"><ele>32.0</ele><time>2026-04-19T09:27:59Z</time></trkpt><trkpt lat="45.93481494653083" lon="12.85701193945265"><ele>32.0</ele><time>2026-04-19T09:28:00Z</time></trkpt><trkpt lat="45.93489433767201" lon="12.857193572489393"><ele>32.0</ele><time>2026-04-19T09:28:01Z</time></trkpt><trkpt lat="45.93497713948613" lon="12.857392183153241"><ele>32.0</ele><time>2026-04-19T09:28:02Z</time></trkpt><trkpt lat="45.935057921113476" lon="12.857578747871006"><ele>32.5</ele><time>2026-04-19T09:28:03Z</time></trkpt><trkpt lat="45.93512978630819" lon="12.857770251587144"><ele>33.0</ele><time>2026-04-19T09:28:04Z</time></trkpt><trkpt lat="45.935205433885194" lon="12.85794097284143"><ele>33.5</ele><time>2026-04-19T09:28:05Z</time></trkpt><trkpt lat="45.93527252399941" lon="12.858096692009292"><ele>34.0</ele><time>2026-04-19T09:28:06Z</time></trkpt><trkpt lat="45.93533071516005" lon="12.858239085264568"><ele>34.0</ele><time>2026-04-19T09:28:07Z</time></trkpt><trkpt lat="45.93538121096974" lon="12.858364458401889"><ele>34.0</ele><time>2026-04-19T09:28:08Z</time></trkpt><trkpt lat="45.93542892144466" lon="12.858474492369268"><ele>34.0</ele><time>2026-04-19T09:28:09Z</time></trkpt><trkpt lat="45.93547950752199" lon="12.85857881063454"><ele>34.0</ele><time>2026-04-19T09:28:10Z</time></trkpt><trkpt lat="45.93553639765536" lon="12.858667020511318"><ele>34.0</ele><time>2026-04-19T09:28:11Z</time></trkpt><trkpt lat="45.9356024467245" lon="12.858746234175111"><ele>34.0</ele><time>2026-04-19T09:28:12Z</time></trkpt><trkpt lat="45.935716633720574" lon="12.858763342075445"><ele>34.0</ele><time>2026-04-19T09:28:13Z</time></trkpt><trkpt lat="45.935864209178206" lon="12.858777444173128"><ele>34.0</ele><time>2026-04-19T09:28:14Z</time></trkpt><trkpt lat="45.93603457836332" lon="12.858773232450757"><ele>34.0</ele><time>2026-04-19T09:28:15Z</time></trkpt><trkpt lat="45.93620034866551" lon="12.858809836237702"><ele>34.66666666666667</ele><time>2026-04-19T09:28:16Z</time></trkpt><trkpt lat="45.936382698311675" lon="12.8588283683409"><ele>35.333333333333336</ele><time>2026-04-19T09:28:17Z</time></trkpt><trkpt lat="45.93656961201416" lon="12.858847364291632"><ele>36.0</ele><time>2026-04-19T09:28:18Z</time></trkpt><trkpt lat="45.93673745167303" lon="12.85886442175179"><ele>36.333333333333336</ele><time>2026-04-19T09:28:19Z</time></trkpt><trkpt lat="45.936890521188054" lon="12.858879978132464"><ele>36.66666666666667</ele><time>2026-04-19T09:28:20Z</time></trkpt><trkpt lat="45.937043665554555" lon="12.858873534780123"><ele>37.0</ele><time>2026-04-19T09:28:21Z</time></trkpt><trkpt lat="45.93719051655043" lon="12.85889485931622"><ele>37.0</ele><time>2026-04-19T09:28:22Z</time></trkpt><trkpt lat="45.93734841610585" lon="12.858925678631353"><ele>37.0</ele><time>2026-04-19T09:28:23Z</time></trkpt><trkpt lat="45.93749624068379" lon="12.85896125057328"><ele>37.0</ele><time>2026-04-19T09:28:24Z</time></trkpt><trkpt lat="45.93765202853323" lon="12.859024583410037"><ele>36.25</ele><time>2026-04-19T09:28:25Z</time></trkpt><trkpt lat="45.93779808512924" lon="12.859063426191572"><ele>35.5</ele><time>2026-04-19T09:28:26Z</time></trkpt><trkpt lat="45.93793304327145" lon="12.859097541651044"><ele>34.75</ele><time>2026-04-19T09:28:27Z</time></trkpt><trkpt lat="45.93805635116686" lon="12.859104494306743"><ele>34.0</ele><time>2026-04-19T09:28:28Z</time></trkpt><trkpt lat="45.938170774599975" lon="12.859133554346771"><ele>34.0</ele><time>2026-04-19T09:28:29Z</time></trkpt><trkpt lat="45.93826862862146" lon="12.85920047486667"><ele>34.0</ele><time>2026-04-19T09:28:30Z</time></trkpt><trkpt lat="45.93836430644173" lon="12.859265612219705"><ele>34.0</ele><time>2026-04-19T09:28:31Z</time></trkpt><trkpt lat="45.93846616512875" lon="12.859349880967635"><ele>34.0</ele><time>2026-04-19T09:28:32Z</time></trkpt><trkpt lat="45.93856550289435" lon="12.859433791287397"><ele>34.0</ele><time>2026-04-19T09:28:33Z</time></trkpt><trkpt lat="45.938671446404044" lon="12.859552679686356"><ele>34.0</ele><time>2026-04-19T09:28:34Z</time></trkpt><trkpt lat="45.938770281201826" lon="12.859683901310227"><ele>34.0</ele><time>2026-04-19T09:28:35Z</time></trkpt><trkpt lat="45.93887829254796" lon="12.859822909865885"><ele>34.0</ele><time>2026-04-19T09:28:36Z</time></trkpt><trkpt lat="45.93899200631333" lon="12.859982295842046"><ele>34.0</ele><time>2026-04-19T09:28:37Z</time></trkpt><trkpt lat="45.93909074765792" lon="12.860136677212365"><ele>34.0</ele><time>2026-04-19T09:28:38Z</time></trkpt><trkpt lat="45.93917006947771" lon="12.860275558784583"><ele>34.0</ele><time>2026-04-19T09:28:39Z</time></trkpt><trkpt lat="45.93924098721267" lon="12.860409996831699"><ele>34.0</ele><time>2026-04-19T09:28:40Z</time></trkpt><trkpt lat="45.939308029727" lon="12.860531456864383"><ele>34.0</ele><time>2026-04-19T09:28:41Z</time></trkpt><trkpt lat="45.939380913069066" lon="12.860627751505117"><ele>34.0</ele><time>2026-04-19T09:28:42Z</time></trkpt><trkpt lat="45.93946402731326" lon="12.86069886927486"><ele>34.0</ele><time>2026-04-19T09:28:43Z</time></trkpt><trkpt lat="45.93955922159621" lon="12.860749660265265"><ele>34.0</ele><time>2026-04-19T09:28:44Z</time></trkpt><trkpt lat="45.9396562079196" lon="12.86081423553293"><ele>34.0</ele><time>2026-04-19T09:28:45Z</time></trkpt><trkpt lat="45.93976376984676" lon="12.860850222227418"><ele>34.0</ele><time>2026-04-19T09:28:46Z</time></trkpt><trkpt lat="45.939889634793914" lon="12.860878114060682"><ele>34.0</ele><time>2026-04-19T09:28:47Z</time></trkpt><trkpt lat="45.940012575639734" lon="12.860895781246313"><ele>34.0</ele><time>2026-04-19T09:28:48Z</time></trkpt><trkpt lat="45.94015237638409" lon="12.860913871038644"><ele>34.0</ele><time>2026-04-19T09:28:49Z</time></trkpt><trkpt lat="45.94029736357419" lon="12.860949274890569"><ele>34.0</ele><time>2026-04-19T09:28:50Z</time></trkpt><trkpt lat="45.940431709602215" lon="12.861004500191079"><ele>34.0</ele><time>2026-04-19T09:28:51Z</time></trkpt><trkpt lat="45.940553987651796" lon="12.861055537528028"><ele>34.5</ele><time>2026-04-19T09:28:52Z</time></trkpt><trkpt lat="45.940678239579775" lon="12.861124514616144"><ele>35.0</ele><time>2026-04-19T09:28:53Z</time></trkpt><trkpt lat="45.940793077636364" lon="12.861205929594515"><ele>35.5</ele><time>2026-04-19T09:28:54Z</time></trkpt><trkpt lat="45.940913426484784" lon="12.861307362781224"><ele>36.0</ele><time>2026-04-19T09:28:55Z</time></trkpt><trkpt lat="45.94103444623245" lon="12.861434030518081"><ele>36.333333333333336</ele><time>2026-04-19T09:28:56Z</time></trkpt><trkpt lat="45.94115924819036" lon="12.861583017596077"><ele>36.66666666666667</ele><time>2026-04-19T09:28:57Z</time></trkpt><trkpt lat="45.94130601266908" lon="12.861735692288711"><ele>37.0</ele><time>2026-04-19T09:28:58Z</time></trkpt><trkpt lat="45.94147854811144" lon="12.86185985614827"><ele>36.66666666666667</ele><time>2026-04-19T09:28:59Z</time></trkpt><trkpt lat="45.94166337431032" lon="12.861979896603815"><ele>36.333333333333336</ele><time>2026-04-19T09:29:00Z</time></trkpt><trkpt lat="45.94182375354062" lon="12.862084898153487"><ele>36.0</ele><time>2026-04-19T09:29:01Z</time></trkpt><trkpt lat="45.94195724196194" lon="12.862177242596635"><ele>36.0</ele><time>2026-04-19T09:29:02Z</time></trkpt><trkpt lat="45.94207709798944" lon="12.8622601564399"><ele>36.0</ele><time>2026-04-19T09:29:03Z</time></trkpt><trkpt lat="45.942189301046" lon="12.862342627895428"><ele>36.0</ele><time>2026-04-19T09:29:04Z</time></trkpt><trkpt lat="45.94229290652224" lon="12.86243679431784"><ele>36.0</ele><time>2026-04-19T09:29:05Z</time></trkpt><trkpt lat="45.94240993698541" lon="12.862581204345387"><ele>36.333333333333336</ele><time>2026-04-19T09:29:06Z</time></trkpt><trkpt lat="45.94253735101541" lon="12.86276316188587"><ele>36.66666666666667</ele><time>2026-04-19T09:29:07Z</time></trkpt><trkpt lat="45.94267522218467" lon="12.862976435018105"><ele>37.0</ele><time>2026-04-19T09:29:08Z</time></trkpt><trkpt lat="45.942806784744285" lon="12.863179624247342"><ele>37.0</ele><time>2026-04-19T09:29:09Z</time></trkpt><trkpt lat="45.94292278008462" lon="12.863358031605507"><ele>37.0</ele><time>2026-04-19T09:29:10Z</time></trkpt><trkpt lat="45.94302588816319" lon="12.863516559058837"><ele>37.0</ele><time>2026-04-19T09:29:11Z</time></trkpt><trkpt lat="45.94312056056189" lon="12.863671932930822"><ele>37.0</ele><time>2026-04-19T09:29:12Z</time></trkpt><trkpt lat="45.943211501249046" lon="12.863812524837071"><ele>37.0</ele><time>2026-04-19T09:29:13Z</time></trkpt><trkpt lat="45.943269695098785" lon="12.863987070448914"><ele>37.0</ele><time>2026-04-19T09:29:14Z</time></trkpt><trkpt lat="45.943323957038025" lon="12.864162028830657"><ele>37.0</ele><time>2026-04-19T09:29:15Z</time></trkpt><trkpt lat="45.943376596117304" lon="12.864337860868602"><ele>36.75</ele><time>2026-04-19T09:29:16Z</time></trkpt><trkpt lat="45.94347218184075" lon="12.864478244467694"><ele>36.5</ele><time>2026-04-19T09:29:17Z</time></trkpt><trkpt lat="45.9435651798945" lon="12.864660064046296"><ele>36.25</ele><time>2026-04-19T09:29:18Z</time></trkpt><trkpt lat="45.94363084562534" lon="12.864823096268893"><ele>36.0</ele><time>2026-04-19T09:29:19Z</time></trkpt><trkpt lat="45.943730601213105" lon="12.864941916770324"><ele>36.0</ele><time>2026-04-19T09:29:20Z</time></trkpt><trkpt lat="45.94380657317558" lon="12.865070656761063"><ele>36.0</ele><time>2026-04-19T09:29:21Z</time></trkpt><trkpt lat="45.94387238535362" lon="12.86521833503321"><ele>36.0</ele><time>2026-04-19T09:29:22Z</time></trkpt><trkpt lat="45.94392408046616" lon="12.865387663782093"><ele>36.0</ele><time>2026-04-19T09:29:23Z</time></trkpt><trkpt lat="45.94397128849679" lon="12.865573179863688"><ele>36.0</ele><time>2026-04-19T09:29:24Z</time></trkpt><trkpt lat="45.9440195287567" lon="12.86576934626386"><ele>36.0</ele><time>2026-04-19T09:29:25Z</time></trkpt><trkpt lat="45.94407427294291" lon="12.865958071087283"><ele>36.0</ele><time>2026-04-19T09:29:26Z</time></trkpt><trkpt lat="45.94412309007161" lon="12.866129623573862"><ele>36.0</ele><time>2026-04-19T09:29:27Z</time></trkpt><trkpt lat="45.944154668637864" lon="12.86630303372119"><ele>36.0</ele><time>2026-04-19T09:29:28Z</time></trkpt><trkpt lat="45.9441941799572" lon="12.866440677624123"><ele>36.0</ele><time>2026-04-19T09:29:29Z</time></trkpt><trkpt lat="45.944243388772435" lon="12.866553460136181"><ele>36.0</ele><time>2026-04-19T09:29:30Z</time></trkpt><trkpt lat="45.944279340956605" lon="12.866661924781619"><ele>36.0</ele><time>2026-04-19T09:29:31Z</time></trkpt><trkpt lat="45.944310013747625" lon="12.866756814887482"><ele>36.0</ele><time>2026-04-19T09:29:32Z</time></trkpt><trkpt lat="45.944344141464796" lon="12.866858120050791"><ele>36.0</ele><time>2026-04-19T09:29:33Z</time></trkpt><trkpt lat="45.94437459476332" lon="12.866972679225043"><ele>36.2</ele><time>2026-04-19T09:29:34Z</time></trkpt><trkpt lat="45.94440099672198" lon="12.867099967390402"><ele>36.400000000000006</ele><time>2026-04-19T09:29:35Z</time></trkpt><trkpt lat="45.94443027268609" lon="12.867240362156755"><ele>36.6</ele><time>2026-04-19T09:29:36Z</time></trkpt><trkpt lat="45.94446402268161" lon="12.867394109311293"><ele>36.800000000000004</ele><time>2026-04-19T09:29:37Z</time></trkpt><trkpt lat="45.94450615304179" lon="12.867552795801888"><ele>37.0</ele><time>2026-04-19T09:29:38Z</time></trkpt><trkpt lat="45.94455481765955" lon="12.867691970498852"><ele>37.0</ele><time>2026-04-19T09:29:39Z</time></trkpt><trkpt lat="45.944598846931996" lon="12.867865447731292"><ele>37.0</ele><time>2026-04-19T09:29:40Z</time></trkpt><trkpt lat="45.94464025915085" lon="12.868022279019748"><ele>37.0</ele><time>2026-04-19T09:29:41Z</time></trkpt><trkpt lat="45.9446814344641" lon="12.868174734682505"><ele>37.0</ele><time>2026-04-19T09:29:42Z</time></trkpt><trkpt lat="45.94471560362388" lon="12.868319982243548"><ele>37.0</ele><time>2026-04-19T09:29:43Z</time></trkpt><trkpt lat="45.944746966339174" lon="12.868441308824583"><ele>37.0</ele><time>2026-04-19T09:29:44Z</time></trkpt><trkpt lat="45.944787727534795" lon="12.868544546611673"><ele>37.0</ele><time>2026-04-19T09:29:45Z</time></trkpt><trkpt lat="45.944812244572745" lon="12.868698398886947"><ele>37.0</ele><time>2026-04-19T09:29:47Z</time></trkpt><trkpt lat="45.94482138066913" lon="12.868794204736126"><ele>37.0</ele><time>2026-04-19T09:29:50Z</time></trkpt><trkpt lat="45.944812475889286" lon="12.868933070107964"><ele>37.0</ele><time>2026-04-19T09:29:52Z</time></trkpt><trkpt lat="45.944709447496926" lon="12.869021973871883"><ele>37.4</ele><time>2026-04-19T09:29:53Z</time></trkpt><trkpt lat="45.944681431159786" lon="12.869132479424547"><ele>37.800000000000004</ele><time>2026-04-19T09:29:54Z</time></trkpt><trkpt lat="45.94465886868101" lon="12.869251145247622"><ele>38.2</ele><time>2026-04-19T09:29:55Z</time></trkpt><trkpt lat="45.94465326339367" lon="12.86937784075996"><ele>38.6</ele><time>2026-04-19T09:29:56Z</time></trkpt><trkpt lat="45.94467162727501" lon="12.86950446132196"><ele>39.0</ele><time>2026-04-19T09:29:57Z</time></trkpt><trkpt lat="45.944739129984654" lon="12.869619852582721"><ele>39.0</ele><time>2026-04-19T09:29:58Z</time></trkpt><trkpt lat="45.944822365707175" lon="12.869736687647984"><ele>39.0</ele><time>2026-04-19T09:29:59Z</time></trkpt><trkpt lat="45.944918399908424" lon="12.869864867358729"><ele>39.0</ele><time>2026-04-19T09:30:00Z</time></trkpt><trkpt lat="45.94498628099839" lon="12.870089374010172"><ele>39.0</ele><time>2026-04-19T09:30:01Z</time></trkpt><trkpt lat="45.94506486524464" lon="12.870292428763765"><ele>38.666666666666664</ele><time>2026-04-19T09:30:02Z</time></trkpt><trkpt lat="45.94515482447317" lon="12.870472510879297"><ele>38.33333333333333</ele><time>2026-04-19T09:30:03Z</time></trkpt><trkpt lat="45.94513786300256" lon="12.870772823013539"><ele>38.0</ele><time>2026-04-19T09:30:04Z</time></trkpt><trkpt lat="45.94517741933715" lon="12.871022389847694"><ele>38.33333333333333</ele><time>2026-04-19T09:30:05Z</time></trkpt><trkpt lat="45.94520066390385" lon="12.871267913012268"><ele>38.666666666666664</ele><time>2026-04-19T09:30:06Z</time></trkpt><trkpt lat="45.94522853265265" lon="12.871517618028387"><ele>39.0</ele><time>2026-04-19T09:30:07Z</time></trkpt><trkpt lat="45.94527183535985" lon="12.871774531271349"><ele>39.0</ele><time>2026-04-19T09:30:08Z</time></trkpt><trkpt lat="45.94529354341044" lon="12.871998015919814"><ele>39.0</ele><time>2026-04-19T09:30:09Z</time></trkpt><trkpt lat="45.945320596548" lon="12.872212434007862"><ele>39.0</ele><time>2026-04-19T09:30:10Z</time></trkpt><trkpt lat="45.945334069821406" lon="12.872427440352768"><ele>39.333333333333336</ele><time>2026-04-19T09:30:11Z</time></trkpt><trkpt lat="45.94535619408118" lon="12.872656275651536"><ele>39.66666666666667</ele><time>2026-04-19T09:30:12Z</time></trkpt><trkpt lat="45.945375418889974" lon="12.872861181667725"><ele>40.0</ele><time>2026-04-19T09:30:13Z</time></trkpt><trkpt lat="45.94540589823889" lon="12.87307973911819"><ele>40.0</ele><time>2026-04-19T09:30:14Z</time></trkpt><trkpt lat="45.945431035794776" lon="12.873295659913337"><ele>40.0</ele><time>2026-04-19T09:30:15Z</time></trkpt><trkpt lat="45.94547200280531" lon="12.87349992010866"><ele>40.0</ele><time>2026-04-19T09:30:16Z</time></trkpt><trkpt lat="45.94548771577166" lon="12.873708244641222"><ele>40.0</ele><time>2026-04-19T09:30:17Z</time></trkpt><trkpt lat="45.94550246587542" lon="12.873907217084664"><ele>39.66666666666667</ele><time>2026-04-19T09:30:18Z</time></trkpt><trkpt lat="45.94552291766575" lon="12.874119159400715"><ele>39.333333333333336</ele><time>2026-04-19T09:30:19Z</time></trkpt><trkpt lat="45.94555034750988" lon="12.874343593258697"><ele>39.0</ele><time>2026-04-19T09:30:20Z</time></trkpt><trkpt lat="45.94557405934124" lon="12.874562254033789"><ele>39.5</ele><time>2026-04-19T09:30:21Z</time></trkpt><trkpt lat="45.94559763628235" lon="12.874775954941837"><ele>40.0</ele><time>2026-04-19T09:30:22Z</time></trkpt><trkpt lat="45.9456221134923" lon="12.87498824659256"><ele>40.5</ele><time>2026-04-19T09:30:23Z</time></trkpt><trkpt lat="45.9456463789042" lon="12.875199250528812"><ele>41.0</ele><time>2026-04-19T09:30:24Z</time></trkpt><trkpt lat="45.94566542705551" lon="12.875406429406752"><ele>41.0</ele><time>2026-04-19T09:30:25Z</time></trkpt><trkpt lat="45.94568419661642" lon="12.875621140655683"><ele>41.0</ele><time>2026-04-19T09:30:26Z</time></trkpt><trkpt lat="45.94570451489283" lon="12.875835358202677"><ele>41.0</ele><time>2026-04-19T09:30:27Z</time></trkpt><trkpt lat="45.94572504060605" lon="12.876048575894357"><ele>41.25</ele><time>2026-04-19T09:30:28Z</time></trkpt><trkpt lat="45.94574464862799" lon="12.876271105758477"><ele>41.5</ele><time>2026-04-19T09:30:29Z</time></trkpt><trkpt lat="45.94576623118161" lon="12.87648187372038"><ele>41.75</ele><time>2026-04-19T09:30:30Z</time></trkpt><trkpt lat="45.94579139300768" lon="12.87668712483174"><ele>42.0</ele><time>2026-04-19T09:30:31Z</time></trkpt><trkpt lat="45.94581290650743" lon="12.876896284041367"><ele>41.75</ele><time>2026-04-19T09:30:32Z</time></trkpt><trkpt lat="45.945836176802835" lon="12.877104937312692"><ele>41.5</ele><time>2026-04-19T09:30:33Z</time></trkpt><trkpt lat="45.945858452970214" lon="12.877303452316088"><ele>41.25</ele><time>2026-04-19T09:30:34Z</time></trkpt><trkpt lat="45.94588719602128" lon="12.877497334429938"><ele>41.0</ele><time>2026-04-19T09:30:35Z</time></trkpt><trkpt lat="45.94592421450838" lon="12.877696757569238"><ele>40.75</ele><time>2026-04-19T09:30:36Z</time></trkpt><trkpt lat="45.94597380533243" lon="12.877866566797403"><ele>40.5</ele><time>2026-04-19T09:30:37Z</time></trkpt><trkpt lat="45.94601867351411" lon="12.878045059197301"><ele>40.25</ele><time>2026-04-19T09:30:38Z</time></trkpt><trkpt lat="45.946062263486894" lon="12.878218527781943"><ele>40.0</ele><time>2026-04-19T09:30:39Z</time></trkpt><trkpt lat="45.946106055950764" lon="12.878389127677126"><ele>40.0</ele><time>2026-04-19T09:30:40Z</time></trkpt><trkpt lat="45.946144904327056" lon="12.878554914059585"><ele>40.0</ele><time>2026-04-19T09:30:41Z</time></trkpt><trkpt lat="45.94618507488706" lon="12.878718579433578"><ele>40.0</ele><time>2026-04-19T09:30:42Z</time></trkpt><trkpt lat="45.94622047436401" lon="12.878880402638812"><ele>40.0</ele><time>2026-04-19T09:30:43Z</time></trkpt><trkpt lat="45.94624206548992" lon="12.879037311888759"><ele>40.0</ele><time>2026-04-19T09:30:44Z</time></trkpt><trkpt lat="45.946248576789316" lon="12.879183025422433"><ele>40.0</ele><time>2026-04-19T09:30:45Z</time></trkpt><trkpt lat="45.94623441453933" lon="12.87930725344622"><ele>40.0</ele><time>2026-04-19T09:30:46Z</time></trkpt><trkpt lat="45.946186760644366" lon="12.879407732323871"><ele>40.0</ele><time>2026-04-19T09:30:47Z</time></trkpt><trkpt lat="45.94610469781534" lon="12.87948565346132"><ele>40.0</ele><time>2026-04-19T09:30:48Z</time></trkpt><trkpt lat="45.94599600479586" lon="12.87955228183115"><ele>40.0</ele><time>2026-04-19T09:30:49Z</time></trkpt><trkpt lat="45.94588366218328" lon="12.879599997360131"><ele>40.0</ele><time>2026-04-19T09:30:50Z</time></trkpt><trkpt lat="45.94575268102608" lon="12.879625016044013"><ele>40.0</ele><time>2026-04-19T09:30:51Z</time></trkpt><trkpt lat="45.94562473751668" lon="12.879567040098959"><ele>40.0</ele><time>2026-04-19T09:30:52Z</time></trkpt><trkpt lat="45.94550853191719" lon="12.879466842867208"><ele>40.0</ele><time>2026-04-19T09:30:53Z</time></trkpt><trkpt lat="45.945382333015374" lon="12.879363927275705"><ele>40.0</ele><time>2026-04-19T09:30:54Z</time></trkpt><trkpt lat="45.94524719286682" lon="12.879259895213968"><ele>40.0</ele><time>2026-04-19T09:30:55Z</time></trkpt><trkpt lat="45.94511141327366" lon="12.879163694167584"><ele>40.0</ele><time>2026-04-19T09:30:56Z</time></trkpt><trkpt lat="45.94497816726257" lon="12.879074339730323"><ele>40.0</ele><time>2026-04-19T09:30:57Z</time></trkpt><trkpt lat="45.94483944322492" lon="12.878980255338204"><ele>40.0</ele><time>2026-04-19T09:30:58Z</time></trkpt><trkpt lat="45.94470112560802" lon="12.878881722774985"><ele>40.0</ele><time>2026-04-19T09:30:59Z</time></trkpt><trkpt lat="45.94455877357929" lon="12.87877914310324"><ele>40.0</ele><time>2026-04-19T09:31:00Z</time></trkpt><trkpt lat="45.94441642983022" lon="12.878678452341317"><ele>40.0</ele><time>2026-04-19T09:31:01Z</time></trkpt><trkpt lat="45.944276112227286" lon="12.878571557716443"><ele>40.0</ele><time>2026-04-19T09:31:02Z</time></trkpt><trkpt lat="45.94413023491012" lon="12.878468218007166"><ele>40.0</ele><time>2026-04-19T09:31:03Z</time></trkpt><trkpt lat="45.94398751001893" lon="12.878367052839423"><ele>40.0</ele><time>2026-04-19T09:31:04Z</time></trkpt><trkpt lat="45.943831926656074" lon="12.878269490167987"><ele>39.66666666666667</ele><time>2026-04-19T09:31:05Z</time></trkpt><trkpt lat="45.94370286499679" lon="12.878146062230877"><ele>39.333333333333336</ele><time>2026-04-19T09:31:06Z</time></trkpt><trkpt lat="45.943551370820536" lon="12.878038315690457"><ele>39.0</ele><time>2026-04-19T09:31:07Z</time></trkpt><trkpt lat="45.94341079622484" lon="12.877936517633856"><ele>39.0</ele><time>2026-04-19T09:31:08Z</time></trkpt><trkpt lat="45.943254266808786" lon="12.877829727594733"><ele>39.0</ele><time>2026-04-19T09:31:09Z</time></trkpt><trkpt lat="45.943115708029104" lon="12.877714230787163"><ele>39.0</ele><time>2026-04-19T09:31:10Z</time></trkpt><trkpt lat="45.942972300821" lon="12.87760688973484"><ele>39.0</ele><time>2026-04-19T09:31:11Z</time></trkpt><trkpt lat="45.94283375739569" lon="12.877503189227939"><ele>39.0</ele><time>2026-04-19T09:31:12Z</time></trkpt><trkpt lat="45.942694451119614" lon="12.877399193136261"><ele>39.0</ele><time>2026-04-19T09:31:13Z</time></trkpt><trkpt lat="45.94254960295314" lon="12.877313687175336"><ele>39.333333333333336</ele><time>2026-04-19T09:31:14Z</time></trkpt><trkpt lat="45.94240718473147" lon="12.877185283180415"><ele>39.66666666666667</ele><time>2026-04-19T09:31:15Z</time></trkpt><trkpt lat="45.942262864693255" lon="12.87707781689336"><ele>40.0</ele><time>2026-04-19T09:31:16Z</time></trkpt><trkpt lat="45.94212273931835" lon="12.876973474025373"><ele>40.0</ele><time>2026-04-19T09:31:17Z</time></trkpt><trkpt lat="45.94197875226031" lon="12.876891040332426"><ele>40.0</ele><time>2026-04-19T09:31:18Z</time></trkpt><trkpt lat="45.94184467847765" lon="12.876790919652473"><ele>40.0</ele><time>2026-04-19T09:31:19Z</time></trkpt><trkpt lat="45.94171330087664" lon="12.876688148998781"><ele>41.0</ele><time>2026-04-19T09:31:20Z</time></trkpt><trkpt lat="45.941577426618046" lon="12.876586220042473"><ele>42.0</ele><time>2026-04-19T09:31:21Z</time></trkpt><trkpt lat="45.941445849799635" lon="12.876480294809973"><ele>43.0</ele><time>2026-04-19T09:31:22Z</time></trkpt><trkpt lat="45.94130928834972" lon="12.876383648895596"><ele>43.0</ele><time>2026-04-19T09:31:23Z</time></trkpt><trkpt lat="45.94117474464046" lon="12.876285311301313"><ele>43.0</ele><time>2026-04-19T09:31:24Z</time></trkpt><trkpt lat="45.94103379530127" lon="12.876163128261462"><ele>43.0</ele><time>2026-04-19T09:31:25Z</time></trkpt><trkpt lat="45.940887416474496" lon="12.876075926123011"><ele>41.333333333333336</ele><time>2026-04-19T09:31:26Z</time></trkpt><trkpt lat="45.94074712813424" lon="12.875975798488627"><ele>39.666666666666664</ele><time>2026-04-19T09:31:27Z</time></trkpt><trkpt lat="45.94060044750072" lon="12.87586693863913"><ele>38.0</ele><time>2026-04-19T09:31:28Z</time></trkpt><trkpt lat="45.94045439067891" lon="12.875774578573846"><ele>37.666666666666664</ele><time>2026-04-19T09:31:29Z</time></trkpt><trkpt lat="45.940323004826546" lon="12.875633304864326"><ele>37.333333333333336</ele><time>2026-04-19T09:31:30Z</time></trkpt><trkpt lat="45.94016705868502" lon="12.875553171877176"><ele>37.0</ele><time>2026-04-19T09:31:31Z</time></trkpt><trkpt lat="45.94002178460244" lon="12.875445760550184"><ele>37.0</ele><time>2026-04-19T09:31:32Z</time></trkpt><trkpt lat="45.93987844884814" lon="12.87533999403615"><ele>37.0</ele><time>2026-04-19T09:31:33Z</time></trkpt><trkpt lat="45.93974036796399" lon="12.875227861631839"><ele>37.0</ele><time>2026-04-19T09:31:34Z</time></trkpt><trkpt lat="45.939611592279185" lon="12.875101669646119"><ele>37.0</ele><time>2026-04-19T09:31:35Z</time></trkpt><trkpt lat="45.93946496424774" lon="12.87499226167036"><ele>37.0</ele><time>2026-04-19T09:31:36Z</time></trkpt><trkpt lat="45.93932305346586" lon="12.874883016977812"><ele>37.0</ele><time>2026-04-19T09:31:37Z</time></trkpt><trkpt lat="45.93918168415203" lon="12.874777688879794"><ele>36.66666666666667</ele><time>2026-04-19T09:31:38Z</time></trkpt><trkpt lat="45.93903661324424" lon="12.874670800616165"><ele>36.333333333333336</ele><time>2026-04-19T09:31:39Z</time></trkpt><trkpt lat="45.93888949337932" lon="12.874562255988863"><ele>36.0</ele><time>2026-04-19T09:31:40Z</time></trkpt><trkpt lat="45.93874089220874" lon="12.874450602596818"><ele>36.0</ele><time>2026-04-19T09:31:41Z</time></trkpt><trkpt lat="45.93859723546434" lon="12.874342664248692"><ele>36.0</ele><time>2026-04-19T09:31:42Z</time></trkpt><trkpt lat="45.938466871714716" lon="12.874245303231502"><ele>36.0</ele><time>2026-04-19T09:31:43Z</time></trkpt><trkpt lat="45.938334787604326" lon="12.874173232436469"><ele>36.0</ele><time>2026-04-19T09:31:44Z</time></trkpt><trkpt lat="45.93822092465835" lon="12.87406185335986"><ele>36.0</ele><time>2026-04-19T09:31:45Z</time></trkpt><trkpt lat="45.93809915419917" lon="12.873989053873402"><ele>36.0</ele><time>2026-04-19T09:31:46Z</time></trkpt><trkpt lat="45.938000552903674" lon="12.8738881777151"><ele>36.0</ele><time>2026-04-19T09:31:47Z</time></trkpt><trkpt lat="45.937900874340066" lon="12.873823685700193"><ele>36.0</ele><time>2026-04-19T09:31:48Z</time></trkpt><trkpt lat="45.93781691883643" lon="12.87374148869376"><ele>36.0</ele><time>2026-04-19T09:31:49Z</time></trkpt><trkpt lat="45.93776797946556" lon="12.873656094031807"><ele>36.0</ele><time>2026-04-19T09:31:50Z</time></trkpt><trkpt lat="45.93772238112179" lon="12.873552222111803"><ele>36.0</ele><time>2026-04-19T09:31:51Z</time></trkpt><trkpt lat="45.93770499155324" lon="12.873430975913442"><ele>36.0</ele><time>2026-04-19T09:31:52Z</time></trkpt><trkpt lat="45.93773428748852" lon="12.87329534861322"><ele>36.0</ele><time>2026-04-19T09:31:53Z</time></trkpt><trkpt lat="45.93774730423207" lon="12.873151278251045"><ele>35.8</ele><time>2026-04-19T09:31:54Z</time></trkpt><trkpt lat="45.937730698465174" lon="12.872996740981035"><ele>35.6</ele><time>2026-04-19T09:31:55Z</time></trkpt><trkpt lat="45.937689029064735" lon="12.872865391750928"><ele>35.4</ele><time>2026-04-19T09:31:56Z</time></trkpt><trkpt lat="45.93759227827511" lon="12.872753164314043"><ele>35.2</ele><time>2026-04-19T09:31:57Z</time></trkpt><trkpt lat="45.93750370129048" lon="12.872698504877572"><ele>35.0</ele><time>2026-04-19T09:31:58Z</time></trkpt><trkpt lat="45.93740184688149" lon="12.872701390262552"><ele>35.0</ele><time>2026-04-19T09:31:59Z</time></trkpt><trkpt lat="45.937305684621805" lon="12.872695556723093"><ele>35.0</ele><time>2026-04-19T09:32:00Z</time></trkpt><trkpt lat="45.93721720926675" lon="12.872783168737906"><ele>35.0</ele><time>2026-04-19T09:32:01Z</time></trkpt><trkpt lat="45.93714080640236" lon="12.872858140075524"><ele>35.0</ele><time>2026-04-19T09:32:02Z</time></trkpt><trkpt lat="45.93708272517165" lon="12.872949423892951"><ele>35.0</ele><time>2026-04-19T09:32:03Z</time></trkpt><trkpt lat="45.93698545780896" lon="12.872980207519861"><ele>35.0</ele><time>2026-04-19T09:32:04Z</time></trkpt><trkpt lat="45.936885986966416" lon="12.872990801361476"><ele>35.0</ele><time>2026-04-19T09:32:05Z</time></trkpt><trkpt lat="45.93678770357882" lon="12.873012672809127"><ele>35.0</ele><time>2026-04-19T09:32:06Z</time></trkpt><trkpt lat="45.9366690632683" lon="12.872911215066349"><ele>35.0</ele><time>2026-04-19T09:32:07Z</time></trkpt><trkpt lat="45.93655573146294" lon="12.872826397225248"><ele>35.0</ele><time>2026-04-19T09:32:08Z</time></trkpt><trkpt lat="45.93645493777084" lon="12.872751062496686"><ele>35.0</ele><time>2026-04-19T09:32:09Z</time></trkpt><trkpt lat="45.93634330515585" lon="12.872669418224739"><ele>35.0</ele><time>2026-04-19T09:32:10Z</time></trkpt><trkpt lat="45.93623227306024" lon="12.872591708431234"><ele>35.0</ele><time>2026-04-19T09:32:11Z</time></trkpt><trkpt lat="45.93611890137874" lon="12.872511781350841"><ele>34.75</ele><time>2026-04-19T09:32:12Z</time></trkpt><trkpt lat="45.93600062625793" lon="12.872427969213367"><ele>34.5</ele><time>2026-04-19T09:32:13Z</time></trkpt><trkpt lat="45.93588222277394" lon="12.872340524847619"><ele>34.25</ele><time>2026-04-19T09:32:14Z</time></trkpt><trkpt lat="45.93576775335222" lon="12.87225786341083"><ele>34.0</ele><time>2026-04-19T09:32:15Z</time></trkpt><trkpt lat="45.93565659223472" lon="12.872174394401036"><ele>34.5</ele><time>2026-04-19T09:32:16Z</time></trkpt><trkpt lat="45.93554488589941" lon="12.87208872304776"><ele>35.0</ele><time>2026-04-19T09:32:17Z</time></trkpt><trkpt lat="45.93542811558388" lon="12.8719992879611"><ele>35.5</ele><time>2026-04-19T09:32:18Z</time></trkpt><trkpt lat="45.935307700349156" lon="12.871890612789853"><ele>36.0</ele><time>2026-04-19T09:32:19Z</time></trkpt><trkpt lat="45.93518250522482" lon="12.871790902123074"><ele>36.333333333333336</ele><time>2026-04-19T09:32:20Z</time></trkpt><trkpt lat="45.93504044116727" lon="12.871711353927914"><ele>36.66666666666667</ele><time>2026-04-19T09:32:21Z</time></trkpt><trkpt lat="45.93490879416855" lon="12.871606568323548"><ele>37.0</ele><time>2026-04-19T09:32:22Z</time></trkpt><trkpt lat="45.93477126118157" lon="12.871492682220229"><ele>37.0</ele><time>2026-04-19T09:32:23Z</time></trkpt><trkpt lat="45.93463601150681" lon="12.871393625136463"><ele>37.0</ele><time>2026-04-19T09:32:24Z</time></trkpt><trkpt lat="45.934497198711796" lon="12.871279924545505"><ele>37.0</ele><time>2026-04-19T09:32:25Z</time></trkpt><trkpt lat="45.934380001962985" lon="12.871199517439049"><ele>37.0</ele><time>2026-04-19T09:32:26Z</time></trkpt><trkpt lat="45.93424886823703" lon="12.871127034064495"><ele>36.5</ele><time>2026-04-19T09:32:27Z</time></trkpt><trkpt lat="45.93408669440055" lon="12.871090336393879"><ele>36.0</ele><time>2026-04-19T09:32:28Z</time></trkpt><trkpt lat="45.93393395717882" lon="12.871064342482748"><ele>35.5</ele><time>2026-04-19T09:32:29Z</time></trkpt><trkpt lat="45.93380563173343" lon="12.87108862656491"><ele>35.0</ele><time>2026-04-19T09:32:30Z</time></trkpt><trkpt lat="45.933682401097336" lon="12.871095339538362"><ele>35.0</ele><time>2026-04-19T09:32:31Z</time></trkpt><trkpt lat="45.93354473245912" lon="12.871136860717822"><ele>35.0</ele><time>2026-04-19T09:32:32Z</time></trkpt><trkpt lat="45.93340453623997" lon="12.871184026099558"><ele>35.0</ele><time>2026-04-19T09:32:33Z</time></trkpt><trkpt lat="45.93326353188656" lon="12.871220124055037"><ele>35.0</ele><time>2026-04-19T09:32:34Z</time></trkpt><trkpt lat="45.93311758452454" lon="12.871255354356018"><ele>35.0</ele><time>2026-04-19T09:32:35Z</time></trkpt><trkpt lat="45.93297202730263" lon="12.871293400540917"><ele>35.0</ele><time>2026-04-19T09:32:36Z</time></trkpt><trkpt lat="45.932830526366054" lon="12.871333320737593"><ele>35.0</ele><time>2026-04-19T09:32:37Z</time></trkpt><trkpt lat="45.932692800199966" lon="12.87137878494357"><ele>35.0</ele><time>2026-04-19T09:32:38Z</time></trkpt><trkpt lat="45.93254297074578" lon="12.871413573802384"><ele>35.0</ele><time>2026-04-19T09:32:39Z</time></trkpt><trkpt lat="45.93239634510567" lon="12.871442050054721"><ele>35.0</ele><time>2026-04-19T09:32:40Z</time></trkpt><trkpt lat="45.93226408299629" lon="12.871483436693197"><ele>35.0</ele><time>2026-04-19T09:32:41Z</time></trkpt><trkpt lat="45.93212641076953" lon="12.871511196036352"><ele>35.0</ele><time>2026-04-19T09:32:42Z</time></trkpt><trkpt lat="45.93199978341844" lon="12.871552127477274"><ele>35.0</ele><time>2026-04-19T09:32:43Z</time></trkpt><trkpt lat="45.931880284834634" lon="12.871582986342169"><ele>35.0</ele><time>2026-04-19T09:32:44Z</time></trkpt><trkpt lat="45.9317754872884" lon="12.87162711521395"><ele>35.0</ele><time>2026-04-19T09:32:45Z</time></trkpt><trkpt lat="45.931680023345926" lon="12.87165219144966"><ele>35.0</ele><time>2026-04-19T09:32:46Z</time></trkpt><trkpt lat="45.9315988696099" lon="12.871677933243221"><ele>35.0</ele><time>2026-04-19T09:32:47Z</time></trkpt><trkpt lat="45.93153111355621" lon="12.87166347748219"><ele>34.8</ele><time>2026-04-19T09:32:48Z</time></trkpt><trkpt lat="45.93144695261727" lon="12.871599143818312"><ele>34.6</ele><time>2026-04-19T09:32:49Z</time></trkpt><trkpt lat="45.9313451813495" lon="12.87157269780123"><ele>34.4</ele><time>2026-04-19T09:32:51Z</time></trkpt><trkpt lat="45.93132615127856" lon="12.871689755939585"><ele>34.2</ele><time>2026-04-19T09:32:52Z</time></trkpt><trkpt lat="45.93135914200712" lon="12.871604539266748"><ele>34.0</ele><time>2026-04-19T09:35:31Z</time></trkpt><trkpt lat="45.93137298801285" lon="12.871770880260947"><ele>34.0</ele><time>2026-04-19T09:37:31Z</time></trkpt><trkpt lat="45.931466388195105" lon="12.871764650955416"><ele>34.0</ele><time>2026-04-19T09:37:32Z</time></trkpt><trkpt lat="45.93158470181436" lon="12.871735432344247"><ele>34.0</ele><time>2026-04-19T09:37:33Z</time></trkpt><trkpt lat="45.93169663546704" lon="12.871695853528559"><ele>34.0</ele><time>2026-04-19T09:37:34Z</time></trkpt><trkpt lat="45.93181912289077" lon="12.871663691777076"><ele>34.25</ele><time>2026-04-19T09:37:35Z</time></trkpt><trkpt lat="45.931953376578" lon="12.871630598241898"><ele>34.5</ele><time>2026-04-19T09:37:36Z</time></trkpt><trkpt lat="45.93210427722324" lon="12.87159672973022"><ele>34.75</ele><time>2026-04-19T09:37:37Z</time></trkpt><trkpt lat="45.932245151039865" lon="12.871550340625891"><ele>35.0</ele><time>2026-04-19T09:37:38Z</time></trkpt><trkpt lat="45.93241182236301" lon="12.871522198205144"><ele>34.0</ele><time>2026-04-19T09:37:39Z</time></trkpt><trkpt lat="45.93256808271794" lon="12.871479567555195"><ele>33.0</ele><time>2026-04-19T09:37:40Z</time></trkpt><trkpt lat="45.932732969143494" lon="12.871431732288912"><ele>32.0</ele><time>2026-04-19T09:37:41Z</time></trkpt><trkpt lat="45.93288298457775" lon="12.871379909245604"><ele>32.0</ele><time>2026-04-19T09:37:42Z</time></trkpt><trkpt lat="45.933051908671935" lon="12.871341186745223"><ele>32.0</ele><time>2026-04-19T09:37:43Z</time></trkpt><trkpt lat="45.9332229702435" lon="12.871296094979565"><ele>32.0</ele><time>2026-04-19T09:37:44Z</time></trkpt><trkpt lat="45.933368291118406" lon="12.871287409236963"><ele>33.0</ele><time>2026-04-19T09:37:45Z</time></trkpt><trkpt lat="45.93350915062222" lon="12.871251606954058"><ele>34.0</ele><time>2026-04-19T09:37:46Z</time></trkpt><trkpt lat="45.93364884984002" lon="12.871229604791743"><ele>35.0</ele><time>2026-04-19T09:37:47Z</time></trkpt><trkpt lat="45.9338308672636" lon="12.871198096378706"><ele>35.0</ele><time>2026-04-19T09:37:48Z</time></trkpt><trkpt lat="45.93399953145521" lon="12.87120882259818"><ele>35.0</ele><time>2026-04-19T09:37:49Z</time></trkpt><trkpt lat="45.934153174414334" lon="12.87124464538221"><ele>35.0</ele><time>2026-04-19T09:37:50Z</time></trkpt><trkpt lat="45.93430639911164" lon="12.871285491612474"><ele>35.666666666666664</ele><time>2026-04-19T09:37:51Z</time></trkpt><trkpt lat="45.934466153047104" lon="12.871383723539983"><ele>36.333333333333336</ele><time>2026-04-19T09:37:52Z</time></trkpt><trkpt lat="45.93461596009888" lon="12.87148865252576"><ele>37.0</ele><time>2026-04-19T09:37:53Z</time></trkpt><trkpt lat="45.93476037622849" lon="12.87160885876386"><ele>37.0</ele><time>2026-04-19T09:37:54Z</time></trkpt><trkpt lat="45.934911616558324" lon="12.87170665895763"><ele>37.0</ele><time>2026-04-19T09:37:55Z</time></trkpt><trkpt lat="45.93506561931643" lon="12.871821085926243"><ele>37.0</ele><time>2026-04-19T09:37:56Z</time></trkpt><trkpt lat="45.93522192432301" lon="12.871933116042985"><ele>36.66666666666667</ele><time>2026-04-19T09:37:57Z</time></trkpt><trkpt lat="45.935373983533665" lon="12.872038787158425"><ele>36.333333333333336</ele><time>2026-04-19T09:37:58Z</time></trkpt><trkpt lat="45.93552398951915" lon="12.872140055371391"><ele>36.0</ele><time>2026-04-19T09:37:59Z</time></trkpt><trkpt lat="45.93566857819998" lon="12.872240658395931"><ele>36.0</ele><time>2026-04-19T09:38:00Z</time></trkpt><trkpt lat="45.93579990042131" lon="12.872353949559164"><ele>36.0</ele><time>2026-04-19T09:38:01Z</time></trkpt><trkpt lat="45.935938765728544" lon="12.872461352326985"><ele>36.0</ele><time>2026-04-19T09:38:02Z</time></trkpt><trkpt lat="45.93608895409508" lon="12.872558812721683"><ele>35.75</ele><time>2026-04-19T09:38:03Z</time></trkpt><trkpt lat="45.936224860078134" lon="12.872658802912534"><ele>35.5</ele><time>2026-04-19T09:38:04Z</time></trkpt><trkpt lat="45.93636190083487" lon="12.872755085355665"><ele>35.25</ele><time>2026-04-19T09:38:05Z</time></trkpt><trkpt lat="45.93648555964636" lon="12.872849630071018"><ele>35.0</ele><time>2026-04-19T09:38:06Z</time></trkpt><trkpt lat="45.93659618038188" lon="12.872918774374357"><ele>35.0</ele><time>2026-04-19T09:38:07Z</time></trkpt><trkpt lat="45.9367230371293" lon="12.873006488090937"><ele>35.0</ele><time>2026-04-19T09:38:08Z</time></trkpt><trkpt lat="45.9368169556372" lon="12.873070833025691"><ele>35.0</ele><time>2026-04-19T09:38:09Z</time></trkpt><trkpt lat="45.936881902793985" lon="12.873113426290654"><ele>35.0</ele><time>2026-04-19T09:38:10Z</time></trkpt><trkpt lat="45.93696083167468" lon="12.873157315145738"><ele>35.0</ele><time>2026-04-19T09:38:11Z</time></trkpt><trkpt lat="45.937029681099055" lon="12.873243229238492"><ele>35.0</ele><time>2026-04-19T09:38:12Z</time></trkpt><trkpt lat="45.937112327495754" lon="12.873357744343437"><ele>35.0</ele><time>2026-04-19T09:38:13Z</time></trkpt><trkpt lat="45.937171027957184" lon="12.873484326494813"><ele>35.0</ele><time>2026-04-19T09:38:14Z</time></trkpt><trkpt lat="45.937213128285514" lon="12.873661488585961"><ele>35.0</ele><time>2026-04-19T09:38:15Z</time></trkpt><trkpt lat="45.93719954128922" lon="12.873847884040451"><ele>35.75</ele><time>2026-04-19T09:38:16Z</time></trkpt><trkpt lat="45.937087739757615" lon="12.874010954572077"><ele>36.5</ele><time>2026-04-19T09:38:17Z</time></trkpt><trkpt lat="45.93702509309749" lon="12.87418783936967"><ele>37.25</ele><time>2026-04-19T09:38:18Z</time></trkpt><trkpt lat="45.93695846102434" lon="12.874380404264107"><ele>38.0</ele><time>2026-04-19T09:38:19Z</time></trkpt><trkpt lat="45.93689125877146" lon="12.874573333006257"><ele>38.0</ele><time>2026-04-19T09:38:20Z</time></trkpt><trkpt lat="45.93685394887675" lon="12.874794888658686"><ele>38.0</ele><time>2026-04-19T09:38:21Z</time></trkpt><trkpt lat="45.936782765263054" lon="12.87499796952062"><ele>38.0</ele><time>2026-04-19T09:38:22Z</time></trkpt><trkpt lat="45.93670940025973" lon="12.875207273735832"><ele>37.33333333333333</ele><time>2026-04-19T09:38:23Z</time></trkpt><trkpt lat="45.936633130460834" lon="12.875419331521186"><ele>36.666666666666664</ele><time>2026-04-19T09:38:24Z</time></trkpt><trkpt lat="45.93655503487505" lon="12.875631558493225"><ele>36.0</ele><time>2026-04-19T09:38:25Z</time></trkpt><trkpt lat="45.93647409612235" lon="12.875851511804816"><ele>36.333333333333336</ele><time>2026-04-19T09:38:26Z</time></trkpt><trkpt lat="45.93639893644457" lon="12.87605834367897"><ele>36.66666666666667</ele><time>2026-04-19T09:38:27Z</time></trkpt><trkpt lat="45.93632222628282" lon="12.876272126847384"><ele>37.0</ele><time>2026-04-19T09:38:28Z</time></trkpt><trkpt lat="45.93625010252776" lon="12.876473125706681"><ele>37.0</ele><time>2026-04-19T09:38:29Z</time></trkpt><trkpt lat="45.93616905295345" lon="12.8766979082766"><ele>37.0</ele><time>2026-04-19T09:38:30Z</time></trkpt><trkpt lat="45.93609041106277" lon="12.876916331516842"><ele>37.0</ele><time>2026-04-19T09:38:31Z</time></trkpt><trkpt lat="45.93601095212845" lon="12.877137023835196"><ele>36.66666666666667</ele><time>2026-04-19T09:38:32Z</time></trkpt><trkpt lat="45.93593791336393" lon="12.877339884573638"><ele>36.333333333333336</ele><time>2026-04-19T09:38:33Z</time></trkpt><trkpt lat="45.935859239821646" lon="12.877558393244485"><ele>36.0</ele><time>2026-04-19T09:38:34Z</time></trkpt><trkpt lat="45.93578700401083" lon="12.877760967961049"><ele>35.333333333333336</ele><time>2026-04-19T09:38:35Z</time></trkpt><trkpt lat="45.93570768721179" lon="12.877982917833563"><ele>34.66666666666667</ele><time>2026-04-19T09:38:36Z</time></trkpt><trkpt lat="45.935630633297244" lon="12.878196174636601"><ele>34.0</ele><time>2026-04-19T09:38:37Z</time></trkpt><trkpt lat="45.935555197791174" lon="12.878402438501144"><ele>34.66666666666667</ele><time>2026-04-19T09:38:38Z</time></trkpt><trkpt lat="45.93547536287079" lon="12.878620731612768"><ele>35.333333333333336</ele><time>2026-04-19T09:38:39Z</time></trkpt><trkpt lat="45.9353966557314" lon="12.87883594111793"><ele>36.0</ele><time>2026-04-19T09:38:40Z</time></trkpt><trkpt lat="45.9353263857299" lon="12.879029163579453"><ele>36.0</ele><time>2026-04-19T09:38:41Z</time></trkpt><trkpt lat="45.93525585142482" lon="12.879225969038258"><ele>36.0</ele><time>2026-04-19T09:38:42Z</time></trkpt><trkpt lat="45.93518372487323" lon="12.879427217175982"><ele>36.0</ele><time>2026-04-19T09:38:43Z</time></trkpt><trkpt lat="45.93511396249191" lon="12.87962768544356"><ele>36.0</ele><time>2026-04-19T09:38:44Z</time></trkpt><trkpt lat="45.93504993912816" lon="12.87982845915691"><ele>36.0</ele><time>2026-04-19T09:38:45Z</time></trkpt><trkpt lat="45.934995265362154" lon="12.8800282856178"><ele>36.0</ele><time>2026-04-19T09:38:46Z</time></trkpt><trkpt lat="45.934948936247864" lon="12.880229856556296"><ele>35.333333333333336</ele><time>2026-04-19T09:38:47Z</time></trkpt><trkpt lat="45.93491067264057" lon="12.880449634421685"><ele>34.66666666666667</ele><time>2026-04-19T09:38:48Z</time></trkpt><trkpt lat="45.93488243789705" lon="12.880669760090553"><ele>34.0</ele><time>2026-04-19T09:38:49Z</time></trkpt><trkpt lat="45.93486226894665" lon="12.880898314812438"><ele>33.66666666666667</ele><time>2026-04-19T09:38:50Z</time></trkpt><trkpt lat="45.93483998261123" lon="12.88113041422375"><ele>33.333333333333336</ele><time>2026-04-19T09:38:51Z</time></trkpt><trkpt lat="45.934849683449464" lon="12.881382226704801"><ele>33.0</ele><time>2026-04-19T09:38:52Z</time></trkpt><trkpt lat="45.93485592817438" lon="12.881627089920082"><ele>33.666666666666664</ele><time>2026-04-19T09:38:53Z</time></trkpt><trkpt lat="45.934878651469695" lon="12.881882268840023"><ele>34.33333333333333</ele><time>2026-04-19T09:38:54Z</time></trkpt><trkpt lat="45.934901970663965" lon="12.8821446044534"><ele>35.0</ele><time>2026-04-19T09:38:55Z</time></trkpt><trkpt lat="45.93492985045817" lon="12.88239226743674"><ele>35.0</ele><time>2026-04-19T09:38:56Z</time></trkpt><trkpt lat="45.93494682920297" lon="12.882649478860705"><ele>35.0</ele><time>2026-04-19T09:38:57Z</time></trkpt><trkpt lat="45.934980918355485" lon="12.882869419557517"><ele>35.0</ele><time>2026-04-19T09:38:58Z</time></trkpt><trkpt lat="45.93500715152057" lon="12.883054197368505"><ele>35.0</ele><time>2026-04-19T09:38:59Z</time></trkpt><trkpt lat="45.935036872494706" lon="12.883292925024517"><ele>35.0</ele><time>2026-04-19T09:39:00Z</time></trkpt><trkpt lat="45.93504649161605" lon="12.883523213281233"><ele>35.0</ele><time>2026-04-19T09:39:01Z</time></trkpt><trkpt lat="45.935073391179834" lon="12.88373273583332"><ele>35.0</ele><time>2026-04-19T09:39:02Z</time></trkpt><trkpt lat="45.9351021958409" lon="12.883952768326377"><ele>35.0</ele><time>2026-04-19T09:39:03Z</time></trkpt><trkpt lat="45.93512737288329" lon="12.884169457188815"><ele>35.0</ele><time>2026-04-19T09:39:04Z</time></trkpt><trkpt lat="45.93515066854938" lon="12.884385176976798"><ele>35.0</ele><time>2026-04-19T09:39:05Z</time></trkpt><trkpt lat="45.93517685681308" lon="12.884603867843024"><ele>35.0</ele><time>2026-04-19T09:39:06Z</time></trkpt><trkpt lat="45.93520756171911" lon="12.88483026995685"><ele>35.0</ele><time>2026-04-19T09:39:07Z</time></trkpt><trkpt lat="45.93523259167824" lon="12.885059137257427"><ele>35.0</ele><time>2026-04-19T09:39:08Z</time></trkpt><trkpt lat="45.93525403849698" lon="12.885292345609395"><ele>35.0</ele><time>2026-04-19T09:39:09Z</time></trkpt><trkpt lat="45.93527732339341" lon="12.88552247401005"><ele>35.0</ele><time>2026-04-19T09:39:10Z</time></trkpt><trkpt lat="45.935298366139286" lon="12.885754207873008"><ele>35.33333333333333</ele><time>2026-04-19T09:39:11Z</time></trkpt><trkpt lat="45.93532912120913" lon="12.885969670163092"><ele>35.666666666666664</ele><time>2026-04-19T09:39:12Z</time></trkpt><trkpt lat="45.93534871253125" lon="12.886192209223164"><ele>36.0</ele><time>2026-04-19T09:39:13Z</time></trkpt><trkpt lat="45.93537162988733" lon="12.88641756897401"><ele>36.0</ele><time>2026-04-19T09:39:14Z</time></trkpt><trkpt lat="45.93539439400548" lon="12.886633709607187"><ele>36.0</ele><time>2026-04-19T09:39:15Z</time></trkpt><trkpt lat="45.935433860905796" lon="12.886845534363301"><ele>36.0</ele><time>2026-04-19T09:39:16Z</time></trkpt><trkpt lat="45.935457461386086" lon="12.887057413761596"><ele>36.25</ele><time>2026-04-19T09:39:17Z</time></trkpt><trkpt lat="45.93548243994499" lon="12.887282980661622"><ele>36.5</ele><time>2026-04-19T09:39:18Z</time></trkpt><trkpt lat="45.93550565526591" lon="12.887492624878588"><ele>36.75</ele><time>2026-04-19T09:39:19Z</time></trkpt><trkpt lat="45.93552732942656" lon="12.887688350853939"><ele>37.0</ele><time>2026-04-19T09:39:20Z</time></trkpt><trkpt lat="45.935548993038644" lon="12.88788538740036"><ele>37.0</ele><time>2026-04-19T09:39:21Z</time></trkpt><trkpt lat="45.93556845583893" lon="12.888086757857419"><ele>37.0</ele><time>2026-04-19T09:39:22Z</time></trkpt><trkpt lat="45.935588898165484" lon="12.888278061709196"><ele>37.0</ele><time>2026-04-19T09:39:23Z</time></trkpt><trkpt lat="45.93561617603933" lon="12.88844699575976"><ele>37.0</ele><time>2026-04-19T09:39:24Z</time></trkpt><trkpt lat="45.9356598272616" lon="12.888601203907383"><ele>36.75</ele><time>2026-04-19T09:39:25Z</time></trkpt><trkpt lat="45.93572196175032" lon="12.888780048152768"><ele>36.5</ele><time>2026-04-19T09:39:26Z</time></trkpt><trkpt lat="45.93582438923603" lon="12.88892104870035"><ele>36.25</ele><time>2026-04-19T09:39:27Z</time></trkpt><trkpt lat="45.93593865394291" lon="12.889028047380355"><ele>36.0</ele><time>2026-04-19T09:39:28Z</time></trkpt><trkpt lat="45.936060582241204" lon="12.889089871599625"><ele>36.0</ele><time>2026-04-19T09:39:29Z</time></trkpt><trkpt lat="45.936187137707094" lon="12.889120717956152"><ele>36.0</ele><time>2026-04-19T09:39:30Z</time></trkpt><trkpt lat="45.93631018880126" lon="12.889146857201622"><ele>36.0</ele><time>2026-04-19T09:39:31Z</time></trkpt><trkpt lat="45.936420719820006" lon="12.889127394454782"><ele>36.0</ele><time>2026-04-19T09:39:32Z</time></trkpt><trkpt lat="45.936516542304794" lon="12.88908313731228"><ele>36.0</ele><time>2026-04-19T09:39:33Z</time></trkpt><trkpt lat="45.9365986342678" lon="12.889081927483563"><ele>36.0</ele><time>2026-04-19T09:39:34Z</time></trkpt><trkpt lat="45.93667257953372" lon="12.889110749631895"><ele>36.0</ele><time>2026-04-19T09:39:35Z</time></trkpt><trkpt lat="45.93675848804313" lon="12.889291203770613"><ele>36.0</ele><time>2026-04-19T09:39:37Z</time></trkpt><trkpt lat="45.9367559515906" lon="12.889434833821847"><ele>36.0</ele><time>2026-04-19T09:39:38Z</time></trkpt><trkpt lat="45.936740612825396" lon="12.889597238428463"><ele>36.2</ele><time>2026-04-19T09:39:39Z</time></trkpt><trkpt lat="45.93673188983492" lon="12.889770601279317"><ele>36.400000000000006</ele><time>2026-04-19T09:39:40Z</time></trkpt><trkpt lat="45.93673708792192" lon="12.889940482040036"><ele>36.6</ele><time>2026-04-19T09:39:41Z</time></trkpt><trkpt lat="45.9367393239987" lon="12.890072748059065"><ele>36.800000000000004</ele><time>2026-04-19T09:39:42Z</time></trkpt><trkpt lat="45.936729735063224" lon="12.890184115770005"><ele>37.0</ele><time>2026-04-19T09:39:43Z</time></trkpt><trkpt lat="45.93668736756834" lon="12.890329194346778"><ele>36.6</ele><time>2026-04-19T09:39:45Z</time></trkpt><trkpt lat="45.93675167595203" lon="12.890502914394839"><ele>36.2</ele><time>2026-04-19T09:39:47Z</time></trkpt><trkpt lat="45.936830134395976" lon="12.890544665533936"><ele>35.8</ele><time>2026-04-19T09:39:48Z</time></trkpt><trkpt lat="45.93694500040085" lon="12.890602650661634"><ele>35.4</ele><time>2026-04-19T09:39:49Z</time></trkpt><trkpt lat="45.93704229920216" lon="12.890653308742575"><ele>35.0</ele><time>2026-04-19T09:39:50Z</time></trkpt><trkpt lat="45.93715854863575" lon="12.890736859020683"><ele>35.0</ele><time>2026-04-19T09:39:51Z</time></trkpt><trkpt lat="45.93726263639232" lon="12.890811489311101"><ele>35.0</ele><time>2026-04-19T09:39:52Z</time></trkpt><trkpt lat="45.93738705853789" lon="12.890886914715656"><ele>35.0</ele><time>2026-04-19T09:39:53Z</time></trkpt><trkpt lat="45.93751621864305" lon="12.890981813879213"><ele>35.0</ele><time>2026-04-19T09:39:54Z</time></trkpt><trkpt lat="45.93762747822952" lon="12.891030933847372"><ele>35.4</ele><time>2026-04-19T09:39:55Z</time></trkpt><trkpt lat="45.93773795330839" lon="12.891119526511785"><ele>35.8</ele><time>2026-04-19T09:39:56Z</time></trkpt><trkpt lat="45.93783685818098" lon="12.891157738726406"><ele>36.2</ele><time>2026-04-19T09:39:57Z</time></trkpt><trkpt lat="45.937903649583575" lon="12.89122137349857"><ele>36.6</ele><time>2026-04-19T09:39:58Z</time></trkpt><trkpt lat="45.938008787548576" lon="12.891283986134143"><ele>37.0</ele><time>2026-04-19T09:39:59Z</time></trkpt><trkpt lat="45.93812971221872" lon="12.891356000091395"><ele>37.0</ele><time>2026-04-19T09:40:00Z</time></trkpt><trkpt lat="45.938237892433484" lon="12.891424404136668"><ele>37.0</ele><time>2026-04-19T09:40:01Z</time></trkpt><trkpt lat="45.93835895048763" lon="12.89150746514702"><ele>37.0</ele><time>2026-04-19T09:40:02Z</time></trkpt><trkpt lat="45.93847573817465" lon="12.891588910811983"><ele>37.0</ele><time>2026-04-19T09:40:03Z</time></trkpt><trkpt lat="45.93859432627156" lon="12.891653021017035"><ele>36.800000000000004</ele><time>2026-04-19T09:40:04Z</time></trkpt><trkpt lat="45.93869856032738" lon="12.891711061831785"><ele>36.6</ele><time>2026-04-19T09:40:05Z</time></trkpt><trkpt lat="45.93879411406057" lon="12.891792510009806"><ele>36.400000000000006</ele><time>2026-04-19T09:40:06Z</time></trkpt><trkpt lat="45.938889507189415" lon="12.891848614511213"><ele>36.2</ele><time>2026-04-19T09:40:07Z</time></trkpt><trkpt lat="45.9389797117296" lon="12.891910906806704"><ele>36.0</ele><time>2026-04-19T09:40:08Z</time></trkpt><trkpt lat="45.939047837306155" lon="12.89204200285338"><ele>36.0</ele><time>2026-04-19T09:40:09Z</time></trkpt><trkpt lat="45.93911105213674" lon="12.89219063757197"><ele>36.0</ele><time>2026-04-19T09:40:10Z</time></trkpt><trkpt lat="45.93918058046016" lon="12.892347654420053"><ele>36.0</ele><time>2026-04-19T09:40:11Z</time></trkpt><trkpt lat="45.93925835117297" lon="12.892499207648143"><ele>36.0</ele><time>2026-04-19T09:40:12Z</time></trkpt><trkpt lat="45.93934528568661" lon="12.892649352918896"><ele>36.5</ele><time>2026-04-19T09:40:13Z</time></trkpt><trkpt lat="45.939426927183156" lon="12.892798804744265"><ele>37.0</ele><time>2026-04-19T09:40:14Z</time></trkpt><trkpt lat="45.93950426854724" lon="12.892965097161815"><ele>37.5</ele><time>2026-04-19T09:40:15Z</time></trkpt><trkpt lat="45.93957691893717" lon="12.893101790316921"><ele>38.0</ele><time>2026-04-19T09:40:16Z</time></trkpt><trkpt lat="45.93962995023597" lon="12.893233724642752"><ele>38.0</ele><time>2026-04-19T09:40:17Z</time></trkpt><trkpt lat="45.93970301071027" lon="12.89334507234974"><ele>38.0</ele><time>2026-04-19T09:40:18Z</time></trkpt><trkpt lat="45.93975510666275" lon="12.893445586470817"><ele>38.0</ele><time>2026-04-19T09:40:19Z</time></trkpt><trkpt lat="45.93980524379636" lon="12.893545212077981"><ele>38.0</ele><time>2026-04-19T09:40:20Z</time></trkpt><trkpt lat="45.939872221444446" lon="12.893693623033524"><ele>38.0</ele><time>2026-04-19T09:40:22Z</time></trkpt><trkpt lat="45.939911730006244" lon="12.89379140499029"><ele>38.0</ele><time>2026-04-19T09:40:23Z</time></trkpt><trkpt lat="45.93996009188794" lon="12.893881377438726"><ele>38.0</ele><time>2026-04-19T09:40:24Z</time></trkpt><trkpt lat="45.94003138237267" lon="12.893973083358146"><ele>38.0</ele><time>2026-04-19T09:40:26Z</time></trkpt><trkpt lat="45.94007864276999" lon="12.894051570045393"><ele>38.0</ele><time>2026-04-19T09:40:27Z</time></trkpt><trkpt lat="45.94013174464256" lon="12.894190721142056"><ele>38.0</ele><time>2026-04-19T09:40:29Z</time></trkpt><trkpt lat="45.9401555777742" lon="12.894341129500873"><ele>38.199999999999996</ele><time>2026-04-19T09:40:31Z</time></trkpt><trkpt lat="45.94018197153021" lon="12.894459097671165"><ele>38.4</ele><time>2026-04-19T09:40:32Z</time></trkpt><trkpt lat="45.940191513508054" lon="12.89459516562783"><ele>38.599999999999994</ele><time>2026-04-19T09:40:33Z</time></trkpt><trkpt lat="45.94019045417429" lon="12.894728054341709"><ele>38.8</ele><time>2026-04-19T09:40:34Z</time></trkpt><trkpt lat="45.940163143853596" lon="12.894876881935325"><ele>39.0</ele><time>2026-04-19T09:40:35Z</time></trkpt><trkpt lat="45.940121103036" lon="12.895002214998764"><ele>39.0</ele><time>2026-04-19T09:40:36Z</time></trkpt><trkpt lat="45.940080384624885" lon="12.895154002506555"><ele>39.0</ele><time>2026-04-19T09:40:37Z</time></trkpt><trkpt lat="45.94003887711814" lon="12.895282231471104"><ele>39.0</ele><time>2026-04-19T09:40:38Z</time></trkpt><trkpt lat="45.9399948076592" lon="12.895418630269651"><ele>39.0</ele><time>2026-04-19T09:40:39Z</time></trkpt><trkpt lat="45.939976934038604" lon="12.89555104986323"><ele>39.0</ele><time>2026-04-19T09:40:40Z</time></trkpt><trkpt lat="45.93997317576189" lon="12.895706117946547"><ele>39.0</ele><time>2026-04-19T09:40:41Z</time></trkpt><trkpt lat="45.93997938314143" lon="12.895887980963852"><ele>39.0</ele><time>2026-04-19T09:40:43Z</time></trkpt><trkpt lat="45.93998555667018" lon="12.895995808015627"><ele>39.0</ele><time>2026-04-19T09:40:44Z</time></trkpt><trkpt lat="45.93999895620062" lon="12.896152410246032"><ele>39.0</ele><time>2026-04-19T09:40:45Z</time></trkpt><trkpt lat="45.940021539018765" lon="12.896328519914697"><ele>39.0</ele><time>2026-04-19T09:40:46Z</time></trkpt><trkpt lat="45.94003962777771" lon="12.896487838764266"><ele>38.5</ele><time>2026-04-19T09:40:47Z</time></trkpt><trkpt lat="45.94005757722213" lon="12.896649775547132"><ele>38.0</ele><time>2026-04-19T09:40:48Z</time></trkpt><trkpt lat="45.94007825929441" lon="12.896836714194043"><ele>37.5</ele><time>2026-04-19T09:40:49Z</time></trkpt><trkpt lat="45.94009424917342" lon="12.896982867716412"><ele>37.0</ele><time>2026-04-19T09:40:50Z</time></trkpt><trkpt lat="45.94011284221845" lon="12.897152815322057"><ele>36.75</ele><time>2026-04-19T09:40:51Z</time></trkpt><trkpt lat="45.94013099553182" lon="12.89731874340817"><ele>36.5</ele><time>2026-04-19T09:40:52Z</time></trkpt><trkpt lat="45.94013828878753" lon="12.897480259848122"><ele>36.25</ele><time>2026-04-19T09:40:53Z</time></trkpt><trkpt lat="45.94016046877323" lon="12.897639640837976"><ele>36.0</ele><time>2026-04-19T09:40:54Z</time></trkpt><trkpt lat="45.94018556140603" lon="12.897802848408915"><ele>36.0</ele><time>2026-04-19T09:40:55Z</time></trkpt><trkpt lat="45.94020116579698" lon="12.897956138578932"><ele>36.0</ele><time>2026-04-19T09:40:56Z</time></trkpt><trkpt lat="45.940217347156825" lon="12.898095924502101"><ele>36.0</ele><time>2026-04-19T09:40:57Z</time></trkpt><trkpt lat="45.94023782693846" lon="12.898272779886092"><ele>36.0</ele><time>2026-04-19T09:40:58Z</time></trkpt><trkpt lat="45.940256464168186" lon="12.898433723885915"><ele>36.0</ele><time>2026-04-19T09:40:59Z</time></trkpt><trkpt lat="45.94027340148664" lon="12.89857998804112"><ele>36.333333333333336</ele><time>2026-04-19T09:41:00Z</time></trkpt><trkpt lat="45.94029068807753" lon="12.898729268202048"><ele>36.666666666666664</ele><time>2026-04-19T09:41:01Z</time></trkpt><trkpt lat="45.94030789593086" lon="12.898877868687105"><ele>37.0</ele><time>2026-04-19T09:41:02Z</time></trkpt><trkpt lat="45.940303212776" lon="12.898974999085448"><ele>37.33333333333333</ele><time>2026-04-19T09:41:03Z</time></trkpt><trkpt lat="45.940323041911114" lon="12.899071299033412"><ele>37.666666666666664</ele><time>2026-04-19T09:41:04Z</time></trkpt><trkpt lat="45.94034234622894" lon="12.899161962923149"><ele>38.0</ele><time>2026-04-19T09:41:05Z</time></trkpt><trkpt lat="45.94035786889037" lon="12.89928547326719"><ele>38.0</ele><time>2026-04-19T09:41:06Z</time></trkpt><trkpt lat="45.94037641377703" lon="12.899433030893922"><ele>38.0</ele><time>2026-04-19T09:41:08Z</time></trkpt><trkpt lat="45.94041382807907" lon="12.899529672414827"><ele>38.0</ele><time>2026-04-19T09:41:10Z</time></trkpt><trkpt lat="45.94054329373988" lon="12.899538699466575"><ele>38.0</ele><time>2026-04-19T09:41:12Z</time></trkpt><trkpt lat="45.940624950131095" lon="12.899513030173004"><ele>38.0</ele><time>2026-04-19T09:41:13Z</time></trkpt><trkpt lat="45.940716969485806" lon="12.899479481376344"><ele>38.0</ele><time>2026-04-19T09:41:14Z</time></trkpt><trkpt lat="45.94081429633781" lon="12.899453134106182"><ele>38.0</ele><time>2026-04-19T09:41:15Z</time></trkpt><trkpt lat="45.940920911017265" lon="12.899432765053383"><ele>38.0</ele><time>2026-04-19T09:41:16Z</time></trkpt><trkpt lat="45.94102540575339" lon="12.899406345818955"><ele>38.0</ele><time>2026-04-19T09:41:17Z</time></trkpt><trkpt lat="45.941148270684536" lon="12.899424671674932"><ele>38.0</ele><time>2026-04-19T09:41:18Z</time></trkpt><trkpt lat="45.94125629575211" lon="12.899415101775173"><ele>38.5</ele><time>2026-04-19T09:41:19Z</time></trkpt><trkpt lat="45.941380029213086" lon="12.899380340926092"><ele>39.0</ele><time>2026-04-19T09:41:20Z</time></trkpt><trkpt lat="45.94152324074145" lon="12.899339884581007"><ele>39.5</ele><time>2026-04-19T09:41:21Z</time></trkpt><trkpt lat="45.94163598533967" lon="12.899320426884778"><ele>40.0</ele><time>2026-04-19T09:41:22Z</time></trkpt><trkpt lat="45.94174651098645" lon="12.899275099431083"><ele>40.0</ele><time>2026-04-19T09:41:23Z</time></trkpt><trkpt lat="45.94185683006905" lon="12.89925256010909"><ele>40.0</ele><time>2026-04-19T09:41:24Z</time></trkpt><trkpt lat="45.94197654579474" lon="12.899241981970055"><ele>40.0</ele><time>2026-04-19T09:41:25Z</time></trkpt><trkpt lat="45.942118927432205" lon="12.899188876619663"><ele>40.0</ele><time>2026-04-19T09:41:26Z</time></trkpt><trkpt lat="45.94225000439773" lon="12.899158317864208"><ele>40.25</ele><time>2026-04-19T09:41:27Z</time></trkpt><trkpt lat="45.94237895265491" lon="12.899132983325886"><ele>40.5</ele><time>2026-04-19T09:41:28Z</time></trkpt><trkpt lat="45.94250773827104" lon="12.899104551669497"><ele>40.75</ele><time>2026-04-19T09:41:29Z</time></trkpt><trkpt lat="45.94263605734115" lon="12.899072063670056"><ele>41.0</ele><time>2026-04-19T09:41:30Z</time></trkpt><trkpt lat="45.942762981260145" lon="12.899037868759102"><ele>41.0</ele><time>2026-04-19T09:41:31Z</time></trkpt><trkpt lat="45.94288770276603" lon="12.899015833275344"><ele>41.0</ele><time>2026-04-19T09:41:32Z</time></trkpt><trkpt lat="45.94302103587929" lon="12.898980094173737"><ele>41.0</ele><time>2026-04-19T09:41:33Z</time></trkpt><trkpt lat="45.943152459798306" lon="12.89894737108328"><ele>41.0</ele><time>2026-04-19T09:41:34Z</time></trkpt><trkpt lat="45.943282998506646" lon="12.898912656927068"><ele>40.5</ele><time>2026-04-19T09:41:35Z</time></trkpt><trkpt lat="45.943414450676364" lon="12.89888345844204"><ele>40.0</ele><time>2026-04-19T09:41:36Z</time></trkpt><trkpt lat="45.9435488860722" lon="12.898854701508652"><ele>39.5</ele><time>2026-04-19T09:41:37Z</time></trkpt><trkpt lat="45.94368054873772" lon="12.898824312154217"><ele>39.0</ele><time>2026-04-19T09:41:38Z</time></trkpt><trkpt lat="45.94381642505798" lon="12.898809885782287"><ele>39.0</ele><time>2026-04-19T09:41:39Z</time></trkpt><trkpt lat="45.943944065145466" lon="12.898777364113148"><ele>39.0</ele><time>2026-04-19T09:41:40Z</time></trkpt><trkpt lat="45.94408163859673" lon="12.89873861782943"><ele>39.0</ele><time>2026-04-19T09:41:41Z</time></trkpt><trkpt lat="45.944209140049786" lon="12.898710724819379"><ele>39.0</ele><time>2026-04-19T09:41:42Z</time></trkpt><trkpt lat="45.944331559096675" lon="12.89869112007432"><ele>38.75</ele><time>2026-04-19T09:41:43Z</time></trkpt><trkpt lat="45.94444857179523" lon="12.898673348896049"><ele>38.5</ele><time>2026-04-19T09:41:44Z</time></trkpt><trkpt lat="45.944600983978766" lon="12.898624694693183"><ele>38.25</ele><time>2026-04-19T09:41:45Z</time></trkpt><trkpt lat="45.94474156873623" lon="12.8985794737206"><ele>38.0</ele><time>2026-04-19T09:41:46Z</time></trkpt><trkpt lat="45.94489340140896" lon="12.898529166732715"><ele>38.0</ele><time>2026-04-19T09:41:47Z</time></trkpt><trkpt lat="45.9449987409349" lon="12.898520255558807"><ele>38.0</ele><time>2026-04-19T09:41:48Z</time></trkpt><trkpt lat="45.94509576436809" lon="12.898508022297609"><ele>38.0</ele><time>2026-04-19T09:41:49Z</time></trkpt><trkpt lat="45.94518932020949" lon="12.898492208259274"><ele>38.0</ele><time>2026-04-19T09:41:50Z</time></trkpt><trkpt lat="45.94530991117134" lon="12.898443066553524"><ele>38.0</ele><time>2026-04-19T09:41:51Z</time></trkpt><trkpt lat="45.945458304278205" lon="12.898407637907484"><ele>38.33333333333333</ele><time>2026-04-19T09:41:52Z</time></trkpt><trkpt lat="45.945593120461695" lon="12.898403771751067"><ele>38.666666666666664</ele><time>2026-04-19T09:41:53Z</time></trkpt><trkpt lat="45.945749840811494" lon="12.89834123728236"><ele>39.0</ele><time>2026-04-19T09:41:54Z</time></trkpt><trkpt lat="45.94590141041996" lon="12.898299258011892"><ele>39.333333333333336</ele><time>2026-04-19T09:41:55Z</time></trkpt><trkpt lat="45.94607089449619" lon="12.898259420189342"><ele>39.66666666666667</ele><time>2026-04-19T09:41:56Z</time></trkpt><trkpt lat="45.94625263641657" lon="12.898212994762833"><ele>40.0</ele><time>2026-04-19T09:41:57Z</time></trkpt><trkpt lat="45.94643004343188" lon="12.898168081165169"><ele>40.0</ele><time>2026-04-19T09:41:58Z</time></trkpt><trkpt lat="45.946591399463394" lon="12.898135557071193"><ele>40.0</ele><time>2026-04-19T09:41:59Z</time></trkpt><trkpt lat="45.94675766159599" lon="12.898095762214334"><ele>40.0</ele><time>2026-04-19T09:42:00Z</time></trkpt><trkpt lat="45.946882844490354" lon="12.898070398847032"><ele>39.5</ele><time>2026-04-19T09:42:01Z</time></trkpt><trkpt lat="45.947016793782254" lon="12.898015643913231"><ele>39.0</ele><time>2026-04-19T09:42:02Z</time></trkpt><trkpt lat="45.94714126522621" lon="12.897980188484114"><ele>38.5</ele><time>2026-04-19T09:42:03Z</time></trkpt><trkpt lat="45.947271912061645" lon="12.897981072418878"><ele>38.0</ele><time>2026-04-19T09:42:04Z</time></trkpt><trkpt lat="45.947380480003964" lon="12.897967778184562"><ele>38.0</ele><time>2026-04-19T09:42:05Z</time></trkpt><trkpt lat="45.94752083432718" lon="12.897938396282814"><ele>38.0</ele><time>2026-04-19T09:42:06Z</time></trkpt><trkpt lat="45.947628825732735" lon="12.897930953346131"><ele>38.0</ele><time>2026-04-19T09:42:07Z</time></trkpt><trkpt lat="45.94776349881598" lon="12.897914179811055"><ele>38.0</ele><time>2026-04-19T09:42:08Z</time></trkpt><trkpt lat="45.947892393915396" lon="12.897893800908436"><ele>38.5</ele><time>2026-04-19T09:42:09Z</time></trkpt><trkpt lat="45.94802143156361" lon="12.897873898437792"><ele>39.0</ele><time>2026-04-19T09:42:10Z</time></trkpt><trkpt lat="45.94813848686316" lon="12.897827288286653"><ele>39.5</ele><time>2026-04-19T09:42:11Z</time></trkpt><trkpt lat="45.948253097103276" lon="12.897820038034972"><ele>40.0</ele><time>2026-04-19T09:42:12Z</time></trkpt><trkpt lat="45.9483417787226" lon="12.89781575082975"><ele>39.833333333333336</ele><time>2026-04-19T09:42:13Z</time></trkpt><trkpt lat="45.948429664482966" lon="12.897782854587916"><ele>39.66666666666667</ele><time>2026-04-19T09:42:14Z</time></trkpt><trkpt lat="45.94851618994431" lon="12.897760470891493"><ele>39.5</ele><time>2026-04-19T09:42:15Z</time></trkpt><trkpt lat="45.94859006177648" lon="12.897736834539318"><ele>39.333333333333336</ele><time>2026-04-19T09:42:16Z</time></trkpt><trkpt lat="45.948656306896446" lon="12.897704140789779"><ele>39.166666666666664</ele><time>2026-04-19T09:42:17Z</time></trkpt><trkpt lat="45.94872333722012" lon="12.897680908402474"><ele>39.0</ele><time>2026-04-19T09:42:18Z</time></trkpt><trkpt lat="45.948791659514484" lon="12.897687126820541"><ele>39.0</ele><time>2026-04-19T09:42:19Z</time></trkpt><trkpt lat="45.94889802034445" lon="12.897681282847724"><ele>39.0</ele><time>2026-04-19T09:42:21Z</time></trkpt><trkpt lat="45.94896454042806" lon="12.897671909053182"><ele>39.0</ele><time>2026-04-19T09:42:22Z</time></trkpt><trkpt lat="45.94903805387282" lon="12.89766132101483"><ele>39.0</ele><time>2026-04-19T09:42:23Z</time></trkpt><trkpt lat="45.949131629456886" lon="12.897658163825897"><ele>39.0</ele><time>2026-04-19T09:42:25Z</time></trkpt><trkpt lat="45.94926232516878" lon="12.898156087282874"><ele>39.0</ele><time>2026-04-19T09:42:26Z</time></trkpt><trkpt lat="45.94935762988579" lon="12.898280652255583"><ele>39.0</ele><time>2026-04-19T09:42:27Z</time></trkpt><trkpt lat="45.949481274821565" lon="12.898388773383095"><ele>39.0</ele><time>2026-04-19T09:42:28Z</time></trkpt><trkpt lat="45.94962075497806" lon="12.89851054535664"><ele>39.0</ele><time>2026-04-19T09:42:29Z</time></trkpt><trkpt lat="45.949722600332" lon="12.898578507702318"><ele>39.4</ele><time>2026-04-19T09:42:30Z</time></trkpt><trkpt lat="45.94981302292274" lon="12.898709986201984"><ele>39.8</ele><time>2026-04-19T09:42:31Z</time></trkpt><trkpt lat="45.949891229732685" lon="12.898813082819128"><ele>40.199999999999996</ele><time>2026-04-19T09:42:32Z</time></trkpt><trkpt lat="45.94996613282774" lon="12.898884289066917"><ele>40.599999999999994</ele><time>2026-04-19T09:42:33Z</time></trkpt><trkpt lat="45.950019630313854" lon="12.898957877083479"><ele>41.0</ele><time>2026-04-19T09:42:34Z</time></trkpt><trkpt lat="45.950079404048914" lon="12.899020951655753"><ele>41.0</ele><time>2026-04-19T09:42:35Z</time></trkpt><trkpt lat="45.95014220597026" lon="12.89916127056315"><ele>41.0</ele><time>2026-04-19T09:42:37Z</time></trkpt><trkpt lat="45.9501577437224" lon="12.899255579433225"><ele>41.0</ele><time>2026-04-19T09:42:38Z</time></trkpt><trkpt lat="45.95016306202207" lon="12.899360892226289"><ele>41.0</ele><time>2026-04-19T09:42:39Z</time></trkpt><trkpt lat="45.950169147259025" lon="12.899471568987074"><ele>41.0</ele><time>2026-04-19T09:42:40Z</time></trkpt><trkpt lat="45.950212821102966" lon="12.899554616244764"><ele>41.0</ele><time>2026-04-19T09:42:41Z</time></trkpt><trkpt lat="45.95020691313672" lon="12.899722753811341"><ele>40.857142857142854</ele><time>2026-04-19T09:42:43Z</time></trkpt><trkpt lat="45.95017343188786" lon="12.899825044958623"><ele>40.714285714285715</ele><time>2026-04-19T09:42:45Z</time></trkpt><trkpt lat="45.95021271764637" lon="12.899906955754737"><ele>40.57142857142857</ele><time>2026-04-19T09:42:47Z</time></trkpt><trkpt lat="45.950198374349526" lon="12.900005042222379"><ele>40.42857142857143</ele><time>2026-04-19T09:42:48Z</time></trkpt><trkpt lat="45.95021173718056" lon="12.900094864781346"><ele>40.285714285714285</ele><time>2026-04-19T09:42:49Z</time></trkpt><trkpt lat="45.95024895673179" lon="12.900172981361646"><ele>40.14285714285714</ele><time>2026-04-19T09:42:50Z</time></trkpt><trkpt lat="45.95028162653702" lon="12.900268672788954"><ele>40.0</ele><time>2026-04-19T09:42:52Z</time></trkpt><trkpt lat="45.950239122939124" lon="12.900336371679803"><ele>39.833333333333336</ele><time>2026-04-19T09:42:54Z</time></trkpt><trkpt lat="45.9501668270925" lon="12.900356732636112"><ele>39.66666666666667</ele><time>2026-04-19T09:42:56Z</time></trkpt><trkpt lat="45.95009741803822" lon="12.900364368667237"><ele>39.5</ele><time>2026-04-19T09:42:58Z</time></trkpt><trkpt lat="45.95008789980694" lon="12.90051548999661"><ele>39.333333333333336</ele><time>2026-04-19T09:43:00Z</time></trkpt><trkpt lat="45.950107793838654" lon="12.900613950318673"><ele>39.166666666666664</ele><time>2026-04-19T09:43:01Z</time></trkpt><trkpt lat="45.95014492422637" lon="12.900732652418311"><ele>39.0</ele><time>2026-04-19T09:43:02Z</time></trkpt><trkpt lat="45.95020449272864" lon="12.90085027920736"><ele>39.166666666666664</ele><time>2026-04-19T09:43:03Z</time></trkpt><trkpt lat="45.95026366239738" lon="12.90091752822963"><ele>39.333333333333336</ele><time>2026-04-19T09:43:04Z</time></trkpt><trkpt lat="45.95032248285365" lon="12.900957067913797"><ele>39.5</ele><time>2026-04-19T09:43:05Z</time></trkpt><trkpt lat="45.95040313105012" lon="12.9009764077368"><ele>39.66666666666667</ele><time>2026-04-19T09:43:06Z</time></trkpt><trkpt lat="45.950511967013014" lon="12.900979892967172"><ele>39.833333333333336</ele><time>2026-04-19T09:43:07Z</time></trkpt><trkpt lat="45.95062592976003" lon="12.900983423210741"><ele>40.0</ele><time>2026-04-19T09:43:08Z</time></trkpt><trkpt lat="45.95073168528318" lon="12.90098453091425"><ele>40.0</ele><time>2026-04-19T09:43:09Z</time></trkpt><trkpt lat="45.9508237478783" lon="12.900981279587267"><ele>40.0</ele><time>2026-04-19T09:43:10Z</time></trkpt><trkpt lat="45.95090093742881" lon="12.900980377453001"><ele>40.0</ele><time>2026-04-19T09:43:11Z</time></trkpt><trkpt lat="45.95097898224326" lon="12.90101376828751"><ele>40.0</ele><time>2026-04-19T09:43:13Z</time></trkpt><trkpt lat="45.951023544529015" lon="12.901083609517197"><ele>40.0</ele><time>2026-04-19T09:43:15Z</time></trkpt><trkpt lat="45.951079849085616" lon="12.90117161541631"><ele>40.0</ele><time>2026-04-19T09:43:17Z</time></trkpt><trkpt lat="45.95116419033992" lon="12.901289886393107"><ele>39.833333333333336</ele><time>2026-04-19T09:43:19Z</time></trkpt><trkpt lat="45.951228551907036" lon="12.901324411034851"><ele>39.66666666666667</ele><time>2026-04-19T09:43:20Z</time></trkpt><trkpt lat="45.951307979585444" lon="12.901350269231935"><ele>39.5</ele><time>2026-04-19T09:43:21Z</time></trkpt><trkpt lat="45.951407067375825" lon="12.901362595156005"><ele>39.333333333333336</ele><time>2026-04-19T09:43:22Z</time></trkpt><trkpt lat="45.95150915416944" lon="12.901354686720934"><ele>39.166666666666664</ele><time>2026-04-19T09:43:23Z</time></trkpt><trkpt lat="45.951601112519" lon="12.901344543285518"><ele>39.0</ele><time>2026-04-19T09:43:24Z</time></trkpt><trkpt lat="45.95172691278974" lon="12.901364871362748"><ele>38.8</ele><time>2026-04-19T09:43:25Z</time></trkpt><trkpt lat="45.95183624909127" lon="12.901388932128233"><ele>38.599999999999994</ele><time>2026-04-19T09:43:26Z</time></trkpt><trkpt lat="45.95193886343687" lon="12.901411170771393"><ele>38.4</ele><time>2026-04-19T09:43:27Z</time></trkpt><trkpt lat="45.952042245399944" lon="12.901434461989291"><ele>38.199999999999996</ele><time>2026-04-19T09:43:28Z</time></trkpt><trkpt lat="45.95216788943214" lon="12.901431896069601"><ele>38.0</ele><time>2026-04-19T09:43:29Z</time></trkpt><trkpt lat="45.95228668140423" lon="12.901428467221894"><ele>38.0</ele><time>2026-04-19T09:43:30Z</time></trkpt><trkpt lat="45.95240749737009" lon="12.901434574091775"><ele>38.0</ele><time>2026-04-19T09:43:31Z</time></trkpt><trkpt lat="45.95249125273292" lon="12.901434704892539"><ele>38.0</ele><time>2026-04-19T09:43:32Z</time></trkpt><trkpt lat="45.9525817525498" lon="12.901434111904344"><ele>38.0</ele><time>2026-04-19T09:43:33Z</time></trkpt><trkpt lat="45.952707821591375" lon="12.901440465130813"><ele>38.0</ele><time>2026-04-19T09:43:35Z</time></trkpt><trkpt lat="45.95281783779064" lon="12.901477043641222"><ele>38.0</ele><time>2026-04-19T09:43:37Z</time></trkpt><trkpt lat="45.952898297476004" lon="12.901561168516855"><ele>38.0</ele><time>2026-04-19T09:43:39Z</time></trkpt><trkpt lat="45.95293037728531" lon="12.9017148431049"><ele>38.0</ele><time>2026-04-19T09:43:41Z</time></trkpt><trkpt lat="45.95293037444354" lon="12.901810128337848"><ele>38.0</ele><time>2026-04-19T09:43:42Z</time></trkpt><trkpt lat="45.952911594820335" lon="12.901941066116297"><ele>38.0</ele><time>2026-04-19T09:43:43Z</time></trkpt><trkpt lat="45.95288288124161" lon="12.902079315144189"><ele>38.0</ele><time>2026-04-19T09:43:44Z</time></trkpt><trkpt lat="45.952838766083175" lon="12.902183334544576"><ele>38.0</ele><time>2026-04-19T09:43:45Z</time></trkpt><trkpt lat="45.95276194765651" lon="12.902294682296134"><ele>38.0</ele><time>2026-04-19T09:43:46Z</time></trkpt><trkpt lat="45.95267590108175" lon="12.902403219738463"><ele>38.0</ele><time>2026-04-19T09:43:47Z</time></trkpt><trkpt lat="45.952585667378244" lon="12.902498194741844"><ele>38.0</ele><time>2026-04-19T09:43:48Z</time></trkpt><trkpt lat="45.95250296478634" lon="12.902576460266255"><ele>38.166666666666664</ele><time>2026-04-19T09:43:49Z</time></trkpt><trkpt lat="45.95242585038755" lon="12.902655100968193"><ele>38.33333333333333</ele><time>2026-04-19T09:43:50Z</time></trkpt><trkpt lat="45.9523521190567" lon="12.902710278629588"><ele>38.5</ele><time>2026-04-19T09:43:51Z</time></trkpt><trkpt lat="45.95228849863154" lon="12.902745092625516"><ele>38.666666666666664</ele><time>2026-04-19T09:43:52Z</time></trkpt><trkpt lat="45.95218272368284" lon="12.902811845511327"><ele>38.833333333333336</ele><time>2026-04-19T09:43:54Z</time></trkpt><trkpt lat="45.952126572209686" lon="12.90287648466855"><ele>39.0</ele><time>2026-04-19T09:43:55Z</time></trkpt><trkpt lat="45.952067771941344" lon="12.90291873977174"><ele>39.0</ele><time>2026-04-19T09:43:56Z</time></trkpt><trkpt lat="45.9520262303042" lon="12.902998879196454"><ele>39.0</ele><time>2026-04-19T09:43:58Z</time></trkpt><trkpt lat="45.95198980533401" lon="12.90308344738113"><ele>39.0</ele><time>2026-04-19T09:44:00Z</time></trkpt><trkpt lat="45.95194669119343" lon="12.903210038260427"><ele>39.0</ele><time>2026-04-19T09:44:02Z</time></trkpt><trkpt lat="45.95188666022706" lon="12.903266153739017"><ele>39.0</ele><time>2026-04-19T09:44:04Z</time></trkpt><trkpt lat="45.95178878838524" lon="12.903307647352458"><ele>39.0</ele><time>2026-04-19T09:44:06Z</time></trkpt><trkpt lat="45.9516575651595" lon="12.903342549412395"><ele>38.75</ele><time>2026-04-19T09:44:08Z</time></trkpt><trkpt lat="45.951585587876046" lon="12.903351514739708"><ele>38.5</ele><time>2026-04-19T09:44:09Z</time></trkpt><trkpt lat="45.95149253228917" lon="12.903375150916366"><ele>38.25</ele><time>2026-04-19T09:44:10Z</time></trkpt><trkpt lat="45.95135815920442" lon="12.903464949143109"><ele>38.0</ele><time>2026-04-19T09:44:12Z</time></trkpt><trkpt lat="45.95122535871151" lon="12.90352657992"><ele>38.0</ele><time>2026-04-19T09:44:14Z</time></trkpt><trkpt lat="45.95113432969311" lon="12.903578389301057"><ele>38.0</ele><time>2026-04-19T09:44:15Z</time></trkpt><trkpt lat="45.95104862425189" lon="12.903648989348532"><ele>38.0</ele><time>2026-04-19T09:44:16Z</time></trkpt><trkpt lat="45.95095920396632" lon="12.903746973430717"><ele>38.0</ele><time>2026-04-19T09:44:17Z</time></trkpt><trkpt lat="45.950883141395686" lon="12.90382958734999"><ele>38.0</ele><time>2026-04-19T09:44:18Z</time></trkpt><trkpt lat="45.95081691723446" lon="12.90390470537644"><ele>38.0</ele><time>2026-04-19T09:44:19Z</time></trkpt><trkpt lat="45.950734207125414" lon="12.903991662635194"><ele>38.0</ele><time>2026-04-19T09:44:20Z</time></trkpt><trkpt lat="45.950630786616195" lon="12.90407148803961"><ele>38.0</ele><time>2026-04-19T09:44:22Z</time></trkpt><trkpt lat="45.950577894568006" lon="12.90412919063861"><ele>38.0</ele><time>2026-04-19T09:44:23Z</time></trkpt><trkpt lat="45.95050808753712" lon="12.904193126591034"><ele>38.0</ele><time>2026-04-19T09:44:24Z</time></trkpt><trkpt lat="45.95042709586766" lon="12.90426936806544"><ele>38.0</ele><time>2026-04-19T09:44:26Z</time></trkpt><trkpt lat="45.950369700290636" lon="12.90435244653526"><ele>38.0</ele><time>2026-04-19T09:44:28Z</time></trkpt><trkpt lat="45.950389870166006" lon="12.904520348407665"><ele>38.0</ele><time>2026-04-19T09:44:32Z</time></trkpt><trkpt lat="45.95044931654656" lon="12.904562811452164"><ele>38.0</ele><time>2026-04-19T09:44:34Z</time></trkpt><trkpt lat="45.950561073018875" lon="12.904499712397808"><ele>38.0</ele><time>2026-04-19T09:44:36Z</time></trkpt><trkpt lat="45.950624544027974" lon="12.90446972426384"><ele>38.0</ele><time>2026-04-19T09:44:37Z</time></trkpt><trkpt lat="45.95070689553364" lon="12.90445259133896"><ele>38.0</ele><time>2026-04-19T09:44:39Z</time></trkpt><trkpt lat="45.95080605689486" lon="12.904412944759443"><ele>38.0</ele><time>2026-04-19T09:44:41Z</time></trkpt><trkpt lat="45.9508861816346" lon="12.904342698955752"><ele>38.0</ele><time>2026-04-19T09:44:43Z</time></trkpt><trkpt lat="45.9510159739411" lon="12.904290166060445"><ele>38.0</ele><time>2026-04-19T09:44:45Z</time></trkpt><trkpt lat="45.951103257550024" lon="12.904247150811925"><ele>37.857142857142854</ele><time>2026-04-19T09:44:46Z</time></trkpt><trkpt lat="45.95117993512851" lon="12.904212269200418"><ele>37.714285714285715</ele><time>2026-04-19T09:44:47Z</time></trkpt><trkpt lat="45.95124786927145" lon="12.904191557228826"><ele>37.57142857142857</ele><time>2026-04-19T09:44:48Z</time></trkpt><trkpt lat="45.95131691680213" lon="12.90416551504294"><ele>37.42857142857143</ele><time>2026-04-19T09:44:49Z</time></trkpt><trkpt lat="45.951391435235216" lon="12.904137299129475"><ele>37.285714285714285</ele><time>2026-04-19T09:44:50Z</time></trkpt><trkpt lat="45.95146388280757" lon="12.904090259896467"><ele>37.142857142857146</ele><time>2026-04-19T09:44:51Z</time></trkpt><trkpt lat="45.95152619975271" lon="12.904074954594211"><ele>37.0</ele><time>2026-04-19T09:44:52Z</time></trkpt><trkpt lat="45.95159135592067" lon="12.904040567883616"><ele>37.0</ele><time>2026-04-19T09:44:53Z</time></trkpt><trkpt lat="45.95164986054996" lon="12.904006725624427"><ele>37.0</ele><time>2026-04-19T09:44:54Z</time></trkpt><trkpt lat="45.951746465307124" lon="12.903995537815906"><ele>37.0</ele><time>2026-04-19T09:44:56Z</time></trkpt><trkpt lat="45.95183240426969" lon="12.90408663253363"><ele>37.0</ele><time>2026-04-19T09:44:58Z</time></trkpt><trkpt lat="45.951902639668255" lon="12.904152874528192"><ele>37.0</ele><time>2026-04-19T09:44:59Z</time></trkpt><trkpt lat="45.951981658939495" lon="12.904224158247072"><ele>37.0</ele><time>2026-04-19T09:45:00Z</time></trkpt><trkpt lat="45.95207340413104" lon="12.904264781266736"><ele>37.0</ele><time>2026-04-19T09:45:01Z</time></trkpt><trkpt lat="45.95218658481616" lon="12.904290424083614"><ele>37.0</ele><time>2026-04-19T09:45:02Z</time></trkpt><trkpt lat="45.95231659838446" lon="12.9043148781433"><ele>37.0</ele><time>2026-04-19T09:45:03Z</time></trkpt><trkpt lat="45.9524235873476" lon="12.904330337817745"><ele>37.0</ele><time>2026-04-19T09:45:04Z</time></trkpt><trkpt lat="45.95251555213569" lon="12.904327008355478"><ele>37.0</ele><time>2026-04-19T09:45:05Z</time></trkpt><trkpt lat="45.95260681713937" lon="12.904317712590313"><ele>37.0</ele><time>2026-04-19T09:45:06Z</time></trkpt><trkpt lat="45.952698270410124" lon="12.904318903712289"><ele>37.0</ele><time>2026-04-19T09:45:07Z</time></trkpt><trkpt lat="45.95278714690597" lon="12.904342471830489"><ele>37.0</ele><time>2026-04-19T09:45:08Z</time></trkpt><trkpt lat="45.95286228970312" lon="12.904378529536999"><ele>37.0</ele><time>2026-04-19T09:45:09Z</time></trkpt><trkpt lat="45.95293835405497" lon="12.904404337781758"><ele>37.0</ele><time>2026-04-19T09:45:10Z</time></trkpt><trkpt lat="45.95301402979775" lon="12.904446753323537"><ele>37.0</ele><time>2026-04-19T09:45:11Z</time></trkpt><trkpt lat="45.95308989598977" lon="12.90451427020669"><ele>37.0</ele><time>2026-04-19T09:45:12Z</time></trkpt><trkpt lat="45.95317612017386" lon="12.904555114868343"><ele>37.0</ele><time>2026-04-19T09:45:13Z</time></trkpt><trkpt lat="45.953251920262645" lon="12.904580748380303"><ele>37.0</ele><time>2026-04-19T09:45:14Z</time></trkpt><trkpt lat="45.953362915758504" lon="12.90459196023731"><ele>37.0</ele><time>2026-04-19T09:45:15Z</time></trkpt><trkpt lat="45.95349214692918" lon="12.904607955173876"><ele>37.0</ele><time>2026-04-19T09:45:16Z</time></trkpt><trkpt lat="45.953611081697055" lon="12.90461782899169"><ele>37.0</ele><time>2026-04-19T09:45:17Z</time></trkpt><trkpt lat="45.95371142299264" lon="12.904607914736317"><ele>37.0</ele><time>2026-04-19T09:45:18Z</time></trkpt><trkpt lat="45.95381029132877" lon="12.904595694303378"><ele>37.0</ele><time>2026-04-19T09:45:19Z</time></trkpt><trkpt lat="45.95391065922453" lon="12.90458127349426"><ele>37.0</ele><time>2026-04-19T09:45:20Z</time></trkpt><trkpt lat="45.954010564069826" lon="12.90457189843422"><ele>37.0</ele><time>2026-04-19T09:45:21Z</time></trkpt><trkpt lat="45.954094944370055" lon="12.904575260410592"><ele>37.0</ele><time>2026-04-19T09:45:22Z</time></trkpt><trkpt lat="45.95417184966359" lon="12.904590375870654"><ele>37.0</ele><time>2026-04-19T09:45:23Z</time></trkpt><trkpt lat="45.95424683912046" lon="12.904612682725007"><ele>37.0</ele><time>2026-04-19T09:45:24Z</time></trkpt><trkpt lat="45.95434041249368" lon="12.904612401519863"><ele>37.0</ele><time>2026-04-19T09:45:25Z</time></trkpt><trkpt lat="45.95446225746821" lon="12.904592985402697"><ele>37.0</ele><time>2026-04-19T09:45:26Z</time></trkpt><trkpt lat="45.95455979265851" lon="12.904579937087492"><ele>37.0</ele><time>2026-04-19T09:45:27Z</time></trkpt><trkpt lat="45.95465117034615" lon="12.90458564144101"><ele>37.0</ele><time>2026-04-19T09:45:28Z</time></trkpt><trkpt lat="45.954751419627115" lon="12.904596759623326"><ele>37.0</ele><time>2026-04-19T09:45:29Z</time></trkpt><trkpt lat="45.954850211337494" lon="12.904600672407605"><ele>37.0</ele><time>2026-04-19T09:45:30Z</time></trkpt><trkpt lat="45.954953517422545" lon="12.904599995621387"><ele>37.0</ele><time>2026-04-19T09:45:31Z</time></trkpt><trkpt lat="45.95506215485269" lon="12.904598112666873"><ele>37.0</ele><time>2026-04-19T09:45:32Z</time></trkpt><trkpt lat="45.955172057469234" lon="12.904598551721383"><ele>37.0</ele><time>2026-04-19T09:45:33Z</time></trkpt><trkpt lat="45.9552698576422" lon="12.90460398387517"><ele>37.0</ele><time>2026-04-19T09:45:34Z</time></trkpt><trkpt lat="45.95536659720757" lon="12.904612900733307"><ele>37.0</ele><time>2026-04-19T09:45:35Z</time></trkpt><trkpt lat="45.95544510919314" lon="12.904639587424978"><ele>37.0</ele><time>2026-04-19T09:45:36Z</time></trkpt><trkpt lat="45.95551078068245" lon="12.904674742620843"><ele>37.0</ele><time>2026-04-19T09:45:37Z</time></trkpt><trkpt lat="45.95557380445622" lon="12.904719965737549"><ele>37.0</ele><time>2026-04-19T09:45:38Z</time></trkpt><trkpt lat="45.95564783193679" lon="12.904772280916351"><ele>37.0</ele><time>2026-04-19T09:45:39Z</time></trkpt><trkpt lat="45.95572369208511" lon="12.904829749678266"><ele>37.0</ele><time>2026-04-19T09:45:40Z</time></trkpt><trkpt lat="45.95579277967751" lon="12.904877999812989"><ele>37.0</ele><time>2026-04-19T09:45:41Z</time></trkpt><trkpt lat="45.955879230043976" lon="12.904897426021822"><ele>37.0</ele><time>2026-04-19T09:45:42Z</time></trkpt><trkpt lat="45.95597917846556" lon="12.904888411896518"><ele>37.333333333333336</ele><time>2026-04-19T09:45:43Z</time></trkpt><trkpt lat="45.95606128145765" lon="12.904877720310665"><ele>37.66666666666667</ele><time>2026-04-19T09:45:44Z</time></trkpt><trkpt lat="45.9561316069582" lon="12.904889887673885"><ele>38.0</ele><time>2026-04-19T09:45:45Z</time></trkpt><trkpt lat="45.95620246182944" lon="12.904923072257837"><ele>38.333333333333336</ele><time>2026-04-19T09:45:46Z</time></trkpt><trkpt lat="45.95627803737827" lon="12.904976257209881"><ele>38.666666666666664</ele><time>2026-04-19T09:45:47Z</time></trkpt><trkpt lat="45.956376115266465" lon="12.90503206754027"><ele>39.0</ele><time>2026-04-19T09:45:48Z</time></trkpt><trkpt lat="45.956469480785074" lon="12.90508333928549"><ele>39.0</ele><time>2026-04-19T09:45:49Z</time></trkpt><trkpt lat="45.95655458545333" lon="12.905129784784155"><ele>39.0</ele><time>2026-04-19T09:45:50Z</time></trkpt><trkpt lat="45.95664774489781" lon="12.905167555009363"><ele>39.0</ele><time>2026-04-19T09:45:51Z</time></trkpt><trkpt lat="45.95676310869805" lon="12.905215781614723"><ele>39.0</ele><time>2026-04-19T09:45:52Z</time></trkpt><trkpt lat="45.95687413030743" lon="12.905268903594925"><ele>39.0</ele><time>2026-04-19T09:45:53Z</time></trkpt><trkpt lat="45.956968859457014" lon="12.90532303129148"><ele>39.4</ele><time>2026-04-19T09:45:54Z</time></trkpt><trkpt lat="45.95705786477175" lon="12.90537308499424"><ele>39.8</ele><time>2026-04-19T09:45:55Z</time></trkpt><trkpt lat="45.95714060032488" lon="12.905420327232976"><ele>40.199999999999996</ele><time>2026-04-19T09:45:56Z</time></trkpt><trkpt lat="45.95722497723899" lon="12.905462917919218"><ele>40.599999999999994</ele><time>2026-04-19T09:45:57Z</time></trkpt><trkpt lat="45.95730913852001" lon="12.905515866648457"><ele>41.0</ele><time>2026-04-19T09:45:58Z</time></trkpt><trkpt lat="45.95740679229984" lon="12.905567418995325"><ele>41.0</ele><time>2026-04-19T09:45:59Z</time></trkpt><trkpt lat="45.95750129520872" lon="12.905607407912129"><ele>41.0</ele><time>2026-04-19T09:46:00Z</time></trkpt><trkpt lat="45.9576051491003" lon="12.905638068012689"><ele>41.0</ele><time>2026-04-19T09:46:01Z</time></trkpt><trkpt lat="45.95771119264296" lon="12.905658705960533"><ele>41.0</ele><time>2026-04-19T09:46:02Z</time></trkpt><trkpt lat="45.957807062204" lon="12.905675848892544"><ele>41.0</ele><time>2026-04-19T09:46:03Z</time></trkpt><trkpt lat="45.95790465760194" lon="12.905677130729558"><ele>41.199999999999996</ele><time>2026-04-19T09:46:04Z</time></trkpt><trkpt lat="45.95800622560977" lon="12.905677147012769"><ele>41.4</ele><time>2026-04-19T09:46:05Z</time></trkpt><trkpt lat="45.9581144892974" lon="12.9056687790077"><ele>41.6</ele><time>2026-04-19T09:46:06Z</time></trkpt><trkpt lat="45.95821228865622" lon="12.90566556702678"><ele>41.8</ele><time>2026-04-19T09:46:07Z</time></trkpt><trkpt lat="45.958300224422736" lon="12.90568754679625"><ele>42.0</ele><time>2026-04-19T09:46:08Z</time></trkpt><trkpt lat="45.958382150807445" lon="12.905715456661124"><ele>42.0</ele><time>2026-04-19T09:46:09Z</time></trkpt><trkpt lat="45.958458410800525" lon="12.905732266014164"><ele>42.0</ele><time>2026-04-19T09:46:10Z</time></trkpt><trkpt lat="45.95852572323732" lon="12.905737594878978"><ele>42.0</ele><time>2026-04-19T09:46:11Z</time></trkpt><trkpt lat="45.95864349906394" lon="12.905727819338779"><ele>42.0</ele><time>2026-04-19T09:46:13Z</time></trkpt><trkpt lat="45.95870815141078" lon="12.905708974594317"><ele>42.0</ele><time>2026-04-19T09:46:14Z</time></trkpt><trkpt lat="45.95877587183371" lon="12.905679479979277"><ele>42.0</ele><time>2026-04-19T09:46:15Z</time></trkpt><trkpt lat="45.958846009052955" lon="12.905645893288757"><ele>42.0</ele><time>2026-04-19T09:46:16Z</time></trkpt><trkpt lat="45.9589594761185" lon="12.905586541228613"><ele>42.0</ele><time>2026-04-19T09:46:18Z</time></trkpt><trkpt lat="45.95906416756912" lon="12.90554992479813"><ele>42.0</ele><time>2026-04-19T09:46:20Z</time></trkpt><trkpt lat="45.95917593058997" lon="12.905532989804541"><ele>42.0</ele><time>2026-04-19T09:46:22Z</time></trkpt><trkpt lat="45.9592532032084" lon="12.905517916307003"><ele>42.0</ele><time>2026-04-19T09:46:23Z</time></trkpt><trkpt lat="45.95934028984846" lon="12.905503152972456"><ele>42.333333333333336</ele><time>2026-04-19T09:46:24Z</time></trkpt><trkpt lat="45.95942032656489" lon="12.905495384984205"><ele>42.666666666666664</ele><time>2026-04-19T09:46:25Z</time></trkpt><trkpt lat="45.95950994077877" lon="12.905487721269981"><ele>43.0</ele><time>2026-04-19T09:46:26Z</time></trkpt><trkpt lat="45.95959654217808" lon="12.905483219136753"><ele>43.33333333333333</ele><time>2026-04-19T09:46:27Z</time></trkpt><trkpt lat="45.95967409014852" lon="12.905471046540915"><ele>43.666666666666664</ele><time>2026-04-19T09:46:28Z</time></trkpt><trkpt lat="45.95974099635733" lon="12.905472840488958"><ele>44.0</ele><time>2026-04-19T09:46:29Z</time></trkpt><trkpt lat="45.95980830865648" lon="12.905490340843633"><ele>44.0</ele><time>2026-04-19T09:46:30Z</time></trkpt><trkpt lat="45.95989656958581" lon="12.9054858512575"><ele>44.0</ele><time>2026-04-19T09:46:31Z</time></trkpt><trkpt lat="45.95998213817802" lon="12.90547229586099"><ele>44.0</ele><time>2026-04-19T09:46:32Z</time></trkpt><trkpt lat="45.96005721901012" lon="12.905461546691816"><ele>44.0</ele><time>2026-04-19T09:46:33Z</time></trkpt><trkpt lat="45.96012751404702" lon="12.905464995490881"><ele>44.0</ele><time>2026-04-19T09:46:34Z</time></trkpt><trkpt lat="45.96020256272356" lon="12.905477927265192"><ele>44.0</ele><time>2026-04-19T09:46:35Z</time></trkpt><trkpt lat="45.96028765985927" lon="12.905501263483075"><ele>44.0</ele><time>2026-04-19T09:46:36Z</time></trkpt><trkpt lat="45.960381728505986" lon="12.905517491312947"><ele>44.0</ele><time>2026-04-19T09:46:37Z</time></trkpt><trkpt lat="45.96047313556473" lon="12.905496076397121"><ele>44.0</ele><time>2026-04-19T09:46:39Z</time></trkpt><trkpt lat="45.9605282930767" lon="12.905421740643375"><ele>44.0</ele><time>2026-04-19T09:46:41Z</time></trkpt><trkpt lat="45.960594519198374" lon="12.905334180341944"><ele>44.0</ele><time>2026-04-19T09:46:43Z</time></trkpt><trkpt lat="45.96065955300456" lon="12.905256128402602"><ele>44.0</ele><time>2026-04-19T09:46:44Z</time></trkpt><trkpt lat="45.9607161001159" lon="12.905182195973305"><ele>44.0</ele><time>2026-04-19T09:46:45Z</time></trkpt><trkpt lat="45.96076916453634" lon="12.905118939608302"><ele>44.0</ele><time>2026-04-19T09:46:46Z</time></trkpt><trkpt lat="45.96086532849411" lon="12.905041358531344"><ele>44.0</ele><time>2026-04-19T09:46:48Z</time></trkpt><trkpt lat="45.96092836338245" lon="12.905011214529448"><ele>44.0</ele><time>2026-04-19T09:46:49Z</time></trkpt><trkpt lat="45.961007987054685" lon="12.90496350335586"><ele>44.0</ele><time>2026-04-19T09:46:50Z</time></trkpt><trkpt lat="45.96108650499746" lon="12.90492124607401"><ele>44.0</ele><time>2026-04-19T09:46:51Z</time></trkpt><trkpt lat="45.96115728369531" lon="12.90487836347232"><ele>43.83333333333333</ele><time>2026-04-19T09:46:52Z</time></trkpt><trkpt lat="45.96122354792696" lon="12.904843094895618"><ele>43.666666666666664</ele><time>2026-04-19T09:46:53Z</time></trkpt><trkpt lat="45.9612872282447" lon="12.904828865226511"><ele>43.5</ele><time>2026-04-19T09:46:54Z</time></trkpt><trkpt lat="45.96135380430533" lon="12.904827417453076"><ele>43.333333333333336</ele><time>2026-04-19T09:46:55Z</time></trkpt><trkpt lat="45.9614815508964" lon="12.904800423478012"><ele>43.16666666666667</ele><time>2026-04-19T09:46:57Z</time></trkpt><trkpt lat="45.96157488479297" lon="12.90478082398278"><ele>43.0</ele><time>2026-04-19T09:46:58Z</time></trkpt><trkpt lat="45.96167834380927" lon="12.904750860154445"><ele>43.333333333333336</ele><time>2026-04-19T09:46:59Z</time></trkpt><trkpt lat="45.961771759252635" lon="12.904718869127901"><ele>43.66666666666667</ele><time>2026-04-19T09:47:00Z</time></trkpt><trkpt lat="45.961857111876355" lon="12.904686819129415"><ele>44.0</ele><time>2026-04-19T09:47:01Z</time></trkpt><trkpt lat="45.961937687042095" lon="12.90466418694985"><ele>44.333333333333336</ele><time>2026-04-19T09:47:02Z</time></trkpt><trkpt lat="45.962020600401594" lon="12.90462970279692"><ele>44.666666666666664</ele><time>2026-04-19T09:47:03Z</time></trkpt><trkpt lat="45.962092775323015" lon="12.904598643272278"><ele>45.0</ele><time>2026-04-19T09:47:04Z</time></trkpt><trkpt lat="45.962156202367055" lon="12.904576407076494"><ele>45.0</ele><time>2026-04-19T09:47:05Z</time></trkpt><trkpt lat="45.96227233956537" lon="12.90451538502809"><ele>45.0</ele><time>2026-04-19T09:47:07Z</time></trkpt><trkpt lat="45.96239116602271" lon="12.904444403344439"><ele>45.0</ele><time>2026-04-19T09:47:09Z</time></trkpt><trkpt lat="45.96248306175696" lon="12.904399755800345"><ele>45.0</ele><time>2026-04-19T09:47:10Z</time></trkpt><trkpt lat="45.962569468224046" lon="12.90435981965009"><ele>45.0</ele><time>2026-04-19T09:47:11Z</time></trkpt><trkpt lat="45.962640977191526" lon="12.9043306981881"><ele>45.166666666666664</ele><time>2026-04-19T09:47:12Z</time></trkpt><trkpt lat="45.96270461941985" lon="12.904296695798104"><ele>45.333333333333336</ele><time>2026-04-19T09:47:13Z</time></trkpt><trkpt lat="45.96276612491334" lon="12.904256099319934"><ele>45.5</ele><time>2026-04-19T09:47:14Z</time></trkpt><trkpt lat="45.962829672930326" lon="12.904217487894256"><ele>45.66666666666667</ele><time>2026-04-19T09:47:15Z</time></trkpt><trkpt lat="45.96288837460122" lon="12.904180712470987"><ele>45.833333333333336</ele><time>2026-04-19T09:47:16Z</time></trkpt><trkpt lat="45.96299532406487" lon="12.904092420580303"><ele>46.0</ele><time>2026-04-19T09:47:18Z</time></trkpt><trkpt lat="45.963069345298756" lon="12.904008419588278"><ele>46.0</ele><time>2026-04-19T09:47:20Z</time></trkpt><trkpt lat="45.96314513628665" lon="12.903922961380552"><ele>46.0</ele><time>2026-04-19T09:47:22Z</time></trkpt><trkpt lat="45.96322598717647" lon="12.903834575628364"><ele>46.0</ele><time>2026-04-19T09:47:24Z</time></trkpt><trkpt lat="45.963302254763" lon="12.903791195759537"><ele>46.0</ele><time>2026-04-19T09:47:26Z</time></trkpt><trkpt lat="45.96340329846462" lon="12.903746545977516"><ele>46.0</ele><time>2026-04-19T09:47:28Z</time></trkpt><trkpt lat="45.963501364921115" lon="12.903701859825503"><ele>45.833333333333336</ele><time>2026-04-19T09:47:30Z</time></trkpt><trkpt lat="45.96357375318074" lon="12.903657847789502"><ele>45.66666666666667</ele><time>2026-04-19T09:47:32Z</time></trkpt><trkpt lat="45.96364571029459" lon="12.903641970175922"><ele>45.5</ele><time>2026-04-19T09:47:34Z</time></trkpt><trkpt lat="45.96374172580213" lon="12.903651598539147"><ele>45.333333333333336</ele><time>2026-04-19T09:47:36Z</time></trkpt><trkpt lat="45.96382676424847" lon="12.903644441205056"><ele>45.166666666666664</ele><time>2026-04-19T09:47:38Z</time></trkpt><trkpt lat="45.963817110715" lon="12.903553944383681"><ele>45.0</ele><time>2026-04-19T09:47:43Z</time></trkpt><trkpt lat="45.963752926156495" lon="12.903486086193851"><ele>45.0</ele><time>2026-04-19T09:47:46Z</time></trkpt><trkpt lat="45.963668154724196" lon="12.90344850368428"><ele>45.0</ele><time>2026-04-19T09:47:49Z</time></trkpt><trkpt lat="45.96357557791898" lon="12.903439985885617"><ele>45.0</ele><time>2026-04-19T09:47:52Z</time></trkpt><trkpt lat="45.963503035224825" lon="12.903406951249107"><ele>45.0</ele><time>2026-04-19T09:47:54Z</time></trkpt><trkpt lat="45.96341686286117" lon="12.903380614469599"><ele>45.0</ele><time>2026-04-19T09:47:57Z</time></trkpt><trkpt lat="45.963376309483735" lon="12.903298126403813"><ele>45.0</ele><time>2026-04-19T09:48:01Z</time></trkpt><trkpt lat="45.963411682171376" lon="12.903212308374759"><ele>44.8</ele><time>2026-04-19T09:48:04Z</time></trkpt><trkpt lat="45.96347736568334" lon="12.90316151413047"><ele>44.6</ele><time>2026-04-19T09:48:06Z</time></trkpt><trkpt lat="45.963587415531514" lon="12.903082807259766"><ele>44.400000000000006</ele><time>2026-04-19T09:48:07Z</time></trkpt><trkpt lat="45.963653168211174" lon="12.903069350343342"><ele>44.2</ele><time>2026-04-19T09:48:08Z</time></trkpt><trkpt lat="45.96375879454857" lon="12.903014848719376"><ele>44.0</ele><time>2026-04-19T09:48:10Z</time></trkpt><trkpt lat="45.963881724126225" lon="12.902984503094292"><ele>44.0</ele><time>2026-04-19T09:48:12Z</time></trkpt><trkpt lat="45.964006911987674" lon="12.90300555857682"><ele>44.0</ele><time>2026-04-19T09:48:14Z</time></trkpt><trkpt lat="45.96409840144272" lon="12.903025263673747"><ele>44.0</ele><time>2026-04-19T09:48:15Z</time></trkpt><trkpt lat="45.964235156391325" lon="12.90304251783779"><ele>44.0</ele><time>2026-04-19T09:48:16Z</time></trkpt><trkpt lat="45.9643241277181" lon="12.90305005654502"><ele>44.0</ele><time>2026-04-19T09:48:17Z</time></trkpt><trkpt lat="45.964417668036006" lon="12.90305931316996"><ele>44.0</ele><time>2026-04-19T09:48:18Z</time></trkpt><trkpt lat="45.96453932299239" lon="12.903066877121862"><ele>44.0</ele><time>2026-04-19T09:48:20Z</time></trkpt><trkpt lat="45.96461013697202" lon="12.903061905026611"><ele>44.0</ele><time>2026-04-19T09:48:21Z</time></trkpt><trkpt lat="45.964689190870985" lon="12.90306982234549"><ele>44.0</ele><time>2026-04-19T09:48:22Z</time></trkpt><trkpt lat="45.964758326593696" lon="12.903085431530002"><ele>44.0</ele><time>2026-04-19T09:48:23Z</time></trkpt><trkpt lat="45.96483845785412" lon="12.903090585757752"><ele>44.0</ele><time>2026-04-19T09:48:24Z</time></trkpt><trkpt lat="45.96491374148021" lon="12.903096309659777"><ele>44.0</ele><time>2026-04-19T09:48:25Z</time></trkpt><trkpt lat="45.96497617201717" lon="12.90316203737552"><ele>44.0</ele><time>2026-04-19T09:48:26Z</time></trkpt><trkpt lat="45.96507044592897" lon="12.90325645104915"><ele>44.0</ele><time>2026-04-19T09:48:28Z</time></trkpt><trkpt lat="45.965130854137975" lon="12.903319033362363"><ele>44.0</ele><time>2026-04-19T09:48:29Z</time></trkpt><trkpt lat="45.96519084878262" lon="12.903370100690854"><ele>44.0</ele><time>2026-04-19T09:48:31Z</time></trkpt><trkpt lat="45.96525760730623" lon="12.903409718756858"><ele>44.0</ele><time>2026-04-19T09:48:33Z</time></trkpt><trkpt lat="45.965352088051496" lon="12.90343253031094"><ele>44.0</ele><time>2026-04-19T09:48:35Z</time></trkpt><trkpt lat="45.965420462682516" lon="12.903424891042393"><ele>44.0</ele><time>2026-04-19T09:48:36Z</time></trkpt><trkpt lat="45.965498576344146" lon="12.903409147292093"><ele>44.0</ele><time>2026-04-19T09:48:37Z</time></trkpt><trkpt lat="45.96556876928557" lon="12.903384668270105"><ele>44.0</ele><time>2026-04-19T09:48:38Z</time></trkpt><trkpt lat="45.96563720415989" lon="12.903357603280787"><ele>44.0</ele><time>2026-04-19T09:48:39Z</time></trkpt><trkpt lat="45.96570268444455" lon="12.903341579376743"><ele>44.0</ele><time>2026-04-19T09:48:40Z</time></trkpt><trkpt lat="45.96578598833007" lon="12.903312778814708"><ele>44.0</ele><time>2026-04-19T09:48:41Z</time></trkpt><trkpt lat="45.965886911332184" lon="12.903271561288372"><ele>43.800000000000004</ele><time>2026-04-19T09:48:42Z</time></trkpt><trkpt lat="45.965993312109546" lon="12.903219547215867"><ele>43.6</ele><time>2026-04-19T09:48:43Z</time></trkpt><trkpt lat="45.96608281724127" lon="12.90316824843033"><ele>43.4</ele><time>2026-04-19T09:48:44Z</time></trkpt><trkpt lat="45.96616214703129" lon="12.903133275119233"><ele>43.2</ele><time>2026-04-19T09:48:45Z</time></trkpt><trkpt lat="45.96624641925996" lon="12.903111848448093"><ele>43.0</ele><time>2026-04-19T09:48:46Z</time></trkpt><trkpt lat="45.96633783033209" lon="12.90310140787913"><ele>43.0</ele><time>2026-04-19T09:48:47Z</time></trkpt><trkpt lat="45.96643455537164" lon="12.903102981829498"><ele>43.0</ele><time>2026-04-19T09:48:48Z</time></trkpt><trkpt lat="45.96652213036123" lon="12.903104099417783"><ele>43.0</ele><time>2026-04-19T09:48:49Z</time></trkpt><trkpt lat="45.966603140817355" lon="12.903112454736398"><ele>43.0</ele><time>2026-04-19T09:48:50Z</time></trkpt><trkpt lat="45.96669369445353" lon="12.90312022665466"><ele>43.0</ele><time>2026-04-19T09:48:51Z</time></trkpt><trkpt lat="45.96678552282157" lon="12.903130737588322"><ele>43.0</ele><time>2026-04-19T09:48:52Z</time></trkpt><trkpt lat="45.96688125999604" lon="12.90314037238365"><ele>43.0</ele><time>2026-04-19T09:48:53Z</time></trkpt><trkpt lat="45.96697742779302" lon="12.903156708756388"><ele>43.0</ele><time>2026-04-19T09:48:54Z</time></trkpt><trkpt lat="45.96708262369282" lon="12.903185025063966"><ele>43.0</ele><time>2026-04-19T09:48:55Z</time></trkpt><trkpt lat="45.96719736856037" lon="12.903224355901687"><ele>43.0</ele><time>2026-04-19T09:48:56Z</time></trkpt><trkpt lat="45.967301941094604" lon="12.90326309866133"><ele>43.0</ele><time>2026-04-19T09:48:57Z</time></trkpt><trkpt lat="45.96739642296755" lon="12.903299051475958"><ele>43.0</ele><time>2026-04-19T09:48:58Z</time></trkpt><trkpt lat="45.96748030964022" lon="12.903343262099899"><ele>43.0</ele><time>2026-04-19T09:48:59Z</time></trkpt><trkpt lat="45.96757478680334" lon="12.903390889532863"><ele>43.0</ele><time>2026-04-19T09:49:00Z</time></trkpt><trkpt lat="45.96766738151509" lon="12.903437672354482"><ele>43.0</ele><time>2026-04-19T09:49:01Z</time></trkpt><trkpt lat="45.96776384638067" lon="12.903479394567134"><ele>43.0</ele><time>2026-04-19T09:49:02Z</time></trkpt><trkpt lat="45.96786497164285" lon="12.90352768412973"><ele>42.75</ele><time>2026-04-19T09:49:03Z</time></trkpt><trkpt lat="45.96797854853561" lon="12.903583953414662"><ele>42.5</ele><time>2026-04-19T09:49:04Z</time></trkpt><trkpt lat="45.968104705954175" lon="12.903644982926325"><ele>42.25</ele><time>2026-04-19T09:49:05Z</time></trkpt><trkpt lat="45.96821983848316" lon="12.903703841743674"><ele>42.0</ele><time>2026-04-19T09:49:06Z</time></trkpt><trkpt lat="45.9683192051678" lon="12.903748278740798"><ele>42.2</ele><time>2026-04-19T09:49:07Z</time></trkpt><trkpt lat="45.968416459111104" lon="12.903788991363895"><ele>42.400000000000006</ele><time>2026-04-19T09:49:08Z</time></trkpt><trkpt lat="45.96850724903375" lon="12.903828324299434"><ele>42.599999999999994</ele><time>2026-04-19T09:49:09Z</time></trkpt><trkpt lat="45.96860646390334" lon="12.903863395482787"><ele>42.8</ele><time>2026-04-19T09:49:10Z</time></trkpt><trkpt lat="45.96870922974276" lon="12.9038986049953"><ele>43.0</ele><time>2026-04-19T09:49:11Z</time></trkpt><trkpt lat="45.96881036187238" lon="12.903940892266226"><ele>43.0</ele><time>2026-04-19T09:49:12Z</time></trkpt><trkpt lat="45.96891897986234" lon="12.903986708173232"><ele>43.0</ele><time>2026-04-19T09:49:13Z</time></trkpt><trkpt lat="45.96903046673884" lon="12.904031189106135"><ele>43.0</ele><time>2026-04-19T09:49:14Z</time></trkpt><trkpt lat="45.969147715038886" lon="12.904076329705306"><ele>43.0</ele><time>2026-04-19T09:49:15Z</time></trkpt><trkpt lat="45.96926498774778" lon="12.904116542552234"><ele>43.75</ele><time>2026-04-19T09:49:16Z</time></trkpt><trkpt lat="45.96936895629293" lon="12.904154426476552"><ele>44.5</ele><time>2026-04-19T09:49:17Z</time></trkpt><trkpt lat="45.96947734892085" lon="12.904196217670833"><ele>45.25</ele><time>2026-04-19T09:49:18Z</time></trkpt><trkpt lat="45.96959212403702" lon="12.904241775244673"><ele>46.0</ele><time>2026-04-19T09:49:19Z</time></trkpt><trkpt lat="45.9697108685329" lon="12.904289010910693"><ele>46.0</ele><time>2026-04-19T09:49:20Z</time></trkpt><trkpt lat="45.96982836040102" lon="12.904345931372054"><ele>46.0</ele><time>2026-04-19T09:49:21Z</time></trkpt><trkpt lat="45.96994378554827" lon="12.904399377229945"><ele>46.0</ele><time>2026-04-19T09:49:22Z</time></trkpt><trkpt lat="45.970054057583084" lon="12.90444306749943"><ele>46.0</ele><time>2026-04-19T09:49:23Z</time></trkpt><trkpt lat="45.97017031179294" lon="12.904465065415334"><ele>46.0</ele><time>2026-04-19T09:49:24Z</time></trkpt><trkpt lat="45.97027091398641" lon="12.904477686117746"><ele>46.0</ele><time>2026-04-19T09:49:25Z</time></trkpt><trkpt lat="45.970363418014216" lon="12.904507326761225"><ele>46.0</ele><time>2026-04-19T09:49:26Z</time></trkpt><trkpt lat="45.97046063393441" lon="12.904539654039942"><ele>46.0</ele><time>2026-04-19T09:49:27Z</time></trkpt><trkpt lat="45.97054462121197" lon="12.904573290044425"><ele>46.0</ele><time>2026-04-19T09:49:28Z</time></trkpt><trkpt lat="45.97063878998927" lon="12.904615607868791"><ele>46.0</ele><time>2026-04-19T09:49:29Z</time></trkpt><trkpt lat="45.97074012738522" lon="12.904663708584009"><ele>46.0</ele><time>2026-04-19T09:49:30Z</time></trkpt><trkpt lat="45.97085653932259" lon="12.90471249740768"><ele>46.0</ele><time>2026-04-19T09:49:31Z</time></trkpt><trkpt lat="45.970978540129224" lon="12.9047609111014"><ele>46.0</ele><time>2026-04-19T09:49:32Z</time></trkpt><trkpt lat="45.97108142273623" lon="12.90479451091761"><ele>45.8</ele><time>2026-04-19T09:49:33Z</time></trkpt><trkpt lat="45.971171458689064" lon="12.904826627381533"><ele>45.599999999999994</ele><time>2026-04-19T09:49:34Z</time></trkpt><trkpt lat="45.97125709658476" lon="12.904852325061102"><ele>45.4</ele><time>2026-04-19T09:49:35Z</time></trkpt><trkpt lat="45.97134340643238" lon="12.904893839490772"><ele>45.2</ele><time>2026-04-19T09:49:36Z</time></trkpt><trkpt lat="45.97143562498286" lon="12.904945403049226"><ele>45.0</ele><time>2026-04-19T09:49:37Z</time></trkpt><trkpt lat="45.97150977244437" lon="12.904991576670673"><ele>45.0</ele><time>2026-04-19T09:49:38Z</time></trkpt><trkpt lat="45.97158386271887" lon="12.90503744896133"><ele>45.0</ele><time>2026-04-19T09:49:39Z</time></trkpt><trkpt lat="45.97165929567334" lon="12.9050965896965"><ele>45.0</ele><time>2026-04-19T09:49:40Z</time></trkpt><trkpt lat="45.97175815608533" lon="12.905151067632923"><ele>45.0</ele><time>2026-04-19T09:49:41Z</time></trkpt><trkpt lat="45.97187173527668" lon="12.905203552073896"><ele>45.0</ele><time>2026-04-19T09:49:42Z</time></trkpt><trkpt lat="45.97199042828784" lon="12.905255720629452"><ele>45.0</ele><time>2026-04-19T09:49:43Z</time></trkpt><trkpt lat="45.97210215676293" lon="12.905294706068002"><ele>45.0</ele><time>2026-04-19T09:49:44Z</time></trkpt><trkpt lat="45.97219527328126" lon="12.905317764638768"><ele>45.0</ele><time>2026-04-19T09:49:45Z</time></trkpt><trkpt lat="45.97227587700803" lon="12.905343162079179"><ele>45.0</ele><time>2026-04-19T09:49:46Z</time></trkpt><trkpt lat="45.97235127531658" lon="12.905364624018109"><ele>45.0</ele><time>2026-04-19T09:49:47Z</time></trkpt><trkpt lat="45.97249461930948" lon="12.905376285834564"><ele>45.2</ele><time>2026-04-19T09:49:49Z</time></trkpt><trkpt lat="45.97260715238828" lon="12.905333059295383"><ele>45.4</ele><time>2026-04-19T09:49:50Z</time></trkpt><trkpt lat="45.97272261863657" lon="12.90530882141667"><ele>45.599999999999994</ele><time>2026-04-19T09:49:51Z</time></trkpt><trkpt lat="45.97282120352282" lon="12.90532179560888"><ele>45.8</ele><time>2026-04-19T09:49:52Z</time></trkpt><trkpt lat="45.97289787624989" lon="12.905365406788802"><ele>46.0</ele><time>2026-04-19T09:49:53Z</time></trkpt><trkpt lat="45.97296329047986" lon="12.905396886023789"><ele>46.0</ele><time>2026-04-19T09:49:54Z</time></trkpt><trkpt lat="45.973032200447236" lon="12.905407625991247"><ele>46.0</ele><time>2026-04-19T09:49:55Z</time></trkpt><trkpt lat="45.97311844873777" lon="12.905439401834393"><ele>46.0</ele><time>2026-04-19T09:49:56Z</time></trkpt><trkpt lat="45.97320891724422" lon="12.905475223594406"><ele>46.0</ele><time>2026-04-19T09:49:57Z</time></trkpt><trkpt lat="45.97329857134568" lon="12.905525576102997"><ele>46.0</ele><time>2026-04-19T09:49:58Z</time></trkpt><trkpt lat="45.97340130461563" lon="12.905595842321661"><ele>45.599999999999994</ele><time>2026-04-19T09:49:59Z</time></trkpt><trkpt lat="45.97348650187986" lon="12.905659492020119"><ele>45.2</ele><time>2026-04-19T09:50:00Z</time></trkpt><trkpt lat="45.973558584720536" lon="12.905703523516035"><ele>44.8</ele><time>2026-04-19T09:50:01Z</time></trkpt><trkpt lat="45.97364560632377" lon="12.905755326204082"><ele>44.400000000000006</ele><time>2026-04-19T09:50:02Z</time></trkpt><trkpt lat="45.97373786931208" lon="12.905809979944655"><ele>44.0</ele><time>2026-04-19T09:50:03Z</time></trkpt><trkpt lat="45.97383134804753" lon="12.90586610135165"><ele>44.400000000000006</ele><time>2026-04-19T09:50:04Z</time></trkpt><trkpt lat="45.97392906705263" lon="12.90591510043704"><ele>44.8</ele><time>2026-04-19T09:50:05Z</time></trkpt><trkpt lat="45.97403351834753" lon="12.905952326042932"><ele>45.2</ele><time>2026-04-19T09:50:06Z</time></trkpt><trkpt lat="45.97413815209863" lon="12.90598540236763"><ele>45.599999999999994</ele><time>2026-04-19T09:50:07Z</time></trkpt><trkpt lat="45.9742324651057" lon="12.90600914000931"><ele>46.0</ele><time>2026-04-19T09:50:08Z</time></trkpt><trkpt lat="45.97432151320513" lon="12.90603921817912"><ele>46.0</ele><time>2026-04-19T09:50:09Z</time></trkpt><trkpt lat="45.97441501147969" lon="12.906084582929187"><ele>46.0</ele><time>2026-04-19T09:50:10Z</time></trkpt><trkpt lat="45.974513444267295" lon="12.906123216586991"><ele>46.0</ele><time>2026-04-19T09:50:11Z</time></trkpt><trkpt lat="45.9746195667965" lon="12.906156299444788"><ele>46.0</ele><time>2026-04-19T09:50:12Z</time></trkpt><trkpt lat="45.97472718929639" lon="12.906200090097599"><ele>46.0</ele><time>2026-04-19T09:50:13Z</time></trkpt><trkpt lat="45.97482926625932" lon="12.906247821504158"><ele>46.0</ele><time>2026-04-19T09:50:14Z</time></trkpt><trkpt lat="45.974933617506295" lon="12.906299517779846"><ele>46.0</ele><time>2026-04-19T09:50:15Z</time></trkpt><trkpt lat="45.97503870634562" lon="12.906350787470029"><ele>46.0</ele><time>2026-04-19T09:50:16Z</time></trkpt><trkpt lat="45.975127747220974" lon="12.906408351384613"><ele>46.0</ele><time>2026-04-19T09:50:17Z</time></trkpt><trkpt lat="45.97521133426628" lon="12.90647591972683"><ele>46.0</ele><time>2026-04-19T09:50:18Z</time></trkpt><trkpt lat="45.97532140271884" lon="12.906537816714101"><ele>46.16666666666667</ele><time>2026-04-19T09:50:19Z</time></trkpt><trkpt lat="45.975414015270246" lon="12.906585866731746"><ele>46.333333333333336</ele><time>2026-04-19T09:50:20Z</time></trkpt><trkpt lat="45.97550082322803" lon="12.906621820404196"><ele>46.5</ele><time>2026-04-19T09:50:21Z</time></trkpt><trkpt lat="45.975594608746064" lon="12.906644355492558"><ele>46.666666666666664</ele><time>2026-04-19T09:50:22Z</time></trkpt><trkpt lat="45.975679725537034" lon="12.90664966728398"><ele>46.83333333333333</ele><time>2026-04-19T09:50:23Z</time></trkpt><trkpt lat="45.97575908228122" lon="12.906642759693778"><ele>47.0</ele><time>2026-04-19T09:50:24Z</time></trkpt><trkpt lat="45.97584699984867" lon="12.906623138210298"><ele>47.0</ele><time>2026-04-19T09:50:25Z</time></trkpt><trkpt lat="45.97594696477365" lon="12.906618712219847"><ele>47.0</ele><time>2026-04-19T09:50:26Z</time></trkpt><trkpt lat="45.97605540599142" lon="12.906633313956235"><ele>47.0</ele><time>2026-04-19T09:50:27Z</time></trkpt><trkpt lat="45.976173214674375" lon="12.906659201678014"><ele>47.0</ele><time>2026-04-19T09:50:28Z</time></trkpt><trkpt lat="45.976284482244814" lon="12.906675246483966"><ele>47.0</ele><time>2026-04-19T09:50:29Z</time></trkpt><trkpt lat="45.976381010257626" lon="12.906686213598583"><ele>47.0</ele><time>2026-04-19T09:50:30Z</time></trkpt><trkpt lat="45.976478089387335" lon="12.906680791421799"><ele>47.0</ele><time>2026-04-19T09:50:31Z</time></trkpt><trkpt lat="45.97658093329689" lon="12.906659308662226"><ele>47.0</ele><time>2026-04-19T09:50:32Z</time></trkpt><trkpt lat="45.97667623917847" lon="12.906627337212218"><ele>47.0</ele><time>2026-04-19T09:50:33Z</time></trkpt><trkpt lat="45.976756634226014" lon="12.906591073742227"><ele>47.0</ele><time>2026-04-19T09:50:34Z</time></trkpt><trkpt lat="45.97683900132548" lon="12.906559301941652"><ele>46.8</ele><time>2026-04-19T09:50:35Z</time></trkpt><trkpt lat="45.97692915857515" lon="12.90653368381182"><ele>46.6</ele><time>2026-04-19T09:50:36Z</time></trkpt><trkpt lat="45.97702424662936" lon="12.906501340281428"><ele>46.4</ele><time>2026-04-19T09:50:37Z</time></trkpt><trkpt lat="45.977129181798524" lon="12.906461896306688"><ele>46.199999999999996</ele><time>2026-04-19T09:50:38Z</time></trkpt><trkpt lat="45.97722634368571" lon="12.906426865225598"><ele>46.0</ele><time>2026-04-19T09:50:39Z</time></trkpt><trkpt lat="45.977309559765324" lon="12.906399235251552"><ele>46.0</ele><time>2026-04-19T09:50:40Z</time></trkpt><trkpt lat="45.977392922712255" lon="12.906368257296405"><ele>46.0</ele><time>2026-04-19T09:50:41Z</time></trkpt><trkpt lat="45.97747316938354" lon="12.90635102275952"><ele>46.0</ele><time>2026-04-19T09:50:42Z</time></trkpt><trkpt lat="45.97756071265011" lon="12.906367062262483"><ele>46.0</ele><time>2026-04-19T09:50:43Z</time></trkpt><trkpt lat="45.97763509075723" lon="12.906393195796605"><ele>46.0</ele><time>2026-04-19T09:50:44Z</time></trkpt><trkpt lat="45.97770950510348" lon="12.906401641421946"><ele>46.0</ele><time>2026-04-19T09:50:45Z</time></trkpt><trkpt lat="45.977795361481945" lon="12.906400980368376"><ele>46.0</ele><time>2026-04-19T09:50:46Z</time></trkpt><trkpt lat="45.977885854011795" lon="12.90640051480459"><ele>46.0</ele><time>2026-04-19T09:50:47Z</time></trkpt><trkpt lat="45.97799000352846" lon="12.90640743340951"><ele>46.0</ele><time>2026-04-19T09:50:48Z</time></trkpt><trkpt lat="45.97811464592597" lon="12.906420136528785"><ele>46.0</ele><time>2026-04-19T09:50:49Z</time></trkpt><trkpt lat="45.97824761816635" lon="12.90643273706651"><ele>46.199999999999996</ele><time>2026-04-19T09:50:50Z</time></trkpt><trkpt lat="45.9783560256946" lon="12.90644777702338"><ele>46.4</ele><time>2026-04-19T09:50:51Z</time></trkpt><trkpt lat="45.97844991421906" lon="12.90646095528253"><ele>46.6</ele><time>2026-04-19T09:50:52Z</time></trkpt><trkpt lat="45.97853657334568" lon="12.906479702511682"><ele>46.8</ele><time>2026-04-19T09:50:53Z</time></trkpt><trkpt lat="45.97862346461812" lon="12.906499088373105"><ele>47.0</ele><time>2026-04-19T09:50:54Z</time></trkpt><trkpt lat="45.978711757943444" lon="12.906536910880273"><ele>47.0</ele><time>2026-04-19T09:50:55Z</time></trkpt><trkpt lat="45.978798940151435" lon="12.906576991072175"><ele>47.0</ele><time>2026-04-19T09:50:56Z</time></trkpt><trkpt lat="45.9788940100207" lon="12.906598919145763"><ele>47.0</ele><time>2026-04-19T09:50:57Z</time></trkpt><trkpt lat="45.97898532422056" lon="12.906612512814748"><ele>47.0</ele><time>2026-04-19T09:50:58Z</time></trkpt><trkpt lat="45.97908020416217" lon="12.906603701418918"><ele>47.0</ele><time>2026-04-19T09:50:59Z</time></trkpt><trkpt lat="45.979193328262035" lon="12.906586989025344"><ele>47.0</ele><time>2026-04-19T09:51:00Z</time></trkpt><trkpt lat="45.97931093945397" lon="12.90656236604804"><ele>47.0</ele><time>2026-04-19T09:51:01Z</time></trkpt><trkpt lat="45.9794299027454" lon="12.90653180366309"><ele>47.0</ele><time>2026-04-19T09:51:02Z</time></trkpt><trkpt lat="45.979533293848334" lon="12.906506719813384"><ele>47.0</ele><time>2026-04-19T09:51:03Z</time></trkpt><trkpt lat="45.97963338944676" lon="12.906487261386527"><ele>47.0</ele><time>2026-04-19T09:51:04Z</time></trkpt><trkpt lat="45.979732823411545" lon="12.906475341736908"><ele>47.0</ele><time>2026-04-19T09:51:05Z</time></trkpt><trkpt lat="45.97984574859435" lon="12.906457841700268"><ele>47.0</ele><time>2026-04-19T09:51:06Z</time></trkpt><trkpt lat="45.97995853704073" lon="12.9064427962649"><ele>47.0</ele><time>2026-04-19T09:51:07Z</time></trkpt><trkpt lat="45.98005486631233" lon="12.906437781780289"><ele>47.0</ele><time>2026-04-19T09:51:08Z</time></trkpt><trkpt lat="45.980151205056664" lon="12.906430981006027"><ele>47.0</ele><time>2026-04-19T09:51:09Z</time></trkpt><trkpt lat="45.9802546495108" lon="12.9064194192229"><ele>47.2</ele><time>2026-04-19T09:51:10Z</time></trkpt><trkpt lat="45.98034758936766" lon="12.906407605306105"><ele>47.400000000000006</ele><time>2026-04-19T09:51:11Z</time></trkpt><trkpt lat="45.98043629727196" lon="12.9063853576966"><ele>47.599999999999994</ele><time>2026-04-19T09:51:12Z</time></trkpt><trkpt lat="45.98052803038759" lon="12.90635845302226"><ele>47.8</ele><time>2026-04-19T09:51:13Z</time></trkpt><trkpt lat="45.98063259512849" lon="12.906319812824004"><ele>48.0</ele><time>2026-04-19T09:51:14Z</time></trkpt><trkpt lat="45.98074403345683" lon="12.90625858186103"><ele>48.0</ele><time>2026-04-19T09:51:15Z</time></trkpt><trkpt lat="45.98085039801277" lon="12.906191090707198"><ele>48.0</ele><time>2026-04-19T09:51:16Z</time></trkpt><trkpt lat="45.98093808713966" lon="12.906130191171217"><ele>48.0</ele><time>2026-04-19T09:51:17Z</time></trkpt><trkpt lat="45.98102312234942" lon="12.906072110288056"><ele>48.0</ele><time>2026-04-19T09:51:18Z</time></trkpt><trkpt lat="45.981123836587315" lon="12.906037192617276"><ele>48.0</ele><time>2026-04-19T09:51:19Z</time></trkpt><trkpt lat="45.98123589335831" lon="12.906003182855896"><ele>48.0</ele><time>2026-04-19T09:51:20Z</time></trkpt><trkpt lat="45.98133577585282" lon="12.905968354170174"><ele>48.0</ele><time>2026-04-19T09:51:21Z</time></trkpt><trkpt lat="45.98143603279781" lon="12.905932571267115"><ele>48.0</ele><time>2026-04-19T09:51:22Z</time></trkpt><trkpt lat="45.9815346947104" lon="12.90590838712105"><ele>48.0</ele><time>2026-04-19T09:51:23Z</time></trkpt><trkpt lat="45.9816246415823" lon="12.905901619427024"><ele>48.0</ele><time>2026-04-19T09:51:24Z</time></trkpt><trkpt lat="45.981711431342994" lon="12.905902629612779"><ele>48.0</ele><time>2026-04-19T09:51:25Z</time></trkpt><trkpt lat="45.981796467373165" lon="12.90591573588023"><ele>48.0</ele><time>2026-04-19T09:51:26Z</time></trkpt><trkpt lat="45.98188106725613" lon="12.905917122013337"><ele>48.0</ele><time>2026-04-19T09:51:27Z</time></trkpt><trkpt lat="45.981965147750515" lon="12.905908382107732"><ele>48.0</ele><time>2026-04-19T09:51:28Z</time></trkpt><trkpt lat="45.98204932104935" lon="12.905900574863912"><ele>48.0</ele><time>2026-04-19T09:51:29Z</time></trkpt><trkpt lat="45.98213128408228" lon="12.905906036430265"><ele>48.0</ele><time>2026-04-19T09:51:30Z</time></trkpt><trkpt lat="45.98223123432283" lon="12.905918147169068"><ele>48.0</ele><time>2026-04-19T09:51:31Z</time></trkpt><trkpt lat="45.98234991150732" lon="12.905927931192979"><ele>48.0</ele><time>2026-04-19T09:51:32Z</time></trkpt><trkpt lat="45.98247785482821" lon="12.905922076458134"><ele>48.0</ele><time>2026-04-19T09:51:33Z</time></trkpt><trkpt lat="45.98259515714168" lon="12.90591191378733"><ele>48.0</ele><time>2026-04-19T09:51:34Z</time></trkpt><trkpt lat="45.98269901300445" lon="12.905906152026569"><ele>48.25</ele><time>2026-04-19T09:51:35Z</time></trkpt><trkpt lat="45.982799745113006" lon="12.905914171060472"><ele>48.5</ele><time>2026-04-19T09:51:36Z</time></trkpt><trkpt lat="45.98290786755033" lon="12.905940419227294"><ele>48.75</ele><time>2026-04-19T09:51:37Z</time></trkpt><trkpt lat="45.98303801194484" lon="12.905964833658729"><ele>49.0</ele><time>2026-04-19T09:51:38Z</time></trkpt><trkpt lat="45.9831930004916" lon="12.905995261685963"><ele>49.0</ele><time>2026-04-19T09:51:39Z</time></trkpt><trkpt lat="45.98333447221791" lon="12.906019522090617"><ele>49.0</ele><time>2026-04-19T09:51:40Z</time></trkpt><trkpt lat="45.98345464061072" lon="12.906045652495482"><ele>49.0</ele><time>2026-04-19T09:51:41Z</time></trkpt><trkpt lat="45.9835565232373" lon="12.906066075171655"><ele>49.0</ele><time>2026-04-19T09:51:42Z</time></trkpt><trkpt lat="45.98364604027237" lon="12.906088408218997"><ele>49.33333333333333</ele><time>2026-04-19T09:51:43Z</time></trkpt><trkpt lat="45.983741296689516" lon="12.906104375347384"><ele>49.666666666666664</ele><time>2026-04-19T09:51:44Z</time></trkpt><trkpt lat="45.98383091969887" lon="12.906105480698333"><ele>50.0</ele><time>2026-04-19T09:51:45Z</time></trkpt><trkpt lat="45.983910270337965" lon="12.906110663798668"><ele>50.33333333333333</ele><time>2026-04-19T09:51:46Z</time></trkpt><trkpt lat="45.983988067683896" lon="12.906100313263314"><ele>50.666666666666664</ele><time>2026-04-19T09:51:47Z</time></trkpt><trkpt lat="45.984073571168736" lon="12.906076697479525"><ele>51.0</ele><time>2026-04-19T09:51:48Z</time></trkpt><trkpt lat="45.98416852960377" lon="12.906049465296324"><ele>50.8</ele><time>2026-04-19T09:51:49Z</time></trkpt><trkpt lat="45.984269728317486" lon="12.906024935978929"><ele>50.599999999999994</ele><time>2026-04-19T09:51:50Z</time></trkpt><trkpt lat="45.98438185591123" lon="12.906012305074869"><ele>50.4</ele><time>2026-04-19T09:51:51Z</time></trkpt><trkpt lat="45.98449176926951" lon="12.906004763636975"><ele>50.2</ele><time>2026-04-19T09:51:52Z</time></trkpt><trkpt lat="45.98458900866184" lon="12.90600904052622"><ele>50.0</ele><time>2026-04-19T09:51:53Z</time></trkpt><trkpt lat="45.98467741830586" lon="12.906007079896431"><ele>50.00000000000001</ele><time>2026-04-19T09:51:54Z</time></trkpt><trkpt lat="45.98476341502283" lon="12.906011226518409"><ele>50.0</ele><time>2026-04-19T09:51:55Z</time></trkpt><trkpt lat="45.98484306855945" lon="12.90601539497569"><ele>50.0</ele><time>2026-04-19T09:51:56Z</time></trkpt><trkpt lat="45.98491777044084" lon="12.906009626274551"><ele>50.0</ele><time>2026-04-19T09:51:57Z</time></trkpt><trkpt lat="45.98504590237636" lon="12.905992610955131"><ele>50.00000000000001</ele><time>2026-04-19T09:51:59Z</time></trkpt><trkpt lat="45.985109074145996" lon="12.905993098959765"><ele>50.0</ele><time>2026-04-19T09:52:00Z</time></trkpt><trkpt lat="45.98521382541096" lon="12.905993057284414"><ele>50.16666666666667</ele><time>2026-04-19T09:52:02Z</time></trkpt><trkpt lat="45.9852940315106" lon="12.905983977057963"><ele>50.333333333333336</ele><time>2026-04-19T09:52:04Z</time></trkpt><trkpt lat="45.9853740486081" lon="12.905964212606744"><ele>50.5</ele><time>2026-04-19T09:52:06Z</time></trkpt><trkpt lat="45.98544627436434" lon="12.905949538893616"><ele>50.66666666666667</ele><time>2026-04-19T09:52:07Z</time></trkpt><trkpt lat="45.98553401326731" lon="12.905944231393782"><ele>50.833333333333336</ele><time>2026-04-19T09:52:08Z</time></trkpt><trkpt lat="45.985642433198564" lon="12.905947206511389"><ele>51.0</ele><time>2026-04-19T09:52:09Z</time></trkpt><trkpt lat="45.985743304196085" lon="12.90594981396818"><ele>51.0</ele><time>2026-04-19T09:52:10Z</time></trkpt><trkpt lat="45.98582893775066" lon="12.90595556971564"><ele>51.0</ele><time>2026-04-19T09:52:11Z</time></trkpt><trkpt lat="45.98591382496665" lon="12.905963600241366"><ele>51.0</ele><time>2026-04-19T09:52:12Z</time></trkpt><trkpt lat="45.98599775014825" lon="12.905971732367082"><ele>51.0</ele><time>2026-04-19T09:52:13Z</time></trkpt><trkpt lat="45.98607151702231" lon="12.905974691964412"><ele>51.0</ele><time>2026-04-19T09:52:14Z</time></trkpt><trkpt lat="45.98616791852871" lon="12.90597920872839"><ele>51.0</ele><time>2026-04-19T09:52:15Z</time></trkpt><trkpt lat="45.986262562364466" lon="12.905988284487984"><ele>50.8</ele><time>2026-04-19T09:52:16Z</time></trkpt><trkpt lat="45.986336796259" lon="12.905992039882667"><ele>50.599999999999994</ele><time>2026-04-19T09:52:17Z</time></trkpt><trkpt lat="45.986418330666396" lon="12.905972247897967"><ele>50.4</ele><time>2026-04-19T09:52:18Z</time></trkpt><trkpt lat="45.98652047813824" lon="12.905961931193193"><ele>50.2</ele><time>2026-04-19T09:52:19Z</time></trkpt><trkpt lat="45.98662369716947" lon="12.905965617101693"><ele>50.0</ele><time>2026-04-19T09:52:20Z</time></trkpt><trkpt lat="45.98671444452176" lon="12.9059794493618"><ele>50.4</ele><time>2026-04-19T09:52:21Z</time></trkpt><trkpt lat="45.98680680921" lon="12.90599778082014"><ele>50.8</ele><time>2026-04-19T09:52:22Z</time></trkpt><trkpt lat="45.98689622439394" lon="12.906015614366206"><ele>51.2</ele><time>2026-04-19T09:52:23Z</time></trkpt><trkpt lat="45.98698695629221" lon="12.906030783213643"><ele>51.6</ele><time>2026-04-19T09:52:24Z</time></trkpt><trkpt lat="45.98709182208315" lon="12.906031849392628"><ele>52.0</ele><time>2026-04-19T09:52:25Z</time></trkpt><trkpt lat="45.987173523095535" lon="12.90603767779351"><ele>51.99999999999999</ele><time>2026-04-19T09:52:26Z</time></trkpt><trkpt lat="45.98726064554738" lon="12.906041254926963"><ele>52.0</ele><time>2026-04-19T09:52:27Z</time></trkpt><trkpt lat="45.98733893059269" lon="12.906048922510587"><ele>52.0</ele><time>2026-04-19T09:52:28Z</time></trkpt><trkpt lat="45.987418471867784" lon="12.906056213207458"><ele>52.0</ele><time>2026-04-19T09:52:29Z</time></trkpt><trkpt lat="45.987509518729084" lon="12.906056829795892"><ele>51.99999999999999</ele><time>2026-04-19T09:52:30Z</time></trkpt><trkpt lat="45.98760805731555" lon="12.906048883119569"><ele>52.0</ele><time>2026-04-19T09:52:31Z</time></trkpt><trkpt lat="45.98769381140151" lon="12.906048990766891"><ele>51.83333333333333</ele><time>2026-04-19T09:52:32Z</time></trkpt><trkpt lat="45.98776487302393" lon="12.906066334664704"><ele>51.666666666666664</ele><time>2026-04-19T09:52:33Z</time></trkpt><trkpt lat="45.987830504791354" lon="12.906095815863909"><ele>51.5</ele><time>2026-04-19T09:52:34Z</time></trkpt><trkpt lat="45.9879060882821" lon="12.906104862672516"><ele>51.33333333333333</ele><time>2026-04-19T09:52:35Z</time></trkpt><trkpt lat="45.987989817979276" lon="12.906096237278277"><ele>51.166666666666664</ele><time>2026-04-19T09:52:36Z</time></trkpt><trkpt lat="45.9880731598602" lon="12.906089860691406"><ele>51.0</ele><time>2026-04-19T09:52:37Z</time></trkpt><trkpt lat="45.988156276687015" lon="12.906098866877478"><ele>51.0</ele><time>2026-04-19T09:52:38Z</time></trkpt><trkpt lat="45.988233235235334" lon="12.906135357411495"><ele>51.0</ele><time>2026-04-19T09:52:39Z</time></trkpt><trkpt lat="45.98831702697077" lon="12.906184032609483"><ele>51.0</ele><time>2026-04-19T09:52:40Z</time></trkpt><trkpt lat="45.98838935986851" lon="12.906224618422755"><ele>51.0</ele><time>2026-04-19T09:52:41Z</time></trkpt><trkpt lat="45.98849612732743" lon="12.906288544877107"><ele>51.0</ele><time>2026-04-19T09:52:43Z</time></trkpt><trkpt lat="45.98856452081511" lon="12.906300511835598"><ele>51.0</ele><time>2026-04-19T09:52:44Z</time></trkpt><trkpt lat="45.98862842502482" lon="12.906329385038752"><ele>51.166666666666664</ele><time>2026-04-19T09:52:45Z</time></trkpt><trkpt lat="45.9886902089124" lon="12.906374183794567"><ele>51.33333333333333</ele><time>2026-04-19T09:52:46Z</time></trkpt><trkpt lat="45.988764073079196" lon="12.906433791797761"><ele>51.5</ele><time>2026-04-19T09:52:47Z</time></trkpt><trkpt lat="45.98884526722935" lon="12.906486358222457"><ele>51.666666666666664</ele><time>2026-04-19T09:52:48Z</time></trkpt><trkpt lat="45.98893248530406" lon="12.906537848157518"><ele>51.83333333333333</ele><time>2026-04-19T09:52:49Z</time></trkpt><trkpt lat="45.98902451840714" lon="12.90659195602631"><ele>52.0</ele><time>2026-04-19T09:52:50Z</time></trkpt><trkpt lat="45.98911203047069" lon="12.906653595451969"><ele>51.99999999999999</ele><time>2026-04-19T09:52:51Z</time></trkpt><trkpt lat="45.98919921751566" lon="12.906699679571012"><ele>52.0</ele><time>2026-04-19T09:52:52Z</time></trkpt><trkpt lat="45.98927521631841" lon="12.906725444680207"><ele>52.0</ele><time>2026-04-19T09:52:53Z</time></trkpt><trkpt lat="45.98935112866073" lon="12.906741392569"><ele>52.0</ele><time>2026-04-19T09:52:54Z</time></trkpt><trkpt lat="45.98941939720387" lon="12.906757198886465"><ele>51.99999999999999</ele><time>2026-04-19T09:52:55Z</time></trkpt><trkpt lat="45.98948521101785" lon="12.906775255564147"><ele>52.0</ele><time>2026-04-19T09:52:56Z</time></trkpt><trkpt lat="45.989557295900866" lon="12.906817861330858"><ele>51.99999999999999</ele><time>2026-04-19T09:52:57Z</time></trkpt><trkpt lat="45.98964695905701" lon="12.90687097276416"><ele>52.0</ele><time>2026-04-19T09:52:58Z</time></trkpt><trkpt lat="45.98975298424796" lon="12.906916851137224"><ele>52.0</ele><time>2026-04-19T09:52:59Z</time></trkpt><trkpt lat="45.9898364705052" lon="12.906955435802058"><ele>52.0</ele><time>2026-04-19T09:53:00Z</time></trkpt><trkpt lat="45.989905556101334" lon="12.90698832270134"><ele>51.99999999999999</ele><time>2026-04-19T09:53:01Z</time></trkpt><trkpt lat="45.98997547428835" lon="12.907003661695136"><ele>52.0</ele><time>2026-04-19T09:53:02Z</time></trkpt><trkpt lat="45.99005800852217" lon="12.907008428210169"><ele>52.166666666666664</ele><time>2026-04-19T09:53:03Z</time></trkpt><trkpt lat="45.990141796993235" lon="12.907014935522158"><ele>52.33333333333333</ele><time>2026-04-19T09:53:04Z</time></trkpt><trkpt lat="45.9902518903343" lon="12.907048965620193"><ele>52.5</ele><time>2026-04-19T09:53:06Z</time></trkpt><trkpt lat="45.990318869126824" lon="12.907074002085"><ele>52.66666666666667</ele><time>2026-04-19T09:53:07Z</time></trkpt><trkpt lat="45.99037939509774" lon="12.90710567834784"><ele>52.833333333333336</ele><time>2026-04-19T09:53:08Z</time></trkpt><trkpt lat="45.99047493617837" lon="12.907161953703145"><ele>53.0</ele><time>2026-04-19T09:53:09Z</time></trkpt><trkpt lat="45.990547605300264" lon="12.907236669673743"><ele>53.00000000000001</ele><time>2026-04-19T09:53:10Z</time></trkpt><trkpt lat="45.990619685475956" lon="12.907294184891894"><ele>53.0</ele><time>2026-04-19T09:53:11Z</time></trkpt><trkpt lat="45.99067374555578" lon="12.907358688687568"><ele>53.0</ele><time>2026-04-19T09:53:12Z</time></trkpt><trkpt lat="45.990733363302105" lon="12.907459409062158"><ele>53.0</ele><time>2026-04-19T09:53:13Z</time></trkpt><trkpt lat="45.99076736268406" lon="12.90757018249701"><ele>53.00000000000001</ele><time>2026-04-19T09:53:14Z</time></trkpt><trkpt lat="45.99080773941634" lon="12.9076790361641"><ele>53.0</ele><time>2026-04-19T09:53:15Z</time></trkpt><trkpt lat="45.990866392995365" lon="12.90778938848556"><ele>52.66666666666667</ele><time>2026-04-19T09:53:16Z</time></trkpt><trkpt lat="45.99093473080446" lon="12.90789442462529"><ele>52.333333333333336</ele><time>2026-04-19T09:53:17Z</time></trkpt><trkpt lat="45.99099491473328" lon="12.907970878563718"><ele>52.0</ele><time>2026-04-19T09:53:18Z</time></trkpt><trkpt lat="45.991058418791255" lon="12.908042342929809"><ele>51.66666666666667</ele><time>2026-04-19T09:53:19Z</time></trkpt><trkpt lat="45.991126488327026" lon="12.908104742938933"><ele>51.333333333333336</ele><time>2026-04-19T09:53:20Z</time></trkpt><trkpt lat="45.99120501591999" lon="12.908144952254606"><ele>51.0</ele><time>2026-04-19T09:53:21Z</time></trkpt><trkpt lat="45.99128866016635" lon="12.908186145646559"><ele>51.0</ele><time>2026-04-19T09:53:22Z</time></trkpt><trkpt lat="45.991380512334715" lon="12.9082496927029"><ele>51.0</ele><time>2026-04-19T09:53:23Z</time></trkpt><trkpt lat="45.9914708889086" lon="12.908337557412619"><ele>51.0</ele><time>2026-04-19T09:53:24Z</time></trkpt><trkpt lat="45.991539507430666" lon="12.908422051515144"><ele>51.0</ele><time>2026-04-19T09:53:25Z</time></trkpt><trkpt lat="45.99161073187399" lon="12.908494233850492"><ele>51.0</ele><time>2026-04-19T09:53:26Z</time></trkpt><trkpt lat="45.99169008520243" lon="12.908572683297086"><ele>51.4</ele><time>2026-04-19T09:53:27Z</time></trkpt><trkpt lat="45.99175440222965" lon="12.908632311691179"><ele>51.8</ele><time>2026-04-19T09:53:28Z</time></trkpt><trkpt lat="45.991817032573685" lon="12.908681541184688"><ele>52.199999999999996</ele><time>2026-04-19T09:53:29Z</time></trkpt><trkpt lat="45.99190486008124" lon="12.9087090360821"><ele>52.599999999999994</ele><time>2026-04-19T09:53:30Z</time></trkpt><trkpt lat="45.99200946439848" lon="12.908718893690441"><ele>53.0</ele><time>2026-04-19T09:53:31Z</time></trkpt><trkpt lat="45.99212161070908" lon="12.908722802977252"><ele>53.00000000000001</ele><time>2026-04-19T09:53:32Z</time></trkpt><trkpt lat="45.99220848970321" lon="12.908746131321122"><ele>53.0</ele><time>2026-04-19T09:53:33Z</time></trkpt><trkpt lat="45.99228953680184" lon="12.908769699186214"><ele>53.0</ele><time>2026-04-19T09:53:34Z</time></trkpt><trkpt lat="45.99237978969705" lon="12.908782132897251"><ele>53.0</ele><time>2026-04-19T09:53:35Z</time></trkpt><trkpt lat="45.99244263555" lon="12.908837717332116"><ele>53.00000000000001</ele><time>2026-04-19T09:53:36Z</time></trkpt><trkpt lat="45.99249171361916" lon="12.908895495612201"><ele>53.0</ele><time>2026-04-19T09:53:37Z</time></trkpt><trkpt lat="45.99257715752476" lon="12.909006903555388"><ele>53.0</ele><time>2026-04-19T09:53:39Z</time></trkpt><trkpt lat="45.992672873234184" lon="12.909109464225018"><ele>53.0</ele><time>2026-04-19T09:53:41Z</time></trkpt><trkpt lat="45.99276249236601" lon="12.909178999284034"><ele>53.0</ele><time>2026-04-19T09:53:43Z</time></trkpt><trkpt lat="45.9928375234534" lon="12.909191134675151"><ele>53.0</ele><time>2026-04-19T09:53:44Z</time></trkpt><trkpt lat="45.99292912399512" lon="12.909195623043594"><ele>53.0</ele><time>2026-04-19T09:53:45Z</time></trkpt><trkpt lat="45.99302234300242" lon="12.90921264341535"><ele>53.0</ele><time>2026-04-19T09:53:46Z</time></trkpt><trkpt lat="45.993100759985204" lon="12.909242951876836"><ele>53.0</ele><time>2026-04-19T09:53:47Z</time></trkpt><trkpt lat="45.993167854913125" lon="12.909252431982155"><ele>53.0</ele><time>2026-04-19T09:53:48Z</time></trkpt><trkpt lat="45.993233567004395" lon="12.90923579941585"><ele>53.0</ele><time>2026-04-19T09:53:49Z</time></trkpt><trkpt lat="45.99329957059396" lon="12.909222907493994"><ele>53.0</ele><time>2026-04-19T09:53:50Z</time></trkpt><trkpt lat="45.99336766912462" lon="12.909219510966746"><ele>53.0</ele><time>2026-04-19T09:53:51Z</time></trkpt><trkpt lat="45.99344840546604" lon="12.909200721040698"><ele>53.0</ele><time>2026-04-19T09:53:52Z</time></trkpt><trkpt lat="45.99354792654326" lon="12.909173110516099"><ele>53.2</ele><time>2026-04-19T09:53:53Z</time></trkpt><trkpt lat="45.99364323759211" lon="12.909137513615548"><ele>53.4</ele><time>2026-04-19T09:53:54Z</time></trkpt><trkpt lat="45.993744989253756" lon="12.90909803410922"><ele>53.60000000000001</ele><time>2026-04-19T09:53:55Z</time></trkpt><trkpt lat="45.99384369785877" lon="12.909063935021976"><ele>53.800000000000004</ele><time>2026-04-19T09:53:56Z</time></trkpt><trkpt lat="45.99393073436323" lon="12.909037917190462"><ele>54.0</ele><time>2026-04-19T09:53:57Z</time></trkpt><trkpt lat="45.9940179072789" lon="12.908995163943949"><ele>54.0</ele><time>2026-04-19T09:53:58Z</time></trkpt><trkpt lat="45.994119800550365" lon="12.908966946848611"><ele>54.00000000000001</ele><time>2026-04-19T09:53:59Z</time></trkpt><trkpt lat="45.99422036685167" lon="12.90894006335679"><ele>54.00000000000001</ele><time>2026-04-19T09:54:00Z</time></trkpt><trkpt lat="45.99430294392147" lon="12.908911543966298"><ele>54.0</ele><time>2026-04-19T09:54:01Z</time></trkpt><trkpt lat="45.994399616299525" lon="12.908898421240497"><ele>54.0</ele><time>2026-04-19T09:54:02Z</time></trkpt><trkpt lat="45.99447889801265" lon="12.908885335549146"><ele>53.833333333333336</ele><time>2026-04-19T09:54:03Z</time></trkpt><trkpt lat="45.99456345327321" lon="12.908904378038475"><ele>53.66666666666667</ele><time>2026-04-19T09:54:04Z</time></trkpt><trkpt lat="45.994646719832446" lon="12.908912574855691"><ele>53.5</ele><time>2026-04-19T09:54:05Z</time></trkpt><trkpt lat="45.99471380696443" lon="12.908941463823734"><ele>53.333333333333336</ele><time>2026-04-19T09:54:06Z</time></trkpt><trkpt lat="45.99479264996949" lon="12.908983584384485"><ele>53.16666666666667</ele><time>2026-04-19T09:54:07Z</time></trkpt><trkpt lat="45.99486592105189" lon="12.909035888091756"><ele>53.0</ele><time>2026-04-19T09:54:08Z</time></trkpt><trkpt lat="45.9949427748786" lon="12.909042160198577"><ele>52.833333333333336</ele><time>2026-04-19T09:54:09Z</time></trkpt><trkpt lat="45.99501075983226" lon="12.90903445126014"><ele>52.66666666666667</ele><time>2026-04-19T09:54:10Z</time></trkpt><trkpt lat="45.99510212184739" lon="12.909013477215437"><ele>52.5</ele><time>2026-04-19T09:54:11Z</time></trkpt><trkpt lat="45.995203320160044" lon="12.908986450804784"><ele>52.33333333333333</ele><time>2026-04-19T09:54:12Z</time></trkpt><trkpt lat="45.99530156496382" lon="12.908967693648325"><ele>52.166666666666664</ele><time>2026-04-19T09:54:13Z</time></trkpt><trkpt lat="45.995382670505805" lon="12.90895685753162"><ele>52.0</ele><time>2026-04-19T09:54:14Z</time></trkpt><trkpt lat="45.9954584054854" lon="12.908934145214753"><ele>51.99999999999999</ele><time>2026-04-19T09:54:15Z</time></trkpt><trkpt lat="45.99553475574848" lon="12.908915706065132"><ele>52.0</ele><time>2026-04-19T09:54:16Z</time></trkpt><trkpt lat="45.99561274821282" lon="12.908893650172478"><ele>52.0</ele><time>2026-04-19T09:54:17Z</time></trkpt><trkpt lat="45.99569710907518" lon="12.90889769754092"><ele>52.0</ele><time>2026-04-19T09:54:18Z</time></trkpt><trkpt lat="45.99580747235957" lon="12.908868294919035"><ele>51.99999999999999</ele><time>2026-04-19T09:54:19Z</time></trkpt><trkpt lat="45.99587895248681" lon="12.908825584542626"><ele>52.0</ele><time>2026-04-19T09:54:20Z</time></trkpt><trkpt lat="45.995950281054995" lon="12.908797544444052"><ele>52.166666666666664</ele><time>2026-04-19T09:54:21Z</time></trkpt><trkpt lat="45.996035581972954" lon="12.908772134479683"><ele>52.33333333333333</ele><time>2026-04-19T09:54:22Z</time></trkpt><trkpt lat="45.996108179988184" lon="12.908714481383752"><ele>52.5</ele><time>2026-04-19T09:54:23Z</time></trkpt><trkpt lat="45.99618994195221" lon="12.908691426685165"><ele>52.66666666666667</ele><time>2026-04-19T09:54:24Z</time></trkpt><trkpt lat="45.9962766141372" lon="12.908666521565719"><ele>52.833333333333336</ele><time>2026-04-19T09:54:25Z</time></trkpt><trkpt lat="45.99636055956365" lon="12.90864466094207"><ele>53.0</ele><time>2026-04-19T09:54:26Z</time></trkpt><trkpt lat="45.9964521953376" lon="12.908636885241185"><ele>53.0</ele><time>2026-04-19T09:54:27Z</time></trkpt><trkpt lat="45.99654758839235" lon="12.908629192977232"><ele>53.0</ele><time>2026-04-19T09:54:28Z</time></trkpt><trkpt lat="45.99664208974574" lon="12.908639749325632"><ele>53.0</ele><time>2026-04-19T09:54:29Z</time></trkpt><trkpt lat="45.996735311093055" lon="12.90866621422315"><ele>53.0</ele><time>2026-04-19T09:54:30Z</time></trkpt><trkpt lat="45.99683080987626" lon="12.908702873967746"><ele>53.0</ele><time>2026-04-19T09:54:31Z</time></trkpt><trkpt lat="45.99693371965132" lon="12.908720960185397"><ele>53.2</ele><time>2026-04-19T09:54:32Z</time></trkpt><trkpt lat="45.99703023762366" lon="12.908725225132777"><ele>53.4</ele><time>2026-04-19T09:54:33Z</time></trkpt><trkpt lat="45.99712713951779" lon="12.908744905022779"><ele>53.60000000000001</ele><time>2026-04-19T09:54:34Z</time></trkpt><trkpt lat="45.99724232262627" lon="12.908766250063918"><ele>53.800000000000004</ele><time>2026-04-19T09:54:35Z</time></trkpt><trkpt lat="45.99732839009548" lon="12.90877779995083"><ele>54.0</ele><time>2026-04-19T09:54:36Z</time></trkpt><trkpt lat="45.997391736948515" lon="12.908803874204262"><ele>54.0</ele><time>2026-04-19T09:54:37Z</time></trkpt><trkpt lat="45.99747405991437" lon="12.908832598089989"><ele>54.00000000000001</ele><time>2026-04-19T09:54:38Z</time></trkpt><trkpt lat="45.99757412988658" lon="12.908848168631806"><ele>54.00000000000001</ele><time>2026-04-19T09:54:39Z</time></trkpt><trkpt lat="45.99767509943194" lon="12.908851402834323"><ele>54.0</ele><time>2026-04-19T09:54:40Z</time></trkpt><trkpt lat="45.9977523464277" lon="12.90887961268616"><ele>54.0</ele><time>2026-04-19T09:54:41Z</time></trkpt><trkpt lat="45.9978704908641" lon="12.908913356717145"><ele>54.0</ele><time>2026-04-19T09:54:43Z</time></trkpt><trkpt lat="45.99792817599293" lon="12.908964021617939"><ele>54.0</ele><time>2026-04-19T09:54:44Z</time></trkpt><trkpt lat="45.997990541363514" lon="12.909021958382153"><ele>54.0</ele><time>2026-04-19T09:54:45Z</time></trkpt><trkpt lat="45.99806500900467" lon="12.909063676350467"><ele>54.0</ele><time>2026-04-19T09:54:46Z</time></trkpt><trkpt lat="45.99815770159741" lon="12.909082426308187"><ele>54.0</ele><time>2026-04-19T09:54:47Z</time></trkpt><trkpt lat="45.99825663755371" lon="12.909094387986142"><ele>54.0</ele><time>2026-04-19T09:54:48Z</time></trkpt><trkpt lat="45.99834674859356" lon="12.909109936330733"><ele>54.2</ele><time>2026-04-19T09:54:49Z</time></trkpt><trkpt lat="45.99842091826991" lon="12.909127933078574"><ele>54.400000000000006</ele><time>2026-04-19T09:54:50Z</time></trkpt><trkpt lat="45.99849360444592" lon="12.90914551725945"><ele>54.6</ele><time>2026-04-19T09:54:51Z</time></trkpt><trkpt lat="45.99857235368166" lon="12.909149219119461"><ele>54.8</ele><time>2026-04-19T09:54:52Z</time></trkpt><trkpt lat="45.998672812653055" lon="12.909189657936565"><ele>55.0</ele><time>2026-04-19T09:54:53Z</time></trkpt><trkpt lat="45.99878764029627" lon="12.909237183634174"><ele>55.2</ele><time>2026-04-19T09:54:54Z</time></trkpt><trkpt lat="45.99888068057943" lon="12.909271730662189"><ele>55.4</ele><time>2026-04-19T09:54:55Z</time></trkpt><trkpt lat="45.99895556260473" lon="12.90932382652418"><ele>55.599999999999994</ele><time>2026-04-19T09:54:56Z</time></trkpt><trkpt lat="45.99902200242457" lon="12.909372286828987"><ele>55.8</ele><time>2026-04-19T09:54:57Z</time></trkpt><trkpt lat="45.99908647743858" lon="12.909413634952301"><ele>56.0</ele><time>2026-04-19T09:54:58Z</time></trkpt><trkpt lat="45.9992084022543" lon="12.909461496207236"><ele>56.0</ele><time>2026-04-19T09:55:00Z</time></trkpt><trkpt lat="45.99931029588494" lon="12.90948773895108"><ele>55.99999999999999</ele><time>2026-04-19T09:55:01Z</time></trkpt><trkpt lat="45.99939470726633" lon="12.909528464644072"><ele>55.99999999999999</ele><time>2026-04-19T09:55:02Z</time></trkpt><trkpt lat="45.99946919951244" lon="12.909555045399339"><ele>56.0</ele><time>2026-04-19T09:55:03Z</time></trkpt><trkpt lat="45.99957723583748" lon="12.909617266942751"><ele>56.0</ele><time>2026-04-19T09:55:05Z</time></trkpt><trkpt lat="45.9996430651502" lon="12.909690197984716"><ele>56.0</ele><time>2026-04-19T09:55:06Z</time></trkpt><trkpt lat="45.99974709645274" lon="12.909737957000043"><ele>55.99999999999999</ele><time>2026-04-19T09:55:08Z</time></trkpt><trkpt lat="45.99979915361801" lon="12.909794278241279"><ele>55.99999999999999</ele><time>2026-04-19T09:55:09Z</time></trkpt><trkpt lat="45.99987434316491" lon="12.909906188741465"><ele>56.0</ele><time>2026-04-19T09:55:10Z</time></trkpt><trkpt lat="45.999936334471364" lon="12.910008310368642"><ele>56.0</ele><time>2026-04-19T09:55:11Z</time></trkpt><trkpt lat="46.0000249394529" lon="12.910100125350876"><ele>56.0</ele><time>2026-04-19T09:55:12Z</time></trkpt><trkpt lat="46.00012066632194" lon="12.910177705380592"><ele>55.99999999999999</ele><time>2026-04-19T09:55:13Z</time></trkpt><trkpt lat="46.000160201953555" lon="12.91025931119499"><ele>55.99999999999999</ele><time>2026-04-19T09:55:14Z</time></trkpt><trkpt lat="46.000232091484285" lon="12.910316889198816"><ele>56.0</ele><time>2026-04-19T09:55:15Z</time></trkpt><trkpt lat="46.000329948978354" lon="12.91039888037856"><ele>56.0</ele><time>2026-04-19T09:55:16Z</time></trkpt><trkpt lat="46.00042304109947" lon="12.910465418245781"><ele>56.0</ele><time>2026-04-19T09:55:17Z</time></trkpt><trkpt lat="46.000520942208254" lon="12.910534448153788"><ele>55.99999999999999</ele><time>2026-04-19T09:55:18Z</time></trkpt><trkpt lat="46.000626310029446" lon="12.910618351271765"><ele>55.99999999999999</ele><time>2026-04-19T09:55:19Z</time></trkpt><trkpt lat="46.00071431646144" lon="12.910683871909026"><ele>56.0</ele><time>2026-04-19T09:55:20Z</time></trkpt><trkpt lat="46.00077353460518" lon="12.910749084913268"><ele>56.0</ele><time>2026-04-19T09:55:21Z</time></trkpt><trkpt lat="46.000845243334965" lon="12.91078188526709"><ele>56.00000000000001</ele><time>2026-04-19T09:55:22Z</time></trkpt><trkpt lat="46.000920831352964" lon="12.910824112780663"><ele>56.0</ele><time>2026-04-19T09:55:23Z</time></trkpt><trkpt lat="46.001014783672346" lon="12.910829928574486"><ele>56.0</ele><time>2026-04-19T09:55:24Z</time></trkpt><trkpt lat="46.00112265591099" lon="12.910879274942854"><ele>56.0</ele><time>2026-04-19T09:55:25Z</time></trkpt><trkpt lat="46.001204316282745" lon="12.910892785689697"><ele>56.00000000000001</ele><time>2026-04-19T09:55:26Z</time></trkpt><trkpt lat="46.00127534759656" lon="12.910928242501797"><ele>56.0</ele><time>2026-04-19T09:55:27Z</time></trkpt><trkpt lat="46.00135941250096" lon="12.91098165151326"><ele>56.0</ele><time>2026-04-19T09:55:28Z</time></trkpt><trkpt lat="46.00146369694259" lon="12.911061257549514"><ele>55.99999999999999</ele><time>2026-04-19T09:55:29Z</time></trkpt><trkpt lat="46.00156576578077" lon="12.911083956347877"><ele>55.99999999999999</ele><time>2026-04-19T09:55:30Z</time></trkpt><trkpt lat="46.00164092227268" lon="12.911135501477013"><ele>56.0</ele><time>2026-04-19T09:55:31Z</time></trkpt><trkpt lat="46.00171633907576" lon="12.911194849849496"><ele>56.0</ele><time>2026-04-19T09:55:32Z</time></trkpt><trkpt lat="46.00180581755317" lon="12.911249911907348"><ele>56.199999999999996</ele><time>2026-04-19T09:55:33Z</time></trkpt><trkpt lat="46.00189820765876" lon="12.911294847203425"><ele>56.39999999999999</ele><time>2026-04-19T09:55:34Z</time></trkpt><trkpt lat="46.00199890477514" lon="12.911342709964188"><ele>56.6</ele><time>2026-04-19T09:55:35Z</time></trkpt><trkpt lat="46.00208352461448" lon="12.911380267927278"><ele>56.8</ele><time>2026-04-19T09:55:36Z</time></trkpt><trkpt lat="46.002167232333754" lon="12.911432166148794"><ele>57.0</ele><time>2026-04-19T09:55:37Z</time></trkpt><trkpt lat="46.00225812710917" lon="12.911520232583468"><ele>57.0</ele><time>2026-04-19T09:55:38Z</time></trkpt><trkpt lat="46.002350451385475" lon="12.911638279900279"><ele>57.0</ele><time>2026-04-19T09:55:39Z</time></trkpt><trkpt lat="46.00243862971525" lon="12.911746140053781"><ele>57.0</ele><time>2026-04-19T09:55:40Z</time></trkpt><trkpt lat="46.00251720620566" lon="12.911834449397876"><ele>57.0</ele><time>2026-04-19T09:55:41Z</time></trkpt><trkpt lat="46.002583892572964" lon="12.911915284079514"><ele>57.0</ele><time>2026-04-19T09:55:42Z</time></trkpt><trkpt lat="46.002662516668096" lon="12.91205042233224"><ele>56.8</ele><time>2026-04-19T09:55:44Z</time></trkpt><trkpt lat="46.00272283692574" lon="12.912128020887234"><ele>56.6</ele><time>2026-04-19T09:55:45Z</time></trkpt><trkpt lat="46.002785759942185" lon="12.912257260784255"><ele>56.39999999999999</ele><time>2026-04-19T09:55:46Z</time></trkpt><trkpt lat="46.0028504041625" lon="12.912345807941385"><ele>56.199999999999996</ele><time>2026-04-19T09:55:47Z</time></trkpt><trkpt lat="46.002921926313505" lon="12.912422325758888"><ele>56.0</ele><time>2026-04-19T09:55:48Z</time></trkpt><trkpt lat="46.00301864997142" lon="12.91250439099336"><ele>56.0</ele><time>2026-04-19T09:55:49Z</time></trkpt><trkpt lat="46.003080131429954" lon="12.912575193386967"><ele>55.99999999999999</ele><time>2026-04-19T09:55:50Z</time></trkpt><trkpt lat="46.00315433352054" lon="12.912644121518378"><ele>55.99999999999999</ele><time>2026-04-19T09:55:51Z</time></trkpt><trkpt lat="46.00323759503701" lon="12.912722102620181"><ele>56.0</ele><time>2026-04-19T09:55:52Z</time></trkpt><trkpt lat="46.003333466554395" lon="12.912790945152347"><ele>56.0</ele><time>2026-04-19T09:55:53Z</time></trkpt><trkpt lat="46.00342560551769" lon="12.912829360719789"><ele>56.00000000000001</ele><time>2026-04-19T09:55:54Z</time></trkpt><trkpt lat="46.003494119132114" lon="12.912872223004713"><ele>56.0</ele><time>2026-04-19T09:55:55Z</time></trkpt><trkpt lat="46.00357767934366" lon="12.912893833018089"><ele>56.0</ele><time>2026-04-19T09:55:56Z</time></trkpt><trkpt lat="46.00367347327785" lon="12.91287606377511"><ele>56.0</ele><time>2026-04-19T09:55:57Z</time></trkpt><trkpt lat="46.003769374114036" lon="12.912838024222946"><ele>56.00000000000001</ele><time>2026-04-19T09:55:58Z</time></trkpt><trkpt lat="46.00385637060481" lon="12.912804150466997"><ele>56.0</ele><time>2026-04-19T09:55:59Z</time></trkpt><trkpt lat="46.00392168444207" lon="12.912774889155012"><ele>56.00000000000001</ele><time>2026-04-19T09:56:00Z</time></trkpt><trkpt lat="46.00398198115434" lon="12.912745491398075"><ele>56.0</ele><time>2026-04-19T09:56:01Z</time></trkpt><trkpt lat="46.00404762723062" lon="12.912755182531138"><ele>56.0</ele><time>2026-04-19T09:56:02Z</time></trkpt><trkpt lat="46.00411011929854" lon="12.912729611551589"><ele>56.0</ele><time>2026-04-19T09:56:03Z</time></trkpt><trkpt lat="46.00419721396592" lon="12.91267146936027"><ele>56.00000000000001</ele><time>2026-04-19T09:56:04Z</time></trkpt><trkpt lat="46.004293038412186" lon="12.912653810984779"><ele>56.0</ele><time>2026-04-19T09:56:05Z</time></trkpt><trkpt lat="46.00438010094114" lon="12.912633414201384"><ele>56.00000000000001</ele><time>2026-04-19T09:56:06Z</time></trkpt><trkpt lat="46.004448443850684" lon="12.912612294048941"><ele>56.0</ele><time>2026-04-19T09:56:07Z</time></trkpt><trkpt lat="46.004520408575125" lon="12.91257788382525"><ele>56.0</ele><time>2026-04-19T09:56:08Z</time></trkpt><trkpt lat="46.00459449713604" lon="12.912575772212069"><ele>56.0</ele><time>2026-04-19T09:56:09Z</time></trkpt><trkpt lat="46.00467069286805" lon="12.91258082094439"><ele>56.00000000000001</ele><time>2026-04-19T09:56:10Z</time></trkpt><trkpt lat="46.00477249620271" lon="12.912608844013475"><ele>56.0</ele><time>2026-04-19T09:56:11Z</time></trkpt><trkpt lat="46.004888864088784" lon="12.912639834928447"><ele>56.0</ele><time>2026-04-19T09:56:12Z</time></trkpt><trkpt lat="46.00499146762157" lon="12.912674426084163"><ele>55.99999999999999</ele><time>2026-04-19T09:56:13Z</time></trkpt><trkpt lat="46.00508748801257" lon="12.912689901795835"><ele>55.99999999999999</ele><time>2026-04-19T09:56:14Z</time></trkpt><trkpt lat="46.005167806372526" lon="12.912708724412497"><ele>56.0</ele><time>2026-04-19T09:56:15Z</time></trkpt><trkpt lat="46.00526702205517" lon="12.912729381061684"><ele>56.0</ele><time>2026-04-19T09:56:16Z</time></trkpt><trkpt lat="46.00536020023021" lon="12.912748134188693"><ele>56.4</ele><time>2026-04-19T09:56:17Z</time></trkpt><trkpt lat="46.005465363951636" lon="12.912756093531161"><ele>56.8</ele><time>2026-04-19T09:56:18Z</time></trkpt><trkpt lat="46.00557526684295" lon="12.91275154879176"><ele>57.199999999999996</ele><time>2026-04-19T09:56:19Z</time></trkpt><trkpt lat="46.005677444064176" lon="12.912751961112582"><ele>57.599999999999994</ele><time>2026-04-19T09:56:20Z</time></trkpt><trkpt lat="46.005746069885824" lon="12.912754470394557"><ele>58.0</ele><time>2026-04-19T09:56:21Z</time></trkpt><trkpt lat="46.00582155897697" lon="12.91276681560892"><ele>58.0</ele><time>2026-04-19T09:56:22Z</time></trkpt><trkpt lat="46.005949040080765" lon="12.912807460856236"><ele>58.0</ele><time>2026-04-19T09:56:24Z</time></trkpt><trkpt lat="46.0060331554068" lon="12.912786577990591"><ele>58.0</ele><time>2026-04-19T09:56:25Z</time></trkpt><trkpt lat="46.00614140139435" lon="12.912722182244597"><ele>58.0</ele><time>2026-04-19T09:56:26Z</time></trkpt><trkpt lat="46.00622913353115" lon="12.912636896525655"><ele>58.0</ele><time>2026-04-19T09:56:27Z</time></trkpt><trkpt lat="46.006289642290824" lon="12.912574446124331"><ele>58.0</ele><time>2026-04-19T09:56:28Z</time></trkpt><trkpt lat="46.00640129268457" lon="12.912524160640148"><ele>58.0</ele><time>2026-04-19T09:56:30Z</time></trkpt><trkpt lat="46.00649795707965" lon="12.912544995578651"><ele>58.0</ele><time>2026-04-19T09:56:32Z</time></trkpt><trkpt lat="46.006584057474676" lon="12.912517890473524"><ele>58.0</ele><time>2026-04-19T09:56:33Z</time></trkpt><trkpt lat="46.00667522001564" lon="12.912502887858944"><ele>58.0</ele><time>2026-04-19T09:56:34Z</time></trkpt><trkpt lat="46.00676845068478" lon="12.912467340930117"><ele>57.99999999999999</ele><time>2026-04-19T09:56:35Z</time></trkpt><trkpt lat="46.00684430017323" lon="12.912436375579379"><ele>58.0</ele><time>2026-04-19T09:56:36Z</time></trkpt><trkpt lat="46.00693412411352" lon="12.912428666748824"><ele>58.0</ele><time>2026-04-19T09:56:38Z</time></trkpt><trkpt lat="46.00703117492486" lon="12.91244478386206"><ele>58.0</ele><time>2026-04-19T09:56:40Z</time></trkpt><trkpt lat="46.007098557658" lon="12.9124269740465"><ele>57.99999999999999</ele><time>2026-04-19T09:56:41Z</time></trkpt><trkpt lat="46.00717166607596" lon="12.91238852017055"><ele>58.0</ele><time>2026-04-19T09:56:42Z</time></trkpt><trkpt lat="46.007245303209956" lon="12.912320498497959"><ele>58.0</ele><time>2026-04-19T09:56:43Z</time></trkpt><trkpt lat="46.00733300760505" lon="12.912272648614506"><ele>58.0</ele><time>2026-04-19T09:56:44Z</time></trkpt><trkpt lat="46.00743610956782" lon="12.91223761541359"><ele>58.0</ele><time>2026-04-19T09:56:45Z</time></trkpt><trkpt lat="46.007508993015534" lon="12.912214217824806"><ele>58.0</ele><time>2026-04-19T09:56:46Z</time></trkpt><trkpt lat="46.00759886163938" lon="12.912209721558295"><ele>58.0</ele><time>2026-04-19T09:56:47Z</time></trkpt><trkpt lat="46.00768398422511" lon="12.91219537833253"><ele>58.166666666666664</ele><time>2026-04-19T09:56:48Z</time></trkpt><trkpt lat="46.00776880797009" lon="12.912186372527362"><ele>58.33333333333333</ele><time>2026-04-19T09:56:49Z</time></trkpt><trkpt lat="46.00783519031138" lon="12.912170592303797"><ele>58.5</ele><time>2026-04-19T09:56:50Z</time></trkpt><trkpt lat="46.007916634813746" lon="12.912164614231058"><ele>58.66666666666667</ele><time>2026-04-19T09:56:51Z</time></trkpt><trkpt lat="46.00799908667103" lon="12.91215174753607"><ele>58.833333333333336</ele><time>2026-04-19T09:56:52Z</time></trkpt><trkpt lat="46.00808919556965" lon="12.91213595179403"><ele>59.0</ele><time>2026-04-19T09:56:53Z</time></trkpt><trkpt lat="46.00819292810138" lon="12.912175954607157"><ele>59.0</ele><time>2026-04-19T09:56:54Z</time></trkpt><trkpt lat="46.008268534348026" lon="12.912204912921327"><ele>59.00000000000001</ele><time>2026-04-19T09:56:55Z</time></trkpt><trkpt lat="46.00835573296433" lon="12.91225053241903"><ele>59.00000000000001</ele><time>2026-04-19T09:56:56Z</time></trkpt><trkpt lat="46.008443676713306" lon="12.912283898375119"><ele>59.0</ele><time>2026-04-19T09:56:57Z</time></trkpt><trkpt lat="46.008530875621574" lon="12.912319431387008"><ele>59.0</ele><time>2026-04-19T09:56:58Z</time></trkpt><trkpt lat="46.008624096123675" lon="12.912364923584352"><ele>59.0</ele><time>2026-04-19T09:56:59Z</time></trkpt><trkpt lat="46.008720302620354" lon="12.912425230149887"><ele>59.0</ele><time>2026-04-19T09:57:00Z</time></trkpt><trkpt lat="46.0088219889427" lon="12.912494334971033"><ele>59.0</ele><time>2026-04-19T09:57:01Z</time></trkpt><trkpt lat="46.00892445052605" lon="12.912571204466795"><ele>59.0</ele><time>2026-04-19T09:57:02Z</time></trkpt><trkpt lat="46.009023856865056" lon="12.912659099801889"><ele>59.0</ele><time>2026-04-19T09:57:03Z</time></trkpt><trkpt lat="46.009095783559715" lon="12.912727116619315"><ele>59.00000000000001</ele><time>2026-04-19T09:57:04Z</time></trkpt><trkpt lat="46.009198268686674" lon="12.912788343469588"><ele>59.00000000000001</ele><time>2026-04-19T09:57:05Z</time></trkpt><trkpt lat="46.009286183585374" lon="12.912858950000293"><ele>59.0</ele><time>2026-04-19T09:57:06Z</time></trkpt><trkpt lat="46.009396739532036" lon="12.912916203030713"><ele>59.0</ele><time>2026-04-19T09:57:07Z</time></trkpt><trkpt lat="46.009510985053" lon="12.912976758508805"><ele>59.0</ele><time>2026-04-19T09:57:08Z</time></trkpt><trkpt lat="46.00962286660362" lon="12.913036681663563"><ele>59.0</ele><time>2026-04-19T09:57:09Z</time></trkpt><trkpt lat="46.00970638611118" lon="12.913130288963481"><ele>59.0</ele><time>2026-04-19T09:57:10Z</time></trkpt><trkpt lat="46.00982638356683" lon="12.913231242499496"><ele>59.0</ele><time>2026-04-19T09:57:11Z</time></trkpt><trkpt lat="46.009916327716965" lon="12.913315283074773"><ele>59.0</ele><time>2026-04-19T09:57:12Z</time></trkpt><trkpt lat="46.01001516518981" lon="12.913371612288138"><ele>59.00000000000001</ele><time>2026-04-19T09:57:13Z</time></trkpt><trkpt lat="46.010111348648465" lon="12.91341363226821"><ele>59.00000000000001</ele><time>2026-04-19T09:57:14Z</time></trkpt><trkpt lat="46.0102035746464" lon="12.913503275641283"><ele>59.0</ele><time>2026-04-19T09:57:15Z</time></trkpt><trkpt lat="46.01030695067584" lon="12.913558218627468"><ele>59.0</ele><time>2026-04-19T09:57:16Z</time></trkpt><trkpt lat="46.01040951273023" lon="12.913635708124588"><ele>59.0</ele><time>2026-04-19T09:57:17Z</time></trkpt><trkpt lat="46.01050251511899" lon="12.913715539208875"><ele>59.00000000000001</ele><time>2026-04-19T09:57:18Z</time></trkpt><trkpt lat="46.01058827319756" lon="12.913780133660966"><ele>59.00000000000001</ele><time>2026-04-19T09:57:19Z</time></trkpt><trkpt lat="46.010674266639505" lon="12.913824540178036"><ele>59.0</ele><time>2026-04-19T09:57:20Z</time></trkpt><trkpt lat="46.01077545848507" lon="12.91386140503393"><ele>59.0</ele><time>2026-04-19T09:57:21Z</time></trkpt><trkpt lat="46.01085880493275" lon="12.913904532390431"><ele>59.25</ele><time>2026-04-19T09:57:22Z</time></trkpt><trkpt lat="46.01098493786159" lon="12.913963160424938"><ele>59.5</ele><time>2026-04-19T09:57:23Z</time></trkpt><trkpt lat="46.01110688748177" lon="12.913995614721426"><ele>59.75</ele><time>2026-04-19T09:57:24Z</time></trkpt><trkpt lat="46.01121774528963" lon="12.914027978377298"><ele>60.0</ele><time>2026-04-19T09:57:25Z</time></trkpt><trkpt lat="46.01131258315228" lon="12.914020724819402"><ele>60.0</ele><time>2026-04-19T09:57:26Z</time></trkpt><trkpt lat="46.011406015808085" lon="12.914040146600511"><ele>60.0</ele><time>2026-04-19T09:57:27Z</time></trkpt><trkpt lat="46.01149279895326" lon="12.914051873654877"><ele>60.0</ele><time>2026-04-19T09:57:28Z</time></trkpt><trkpt lat="46.01157485235173" lon="12.914043583374141"><ele>60.0</ele><time>2026-04-19T09:57:29Z</time></trkpt><trkpt lat="46.011643283145226" lon="12.914022262911297"><ele>60.0</ele><time>2026-04-19T09:57:30Z</time></trkpt><trkpt lat="46.01173243845534" lon="12.914023959087343"><ele>60.0</ele><time>2026-04-19T09:57:31Z</time></trkpt><trkpt lat="46.01181630467151" lon="12.91404829505878"><ele>60.25</ele><time>2026-04-19T09:57:32Z</time></trkpt><trkpt lat="46.0119097772733" lon="12.914088846036027"><ele>60.5</ele><time>2026-04-19T09:57:33Z</time></trkpt><trkpt lat="46.01203634787442" lon="12.914114437267928"><ele>60.75</ele><time>2026-04-19T09:57:34Z</time></trkpt><trkpt lat="46.012168300261635" lon="12.914135110482944"><ele>61.0</ele><time>2026-04-19T09:57:35Z</time></trkpt><trkpt lat="46.012274962892874" lon="12.914165581421832"><ele>61.0</ele><time>2026-04-19T09:57:36Z</time></trkpt><trkpt lat="46.01237169898886" lon="12.914185305182428"><ele>60.99999999999999</ele><time>2026-04-19T09:57:37Z</time></trkpt><trkpt lat="46.01247067398433" lon="12.91420716006677"><ele>60.99999999999999</ele><time>2026-04-19T09:57:38Z</time></trkpt><trkpt lat="46.01258116158537" lon="12.914242963924083"><ele>61.0</ele><time>2026-04-19T09:57:39Z</time></trkpt><trkpt lat="46.01269098382499" lon="12.914297388278314"><ele>61.0</ele><time>2026-04-19T09:57:40Z</time></trkpt><trkpt lat="46.01279266419588" lon="12.91435994425752"><ele>61.199999999999996</ele><time>2026-04-19T09:57:41Z</time></trkpt><trkpt lat="46.01288246386609" lon="12.914405179995464"><ele>61.39999999999999</ele><time>2026-04-19T09:57:42Z</time></trkpt><trkpt lat="46.01298204986436" lon="12.914449499690136"><ele>61.6</ele><time>2026-04-19T09:57:43Z</time></trkpt><trkpt lat="46.01311349663952" lon="12.914486146949029"><ele>61.8</ele><time>2026-04-19T09:57:44Z</time></trkpt><trkpt lat="46.013212280632736" lon="12.914494949951502"><ele>62.0</ele><time>2026-04-19T09:57:45Z</time></trkpt><trkpt lat="46.013321894292666" lon="12.914504289791761"><ele>61.6</ele><time>2026-04-19T09:57:46Z</time></trkpt><trkpt lat="46.01343368213168" lon="12.914504805916586"><ele>61.2</ele><time>2026-04-19T09:57:47Z</time></trkpt><trkpt lat="46.013541182840356" lon="12.914495291789917"><ele>60.8</ele><time>2026-04-19T09:57:48Z</time></trkpt><trkpt lat="46.013636381670885" lon="12.914494693926505"><ele>60.4</ele><time>2026-04-19T09:57:49Z</time></trkpt><trkpt lat="46.01372609489663" lon="12.914500872124536"><ele>60.0</ele><time>2026-04-19T09:57:50Z</time></trkpt><trkpt lat="46.01382258096932" lon="12.914522349330936"><ele>60.0</ele><time>2026-04-19T09:57:51Z</time></trkpt><trkpt lat="46.013929060054224" lon="12.914560487612606"><ele>60.0</ele><time>2026-04-19T09:57:52Z</time></trkpt><trkpt lat="46.01402086356315" lon="12.914593315236722"><ele>60.0</ele><time>2026-04-19T09:57:53Z</time></trkpt><trkpt lat="46.01412004756907" lon="12.914639760362059"><ele>60.0</ele><time>2026-04-19T09:57:54Z</time></trkpt><trkpt lat="46.014198535570785" lon="12.914678017522375"><ele>60.0</ele><time>2026-04-19T09:57:55Z</time></trkpt><trkpt lat="46.01427971252721" lon="12.914711072265554"><ele>60.4</ele><time>2026-04-19T09:57:56Z</time></trkpt><trkpt lat="46.014364947979864" lon="12.914740900825036"><ele>60.8</ele><time>2026-04-19T09:57:57Z</time></trkpt><trkpt lat="46.01445331415636" lon="12.914743065353136"><ele>61.2</ele><time>2026-04-19T09:57:58Z</time></trkpt><trkpt lat="46.01454095614441" lon="12.914719937899337"><ele>61.6</ele><time>2026-04-19T09:57:59Z</time></trkpt><trkpt lat="46.014638613327165" lon="12.914670799629839"><ele>62.0</ele><time>2026-04-19T09:58:00Z</time></trkpt><trkpt lat="46.014754663392075" lon="12.914599101542166"><ele>62.00000000000001</ele><time>2026-04-19T09:58:01Z</time></trkpt><trkpt lat="46.01486201507014" lon="12.914533817971856"><ele>62.0</ele><time>2026-04-19T09:58:02Z</time></trkpt><trkpt lat="46.01494954819886" lon="12.914478344606854"><ele>62.0</ele><time>2026-04-19T09:58:03Z</time></trkpt><trkpt lat="46.015028094009764" lon="12.914440786039792"><ele>62.0</ele><time>2026-04-19T09:58:04Z</time></trkpt><trkpt lat="46.01510092171752" lon="12.914403369793144"><ele>62.00000000000001</ele><time>2026-04-19T09:58:05Z</time></trkpt><trkpt lat="46.015173970131606" lon="12.91436957778611"><ele>62.0</ele><time>2026-04-19T09:58:06Z</time></trkpt><trkpt lat="46.01524412520844" lon="12.914322037038314"><ele>62.0</ele><time>2026-04-19T09:58:07Z</time></trkpt><trkpt lat="46.01533423141382" lon="12.91429910207846"><ele>62.0</ele><time>2026-04-19T09:58:09Z</time></trkpt><trkpt lat="46.01540166386543" lon="12.91429875452825"><ele>62.0</ele><time>2026-04-19T09:58:10Z</time></trkpt><trkpt lat="46.01553641637437" lon="12.914318243749939"><ele>62.0</ele><time>2026-04-19T09:58:12Z</time></trkpt><trkpt lat="46.01563747212419" lon="12.91430138403907"><ele>62.0</ele><time>2026-04-19T09:58:13Z</time></trkpt><trkpt lat="46.01573049255192" lon="12.914259558722677"><ele>61.75</ele><time>2026-04-19T09:58:14Z</time></trkpt><trkpt lat="46.015856065607345" lon="12.914205014411786"><ele>61.5</ele><time>2026-04-19T09:58:15Z</time></trkpt><trkpt lat="46.015967320572045" lon="12.914145651906669"><ele>61.25</ele><time>2026-04-19T09:58:16Z</time></trkpt><trkpt lat="46.016073134366074" lon="12.914104444597143"><ele>61.0</ele><time>2026-04-19T09:58:17Z</time></trkpt><trkpt lat="46.01616361109395" lon="12.91404282421867"><ele>61.0</ele><time>2026-04-19T09:58:18Z</time></trkpt><trkpt lat="46.01624125701709" lon="12.914020351965492"><ele>60.99999999999999</ele><time>2026-04-19T09:58:19Z</time></trkpt><trkpt lat="46.016339118259715" lon="12.914004467912754"><ele>60.99999999999999</ele><time>2026-04-19T09:58:20Z</time></trkpt><trkpt lat="46.016451791852234" lon="12.914009785308222"><ele>61.0</ele><time>2026-04-19T09:58:21Z</time></trkpt><trkpt lat="46.01655927035693" lon="12.91399846008351"><ele>61.0</ele><time>2026-04-19T09:58:22Z</time></trkpt><trkpt lat="46.01666474980809" lon="12.91397698292145"><ele>61.25</ele><time>2026-04-19T09:58:23Z</time></trkpt><trkpt lat="46.01676838012251" lon="12.913959254483768"><ele>61.5</ele><time>2026-04-19T09:58:24Z</time></trkpt><trkpt lat="46.01688141033546" lon="12.91395486153252"><ele>61.75</ele><time>2026-04-19T09:58:25Z</time></trkpt><trkpt lat="46.01700484433958" lon="12.913953170446092"><ele>62.0</ele><time>2026-04-19T09:58:26Z</time></trkpt><trkpt lat="46.01712193907604" lon="12.91396117118202"><ele>62.0</ele><time>2026-04-19T09:58:27Z</time></trkpt><trkpt lat="46.017241778823866" lon="12.913979525322745"><ele>62.0</ele><time>2026-04-19T09:58:28Z</time></trkpt><trkpt lat="46.01733750261976" lon="12.914004393032652"><ele>62.0</ele><time>2026-04-19T09:58:29Z</time></trkpt><trkpt lat="46.017433277901716" lon="12.914005854349389"><ele>62.0</ele><time>2026-04-19T09:58:30Z</time></trkpt><trkpt lat="46.01753319612291" lon="12.914001234846868"><ele>62.0</ele><time>2026-04-19T09:58:31Z</time></trkpt><trkpt lat="46.01762176280785" lon="12.913987437784664"><ele>62.25</ele><time>2026-04-19T09:58:32Z</time></trkpt><trkpt lat="46.01772891222901" lon="12.913973575448871"><ele>62.5</ele><time>2026-04-19T09:58:33Z</time></trkpt><trkpt lat="46.01786714186849" lon="12.913977041489105"><ele>62.75</ele><time>2026-04-19T09:58:34Z</time></trkpt><trkpt lat="46.01800103057518" lon="12.914014941168464"><ele>63.0</ele><time>2026-04-19T09:58:35Z</time></trkpt><trkpt lat="46.01816344614646" lon="12.914026933748342"><ele>62.75</ele><time>2026-04-19T09:58:36Z</time></trkpt><trkpt lat="46.018322041072395" lon="12.914023306320326"><ele>62.5</ele><time>2026-04-19T09:58:37Z</time></trkpt><trkpt lat="46.01845909469404" lon="12.914032017518604"><ele>62.25</ele><time>2026-04-19T09:58:38Z</time></trkpt><trkpt lat="46.01859680872142" lon="12.914043221859005"><ele>62.0</ele><time>2026-04-19T09:58:39Z</time></trkpt><trkpt lat="46.01872305242831" lon="12.914053749177695"><ele>62.00000000000001</ele><time>2026-04-19T09:58:40Z</time></trkpt><trkpt lat="46.01881040034436" lon="12.914056930175834"><ele>62.0</ele><time>2026-04-19T09:58:41Z</time></trkpt><trkpt lat="46.018900974303506" lon="12.914070998099916"><ele>62.0</ele><time>2026-04-19T09:58:42Z</time></trkpt><trkpt lat="46.01898609675648" lon="12.914088154055541"><ele>62.0</ele><time>2026-04-19T09:58:43Z</time></trkpt><trkpt lat="46.01906466758052" lon="12.914112072641423"><ele>62.00000000000001</ele><time>2026-04-19T09:58:44Z</time></trkpt><trkpt lat="46.0191284015061" lon="12.91413785189113"><ele>62.0</ele><time>2026-04-19T09:58:45Z</time></trkpt><trkpt lat="46.01925931779325" lon="12.914142673278535"><ele>62.2</ele><time>2026-04-19T09:58:47Z</time></trkpt><trkpt lat="46.019346518926845" lon="12.914167381283526"><ele>62.400000000000006</ele><time>2026-04-19T09:58:48Z</time></trkpt><trkpt lat="46.01940970874145" lon="12.91420397630793"><ele>62.599999999999994</ele><time>2026-04-19T09:58:49Z</time></trkpt><trkpt lat="46.01949668939649" lon="12.91425723521806"><ele>62.8</ele><time>2026-04-19T09:58:50Z</time></trkpt><trkpt lat="46.01959293351758" lon="12.914318326916687"><ele>63.0</ele><time>2026-04-19T09:58:51Z</time></trkpt><trkpt lat="46.01968590388584" lon="12.914375786060571"><ele>63.0</ele><time>2026-04-19T09:58:52Z</time></trkpt><trkpt lat="46.01975411143016" lon="12.914411957294176"><ele>63.0</ele><time>2026-04-19T09:58:53Z</time></trkpt><trkpt lat="46.01984473550416" lon="12.914442920578926"><ele>63.0</ele><time>2026-04-19T09:58:54Z</time></trkpt><trkpt lat="46.01993360502015" lon="12.914469272945176"><ele>63.0</ele><time>2026-04-19T09:58:55Z</time></trkpt><trkpt lat="46.020032795221994" lon="12.914453293762286"><ele>63.0</ele><time>2026-04-19T09:58:57Z</time></trkpt><trkpt lat="46.02012607409109" lon="12.914389376348183"><ele>63.0</ele><time>2026-04-19T09:58:59Z</time></trkpt><trkpt lat="46.020253718152794" lon="12.914343678089278"><ele>63.0</ele><time>2026-04-19T09:59:01Z</time></trkpt><trkpt lat="46.02037189467339" lon="12.91433636771105"><ele>63.0</ele><time>2026-04-19T09:59:02Z</time></trkpt><trkpt lat="46.020474137786444" lon="12.914327438463319"><ele>63.0</ele><time>2026-04-19T09:59:03Z</time></trkpt><trkpt lat="46.020553157355664" lon="12.914339479355158"><ele>63.0</ele><time>2026-04-19T09:59:04Z</time></trkpt><trkpt lat="46.02063258625735" lon="12.914351619889452"><ele>63.0</ele><time>2026-04-19T09:59:05Z</time></trkpt><trkpt lat="46.02071274586079" lon="12.914342428083762"><ele>63.0</ele><time>2026-04-19T09:59:06Z</time></trkpt><trkpt lat="46.02081467657104" lon="12.91431760295644"><ele>63.0</ele><time>2026-04-19T09:59:07Z</time></trkpt><trkpt lat="46.020896597186685" lon="12.914280477013921"><ele>63.0</ele><time>2026-04-19T09:59:08Z</time></trkpt><trkpt lat="46.02096633202502" lon="12.914246825619916"><ele>63.0</ele><time>2026-04-19T09:59:09Z</time></trkpt><trkpt lat="46.0210314173728" lon="12.914229258531874"><ele>63.0</ele><time>2026-04-19T09:59:10Z</time></trkpt><trkpt lat="46.02112942224755" lon="12.914228641638353"><ele>63.4</ele><time>2026-04-19T09:59:11Z</time></trkpt><trkpt lat="46.02122759420798" lon="12.91417504624356"><ele>63.8</ele><time>2026-04-19T09:59:12Z</time></trkpt><trkpt lat="46.02132218256619" lon="12.914117424347685"><ele>64.2</ele><time>2026-04-19T09:59:13Z</time></trkpt><trkpt lat="46.02140469918159" lon="12.914066715525426"><ele>64.6</ele><time>2026-04-19T09:59:14Z</time></trkpt><trkpt lat="46.02148913295375" lon="12.914091937731564"><ele>65.0</ele><time>2026-04-19T09:59:15Z</time></trkpt><trkpt lat="46.02157036844001" lon="12.914090243021866"><ele>65.0</ele><time>2026-04-19T09:59:16Z</time></trkpt><trkpt lat="46.02167274928455" lon="12.914077878588541"><ele>65.0</ele><time>2026-04-19T09:59:17Z</time></trkpt><trkpt lat="46.02179251362855" lon="12.914095868275533"><ele>65.0</ele><time>2026-04-19T09:59:18Z</time></trkpt><trkpt lat="46.021893169919494" lon="12.914088081264763"><ele>65.0</ele><time>2026-04-19T09:59:19Z</time></trkpt><trkpt lat="46.02200486614284" lon="12.914084700926324"><ele>65.0</ele><time>2026-04-19T09:59:20Z</time></trkpt><trkpt lat="46.02211921394611" lon="12.914094541262457"><ele>65.0</ele><time>2026-04-19T09:59:21Z</time></trkpt><trkpt lat="46.02223797797576" lon="12.914117750963355"><ele>65.0</ele><time>2026-04-19T09:59:22Z</time></trkpt><trkpt lat="46.022349956937134" lon="12.914148967138205"><ele>65.0</ele><time>2026-04-19T09:59:23Z</time></trkpt><trkpt lat="46.02245349299189" lon="12.914177552920705"><ele>65.0</ele><time>2026-04-19T09:59:24Z</time></trkpt><trkpt lat="46.022547114904704" lon="12.914211745535276"><ele>65.0</ele><time>2026-04-19T09:59:25Z</time></trkpt><trkpt lat="46.02264524772763" lon="12.914245330856545"><ele>65.0</ele><time>2026-04-19T09:59:26Z</time></trkpt><trkpt lat="46.02275813045374" lon="12.914260058110628"><ele>65.0</ele><time>2026-04-19T09:59:27Z</time></trkpt><trkpt lat="46.02285483981132" lon="12.91424373803225"><ele>65.0</ele><time>2026-04-19T09:59:28Z</time></trkpt><trkpt lat="46.02297861948093" lon="12.914188379220597"><ele>65.0</ele><time>2026-04-19T09:59:29Z</time></trkpt><trkpt lat="46.02309606238536" lon="12.91417769467703"><ele>65.0</ele><time>2026-04-19T09:59:30Z</time></trkpt><trkpt lat="46.02322421065215" lon="12.914161989264228"><ele>65.0</ele><time>2026-04-19T09:59:31Z</time></trkpt><trkpt lat="46.02335347500699" lon="12.914125458385662"><ele>65.0</ele><time>2026-04-19T09:59:32Z</time></trkpt><trkpt lat="46.02343170453533" lon="12.914099900345853"><ele>65.0</ele><time>2026-04-19T09:59:33Z</time></trkpt><trkpt lat="46.023534150230766" lon="12.9140784834929"><ele>65.0</ele><time>2026-04-19T09:59:34Z</time></trkpt><trkpt lat="46.02363652402758" lon="12.914055811746866"><ele>65.0</ele><time>2026-04-19T09:59:35Z</time></trkpt><trkpt lat="46.023712465688" lon="12.913992056791026"><ele>65.0</ele><time>2026-04-19T09:59:36Z</time></trkpt><trkpt lat="46.023797842070465" lon="12.913949326660193"><ele>65.0</ele><time>2026-04-19T09:59:37Z</time></trkpt><trkpt lat="46.02389659411135" lon="12.91390212326558"><ele>65.0</ele><time>2026-04-19T09:59:38Z</time></trkpt><trkpt lat="46.02397753907545" lon="12.913866985171222"><ele>65.0</ele><time>2026-04-19T09:59:39Z</time></trkpt><trkpt lat="46.02404953216038" lon="12.913855704785789"><ele>65.0</ele><time>2026-04-19T09:59:40Z</time></trkpt><trkpt lat="46.02415742608508" lon="12.913826353915688"><ele>65.0</ele><time>2026-04-19T09:59:41Z</time></trkpt><trkpt lat="46.02424818522924" lon="12.913831229474155"><ele>65.0</ele><time>2026-04-19T09:59:42Z</time></trkpt><trkpt lat="46.024339543467285" lon="12.913863207811506"><ele>65.0</ele><time>2026-04-19T09:59:43Z</time></trkpt><trkpt lat="46.02442766572418" lon="12.913900919888341"><ele>65.0</ele><time>2026-04-19T09:59:44Z</time></trkpt><trkpt lat="46.024532171819466" lon="12.913923052740476"><ele>65.0</ele><time>2026-04-19T09:59:45Z</time></trkpt><trkpt lat="46.02465563619564" lon="12.913946617862395"><ele>65.0</ele><time>2026-04-19T09:59:46Z</time></trkpt><trkpt lat="46.02477248049299" lon="12.913953066620195"><ele>65.0</ele><time>2026-04-19T09:59:47Z</time></trkpt><trkpt lat="46.02488226975968" lon="12.913953648608361"><ele>65.0</ele><time>2026-04-19T09:59:48Z</time></trkpt><trkpt lat="46.024995764801105" lon="12.913912226982372"><ele>65.0</ele><time>2026-04-19T09:59:49Z</time></trkpt><trkpt lat="46.02514595218937" lon="12.913871324772732"><ele>65.2</ele><time>2026-04-19T09:59:51Z</time></trkpt><trkpt lat="46.02522190106833" lon="12.913830352000884"><ele>65.4</ele><time>2026-04-19T09:59:52Z</time></trkpt><trkpt lat="46.025308629939005" lon="12.91379702968902"><ele>65.6</ele><time>2026-04-19T09:59:53Z</time></trkpt><trkpt lat="46.02540496375842" lon="12.913740851193936"><ele>65.8</ele><time>2026-04-19T09:59:54Z</time></trkpt><trkpt lat="46.02550316020776" lon="12.91368117496988"><ele>66.0</ele><time>2026-04-19T09:59:55Z</time></trkpt><trkpt lat="46.025594682989066" lon="12.913617042918663"><ele>66.0</ele><time>2026-04-19T09:59:56Z</time></trkpt><trkpt lat="46.02565878936082" lon="12.913582544034549"><ele>66.0</ele><time>2026-04-19T09:59:57Z</time></trkpt><trkpt lat="46.025730364745634" lon="12.913555204516436"><ele>66.0</ele><time>2026-04-19T09:59:58Z</time></trkpt><trkpt lat="46.02579729558282" lon="12.913544681781838"><ele>66.0</ele><time>2026-04-19T09:59:59Z</time></trkpt><trkpt lat="46.02586107504703" lon="12.913539452399892"><ele>66.0</ele><time>2026-04-19T10:00:00Z</time></trkpt><trkpt lat="46.02594787520335" lon="12.913541400442076"><ele>66.0</ele><time>2026-04-19T10:00:01Z</time></trkpt><trkpt lat="46.02605995345863" lon="12.913533697965017"><ele>66.0</ele><time>2026-04-19T10:00:02Z</time></trkpt><trkpt lat="46.02617867186642" lon="12.913534568106767"><ele>66.0</ele><time>2026-04-19T10:00:03Z</time></trkpt><trkpt lat="46.026276818531365" lon="12.913537541706214"><ele>66.0</ele><time>2026-04-19T10:00:04Z</time></trkpt><trkpt lat="46.026365383967324" lon="12.913530140759319"><ele>66.0</ele><time>2026-04-19T10:00:05Z</time></trkpt><trkpt lat="46.02645149152582" lon="12.913519437069953"><ele>66.0</ele><time>2026-04-19T10:00:06Z</time></trkpt><trkpt lat="46.026533827015285" lon="12.91348050470061"><ele>66.0</ele><time>2026-04-19T10:00:07Z</time></trkpt><trkpt lat="46.026605155295435" lon="12.913488136006118"><ele>66.0</ele><time>2026-04-19T10:00:08Z</time></trkpt><trkpt lat="46.02666941917613" lon="12.913457966040284"><ele>66.0</ele><time>2026-04-19T10:00:09Z</time></trkpt><trkpt lat="46.02673297464802" lon="12.913395310129568"><ele>66.0</ele><time>2026-04-19T10:00:10Z</time></trkpt><trkpt lat="46.0268598963183" lon="12.91330704343483"><ele>66.0</ele><time>2026-04-19T10:00:12Z</time></trkpt><trkpt lat="46.026929438743814" lon="12.913282146255169"><ele>66.0</ele><time>2026-04-19T10:00:13Z</time></trkpt><trkpt lat="46.0270175196556" lon="12.913279180190935"><ele>66.16666666666667</ele><time>2026-04-19T10:00:14Z</time></trkpt><trkpt lat="46.02708989782531" lon="12.913253369972452"><ele>66.33333333333333</ele><time>2026-04-19T10:00:15Z</time></trkpt><trkpt lat="46.027160275904784" lon="12.91322583623231"><ele>66.5</ele><time>2026-04-19T10:00:16Z</time></trkpt><trkpt lat="46.02722976694093" lon="12.913161711834166"><ele>66.66666666666666</ele><time>2026-04-19T10:00:17Z</time></trkpt><trkpt lat="46.02730830832172" lon="12.913144114617895"><ele>66.83333333333333</ele><time>2026-04-19T10:00:18Z</time></trkpt><trkpt lat="46.027414305610826" lon="12.913143069153636"><ele>67.0</ele><time>2026-04-19T10:00:20Z</time></trkpt><trkpt lat="46.027488703548215" lon="12.913099879880628"><ele>67.0</ele><time>2026-04-19T10:00:21Z</time></trkpt><trkpt lat="46.02756421339782" lon="12.913062564557595"><ele>67.0</ele><time>2026-04-19T10:00:22Z</time></trkpt><trkpt lat="46.02764564098161" lon="12.913030681088944"><ele>67.0</ele><time>2026-04-19T10:00:23Z</time></trkpt><trkpt lat="46.02773513767907" lon="12.912995037875477"><ele>67.0</ele><time>2026-04-19T10:00:24Z</time></trkpt><trkpt lat="46.02781627678572" lon="12.912964487101219"><ele>67.0</ele><time>2026-04-19T10:00:25Z</time></trkpt><trkpt lat="46.02789282533692" lon="12.912935454520388"><ele>67.0</ele><time>2026-04-19T10:00:26Z</time></trkpt><trkpt lat="46.0280269804139" lon="12.912950339928228"><ele>67.0</ele><time>2026-04-19T10:00:28Z</time></trkpt><trkpt lat="46.028099724117595" lon="12.912994010471827"><ele>67.0</ele><time>2026-04-19T10:00:29Z</time></trkpt><trkpt lat="46.02816822653747" lon="12.913043470016374"><ele>67.0</ele><time>2026-04-19T10:00:30Z</time></trkpt><trkpt lat="46.028275534530074" lon="12.913140085174026"><ele>67.0</ele><time>2026-04-19T10:00:32Z</time></trkpt><trkpt lat="46.02834238473789" lon="12.913169889695949"><ele>67.0</ele><time>2026-04-19T10:00:33Z</time></trkpt><trkpt lat="46.02841930858756" lon="12.91316220798492"><ele>67.0</ele><time>2026-04-19T10:00:34Z</time></trkpt><trkpt lat="46.028520120973624" lon="12.91314731166421"><ele>66.8</ele><time>2026-04-19T10:00:35Z</time></trkpt><trkpt lat="46.02861195298328" lon="12.913147151689595"><ele>66.6</ele><time>2026-04-19T10:00:36Z</time></trkpt><trkpt lat="46.02871312132766" lon="12.913091253403397"><ele>66.39999999999999</ele><time>2026-04-19T10:00:37Z</time></trkpt><trkpt lat="46.02877948234134" lon="12.913015858742071"><ele>66.2</ele><time>2026-04-19T10:00:38Z</time></trkpt><trkpt lat="46.02885273653454" lon="12.912946053419162"><ele>66.0</ele><time>2026-04-19T10:00:39Z</time></trkpt><trkpt lat="46.028939184744615" lon="12.91290238048876"><ele>66.0</ele><time>2026-04-19T10:00:40Z</time></trkpt><trkpt lat="46.02900839025858" lon="12.912878134425219"><ele>66.0</ele><time>2026-04-19T10:00:41Z</time></trkpt><trkpt lat="46.029072572978" lon="12.91284673527234"><ele>66.0</ele><time>2026-04-19T10:00:42Z</time></trkpt><trkpt lat="46.029148725616935" lon="12.91279332323279"><ele>66.0</ele><time>2026-04-19T10:00:43Z</time></trkpt><trkpt lat="46.02923822581542" lon="12.912746390474101"><ele>66.0</ele><time>2026-04-19T10:00:44Z</time></trkpt><trkpt lat="46.029325891276144" lon="12.912712451885403"><ele>66.0</ele><time>2026-04-19T10:00:45Z</time></trkpt><trkpt lat="46.029415904943725" lon="12.912677947969469"><ele>66.39999999999999</ele><time>2026-04-19T10:00:46Z</time></trkpt><trkpt lat="46.029514045799885" lon="12.91264749443482"><ele>66.8</ele><time>2026-04-19T10:00:47Z</time></trkpt><trkpt lat="46.029613519514164" lon="12.912634779614148"><ele>67.19999999999999</ele><time>2026-04-19T10:00:48Z</time></trkpt><trkpt lat="46.02970736209285" lon="12.912626765514633"><ele>67.6</ele><time>2026-04-19T10:00:49Z</time></trkpt><trkpt lat="46.029770962496926" lon="12.912598191472497"><ele>68.0</ele><time>2026-04-19T10:00:50Z</time></trkpt><trkpt lat="46.029875431643525" lon="12.912564102713315"><ele>68.0</ele><time>2026-04-19T10:00:51Z</time></trkpt><trkpt lat="46.029954985144336" lon="12.912560441863562"><ele>68.0</ele><time>2026-04-19T10:00:52Z</time></trkpt><trkpt lat="46.03003360951752" lon="12.91254983544594"><ele>68.0</ele><time>2026-04-19T10:00:53Z</time></trkpt><trkpt lat="46.030107578577514" lon="12.912543905993813"><ele>68.0</ele><time>2026-04-19T10:00:54Z</time></trkpt><trkpt lat="46.030231761915616" lon="12.912613855087113"><ele>68.0</ele><time>2026-04-19T10:00:56Z</time></trkpt><trkpt lat="46.03031848577825" lon="12.912632063211587"><ele>68.33333333333334</ele><time>2026-04-19T10:00:57Z</time></trkpt><trkpt lat="46.030407585026246" lon="12.912665206777078"><ele>68.66666666666667</ele><time>2026-04-19T10:00:58Z</time></trkpt><trkpt lat="46.030493079732125" lon="12.912668706298037"><ele>69.0</ele><time>2026-04-19T10:00:59Z</time></trkpt><trkpt lat="46.03060045281117" lon="12.912644419185021"><ele>69.33333333333333</ele><time>2026-04-19T10:01:00Z</time></trkpt><trkpt lat="46.03068685100933" lon="12.912651606184696"><ele>69.66666666666666</ele><time>2026-04-19T10:01:01Z</time></trkpt><trkpt lat="46.03074972991564" lon="12.912656088412918"><ele>70.0</ele><time>2026-04-19T10:01:02Z</time></trkpt><trkpt lat="46.030873125632276" lon="12.912675719536297"><ele>70.0</ele><time>2026-04-19T10:01:04Z</time></trkpt><trkpt lat="46.03099792191077" lon="12.912678639872667"><ele>70.0</ele><time>2026-04-19T10:01:06Z</time></trkpt><trkpt lat="46.03113479971212" lon="12.912706356785835"><ele>70.0</ele><time>2026-04-19T10:01:08Z</time></trkpt><trkpt lat="46.03124834960515" lon="12.912745734982433"><ele>70.0</ele><time>2026-04-19T10:01:10Z</time></trkpt><trkpt lat="46.031362863202006" lon="12.912780724020319"><ele>70.0</ele><time>2026-04-19T10:01:12Z</time></trkpt><trkpt lat="46.0314429053327" lon="12.912826292292223"><ele>70.0</ele><time>2026-04-19T10:01:14Z</time></trkpt><trkpt lat="46.03150363073958" lon="12.91288481991481"><ele>70.0</ele><time>2026-04-19T10:01:16Z</time></trkpt><trkpt lat="46.03156949671473" lon="12.91293299727737"><ele>70.0</ele><time>2026-04-19T10:01:19Z</time></trkpt><trkpt lat="46.03164964147899" lon="12.91296619081206"><ele>70.0</ele><time>2026-04-19T10:01:20Z</time></trkpt><trkpt lat="46.03175332578075" lon="12.913001742495336"><ele>70.0</ele><time>2026-04-19T10:01:21Z</time></trkpt><trkpt lat="46.03182163094497" lon="12.913035923144996"><ele>69.83333333333333</ele><time>2026-04-19T10:01:22Z</time></trkpt><trkpt lat="46.031883779020745" lon="12.913074441982642"><ele>69.66666666666666</ele><time>2026-04-19T10:01:23Z</time></trkpt><trkpt lat="46.0319534807526" lon="12.913089394165404"><ele>69.5</ele><time>2026-04-19T10:01:24Z</time></trkpt><trkpt lat="46.032018529494245" lon="12.91309597446525"><ele>69.33333333333333</ele><time>2026-04-19T10:01:25Z</time></trkpt><trkpt lat="46.03208353510899" lon="12.913104575328639"><ele>69.16666666666667</ele><time>2026-04-19T10:01:26Z</time></trkpt><trkpt lat="46.03218949610098" lon="12.913128854107873"><ele>69.0</ele><time>2026-04-19T10:01:28Z</time></trkpt><trkpt lat="46.03226391729481" lon="12.913166979983645"><ele>69.0</ele><time>2026-04-19T10:01:30Z</time></trkpt><trkpt lat="46.03238573584393" lon="12.913209337027492"><ele>69.0</ele><time>2026-04-19T10:01:32Z</time></trkpt><trkpt lat="46.03248703775617" lon="12.913282471675016"><ele>69.0</ele><time>2026-04-19T10:01:34Z</time></trkpt><trkpt lat="46.03254882574391" lon="12.91332588934865"><ele>69.0</ele><time>2026-04-19T10:01:35Z</time></trkpt><trkpt lat="46.032656018432185" lon="12.913349558795366"><ele>69.0</ele><time>2026-04-19T10:01:37Z</time></trkpt><trkpt lat="46.03271336246017" lon="12.913388723613886"><ele>68.60000000000001</ele><time>2026-04-19T10:01:40Z</time></trkpt><trkpt lat="46.03277446821717" lon="12.913455629936157"><ele>68.2</ele><time>2026-04-19T10:01:42Z</time></trkpt><trkpt lat="46.03285439151023" lon="12.913489095995052"><ele>67.80000000000001</ele><time>2026-04-19T10:01:44Z</time></trkpt><trkpt lat="46.03292876998231" lon="12.91350856490142"><ele>67.4</ele><time>2026-04-19T10:01:47Z</time></trkpt><trkpt lat="46.033107894633375" lon="12.913489195972016"><ele>67.0</ele><time>2026-04-19T10:01:49Z</time></trkpt><trkpt lat="46.033193183319874" lon="12.913482967915893"><ele>67.0</ele><time>2026-04-19T10:01:50Z</time></trkpt><trkpt lat="46.03328669009806" lon="12.913485723814613"><ele>67.0</ele><time>2026-04-19T10:01:51Z</time></trkpt><trkpt lat="46.03340404652179" lon="12.913468057493976"><ele>67.0</ele><time>2026-04-19T10:01:52Z</time></trkpt><trkpt lat="46.03349882730297" lon="12.913467894621856"><ele>67.0</ele><time>2026-04-19T10:01:53Z</time></trkpt><trkpt lat="46.033595032867865" lon="12.913436090940563"><ele>67.0</ele><time>2026-04-19T10:01:54Z</time></trkpt><trkpt lat="46.03368969005168" lon="12.913424288637446"><ele>67.2</ele><time>2026-04-19T10:01:55Z</time></trkpt><trkpt lat="46.03375891351068" lon="12.913438175009812"><ele>67.4</ele><time>2026-04-19T10:01:56Z</time></trkpt><trkpt lat="46.03383996476641" lon="12.913431632577618"><ele>67.6</ele><time>2026-04-19T10:01:57Z</time></trkpt><trkpt lat="46.03396806261435" lon="12.913437427579677"><ele>67.8</ele><time>2026-04-19T10:01:58Z</time></trkpt><trkpt lat="46.03405769493205" lon="12.91343031062246"><ele>68.0</ele><time>2026-04-19T10:01:59Z</time></trkpt><trkpt lat="46.03415359402058" lon="12.913430626298469"><ele>68.2</ele><time>2026-04-19T10:02:00Z</time></trkpt><trkpt lat="46.03427955169186" lon="12.913471182174778"><ele>68.4</ele><time>2026-04-19T10:02:01Z</time></trkpt><trkpt lat="46.034376395839914" lon="12.913497298113413"><ele>68.60000000000001</ele><time>2026-04-19T10:02:02Z</time></trkpt><trkpt lat="46.03447692554464" lon="12.913509842375682"><ele>68.8</ele><time>2026-04-19T10:02:03Z</time></trkpt><trkpt lat="46.03457566072715" lon="12.913508311869194"><ele>69.0</ele><time>2026-04-19T10:02:04Z</time></trkpt><trkpt lat="46.0346922724667" lon="12.913482922790383"><ele>69.0</ele><time>2026-04-19T10:02:05Z</time></trkpt><trkpt lat="46.034812622713986" lon="12.913421813630809"><ele>69.0</ele><time>2026-04-19T10:02:06Z</time></trkpt><trkpt lat="46.03495244943367" lon="12.913450827317009"><ele>69.0</ele><time>2026-04-19T10:02:07Z</time></trkpt><trkpt lat="46.035072157330816" lon="12.913446753511444"><ele>69.0</ele><time>2026-04-19T10:02:08Z</time></trkpt><trkpt lat="46.03516094423036" lon="12.913480471804272"><ele>68.8</ele><time>2026-04-19T10:02:09Z</time></trkpt><trkpt lat="46.03524225340375" lon="12.913477959400531"><ele>68.60000000000001</ele><time>2026-04-19T10:02:10Z</time></trkpt><trkpt lat="46.035329919365566" lon="12.913474404209827"><ele>68.4</ele><time>2026-04-19T10:02:11Z</time></trkpt><trkpt lat="46.03542480645327" lon="12.913469276711982"><ele>68.2</ele><time>2026-04-19T10:02:12Z</time></trkpt><trkpt lat="46.03553411169896" lon="12.913476209036721"><ele>68.0</ele><time>2026-04-19T10:02:13Z</time></trkpt><trkpt lat="46.03567078042398" lon="12.913446014808569"><ele>68.2</ele><time>2026-04-19T10:02:14Z</time></trkpt><trkpt lat="46.03575015388792" lon="12.9133927141764"><ele>68.4</ele><time>2026-04-19T10:02:15Z</time></trkpt><trkpt lat="46.03581736219469" lon="12.913388755513603"><ele>68.60000000000001</ele><time>2026-04-19T10:02:16Z</time></trkpt><trkpt lat="46.035914367117556" lon="12.913390521257808"><ele>68.8</ele><time>2026-04-19T10:02:17Z</time></trkpt><trkpt lat="46.036014245268674" lon="12.913389223990277"><ele>69.0</ele><time>2026-04-19T10:02:18Z</time></trkpt><trkpt lat="46.03612986823516" lon="12.913393615259041"><ele>69.0</ele><time>2026-04-19T10:02:19Z</time></trkpt><trkpt lat="46.03624553706375" lon="12.913403911355338"><ele>69.0</ele><time>2026-04-19T10:02:20Z</time></trkpt><trkpt lat="46.036322811806166" lon="12.913425886210993"><ele>69.0</ele><time>2026-04-19T10:02:21Z</time></trkpt><trkpt lat="46.03640303390857" lon="12.913437415625777"><ele>69.0</ele><time>2026-04-19T10:02:22Z</time></trkpt><trkpt lat="46.03650022561971" lon="12.913442917421763"><ele>69.0</ele><time>2026-04-19T10:02:23Z</time></trkpt><trkpt lat="46.03660510165396" lon="12.913467864260397"><ele>69.2</ele><time>2026-04-19T10:02:24Z</time></trkpt><trkpt lat="46.036684133561494" lon="12.913470784774608"><ele>69.4</ele><time>2026-04-19T10:02:25Z</time></trkpt><trkpt lat="46.036778000386924" lon="12.913450406230616"><ele>69.6</ele><time>2026-04-19T10:02:26Z</time></trkpt><trkpt lat="46.03684486988122" lon="12.91343977784173"><ele>69.8</ele><time>2026-04-19T10:02:27Z</time></trkpt><trkpt lat="46.03693387863915" lon="12.913432385025766"><ele>70.0</ele><time>2026-04-19T10:02:28Z</time></trkpt><trkpt lat="46.03705627031535" lon="12.913470590143241"><ele>70.0</ele><time>2026-04-19T10:02:30Z</time></trkpt><trkpt lat="46.037119586444526" lon="12.913501617393253"><ele>70.0</ele><time>2026-04-19T10:02:31Z</time></trkpt><trkpt lat="46.03719527857201" lon="12.913517121382078"><ele>70.0</ele><time>2026-04-19T10:02:32Z</time></trkpt><trkpt lat="46.037280881465726" lon="12.913528639945994"><ele>70.0</ele><time>2026-04-19T10:02:33Z</time></trkpt><trkpt lat="46.03735701163818" lon="12.913541119196683"><ele>70.0</ele><time>2026-04-19T10:02:34Z</time></trkpt><trkpt lat="46.03743536478856" lon="12.9135411827763"><ele>70.0</ele><time>2026-04-19T10:02:35Z</time></trkpt><trkpt lat="46.03754539239433" lon="12.913529976616466"><ele>69.8</ele><time>2026-04-19T10:02:36Z</time></trkpt><trkpt lat="46.03762542903145" lon="12.913523452796424"><ele>69.6</ele><time>2026-04-19T10:02:37Z</time></trkpt><trkpt lat="46.037703135804364" lon="12.913526495039727"><ele>69.4</ele><time>2026-04-19T10:02:38Z</time></trkpt><trkpt lat="46.037845875607886" lon="12.913580888798396"><ele>69.2</ele><time>2026-04-19T10:02:40Z</time></trkpt><trkpt lat="46.03793028535046" lon="12.91358819499977"><ele>69.0</ele><time>2026-04-19T10:02:41Z</time></trkpt><trkpt lat="46.03807444179029" lon="12.913551748182089"><ele>69.0</ele><time>2026-04-19T10:02:43Z</time></trkpt><trkpt lat="46.03818090597811" lon="12.913491974514958"><ele>69.0</ele><time>2026-04-19T10:02:44Z</time></trkpt><trkpt lat="46.0382907222492" lon="12.913431860770988"><ele>69.0</ele><time>2026-04-19T10:02:45Z</time></trkpt><trkpt lat="46.03837016876129" lon="12.913361134194377"><ele>69.0</ele><time>2026-04-19T10:02:46Z</time></trkpt><trkpt lat="46.0384608323153" lon="12.913315822248176"><ele>69.0</ele><time>2026-04-19T10:02:47Z</time></trkpt><trkpt lat="46.03854957333169" lon="12.913276193730706"><ele>69.4</ele><time>2026-04-19T10:02:48Z</time></trkpt><trkpt lat="46.03863973623945" lon="12.913230848881787"><ele>69.80000000000001</ele><time>2026-04-19T10:02:49Z</time></trkpt><trkpt lat="46.03872216791011" lon="12.913199041202583"><ele>70.19999999999999</ele><time>2026-04-19T10:02:50Z</time></trkpt><trkpt lat="46.038806341637624" lon="12.91317848600371"><ele>70.6</ele><time>2026-04-19T10:02:51Z</time></trkpt><trkpt lat="46.03890169368376" lon="12.913150563482967"><ele>71.0</ele><time>2026-04-19T10:02:52Z</time></trkpt><trkpt lat="46.03901596710225" lon="12.913105651599313"><ele>71.0</ele><time>2026-04-19T10:02:53Z</time></trkpt><trkpt lat="46.03913177767279" lon="12.913036905122704"><ele>71.0</ele><time>2026-04-19T10:02:54Z</time></trkpt><trkpt lat="46.039251452057336" lon="12.912974225826543"><ele>71.0</ele><time>2026-04-19T10:02:55Z</time></trkpt><trkpt lat="46.039346235596625" lon="12.912924883081049"><ele>71.0</ele><time>2026-04-19T10:02:56Z</time></trkpt><trkpt lat="46.03943261395454" lon="12.912881943100176"><ele>71.0</ele><time>2026-04-19T10:02:57Z</time></trkpt><trkpt lat="46.03949632415287" lon="12.91285998414238"><ele>71.0</ele><time>2026-04-19T10:02:58Z</time></trkpt><trkpt lat="46.039584110591065" lon="12.91282242368707"><ele>71.0</ele><time>2026-04-19T10:02:59Z</time></trkpt><trkpt lat="46.03966346215598" lon="12.912801102897513"><ele>71.0</ele><time>2026-04-19T10:03:00Z</time></trkpt><trkpt lat="46.03974969244481" lon="12.912791232150397"><ele>71.0</ele><time>2026-04-19T10:03:01Z</time></trkpt><trkpt lat="46.03984769688752" lon="12.912764116572395"><ele>71.0</ele><time>2026-04-19T10:03:02Z</time></trkpt><trkpt lat="46.03994762679843" lon="12.91272733651705"><ele>71.16666666666667</ele><time>2026-04-19T10:03:03Z</time></trkpt><trkpt lat="46.04003145237569" lon="12.912691542138068"><ele>71.33333333333334</ele><time>2026-04-19T10:03:04Z</time></trkpt><trkpt lat="46.04010843606242" lon="12.912638569240691"><ele>71.5</ele><time>2026-04-19T10:03:05Z</time></trkpt><trkpt lat="46.04017570507936" lon="12.912614989207748"><ele>71.66666666666667</ele><time>2026-04-19T10:03:06Z</time></trkpt><trkpt lat="46.040269406144574" lon="12.91260990872711"><ele>71.83333333333333</ele><time>2026-04-19T10:03:07Z</time></trkpt><trkpt lat="46.040369404795435" lon="12.912624753770784"><ele>72.0</ele><time>2026-04-19T10:03:08Z</time></trkpt><trkpt lat="46.04046396360889" lon="12.912642155798839"><ele>72.0</ele><time>2026-04-19T10:03:09Z</time></trkpt><trkpt lat="46.040534239901945" lon="12.912648477732558"><ele>72.0</ele><time>2026-04-19T10:03:10Z</time></trkpt><trkpt lat="46.040654487926425" lon="12.912628697212597"><ele>72.0</ele><time>2026-04-19T10:03:12Z</time></trkpt><trkpt lat="46.040781143466454" lon="12.91258879781026"><ele>72.0</ele><time>2026-04-19T10:03:14Z</time></trkpt><trkpt lat="46.04088035420892" lon="12.912593021212869"><ele>72.0</ele><time>2026-04-19T10:03:15Z</time></trkpt><trkpt lat="46.04097164700355" lon="12.912589432149051"><ele>72.0</ele><time>2026-04-19T10:03:16Z</time></trkpt><trkpt lat="46.04106583159777" lon="12.912601123817462"><ele>72.0</ele><time>2026-04-19T10:03:17Z</time></trkpt><trkpt lat="46.04115255316119" lon="12.912599698022623"><ele>72.0</ele><time>2026-04-19T10:03:18Z</time></trkpt><trkpt lat="46.041244895710335" lon="12.912596768362402"><ele>72.0</ele><time>2026-04-19T10:03:19Z</time></trkpt><trkpt lat="46.041330227177525" lon="12.91260782034325"><ele>72.0</ele><time>2026-04-19T10:03:20Z</time></trkpt><trkpt lat="46.04147084889061" lon="12.912610024499635"><ele>72.0</ele><time>2026-04-19T10:03:22Z</time></trkpt><trkpt lat="46.041543055909614" lon="12.912616156869056"><ele>72.0</ele><time>2026-04-19T10:03:23Z</time></trkpt><trkpt lat="46.04161602924885" lon="12.912665164801103"><ele>72.0</ele><time>2026-04-19T10:03:24Z</time></trkpt><trkpt lat="46.041686624858244" lon="12.91272893759872"><ele>72.0</ele><time>2026-04-19T10:03:25Z</time></trkpt><trkpt lat="46.04175906253296" lon="12.912784637331425"><ele>72.0</ele><time>2026-04-19T10:03:26Z</time></trkpt><trkpt lat="46.04183811904217" lon="12.912824929403426"><ele>72.0</ele><time>2026-04-19T10:03:27Z</time></trkpt><trkpt lat="46.041919869081205" lon="12.91283781324785"><ele>72.0</ele><time>2026-04-19T10:03:28Z</time></trkpt><trkpt lat="46.04200494815078" lon="12.912871172858717"><ele>72.0</ele><time>2026-04-19T10:03:29Z</time></trkpt><trkpt lat="46.042098699787665" lon="12.912908297297031"><ele>72.0</ele><time>2026-04-19T10:03:30Z</time></trkpt><trkpt lat="46.04218723035977" lon="12.912935131444494"><ele>72.0</ele><time>2026-04-19T10:03:31Z</time></trkpt><trkpt lat="46.04226794372808" lon="12.91295180483066"><ele>72.0</ele><time>2026-04-19T10:03:32Z</time></trkpt><trkpt lat="46.04236481813847" lon="12.91295978402927"><ele>72.25</ele><time>2026-04-19T10:03:33Z</time></trkpt><trkpt lat="46.042478654320426" lon="12.912969054666766"><ele>72.5</ele><time>2026-04-19T10:03:34Z</time></trkpt><trkpt lat="46.042588227792436" lon="12.91297215007578"><ele>72.75</ele><time>2026-04-19T10:03:35Z</time></trkpt><trkpt lat="46.04269772593375" lon="12.912979405635063"><ele>73.0</ele><time>2026-04-19T10:03:36Z</time></trkpt><trkpt lat="46.04282048230637" lon="12.912965725795948"><ele>73.0</ele><time>2026-04-19T10:03:37Z</time></trkpt><trkpt lat="46.04296265191376" lon="12.91294356561223"><ele>73.0</ele><time>2026-04-19T10:03:38Z</time></trkpt><trkpt lat="46.04305923419923" lon="12.912943436742054"><ele>73.0</ele><time>2026-04-19T10:03:39Z</time></trkpt><trkpt lat="46.04315039330174" lon="12.912955362306635"><ele>73.0</ele><time>2026-04-19T10:03:40Z</time></trkpt><trkpt lat="46.04324523296938" lon="12.912933973776328"><ele>73.0</ele><time>2026-04-19T10:03:41Z</time></trkpt><trkpt lat="46.04338461015089" lon="12.912907969457732"><ele>73.0</ele><time>2026-04-19T10:03:42Z</time></trkpt><trkpt lat="46.04349514438665" lon="12.912889524207243"><ele>73.0</ele><time>2026-04-19T10:03:43Z</time></trkpt><trkpt lat="46.043598685169705" lon="12.912895815490977"><ele>73.0</ele><time>2026-04-19T10:03:44Z</time></trkpt><trkpt lat="46.04369743005023" lon="12.912913826567253"><ele>73.0</ele><time>2026-04-19T10:03:45Z</time></trkpt><trkpt lat="46.04380288712585" lon="12.912925966925805"><ele>73.0</ele><time>2026-04-19T10:03:46Z</time></trkpt><trkpt lat="46.043921506733774" lon="12.912936998222246"><ele>73.0</ele><time>2026-04-19T10:03:47Z</time></trkpt><trkpt lat="46.044039763376006" lon="12.912946378245"><ele>73.0</ele><time>2026-04-19T10:03:48Z</time></trkpt><trkpt lat="46.04414610518012" lon="12.912943981622607"><ele>73.0</ele><time>2026-04-19T10:03:49Z</time></trkpt><trkpt lat="46.044244046067654" lon="12.912934187628757"><ele>73.0</ele><time>2026-04-19T10:03:50Z</time></trkpt><trkpt lat="46.0443420825356" lon="12.912910185940076"><ele>73.0</ele><time>2026-04-19T10:03:51Z</time></trkpt><trkpt lat="46.04444660120294" lon="12.912888556972174"><ele>73.0</ele><time>2026-04-19T10:03:52Z</time></trkpt><trkpt lat="46.044541848684965" lon="12.91287521256816"><ele>73.0</ele><time>2026-04-19T10:03:53Z</time></trkpt><trkpt lat="46.04464178233243" lon="12.912883120153689"><ele>73.0</ele><time>2026-04-19T10:03:54Z</time></trkpt><trkpt lat="46.04474330591369" lon="12.912875135882446"><ele>73.0</ele><time>2026-04-19T10:03:55Z</time></trkpt><trkpt lat="46.044852820363" lon="12.912851707589445"><ele>73.0</ele><time>2026-04-19T10:03:56Z</time></trkpt><trkpt lat="46.04494837152167" lon="12.912832889505223"><ele>73.0</ele><time>2026-04-19T10:03:57Z</time></trkpt><trkpt lat="46.04502614634819" lon="12.912826871365343"><ele>73.0</ele><time>2026-04-19T10:03:58Z</time></trkpt><trkpt lat="46.04510283617404" lon="12.912827538301588"><ele>73.0</ele><time>2026-04-19T10:03:59Z</time></trkpt><trkpt lat="46.04517964189458" lon="12.912805895970276"><ele>73.0</ele><time>2026-04-19T10:04:00Z</time></trkpt><trkpt lat="46.04526703430531" lon="12.9127924300467"><ele>73.0</ele><time>2026-04-19T10:04:01Z</time></trkpt><trkpt lat="46.04536064327777" lon="12.91276661562984"><ele>73.0</ele><time>2026-04-19T10:04:02Z</time></trkpt><trkpt lat="46.0454207374108" lon="12.912732313369537"><ele>73.0</ele><time>2026-04-19T10:04:03Z</time></trkpt><trkpt lat="46.045481604533514" lon="12.912697865639728"><ele>73.0</ele><time>2026-04-19T10:04:04Z</time></trkpt><trkpt lat="46.04558731142787" lon="12.91261806638057"><ele>73.0</ele><time>2026-04-19T10:04:06Z</time></trkpt><trkpt lat="46.04565068827178" lon="12.91254269143713"><ele>73.0</ele><time>2026-04-19T10:04:07Z</time></trkpt><trkpt lat="46.04571513011324" lon="12.9125127727616"><ele>73.0</ele><time>2026-04-19T10:04:08Z</time></trkpt><trkpt lat="46.04579452406248" lon="12.912480005366831"><ele>73.0</ele><time>2026-04-19T10:04:09Z</time></trkpt><trkpt lat="46.04587089340928" lon="12.912445237185391"><ele>73.2</ele><time>2026-04-19T10:04:10Z</time></trkpt><trkpt lat="46.0459401653796" lon="12.912421732841011"><ele>73.4</ele><time>2026-04-19T10:04:11Z</time></trkpt><trkpt lat="46.04607276598606" lon="12.912351577618155"><ele>73.60000000000001</ele><time>2026-04-19T10:04:13Z</time></trkpt><trkpt lat="46.04618089178621" lon="12.912287778690233"><ele>73.8</ele><time>2026-04-19T10:04:14Z</time></trkpt><trkpt lat="46.0462591897292" lon="12.912248665634138"><ele>74.0</ele><time>2026-04-19T10:04:15Z</time></trkpt><trkpt lat="46.04632611483821" lon="12.912217415374185"><ele>74.0</ele><time>2026-04-19T10:04:16Z</time></trkpt><trkpt lat="46.04638547885256" lon="12.912181351969917"><ele>74.0</ele><time>2026-04-19T10:04:17Z</time></trkpt><trkpt lat="46.04645039004158" lon="12.91214487985222"><ele>74.0</ele><time>2026-04-19T10:04:18Z</time></trkpt><trkpt lat="46.04653151302891" lon="12.912116214106899"><ele>74.0</ele><time>2026-04-19T10:04:19Z</time></trkpt><trkpt lat="46.0466283636457" lon="12.912066399181692"><ele>74.0</ele><time>2026-04-19T10:04:20Z</time></trkpt><trkpt lat="46.04674104670369" lon="12.912016198034838"><ele>74.0</ele><time>2026-04-19T10:04:21Z</time></trkpt><trkpt lat="46.04686578097262" lon="12.911970350570947"><ele>74.2</ele><time>2026-04-19T10:04:22Z</time></trkpt><trkpt lat="46.04699427474525" lon="12.911913049907923"><ele>74.4</ele><time>2026-04-19T10:04:23Z</time></trkpt><trkpt lat="46.04710285551228" lon="12.911866703239092"><ele>74.6</ele><time>2026-04-19T10:04:24Z</time></trkpt><trkpt lat="46.04719946575349" lon="12.911829790096734"><ele>74.8</ele><time>2026-04-19T10:04:25Z</time></trkpt><trkpt lat="46.04728118805599" lon="12.91180276890197"><ele>75.0</ele><time>2026-04-19T10:04:26Z</time></trkpt><trkpt lat="46.04737369283803" lon="12.911776703989055"><ele>75.25</ele><time>2026-04-19T10:04:27Z</time></trkpt><trkpt lat="46.04747909418521" lon="12.91174841869163"><ele>75.5</ele><time>2026-04-19T10:04:28Z</time></trkpt><trkpt lat="46.04760258701183" lon="12.911712032893238"><ele>75.75</ele><time>2026-04-19T10:04:29Z</time></trkpt><trkpt lat="46.047756557148176" lon="12.911713828027482"><ele>76.0</ele><time>2026-04-19T10:04:30Z</time></trkpt><trkpt lat="46.04788732277201" lon="12.91170288732874"><ele>75.8</ele><time>2026-04-19T10:04:31Z</time></trkpt><trkpt lat="46.04801261035023" lon="12.911683100287982"><ele>75.6</ele><time>2026-04-19T10:04:32Z</time></trkpt><trkpt lat="46.04811533683145" lon="12.911663992825298"><ele>75.4</ele><time>2026-04-19T10:04:33Z</time></trkpt><trkpt lat="46.04821048366238" lon="12.91164305024769"><ele>75.2</ele><time>2026-04-19T10:04:34Z</time></trkpt><trkpt lat="46.04829441938866" lon="12.911625361177107"><ele>75.0</ele><time>2026-04-19T10:04:35Z</time></trkpt><trkpt lat="46.048391073319145" lon="12.911610974319954"><ele>75.0</ele><time>2026-04-19T10:04:36Z</time></trkpt><trkpt lat="46.04849981346083" lon="12.911610769924549"><ele>75.0</ele><time>2026-04-19T10:04:37Z</time></trkpt><trkpt lat="46.04862469605002" lon="12.911624744449234"><ele>75.0</ele><time>2026-04-19T10:04:38Z</time></trkpt><trkpt lat="46.048754554688394" lon="12.911627910983427"><ele>75.0</ele><time>2026-04-19T10:04:39Z</time></trkpt><trkpt lat="46.04888119937368" lon="12.911643914568643"><ele>75.0</ele><time>2026-04-19T10:04:40Z</time></trkpt><trkpt lat="46.04897918875412" lon="12.91167137083717"><ele>75.0</ele><time>2026-04-19T10:04:41Z</time></trkpt><trkpt lat="46.049092302162485" lon="12.911676856014278"><ele>75.0</ele><time>2026-04-19T10:04:42Z</time></trkpt><trkpt lat="46.049216685686524" lon="12.911653751083609"><ele>75.0</ele><time>2026-04-19T10:04:43Z</time></trkpt><trkpt lat="46.0493226319037" lon="12.911632029912425"><ele>75.0</ele><time>2026-04-19T10:04:44Z</time></trkpt><trkpt lat="46.04941557976244" lon="12.91159457076391"><ele>75.2</ele><time>2026-04-19T10:04:45Z</time></trkpt><trkpt lat="46.04952697089413" lon="12.911557633563763"><ele>75.4</ele><time>2026-04-19T10:04:46Z</time></trkpt><trkpt lat="46.04962886873429" lon="12.91150282919011"><ele>75.6</ele><time>2026-04-19T10:04:47Z</time></trkpt><trkpt lat="46.04971612287292" lon="12.91147722927913"><ele>75.8</ele><time>2026-04-19T10:04:48Z</time></trkpt><trkpt lat="46.049805768062576" lon="12.911468945710944"><ele>76.0</ele><time>2026-04-19T10:04:49Z</time></trkpt><trkpt lat="46.049925571048405" lon="12.911459743431049"><ele>76.0</ele><time>2026-04-19T10:04:50Z</time></trkpt><trkpt lat="46.050031535578874" lon="12.911477611263944"><ele>76.0</ele><time>2026-04-19T10:04:51Z</time></trkpt><trkpt lat="46.050121960938384" lon="12.911488134622166"><ele>76.0</ele><time>2026-04-19T10:04:52Z</time></trkpt><trkpt lat="46.05022961045472" lon="12.911526220906246"><ele>76.0</ele><time>2026-04-19T10:04:53Z</time></trkpt><trkpt lat="46.05034491722315" lon="12.911565927347985"><ele>76.0</ele><time>2026-04-19T10:04:54Z</time></trkpt><trkpt lat="46.050459632146705" lon="12.911621957222467"><ele>76.0</ele><time>2026-04-19T10:04:55Z</time></trkpt><trkpt lat="46.05057807790649" lon="12.911681850786415"><ele>76.0</ele><time>2026-04-19T10:04:56Z</time></trkpt><trkpt lat="46.050682240756814" lon="12.91173432314076"><ele>76.0</ele><time>2026-04-19T10:04:57Z</time></trkpt><trkpt lat="46.050779317846" lon="12.911785487605586"><ele>76.0</ele><time>2026-04-19T10:04:58Z</time></trkpt><trkpt lat="46.05088102979296" lon="12.911832355771425"><ele>76.0</ele><time>2026-04-19T10:04:59Z</time></trkpt><trkpt lat="46.050987178093415" lon="12.911899391672868"><ele>76.2</ele><time>2026-04-19T10:05:00Z</time></trkpt><trkpt lat="46.05106931547362" lon="12.911965360079936"><ele>76.39999999999999</ele><time>2026-04-19T10:05:01Z</time></trkpt><trkpt lat="46.051169917237154" lon="12.912025093556746"><ele>76.6</ele><time>2026-04-19T10:05:02Z</time></trkpt><trkpt lat="46.051247895961446" lon="12.912087016005778"><ele>76.8</ele><time>2026-04-19T10:05:03Z</time></trkpt><trkpt lat="46.051350212505554" lon="12.91217032589426"><ele>77.0</ele><time>2026-04-19T10:05:04Z</time></trkpt><trkpt lat="46.05145146801481" lon="12.912251566174882"><ele>77.0</ele><time>2026-04-19T10:05:05Z</time></trkpt><trkpt lat="46.05154953826817" lon="12.912320422485934"><ele>77.0</ele><time>2026-04-19T10:05:06Z</time></trkpt><trkpt lat="46.05164112363447" lon="12.912379584774001"><ele>77.0</ele><time>2026-04-19T10:05:07Z</time></trkpt><trkpt lat="46.051750838334165" lon="12.912407097549721"><ele>77.0</ele><time>2026-04-19T10:05:08Z</time></trkpt><trkpt lat="46.051854940395444" lon="12.912435645526152"><ele>77.0</ele><time>2026-04-19T10:05:09Z</time></trkpt><trkpt lat="46.051940494970935" lon="12.912458162344457"><ele>77.2</ele><time>2026-04-19T10:05:10Z</time></trkpt><trkpt lat="46.052022641666305" lon="12.912451707061688"><ele>77.4</ele><time>2026-04-19T10:05:11Z</time></trkpt><trkpt lat="46.05212100664718" lon="12.912467285146692"><ele>77.6</ele><time>2026-04-19T10:05:12Z</time></trkpt><trkpt lat="46.05222660259877" lon="12.91248365240124"><ele>77.8</ele><time>2026-04-19T10:05:13Z</time></trkpt><trkpt lat="46.05231968358499" lon="12.91250608068624"><ele>78.0</ele><time>2026-04-19T10:05:14Z</time></trkpt><trkpt lat="46.052399726368854" lon="12.912536427401717"><ele>78.0</ele><time>2026-04-19T10:05:15Z</time></trkpt><trkpt lat="46.05249016858633" lon="12.912577761318774"><ele>78.0</ele><time>2026-04-19T10:05:16Z</time></trkpt><trkpt lat="46.052577860438745" lon="12.91262367058507"><ele>78.0</ele><time>2026-04-19T10:05:17Z</time></trkpt><trkpt lat="46.052683104805546" lon="12.912681765393064"><ele>78.0</ele><time>2026-04-19T10:05:18Z</time></trkpt><trkpt lat="46.05279306864938" lon="12.912754141003074"><ele>78.0</ele><time>2026-04-19T10:05:19Z</time></trkpt><trkpt lat="46.05290598763612" lon="12.912841439567305"><ele>78.0</ele><time>2026-04-19T10:05:20Z</time></trkpt><trkpt lat="46.05300796110098" lon="12.9129163988499"><ele>78.0</ele><time>2026-04-19T10:05:21Z</time></trkpt><trkpt lat="46.053110588659365" lon="12.91296338392008"><ele>78.0</ele><time>2026-04-19T10:05:22Z</time></trkpt><trkpt lat="46.05319852772016" lon="12.9130076385466"><ele>78.0</ele><time>2026-04-19T10:05:23Z</time></trkpt><trkpt lat="46.05329555575847" lon="12.913052161478126"><ele>78.0</ele><time>2026-04-19T10:05:24Z</time></trkpt><trkpt lat="46.05338679134057" lon="12.91308772283644"><ele>77.75</ele><time>2026-04-19T10:05:25Z</time></trkpt><trkpt lat="46.05350921652546" lon="12.913128009179632"><ele>77.5</ele><time>2026-04-19T10:05:26Z</time></trkpt><trkpt lat="46.05365742777871" lon="12.913163816712716"><ele>77.25</ele><time>2026-04-19T10:05:27Z</time></trkpt><trkpt lat="46.05379966956571" lon="12.913173792236776"><ele>77.0</ele><time>2026-04-19T10:05:28Z</time></trkpt><trkpt lat="46.0539193710565" lon="12.913198582737325"><ele>77.0</ele><time>2026-04-19T10:05:29Z</time></trkpt><trkpt lat="46.054028554803764" lon="12.913233418612181"><ele>77.0</ele><time>2026-04-19T10:05:30Z</time></trkpt><trkpt lat="46.05411860018567" lon="12.913254033301"><ele>77.0</ele><time>2026-04-19T10:05:31Z</time></trkpt><trkpt lat="46.05423553665912" lon="12.913279234135228"><ele>77.0</ele><time>2026-04-19T10:05:32Z</time></trkpt><trkpt lat="46.054349236767344" lon="12.913326372589847"><ele>77.0</ele><time>2026-04-19T10:05:33Z</time></trkpt><trkpt lat="46.05447075685008" lon="12.9133689411302"><ele>77.0</ele><time>2026-04-19T10:05:34Z</time></trkpt><trkpt lat="46.054573574749156" lon="12.913407857538855"><ele>77.0</ele><time>2026-04-19T10:05:35Z</time></trkpt><trkpt lat="46.054686022542775" lon="12.91344935599762"><ele>77.0</ele><time>2026-04-19T10:05:36Z</time></trkpt><trkpt lat="46.05479294295462" lon="12.9134896426837"><ele>77.0</ele><time>2026-04-19T10:05:37Z</time></trkpt><trkpt lat="46.054884734343666" lon="12.913528226855007"><ele>77.0</ele><time>2026-04-19T10:05:38Z</time></trkpt><trkpt lat="46.05497002098055" lon="12.913570256218575"><ele>77.2</ele><time>2026-04-19T10:05:39Z</time></trkpt><trkpt lat="46.055047090250305" lon="12.9136030271618"><ele>77.4</ele><time>2026-04-19T10:05:40Z</time></trkpt><trkpt lat="46.05511359276554" lon="12.913643040894883"><ele>77.6</ele><time>2026-04-19T10:05:41Z</time></trkpt><trkpt lat="46.055195182550406" lon="12.91365938559664"><ele>77.8</ele><time>2026-04-19T10:05:42Z</time></trkpt><trkpt lat="46.05531434214601" lon="12.91362629422566"><ele>78.0</ele><time>2026-04-19T10:05:44Z</time></trkpt><trkpt lat="46.055407345586346" lon="12.913573600544115"><ele>78.0</ele><time>2026-04-19T10:05:46Z</time></trkpt><trkpt lat="46.05547441940189" lon="12.913565533857957"><ele>78.0</ele><time>2026-04-19T10:05:48Z</time></trkpt><trkpt lat="46.05555479324347" lon="12.913559264804633"><ele>78.0</ele><time>2026-04-19T10:05:51Z</time></trkpt><trkpt lat="46.05563383454052" lon="12.91357816343945"><ele>78.0</ele><time>2026-04-19T10:05:53Z</time></trkpt><trkpt lat="46.05570299390887" lon="12.913607738355498"><ele>78.0</ele><time>2026-04-19T10:05:54Z</time></trkpt><trkpt lat="46.05579428093171" lon="12.913663495057587"><ele>78.0</ele><time>2026-04-19T10:05:56Z</time></trkpt><trkpt lat="46.05587495022954" lon="12.913700938117083"><ele>77.8</ele><time>2026-04-19T10:05:58Z</time></trkpt><trkpt lat="46.05597775396893" lon="12.913754585917012"><ele>77.6</ele><time>2026-04-19T10:06:00Z</time></trkpt><trkpt lat="46.05610911126782" lon="12.9137760818758"><ele>77.4</ele><time>2026-04-19T10:06:02Z</time></trkpt><trkpt lat="46.0561919894719" lon="12.913797483693003"><ele>77.2</ele><time>2026-04-19T10:06:03Z</time></trkpt><trkpt lat="46.056297538848916" lon="12.913871836140872"><ele>77.0</ele><time>2026-04-19T10:06:05Z</time></trkpt><trkpt lat="46.056370083533245" lon="12.913937147583326"><ele>77.0</ele><time>2026-04-19T10:06:07Z</time></trkpt><trkpt lat="46.05644912599687" lon="12.913962105528695"><ele>77.0</ele><time>2026-04-19T10:06:09Z</time></trkpt><trkpt lat="46.0565226279187" lon="12.913976463325511"><ele>77.0</ele><time>2026-04-19T10:06:10Z</time></trkpt><trkpt lat="46.056665338481956" lon="12.914000101422495"><ele>77.0</ele><time>2026-04-19T10:06:12Z</time></trkpt><trkpt lat="46.056750016600375" lon="12.914025651661278"><ele>77.0</ele><time>2026-04-19T10:06:13Z</time></trkpt><trkpt lat="46.056861659874926" lon="12.914037632911816"><ele>77.0</ele><time>2026-04-19T10:06:14Z</time></trkpt><trkpt lat="46.05697158789957" lon="12.914053976308706"><ele>77.0</ele><time>2026-04-19T10:06:15Z</time></trkpt><trkpt lat="46.057056782728075" lon="12.914065869284991"><ele>77.0</ele><time>2026-04-19T10:06:16Z</time></trkpt><trkpt lat="46.057154716848295" lon="12.914087425613209"><ele>77.0</ele><time>2026-04-19T10:06:17Z</time></trkpt><trkpt lat="46.05726148309034" lon="12.914094190015017"><ele>77.0</ele><time>2026-04-19T10:06:18Z</time></trkpt><trkpt lat="46.057363495743935" lon="12.9140951213839"><ele>77.4</ele><time>2026-04-19T10:06:19Z</time></trkpt><trkpt lat="46.05746244234937" lon="12.914078506771427"><ele>77.80000000000001</ele><time>2026-04-19T10:06:20Z</time></trkpt><trkpt lat="46.05758795970137" lon="12.914084904438775"><ele>78.2</ele><time>2026-04-19T10:06:21Z</time></trkpt><trkpt lat="46.0576846582318" lon="12.91410694006906"><ele>78.60000000000001</ele><time>2026-04-19T10:06:22Z</time></trkpt><trkpt lat="46.057804106659376" lon="12.914112002278884"><ele>79.0</ele><time>2026-04-19T10:06:23Z</time></trkpt><trkpt lat="46.05792939487577" lon="12.914098633332657"><ele>79.0</ele><time>2026-04-19T10:06:24Z</time></trkpt><trkpt lat="46.05803830523459" lon="12.914094487451225"><ele>79.0</ele><time>2026-04-19T10:06:25Z</time></trkpt><trkpt lat="46.05812930186406" lon="12.914097445194454"><ele>79.0</ele><time>2026-04-19T10:06:26Z</time></trkpt><trkpt lat="46.05820266150815" lon="12.914090312191364"><ele>79.0</ele><time>2026-04-19T10:06:27Z</time></trkpt><trkpt lat="46.05829054732569" lon="12.914100980051142"><ele>79.0</ele><time>2026-04-19T10:06:28Z</time></trkpt><trkpt lat="46.05838079665455" lon="12.914122566308723"><ele>79.2</ele><time>2026-04-19T10:06:29Z</time></trkpt><trkpt lat="46.05846945067795" lon="12.914123456273241"><ele>79.4</ele><time>2026-04-19T10:06:30Z</time></trkpt><trkpt lat="46.05856294931756" lon="12.914140185128606"><ele>79.6</ele><time>2026-04-19T10:06:31Z</time></trkpt><trkpt lat="46.05866058201172" lon="12.914172302467314"><ele>79.8</ele><time>2026-04-19T10:06:32Z</time></trkpt><trkpt lat="46.058745676995784" lon="12.914196779317905"><ele>80.0</ele><time>2026-04-19T10:06:33Z</time></trkpt><trkpt lat="46.05883361376347" lon="12.914212113658152"><ele>80.0</ele><time>2026-04-19T10:06:34Z</time></trkpt><trkpt lat="46.05892944294883" lon="12.914222725866063"><ele>80.0</ele><time>2026-04-19T10:06:35Z</time></trkpt><trkpt lat="46.0590120767572" lon="12.914252582434116"><ele>80.0</ele><time>2026-04-19T10:06:36Z</time></trkpt><trkpt lat="46.05909037212871" lon="12.914303233261725"><ele>80.0</ele><time>2026-04-19T10:06:37Z</time></trkpt><trkpt lat="46.059167745607944" lon="12.914359239676271"><ele>80.0</ele><time>2026-04-19T10:06:38Z</time></trkpt><trkpt lat="46.05925309279942" lon="12.914413463212142"><ele>80.0</ele><time>2026-04-19T10:06:39Z</time></trkpt><trkpt lat="46.05935984513905" lon="12.914456567270202"><ele>79.8</ele><time>2026-04-19T10:06:40Z</time></trkpt><trkpt lat="46.05947688910145" lon="12.914490915432905"><ele>79.6</ele><time>2026-04-19T10:06:41Z</time></trkpt><trkpt lat="46.0595831479267" lon="12.914483307440998"><ele>79.4</ele><time>2026-04-19T10:06:42Z</time></trkpt><trkpt lat="46.05967944933656" lon="12.914482105961651"><ele>79.2</ele><time>2026-04-19T10:06:43Z</time></trkpt><trkpt lat="46.059774034216154" lon="12.914467893107222"><ele>79.0</ele><time>2026-04-19T10:06:44Z</time></trkpt><trkpt lat="46.05987930295939" lon="12.914474124272973"><ele>79.16666666666666</ele><time>2026-04-19T10:06:45Z</time></trkpt><trkpt lat="46.05997557537093" lon="12.914465134485292"><ele>79.33333333333333</ele><time>2026-04-19T10:06:46Z</time></trkpt><trkpt lat="46.06007270149848" lon="12.914459194718267"><ele>79.5</ele><time>2026-04-19T10:06:47Z</time></trkpt><trkpt lat="46.06015737139908" lon="12.914484119209035"><ele>79.66666666666667</ele><time>2026-04-19T10:06:48Z</time></trkpt><trkpt lat="46.060229866751015" lon="12.914511111010416"><ele>79.83333333333334</ele><time>2026-04-19T10:06:49Z</time></trkpt><trkpt lat="46.060318012431075" lon="12.914536740582006"><ele>80.0</ele><time>2026-04-19T10:06:50Z</time></trkpt><trkpt lat="46.060398913458094" lon="12.914606217674292"><ele>80.0</ele><time>2026-04-19T10:06:51Z</time></trkpt><trkpt lat="46.06048775360817" lon="12.91469506341604"><ele>80.0</ele><time>2026-04-19T10:06:52Z</time></trkpt><trkpt lat="46.06057300928804" lon="12.914789761039698"><ele>80.0</ele><time>2026-04-19T10:06:53Z</time></trkpt><trkpt lat="46.06067185789022" lon="12.914876740167896"><ele>80.0</ele><time>2026-04-19T10:06:54Z</time></trkpt><trkpt lat="46.06074303084224" lon="12.914946825983415"><ele>80.0</ele><time>2026-04-19T10:06:55Z</time></trkpt><trkpt lat="46.06081472007648" lon="12.915020846331572"><ele>80.0</ele><time>2026-04-19T10:06:56Z</time></trkpt><trkpt lat="46.060886279127836" lon="12.915111528915263"><ele>80.0</ele><time>2026-04-19T10:06:57Z</time></trkpt><trkpt lat="46.06095013150296" lon="12.915203539074847"><ele>80.0</ele><time>2026-04-19T10:06:58Z</time></trkpt><trkpt lat="46.061012893273094" lon="12.915292928408032"><ele>80.0</ele><time>2026-04-19T10:06:59Z</time></trkpt><trkpt lat="46.061073851408" lon="12.915362042855305"><ele>80.0</ele><time>2026-04-19T10:07:00Z</time></trkpt><trkpt lat="46.06113425335924" lon="12.91543616519513"><ele>80.0</ele><time>2026-04-19T10:07:01Z</time></trkpt><trkpt lat="46.06118699937535" lon="12.915504721348814"><ele>80.0</ele><time>2026-04-19T10:07:02Z</time></trkpt><trkpt lat="46.06129379863099" lon="12.91560098989626"><ele>80.0</ele><time>2026-04-19T10:07:04Z</time></trkpt><trkpt lat="46.06138095113352" lon="12.915659735652092"><ele>80.0</ele><time>2026-04-19T10:07:05Z</time></trkpt><trkpt lat="46.06147093168922" lon="12.9157436517375"><ele>80.0</ele><time>2026-04-19T10:07:06Z</time></trkpt><trkpt lat="46.061552315195144" lon="12.91582022592827"><ele>80.0</ele><time>2026-04-19T10:07:07Z</time></trkpt><trkpt lat="46.06161960718961" lon="12.915880677480462"><ele>80.4</ele><time>2026-04-19T10:07:08Z</time></trkpt><trkpt lat="46.061677564811944" lon="12.91594609264269"><ele>80.8</ele><time>2026-04-19T10:07:09Z</time></trkpt><trkpt lat="46.06176224049914" lon="12.915992251800377"><ele>81.19999999999999</ele><time>2026-04-19T10:07:10Z</time></trkpt><trkpt lat="46.061872368527" lon="12.916059500768592"><ele>81.6</ele><time>2026-04-19T10:07:11Z</time></trkpt><trkpt lat="46.061983180776295" lon="12.91613479615851"><ele>82.0</ele><time>2026-04-19T10:07:12Z</time></trkpt><trkpt lat="46.0620827719584" lon="12.91621246081523"><ele>82.0</ele><time>2026-04-19T10:07:13Z</time></trkpt><trkpt lat="46.06217342319937" lon="12.916286382206364"><ele>82.0</ele><time>2026-04-19T10:07:14Z</time></trkpt><trkpt lat="46.06227800776626" lon="12.916359992676094"><ele>82.0</ele><time>2026-04-19T10:07:15Z</time></trkpt><trkpt lat="46.06238901329397" lon="12.916425615522883"><ele>82.0</ele><time>2026-04-19T10:07:16Z</time></trkpt><trkpt lat="46.062499597958734" lon="12.916494788897257"><ele>82.0</ele><time>2026-04-19T10:07:17Z</time></trkpt><trkpt lat="46.06260596835127" lon="12.91656465895194"><ele>82.0</ele><time>2026-04-19T10:07:18Z</time></trkpt><trkpt lat="46.062691861158854" lon="12.916642668797945"><ele>82.0</ele><time>2026-04-19T10:07:19Z</time></trkpt><trkpt lat="46.06277070609941" lon="12.916718925570056"><ele>82.0</ele><time>2026-04-19T10:07:20Z</time></trkpt><trkpt lat="46.06284941208745" lon="12.916785926927522"><ele>82.0</ele><time>2026-04-19T10:07:21Z</time></trkpt><trkpt lat="46.062933781475515" lon="12.916855580247402"><ele>82.0</ele><time>2026-04-19T10:07:22Z</time></trkpt><trkpt lat="46.06303026113803" lon="12.916904244760856"><ele>82.0</ele><time>2026-04-19T10:07:23Z</time></trkpt><trkpt lat="46.06314376618469" lon="12.916930589806535"><ele>82.0</ele><time>2026-04-19T10:07:24Z</time></trkpt><trkpt lat="46.06322961016605" lon="12.916951726191614"><ele>82.0</ele><time>2026-04-19T10:07:25Z</time></trkpt><trkpt lat="46.06329259385253" lon="12.916992506490045"><ele>82.0</ele><time>2026-04-19T10:07:26Z</time></trkpt><trkpt lat="46.06336408159113" lon="12.917032931127533"><ele>82.0</ele><time>2026-04-19T10:07:27Z</time></trkpt><trkpt lat="46.06344035076491" lon="12.917072487609538"><ele>82.0</ele><time>2026-04-19T10:07:28Z</time></trkpt><trkpt lat="46.06351751001327" lon="12.917090627050214"><ele>82.0</ele><time>2026-04-19T10:07:29Z</time></trkpt><trkpt lat="46.06363697140001" lon="12.91711960696416"><ele>82.0</ele><time>2026-04-19T10:07:30Z</time></trkpt><trkpt lat="46.06376620877337" lon="12.917155665490458"><ele>82.0</ele><time>2026-04-19T10:07:31Z</time></trkpt><trkpt lat="46.063876783635806" lon="12.917163835166845"><ele>82.0</ele><time>2026-04-19T10:07:32Z</time></trkpt><trkpt lat="46.06398896325363" lon="12.917214290378293"><ele>82.0</ele><time>2026-04-19T10:07:33Z</time></trkpt><trkpt lat="46.0640988757406" lon="12.917278816190468"><ele>82.0</ele><time>2026-04-19T10:07:34Z</time></trkpt><trkpt lat="46.0641823790831" lon="12.917339756603191"><ele>82.0</ele><time>2026-04-19T10:07:35Z</time></trkpt><trkpt lat="46.064294691181644" lon="12.917398249278017"><ele>82.0</ele><time>2026-04-19T10:07:36Z</time></trkpt><trkpt lat="46.06440712460029" lon="12.917454050899043"><ele>81.75</ele><time>2026-04-19T10:07:37Z</time></trkpt><trkpt lat="46.06452826754567" lon="12.917498691097018"><ele>81.5</ele><time>2026-04-19T10:07:38Z</time></trkpt><trkpt lat="46.064633538743486" lon="12.917541741944497"><ele>81.25</ele><time>2026-04-19T10:07:39Z</time></trkpt><trkpt lat="46.06473770000078" lon="12.917580093220348"><ele>81.0</ele><time>2026-04-19T10:07:40Z</time></trkpt><trkpt lat="46.064860447643575" lon="12.91762388369826"><ele>81.4</ele><time>2026-04-19T10:07:41Z</time></trkpt><trkpt lat="46.064965286376705" lon="12.917644103123138"><ele>81.8</ele><time>2026-04-19T10:07:42Z</time></trkpt><trkpt lat="46.06506988630094" lon="12.917692111462877"><ele>82.2</ele><time>2026-04-19T10:07:43Z</time></trkpt><trkpt lat="46.065170903948164" lon="12.91773240702507"><ele>82.60000000000001</ele><time>2026-04-19T10:07:44Z</time></trkpt><trkpt lat="46.065287980902895" lon="12.91777977785791"><ele>83.0</ele><time>2026-04-19T10:07:45Z</time></trkpt><trkpt lat="46.06539059589017" lon="12.917824546265383"><ele>83.0</ele><time>2026-04-19T10:07:46Z</time></trkpt><trkpt lat="46.065514800166554" lon="12.917868974121664"><ele>83.0</ele><time>2026-04-19T10:07:47Z</time></trkpt><trkpt lat="46.06559493108782" lon="12.917919360430716"><ele>83.0</ele><time>2026-04-19T10:07:48Z</time></trkpt><trkpt lat="46.06566524682153" lon="12.917953835019755"><ele>83.0</ele><time>2026-04-19T10:07:49Z</time></trkpt><trkpt lat="46.065750751205485" lon="12.917989461648705"><ele>83.0</ele><time>2026-04-19T10:07:50Z</time></trkpt><trkpt lat="46.065840591540315" lon="12.918067419275479"><ele>83.0</ele><time>2026-04-19T10:07:51Z</time></trkpt><trkpt lat="46.06590688534375" lon="12.918130220828036"><ele>83.0</ele><time>2026-04-19T10:07:52Z</time></trkpt><trkpt lat="46.06596027566507" lon="12.918200725560302"><ele>83.0</ele><time>2026-04-19T10:07:53Z</time></trkpt><trkpt lat="46.06605837261312" lon="12.918283785333669"><ele>83.0</ele><time>2026-04-19T10:07:54Z</time></trkpt><trkpt lat="46.066144577305835" lon="12.91834180986196"><ele>83.0</ele><time>2026-04-19T10:07:55Z</time></trkpt><trkpt lat="46.06622908565517" lon="12.918388050310304"><ele>83.0</ele><time>2026-04-19T10:07:56Z</time></trkpt><trkpt lat="46.06632138748635" lon="12.918440261564644"><ele>83.0</ele><time>2026-04-19T10:07:57Z</time></trkpt><trkpt lat="46.06641917233331" lon="12.918499814626747"><ele>83.0</ele><time>2026-04-19T10:07:58Z</time></trkpt><trkpt lat="46.066532889299815" lon="12.918580254362407"><ele>83.0</ele><time>2026-04-19T10:07:59Z</time></trkpt><trkpt lat="46.06666239487227" lon="12.918639120960606"><ele>82.80000000000001</ele><time>2026-04-19T10:08:00Z</time></trkpt><trkpt lat="46.06673362836755" lon="12.918698128275663"><ele>82.6</ele><time>2026-04-19T10:08:01Z</time></trkpt><trkpt lat="46.06681259250836" lon="12.918774638579526"><ele>82.4</ele><time>2026-04-19T10:08:02Z</time></trkpt><trkpt lat="46.06686922448745" lon="12.91884363931006"><ele>82.19999999999999</ele><time>2026-04-19T10:08:03Z</time></trkpt><trkpt lat="46.066981996736985" lon="12.918900537447236"><ele>82.0</ele><time>2026-04-19T10:08:04Z</time></trkpt><trkpt lat="46.06710639957904" lon="12.918977657953882"><ele>82.0</ele><time>2026-04-19T10:08:05Z</time></trkpt><trkpt lat="46.06721015403172" lon="12.919051834051087"><ele>82.0</ele><time>2026-04-19T10:08:06Z</time></trkpt><trkpt lat="46.067305992435166" lon="12.919114380734932"><ele>82.0</ele><time>2026-04-19T10:08:07Z</time></trkpt><trkpt lat="46.067372556292064" lon="12.919163826730223"><ele>82.0</ele><time>2026-04-19T10:08:08Z</time></trkpt><trkpt lat="46.067445800711205" lon="12.919188711229594"><ele>82.0</ele><time>2026-04-19T10:08:09Z</time></trkpt><trkpt lat="46.06754071910392" lon="12.91922315903917"><ele>82.39999999999999</ele><time>2026-04-19T10:08:10Z</time></trkpt><trkpt lat="46.06762855190968" lon="12.91926083191203"><ele>82.8</ele><time>2026-04-19T10:08:11Z</time></trkpt><trkpt lat="46.06774246327041" lon="12.919295794792886"><ele>83.2</ele><time>2026-04-19T10:08:12Z</time></trkpt><trkpt lat="46.06783308148073" lon="12.91935037712319"><ele>83.6</ele><time>2026-04-19T10:08:13Z</time></trkpt><trkpt lat="46.067935313866855" lon="12.919408534260006"><ele>84.0</ele><time>2026-04-19T10:08:14Z</time></trkpt><trkpt lat="46.06803400315053" lon="12.919486136281874"><ele>84.0</ele><time>2026-04-19T10:08:15Z</time></trkpt><trkpt lat="46.068120257231165" lon="12.919576178572655"><ele>84.0</ele><time>2026-04-19T10:08:16Z</time></trkpt><trkpt lat="46.06821011602968" lon="12.91970476065584"><ele>84.0</ele><time>2026-04-19T10:08:17Z</time></trkpt><trkpt lat="46.06829409904101" lon="12.9198291002504"><ele>84.0</ele><time>2026-04-19T10:08:18Z</time></trkpt><trkpt lat="46.06837855535234" lon="12.919934485059434"><ele>84.0</ele><time>2026-04-19T10:08:19Z</time></trkpt><trkpt lat="46.06842282230451" lon="12.920009459961891"><ele>84.0</ele><time>2026-04-19T10:08:20Z</time></trkpt><trkpt lat="46.06849318523717" lon="12.920085345461592"><ele>84.0</ele><time>2026-04-19T10:08:21Z</time></trkpt><trkpt lat="46.06857422516995" lon="12.920136637605957"><ele>84.0</ele><time>2026-04-19T10:08:22Z</time></trkpt><trkpt lat="46.068679465886994" lon="12.92021517266976"><ele>84.0</ele><time>2026-04-19T10:08:23Z</time></trkpt><trkpt lat="46.06877933284606" lon="12.92026947150873"><ele>84.0</ele><time>2026-04-19T10:08:24Z</time></trkpt><trkpt lat="46.068880948192366" lon="12.920318358318506"><ele>84.0</ele><time>2026-04-19T10:08:25Z</time></trkpt><trkpt lat="46.0689959898101" lon="12.920377288679587"><ele>84.0</ele><time>2026-04-19T10:08:26Z</time></trkpt><trkpt lat="46.06910881940712" lon="12.920444347972667"><ele>84.0</ele><time>2026-04-19T10:08:27Z</time></trkpt><trkpt lat="46.06921797405083" lon="12.920488131294112"><ele>84.33333333333333</ele><time>2026-04-19T10:08:28Z</time></trkpt><trkpt lat="46.06930161659006" lon="12.920518354429156"><ele>84.66666666666667</ele><time>2026-04-19T10:08:29Z</time></trkpt><trkpt lat="46.06937533545419" lon="12.92054302051373"><ele>85.0</ele><time>2026-04-19T10:08:30Z</time></trkpt><trkpt lat="46.069476026003265" lon="12.920570363331882"><ele>85.33333333333334</ele><time>2026-04-19T10:08:31Z</time></trkpt><trkpt lat="46.0695801125041" lon="12.920592798481565"><ele>85.66666666666667</ele><time>2026-04-19T10:08:32Z</time></trkpt><trkpt lat="46.069648654896824" lon="12.920593571922987"><ele>86.0</ele><time>2026-04-19T10:08:33Z</time></trkpt><trkpt lat="46.069711818456334" lon="12.920575582861918"><ele>86.0</ele><time>2026-04-19T10:08:34Z</time></trkpt><trkpt lat="46.06981106632065" lon="12.920601222283967"><ele>86.0</ele><time>2026-04-19T10:08:35Z</time></trkpt><trkpt lat="46.069924707047996" lon="12.920642016579645"><ele>86.0</ele><time>2026-04-19T10:08:36Z</time></trkpt><trkpt lat="46.07005484264597" lon="12.920671665906621"><ele>86.0</ele><time>2026-04-19T10:08:37Z</time></trkpt><trkpt lat="46.07017365536106" lon="12.920697520539681"><ele>85.8</ele><time>2026-04-19T10:08:38Z</time></trkpt><trkpt lat="46.070282520048956" lon="12.920717205670115"><ele>85.6</ele><time>2026-04-19T10:08:39Z</time></trkpt><trkpt lat="46.070382633929626" lon="12.9207435094262"><ele>85.4</ele><time>2026-04-19T10:08:40Z</time></trkpt><trkpt lat="46.070472740827846" lon="12.920799144787667"><ele>85.2</ele><time>2026-04-19T10:08:41Z</time></trkpt><trkpt lat="46.07057024525854" lon="12.920834442855492"><ele>85.0</ele><time>2026-04-19T10:08:42Z</time></trkpt><trkpt lat="46.0706568164647" lon="12.920889465312344"><ele>85.0</ele><time>2026-04-19T10:08:43Z</time></trkpt><trkpt lat="46.07073786052012" lon="12.920926596726332"><ele>85.0</ele><time>2026-04-19T10:08:44Z</time></trkpt><trkpt lat="46.07081268892196" lon="12.920962159504903"><ele>85.0</ele><time>2026-04-19T10:08:45Z</time></trkpt><trkpt lat="46.07087569533273" lon="12.921008953162127"><ele>85.0</ele><time>2026-04-19T10:08:46Z</time></trkpt><trkpt lat="46.070998478087795" lon="12.9210632258458"><ele>85.0</ele><time>2026-04-19T10:08:48Z</time></trkpt><trkpt lat="46.0710672293119" lon="12.92109530437716"><ele>85.0</ele><time>2026-04-19T10:08:49Z</time></trkpt><trkpt lat="46.07113537438349" lon="12.921127395907307"><ele>84.83333333333333</ele><time>2026-04-19T10:08:50Z</time></trkpt><trkpt lat="46.071221025953534" lon="12.921176076326308"><ele>84.66666666666666</ele><time>2026-04-19T10:08:51Z</time></trkpt><trkpt lat="46.0713032648544" lon="12.921227513560552"><ele>84.5</ele><time>2026-04-19T10:08:52Z</time></trkpt><trkpt lat="46.07137247472696" lon="12.92126654821537"><ele>84.33333333333333</ele><time>2026-04-19T10:08:53Z</time></trkpt><trkpt lat="46.071440066281276" lon="12.921281795685307"><ele>84.16666666666667</ele><time>2026-04-19T10:08:54Z</time></trkpt><trkpt lat="46.07150660355005" lon="12.921303947089687"><ele>84.0</ele><time>2026-04-19T10:08:55Z</time></trkpt><trkpt lat="46.071594454692345" lon="12.921330645198296"><ele>84.25</ele><time>2026-04-19T10:08:56Z</time></trkpt><trkpt lat="46.07169987824473" lon="12.921365229613713"><ele>84.5</ele><time>2026-04-19T10:08:57Z</time></trkpt><trkpt lat="46.07182452350894" lon="12.921401279591045"><ele>84.75</ele><time>2026-04-19T10:08:58Z</time></trkpt><trkpt lat="46.071942133217384" lon="12.921417681146982"><ele>85.0</ele><time>2026-04-19T10:08:59Z</time></trkpt><trkpt lat="46.07205636926185" lon="12.92144110775227"><ele>85.0</ele><time>2026-04-19T10:09:00Z</time></trkpt><trkpt lat="46.072137256707975" lon="12.921474240303391"><ele>85.0</ele><time>2026-04-19T10:09:01Z</time></trkpt><trkpt lat="46.07221048654245" lon="12.921501653277465"><ele>85.0</ele><time>2026-04-19T10:09:02Z</time></trkpt><trkpt lat="46.07228734432207" lon="12.921551124790838"><ele>85.0</ele><time>2026-04-19T10:09:03Z</time></trkpt><trkpt lat="46.07237531649309" lon="12.92160214900886"><ele>85.0</ele><time>2026-04-19T10:09:04Z</time></trkpt><trkpt lat="46.072449314601705" lon="12.92165385755338"><ele>85.0</ele><time>2026-04-19T10:09:05Z</time></trkpt><trkpt lat="46.07252620991907" lon="12.921703150377928"><ele>85.0</ele><time>2026-04-19T10:09:06Z</time></trkpt><trkpt lat="46.07263959242771" lon="12.921741735676326"><ele>85.0</ele><time>2026-04-19T10:09:07Z</time></trkpt><trkpt lat="46.072760516820395" lon="12.921757463526207"><ele>85.0</ele><time>2026-04-19T10:09:08Z</time></trkpt><trkpt lat="46.072876013715245" lon="12.921783776455873"><ele>85.0</ele><time>2026-04-19T10:09:09Z</time></trkpt><trkpt lat="46.073000814741995" lon="12.92182814609644"><ele>85.0</ele><time>2026-04-19T10:09:10Z</time></trkpt><trkpt lat="46.07311372742865" lon="12.921865160146586"><ele>85.0</ele><time>2026-04-19T10:09:11Z</time></trkpt><trkpt lat="46.07321678638536" lon="12.921907980193776"><ele>85.0</ele><time>2026-04-19T10:09:12Z</time></trkpt><trkpt lat="46.073314571464415" lon="12.921929198723602"><ele>85.0</ele><time>2026-04-19T10:09:13Z</time></trkpt><trkpt lat="46.07340477697164" lon="12.921940843283659"><ele>85.0</ele><time>2026-04-19T10:09:14Z</time></trkpt><trkpt lat="46.073502940130524" lon="12.921946326980574"><ele>85.2</ele><time>2026-04-19T10:09:15Z</time></trkpt><trkpt lat="46.07360527847772" lon="12.921957328711441"><ele>85.4</ele><time>2026-04-19T10:09:16Z</time></trkpt><trkpt lat="46.07369958625228" lon="12.92197848237647"><ele>85.6</ele><time>2026-04-19T10:09:17Z</time></trkpt><trkpt lat="46.07377996201612" lon="12.922023023719504"><ele>85.8</ele><time>2026-04-19T10:09:18Z</time></trkpt><trkpt lat="46.07385336660169" lon="12.922087698294826"><ele>86.0</ele><time>2026-04-19T10:09:19Z</time></trkpt><trkpt lat="46.07392214289616" lon="12.922160738073815"><ele>86.0</ele><time>2026-04-19T10:09:20Z</time></trkpt><trkpt lat="46.07398435451437" lon="12.92222660714763"><ele>86.0</ele><time>2026-04-19T10:09:21Z</time></trkpt><trkpt lat="46.07405867338191" lon="12.922293234522739"><ele>86.0</ele><time>2026-04-19T10:09:22Z</time></trkpt><trkpt lat="46.07413335097319" lon="12.922344534698357"><ele>86.0</ele><time>2026-04-19T10:09:23Z</time></trkpt><trkpt lat="46.074226572254354" lon="12.92238999584489"><ele>86.0</ele><time>2026-04-19T10:09:24Z</time></trkpt><trkpt lat="46.07432763813553" lon="12.922452314130169"><ele>86.0</ele><time>2026-04-19T10:09:25Z</time></trkpt><trkpt lat="46.07444113613994" lon="12.922527734370378"><ele>86.0</ele><time>2026-04-19T10:09:26Z</time></trkpt><trkpt lat="46.074540760184675" lon="12.922591685100535"><ele>86.0</ele><time>2026-04-19T10:09:27Z</time></trkpt><trkpt lat="46.07462245187402" lon="12.922642979878104"><ele>86.0</ele><time>2026-04-19T10:09:28Z</time></trkpt><trkpt lat="46.07470798627747" lon="12.922709815044962"><ele>86.0</ele><time>2026-04-19T10:09:29Z</time></trkpt><trkpt lat="46.074804826087856" lon="12.922769821668483"><ele>86.0</ele><time>2026-04-19T10:09:30Z</time></trkpt><trkpt lat="46.07489819352806" lon="12.922829353920893"><ele>86.0</ele><time>2026-04-19T10:09:31Z</time></trkpt><trkpt lat="46.07498159540251" lon="12.922905122596426"><ele>86.0</ele><time>2026-04-19T10:09:32Z</time></trkpt><trkpt lat="46.075057632028404" lon="12.922989548197629"><ele>86.0</ele><time>2026-04-19T10:09:33Z</time></trkpt><trkpt lat="46.07514132411347" lon="12.923091186316325"><ele>86.0</ele><time>2026-04-19T10:09:34Z</time></trkpt><trkpt lat="46.07522897669199" lon="12.923191237832787"><ele>86.0</ele><time>2026-04-19T10:09:35Z</time></trkpt><trkpt lat="46.07531343713364" lon="12.923273834702927"><ele>86.0</ele><time>2026-04-19T10:09:36Z</time></trkpt><trkpt lat="46.075394677926546" lon="12.923330132219583"><ele>86.0</ele><time>2026-04-19T10:09:37Z</time></trkpt><trkpt lat="46.07548948553154" lon="12.923385315155162"><ele>86.0</ele><time>2026-04-19T10:09:38Z</time></trkpt><trkpt lat="46.07557046133277" lon="12.923451118239406"><ele>86.0</ele><time>2026-04-19T10:09:39Z</time></trkpt><trkpt lat="46.075675320477465" lon="12.923531794283845"><ele>86.19999999999999</ele><time>2026-04-19T10:09:40Z</time></trkpt><trkpt lat="46.07575500039054" lon="12.923589393141581"><ele>86.39999999999999</ele><time>2026-04-19T10:09:41Z</time></trkpt><trkpt lat="46.075851676495056" lon="12.92365034392425"><ele>86.6</ele><time>2026-04-19T10:09:42Z</time></trkpt><trkpt lat="46.07594977650435" lon="12.923687207667829"><ele>86.8</ele><time>2026-04-19T10:09:43Z</time></trkpt><trkpt lat="46.0760315745978" lon="12.923723619341649"><ele>87.0</ele><time>2026-04-19T10:09:44Z</time></trkpt><trkpt lat="46.07611802476827" lon="12.923741349699268"><ele>87.0</ele><time>2026-04-19T10:09:45Z</time></trkpt><trkpt lat="46.07623193404418" lon="12.92385309297742"><ele>87.0</ele><time>2026-04-19T10:09:47Z</time></trkpt><trkpt lat="46.07629215439138" lon="12.923932182457756"><ele>87.0</ele><time>2026-04-19T10:09:48Z</time></trkpt><trkpt lat="46.07637999681699" lon="12.924016465367933"><ele>87.0</ele><time>2026-04-19T10:09:49Z</time></trkpt><trkpt lat="46.07647736233028" lon="12.924063344158613"><ele>87.0</ele><time>2026-04-19T10:09:50Z</time></trkpt><trkpt lat="46.07660220139081" lon="12.924153395910706"><ele>87.0</ele><time>2026-04-19T10:09:51Z</time></trkpt><trkpt lat="46.07670234987158" lon="12.924202281670924"><ele>87.0</ele><time>2026-04-19T10:09:52Z</time></trkpt><trkpt lat="46.07685490588642" lon="12.924203231310369"><ele>87.0</ele><time>2026-04-19T10:09:53Z</time></trkpt><trkpt lat="46.07698424807894" lon="12.924219293127782"><ele>87.0</ele><time>2026-04-19T10:09:54Z</time></trkpt><trkpt lat="46.077098566033825" lon="12.924233961546774"><ele>87.0</ele><time>2026-04-19T10:09:55Z</time></trkpt><trkpt lat="46.07719879858186" lon="12.924266590359837"><ele>87.0</ele><time>2026-04-19T10:09:56Z</time></trkpt><trkpt lat="46.07729667349126" lon="12.924314032532013"><ele>87.0</ele><time>2026-04-19T10:09:57Z</time></trkpt><trkpt lat="46.077395313819125" lon="12.924375800970807"><ele>87.0</ele><time>2026-04-19T10:09:58Z</time></trkpt><trkpt lat="46.07750487428609" lon="12.924466979783507"><ele>87.0</ele><time>2026-04-19T10:09:59Z</time></trkpt><trkpt lat="46.07759657824192" lon="12.92453012268823"><ele>87.0</ele><time>2026-04-19T10:10:00Z</time></trkpt><trkpt lat="46.077715058836255" lon="12.924590910765362"><ele>87.0</ele><time>2026-04-19T10:10:01Z</time></trkpt><trkpt lat="46.07780013172755" lon="12.924636257852224"><ele>87.0</ele><time>2026-04-19T10:10:02Z</time></trkpt><trkpt lat="46.07787690553337" lon="12.924715205430903"><ele>87.0</ele><time>2026-04-19T10:10:03Z</time></trkpt><trkpt lat="46.077972058306486" lon="12.924791347946716"><ele>87.0</ele><time>2026-04-19T10:10:04Z</time></trkpt><trkpt lat="46.0780358561715" lon="12.924836766548694"><ele>87.0</ele><time>2026-04-19T10:10:05Z</time></trkpt><trkpt lat="46.07811627125196" lon="12.924902308303652"><ele>87.0</ele><time>2026-04-19T10:10:06Z</time></trkpt><trkpt lat="46.07818589473683" lon="12.92495739594227"><ele>87.0</ele><time>2026-04-19T10:10:07Z</time></trkpt><trkpt lat="46.07829556663433" lon="12.925008202622738"><ele>87.0</ele><time>2026-04-19T10:10:09Z</time></trkpt><trkpt lat="46.078495486825055" lon="12.92491130238772"><ele>87.19999999999999</ele><time>2026-04-19T10:10:16Z</time></trkpt><trkpt lat="46.07848110180126" lon="12.924777765514104"><ele>87.4</ele><time>2026-04-19T10:10:19Z</time></trkpt><trkpt lat="46.07848135842301" lon="12.924570362423491"><ele>87.6</ele><time>2026-04-19T10:10:21Z</time></trkpt><trkpt lat="46.07844143540001" lon="12.924430385115656"><ele>87.80000000000001</ele><time>2026-04-19T10:10:23Z</time></trkpt><trkpt lat="46.07840256516579" lon="12.92431033017683"><ele>88.0</ele><time>2026-04-19T10:10:25Z</time></trkpt><trkpt lat="46.07839580489667" lon="12.924212950193898"><ele>88.0</ele><time>2026-04-19T10:10:28Z</time></trkpt><trkpt lat="46.07844415484508" lon="12.924128628775785"><ele>88.0</ele><time>2026-04-19T10:10:32Z</time></trkpt><trkpt lat="46.07847056663825" lon="12.92422266251154"><ele>88.0</ele><time>2026-04-19T10:10:37Z</time></trkpt><trkpt lat="46.07855749620854" lon="12.92424533695391"><ele>88.0</ele><time>2026-04-19T10:10:42Z</time></trkpt><trkpt lat="46.07845017078407" lon="12.924256899289029"><ele>88.0</ele><time>2026-04-19T10:11:11Z</time></trkpt><trkpt lat="46.0783878926505" lon="12.92428616225117"><ele>88.0</ele><time>2026-04-19T10:11:13Z</time></trkpt><trkpt lat="46.078355513157454" lon="12.924400796721091"><ele>88.0</ele><time>2026-04-19T10:11:15Z</time></trkpt><trkpt lat="46.07835049162301" lon="12.924499147070241"><ele>88.0</ele><time>2026-04-19T10:11:16Z</time></trkpt><trkpt lat="46.07836470294731" lon="12.924606993445272"><ele>88.0</ele><time>2026-04-19T10:11:17Z</time></trkpt><trkpt lat="46.07837516123413" lon="12.924750068245856"><ele>88.0</ele><time>2026-04-19T10:11:19Z</time></trkpt><trkpt lat="46.07833779454128" lon="12.924865158157465"><ele>88.0</ele><time>2026-04-19T10:11:21Z</time></trkpt><trkpt lat="46.078343236486475" lon="12.92502775744664"><ele>88.0</ele><time>2026-04-19T10:11:23Z</time></trkpt><trkpt lat="46.07836819486004" lon="12.925113328747758"><ele>88.0</ele><time>2026-04-19T10:11:24Z</time></trkpt><trkpt lat="46.07839944387483" lon="12.925193463571706"><ele>88.0</ele><time>2026-04-19T10:11:25Z</time></trkpt><trkpt lat="46.07843374595823" lon="12.925311702666143"><ele>88.0</ele><time>2026-04-19T10:11:26Z</time></trkpt><trkpt lat="46.07847427042053" lon="12.925426762684983"><ele>88.0</ele><time>2026-04-19T10:11:27Z</time></trkpt><trkpt lat="46.07850701041611" lon="12.925515725947196"><ele>88.0</ele><time>2026-04-19T10:11:28Z</time></trkpt><trkpt lat="46.07856220352194" lon="12.925650428585238"><ele>88.0</ele><time>2026-04-19T10:11:30Z</time></trkpt><trkpt lat="46.078609999480484" lon="12.925713961183535"><ele>88.0</ele><time>2026-04-19T10:11:32Z</time></trkpt><trkpt lat="46.07867032372402" lon="12.925792751071414"><ele>88.0</ele><time>2026-04-19T10:11:35Z</time></trkpt><trkpt lat="46.07871799776839" lon="12.925929686819584"><ele>88.0</ele><time>2026-04-19T10:11:38Z</time></trkpt><trkpt lat="46.078715091831796" lon="12.926034218082439"><ele>88.0</ele><time>2026-04-19T10:11:41Z</time></trkpt><trkpt lat="46.07871498341666" lon="12.926137277860605"><ele>88.0</ele><time>2026-04-19T10:11:43Z</time></trkpt><trkpt lat="46.078715863784005" lon="12.926252244102223"><ele>88.0</ele><time>2026-04-19T10:11:45Z</time></trkpt><trkpt lat="46.07875870993868" lon="12.92638182204725"><ele>88.0</ele><time>2026-04-19T10:11:47Z</time></trkpt><trkpt lat="46.07883270401438" lon="12.926491326174915"><ele>88.0</ele><time>2026-04-19T10:11:48Z</time></trkpt><trkpt lat="46.07891910606816" lon="12.926580715348331"><ele>88.0</ele><time>2026-04-19T10:11:49Z</time></trkpt><trkpt lat="46.07900625139945" lon="12.926651494089015"><ele>88.0</ele><time>2026-04-19T10:11:50Z</time></trkpt><trkpt lat="46.079095797878644" lon="12.926719778386454"><ele>88.0</ele><time>2026-04-19T10:11:51Z</time></trkpt><trkpt lat="46.079199452908625" lon="12.926777972530388"><ele>88.28571428571429</ele><time>2026-04-19T10:11:52Z</time></trkpt><trkpt lat="46.0792755113603" lon="12.92680888421268"><ele>88.57142857142857</ele><time>2026-04-19T10:11:53Z</time></trkpt><trkpt lat="46.07934526713645" lon="12.92684401210439"><ele>88.85714285714286</ele><time>2026-04-19T10:11:54Z</time></trkpt><trkpt lat="46.07941243480076" lon="12.926881298728171"><ele>89.14285714285714</ele><time>2026-04-19T10:11:55Z</time></trkpt><trkpt lat="46.079470203138875" lon="12.926931283680238"><ele>89.42857142857143</ele><time>2026-04-19T10:11:56Z</time></trkpt><trkpt lat="46.0795235636765" lon="12.926984121936815"><ele>89.71428571428571</ele><time>2026-04-19T10:11:57Z</time></trkpt><trkpt lat="46.07959348160272" lon="12.927032933501602"><ele>90.0</ele><time>2026-04-19T10:11:58Z</time></trkpt><trkpt lat="46.079705645932755" lon="12.927070848915488"><ele>90.0</ele><time>2026-04-19T10:12:00Z</time></trkpt><trkpt lat="46.07979279854609" lon="12.927086415984888"><ele>90.0</ele><time>2026-04-19T10:12:02Z</time></trkpt><trkpt lat="46.07989019735631" lon="12.927130610859585"><ele>90.0</ele><time>2026-04-19T10:12:04Z</time></trkpt><trkpt lat="46.07994840776991" lon="12.927167810791847"><ele>90.0</ele><time>2026-04-19T10:12:05Z</time></trkpt><trkpt lat="46.0800072823411" lon="12.927221034962754"><ele>90.0</ele><time>2026-04-19T10:12:06Z</time></trkpt><trkpt lat="46.08007941559786" lon="12.927303566821479"><ele>90.0</ele><time>2026-04-19T10:12:07Z</time></trkpt><trkpt lat="46.080158692779364" lon="12.92738057107087"><ele>89.83333333333333</ele><time>2026-04-19T10:12:08Z</time></trkpt><trkpt lat="46.08022966936852" lon="12.927440749750197"><ele>89.66666666666667</ele><time>2026-04-19T10:12:09Z</time></trkpt><trkpt lat="46.080291851750374" lon="12.927482476304428"><ele>89.5</ele><time>2026-04-19T10:12:10Z</time></trkpt><trkpt lat="46.08035478321905" lon="12.927518860235454"><ele>89.33333333333334</ele><time>2026-04-19T10:12:11Z</time></trkpt><trkpt lat="46.08042453818933" lon="12.927555411307731"><ele>89.16666666666667</ele><time>2026-04-19T10:12:12Z</time></trkpt><trkpt lat="46.08049747603432" lon="12.927591456287894"><ele>89.0</ele><time>2026-04-19T10:12:13Z</time></trkpt><trkpt lat="46.080573766239276" lon="12.927637383967546"><ele>89.16666666666667</ele><time>2026-04-19T10:12:14Z</time></trkpt><trkpt lat="46.08065998674907" lon="12.927682471391257"><ele>89.33333333333334</ele><time>2026-04-19T10:12:15Z</time></trkpt><trkpt lat="46.08075538086884" lon="12.92773391710387"><ele>89.5</ele><time>2026-04-19T10:12:16Z</time></trkpt><trkpt lat="46.080826278521585" lon="12.927777932726734"><ele>89.66666666666667</ele><time>2026-04-19T10:12:17Z</time></trkpt><trkpt lat="46.0808918261873" lon="12.927824703839807"><ele>89.83333333333333</ele><time>2026-04-19T10:12:18Z</time></trkpt><trkpt lat="46.08094946247653" lon="12.927879628221818"><ele>90.0</ele><time>2026-04-19T10:12:19Z</time></trkpt><trkpt lat="46.08103998779196" lon="12.927985587370916"><ele>90.0</ele><time>2026-04-19T10:12:21Z</time></trkpt><trkpt lat="46.081087904821004" lon="12.928067006953805"><ele>90.0</ele><time>2026-04-19T10:12:22Z</time></trkpt><trkpt lat="46.08112461060612" lon="12.928148625932689"><ele>90.0</ele><time>2026-04-19T10:12:23Z</time></trkpt><trkpt lat="46.081169285660145" lon="12.928253897112745"><ele>90.0</ele><time>2026-04-19T10:12:25Z</time></trkpt><trkpt lat="46.08120566296798" lon="12.928335888481291"><ele>90.0</ele><time>2026-04-19T10:12:27Z</time></trkpt><trkpt lat="46.08126147642244" lon="12.928400056143701"><ele>93.0</ele><time>2026-04-19T10:12:29Z</time></trkpt></trkseg><trkseg><trkpt lat="46.07786822841176" lon="12.924056133183822"><ele>88.0</ele><time>2026-04-19T10:23:14Z</time></trkpt><trkpt lat="46.07795359723254" lon="12.924085171925869"><ele>88.0</ele><time>2026-04-19T10:23:16Z</time></trkpt><trkpt lat="46.07788053803052" lon="12.924072817042175"><ele>88.0</ele><time>2026-04-19T10:24:06Z</time></trkpt><trkpt lat="46.077818750958" lon="12.924030994620928"><ele>88.0</ele><time>2026-04-19T10:24:07Z</time></trkpt><trkpt lat="46.077745409349994" lon="12.923985446721677"><ele>88.0</ele><time>2026-04-19T10:24:08Z</time></trkpt><trkpt lat="46.077644714585254" lon="12.923922307692548"><ele>88.0</ele><time>2026-04-19T10:24:09Z</time></trkpt><trkpt lat="46.077565371069916" lon="12.923860908706354"><ele>88.0</ele><time>2026-04-19T10:24:10Z</time></trkpt><trkpt lat="46.077486044099295" lon="12.923797623023077"><ele>88.0</ele><time>2026-04-19T10:24:11Z</time></trkpt><trkpt lat="46.07739581923011" lon="12.92373551932522"><ele>88.0</ele><time>2026-04-19T10:24:12Z</time></trkpt><trkpt lat="46.07729546601378" lon="12.923681467920233"><ele>88.0</ele><time>2026-04-19T10:24:13Z</time></trkpt><trkpt lat="46.07720580976419" lon="12.9236387832881"><ele>88.0</ele><time>2026-04-19T10:24:14Z</time></trkpt><trkpt lat="46.077127541477864" lon="12.923587921418243"><ele>87.83333333333333</ele><time>2026-04-19T10:24:15Z</time></trkpt><trkpt lat="46.077058812582585" lon="12.923529441400234"><ele>87.66666666666666</ele><time>2026-04-19T10:24:16Z</time></trkpt><trkpt lat="46.07699096449999" lon="12.923471274320494"><ele>87.5</ele><time>2026-04-19T10:24:17Z</time></trkpt><trkpt lat="46.07692283947714" lon="12.923410559558683"><ele>87.33333333333333</ele><time>2026-04-19T10:24:18Z</time></trkpt><trkpt lat="46.07685867671247" lon="12.923341105143393"><ele>87.16666666666667</ele><time>2026-04-19T10:24:19Z</time></trkpt><trkpt lat="46.07678340939144" lon="12.923260595872526"><ele>87.0</ele><time>2026-04-19T10:24:20Z</time></trkpt><trkpt lat="46.07669809947284" lon="12.923182117202083"><ele>86.8</ele><time>2026-04-19T10:24:21Z</time></trkpt><trkpt lat="46.07659110165943" lon="12.92310311681527"><ele>86.6</ele><time>2026-04-19T10:24:22Z</time></trkpt><trkpt lat="46.076504746968524" lon="12.923035845493741"><ele>86.39999999999999</ele><time>2026-04-19T10:24:23Z</time></trkpt><trkpt lat="46.07641103625314" lon="12.922978949812135"><ele>86.19999999999999</ele><time>2026-04-19T10:24:24Z</time></trkpt><trkpt lat="46.07630136461683" lon="12.922902332471365"><ele>86.0</ele><time>2026-04-19T10:24:25Z</time></trkpt><trkpt lat="46.0762048839169" lon="12.922831791227178"><ele>86.0</ele><time>2026-04-19T10:24:26Z</time></trkpt><trkpt lat="46.0761033000081" lon="12.922765964245874"><ele>86.0</ele><time>2026-04-19T10:24:27Z</time></trkpt><trkpt lat="46.07600231093542" lon="12.922708022686882"><ele>86.0</ele><time>2026-04-19T10:24:28Z</time></trkpt><trkpt lat="46.075911763737544" lon="12.922652698295138"><ele>86.0</ele><time>2026-04-19T10:24:29Z</time></trkpt><trkpt lat="46.075815333891846" lon="12.922584580364225"><ele>86.0</ele><time>2026-04-19T10:24:30Z</time></trkpt><trkpt lat="46.07572024817317" lon="12.92252359814405"><ele>86.0</ele><time>2026-04-19T10:24:31Z</time></trkpt><trkpt lat="46.07563261753418" lon="12.922465053878293"><ele>86.0</ele><time>2026-04-19T10:24:32Z</time></trkpt><trkpt lat="46.07554321703509" lon="12.92240356882033"><ele>86.0</ele><time>2026-04-19T10:24:33Z</time></trkpt><trkpt lat="46.075443311202626" lon="12.922352131144121"><ele>86.0</ele><time>2026-04-19T10:24:34Z</time></trkpt><trkpt lat="46.07533721069299" lon="12.92229635013226"><ele>86.0</ele><time>2026-04-19T10:24:35Z</time></trkpt><trkpt lat="46.07521905775676" lon="12.92222717773604"><ele>86.0</ele><time>2026-04-19T10:24:36Z</time></trkpt><trkpt lat="46.075102525445374" lon="12.922154464864445"><ele>86.0</ele><time>2026-04-19T10:24:37Z</time></trkpt><trkpt lat="46.07500362625022" lon="12.922096478564614"><ele>86.0</ele><time>2026-04-19T10:24:38Z</time></trkpt><trkpt lat="46.074908527920044" lon="12.9220592570056"><ele>86.0</ele><time>2026-04-19T10:24:39Z</time></trkpt><trkpt lat="46.07480232544195" lon="12.922027091816027"><ele>86.0</ele><time>2026-04-19T10:24:40.001Z</time></trkpt><trkpt lat="46.07470177846042" lon="12.92198046223759"><ele>86.0</ele><time>2026-04-19T10:24:41.001Z</time></trkpt><trkpt lat="46.07460946967695" lon="12.921932659502879"><ele>86.0</ele><time>2026-04-19T10:24:42.001Z</time></trkpt><trkpt lat="46.07451990495968" lon="12.921887156752314"><ele>86.0</ele><time>2026-04-19T10:24:43.001Z</time></trkpt><trkpt lat="46.07443549057924" lon="12.921821686336095"><ele>86.0</ele><time>2026-04-19T10:24:44.001Z</time></trkpt><trkpt lat="46.07433578465505" lon="12.92174751670259"><ele>86.0</ele><time>2026-04-19T10:24:45.001Z</time></trkpt><trkpt lat="46.074239880276885" lon="12.921687321828498"><ele>86.0</ele><time>2026-04-19T10:24:46.001Z</time></trkpt><trkpt lat="46.0741591476755" lon="12.92165260664735"><ele>86.0</ele><time>2026-04-19T10:24:47.001Z</time></trkpt><trkpt lat="46.074062049316474" lon="12.921615175845448"><ele>86.0</ele><time>2026-04-19T10:24:48.001Z</time></trkpt><trkpt lat="46.073970791185474" lon="12.921545646935062"><ele>86.0</ele><time>2026-04-19T10:24:49.001Z</time></trkpt><trkpt lat="46.07386463917653" lon="12.921471934490233"><ele>86.0</ele><time>2026-04-19T10:24:50.001Z</time></trkpt><trkpt lat="46.0737592896788" lon="12.921417739596487"><ele>86.0</ele><time>2026-04-19T10:24:51.001Z</time></trkpt><trkpt lat="46.073648342257826" lon="12.921362668553035"><ele>86.0</ele><time>2026-04-19T10:24:52.001Z</time></trkpt><trkpt lat="46.073535240611186" lon="12.921309609593289"><ele>86.0</ele><time>2026-04-19T10:24:53.001Z</time></trkpt><trkpt lat="46.0734392467306" lon="12.921254447140287"><ele>86.0</ele><time>2026-04-19T10:24:54.001Z</time></trkpt><trkpt lat="46.07334355530665" lon="12.921202299130984"><ele>86.0</ele><time>2026-04-19T10:24:55.001Z</time></trkpt><trkpt lat="46.07325580913032" lon="12.9211440990909"><ele>85.8</ele><time>2026-04-19T10:24:56.001Z</time></trkpt><trkpt lat="46.073163923906776" lon="12.921081449462756"><ele>85.6</ele><time>2026-04-19T10:24:57.001Z</time></trkpt><trkpt lat="46.073063737590886" lon="12.921025957100172"><ele>85.4</ele><time>2026-04-19T10:24:58.001Z</time></trkpt><trkpt lat="46.07296127645854" lon="12.920958547067547"><ele>85.2</ele><time>2026-04-19T10:24:59.001Z</time></trkpt><trkpt lat="46.07286223144249" lon="12.920880954189943"><ele>85.0</ele><time>2026-04-19T10:25:00.001Z</time></trkpt><trkpt lat="46.07277111157805" lon="12.920818719819152"><ele>85.0</ele><time>2026-04-19T10:25:01.001Z</time></trkpt><trkpt lat="46.07267564293651" lon="12.920772334219174"><ele>85.0</ele><time>2026-04-19T10:25:02.001Z</time></trkpt><trkpt lat="46.07258594463801" lon="12.920715209028973"><ele>85.0</ele><time>2026-04-19T10:25:03.001Z</time></trkpt><trkpt lat="46.072491761648806" lon="12.920648840515124"><ele>85.0</ele><time>2026-04-19T10:25:04.001Z</time></trkpt><trkpt lat="46.07239749425381" lon="12.920574461394203"><ele>85.0</ele><time>2026-04-19T10:25:05.001Z</time></trkpt><trkpt lat="46.07231218113941" lon="12.920499416772255"><ele>84.8</ele><time>2026-04-19T10:25:06.001Z</time></trkpt><trkpt lat="46.07222999405091" lon="12.920413939460879"><ele>84.6</ele><time>2026-04-19T10:25:07.001Z</time></trkpt><trkpt lat="46.072140039395514" lon="12.9203377876577"><ele>84.4</ele><time>2026-04-19T10:25:08.001Z</time></trkpt><trkpt lat="46.07205085315663" lon="12.920263364590928"><ele>84.2</ele><time>2026-04-19T10:25:09.001Z</time></trkpt><trkpt lat="46.07196617461745" lon="12.920182339056362"><ele>84.0</ele><time>2026-04-19T10:25:10.001Z</time></trkpt><trkpt lat="46.07188079009599" lon="12.920107436914472"><ele>83.83333333333333</ele><time>2026-04-19T10:25:11.001Z</time></trkpt><trkpt lat="46.071805885123446" lon="12.920051460132123"><ele>83.66666666666667</ele><time>2026-04-19T10:25:12.001Z</time></trkpt><trkpt lat="46.07172908491021" lon="12.919993952744019"><ele>83.5</ele><time>2026-04-19T10:25:13.001Z</time></trkpt><trkpt lat="46.071665736165514" lon="12.919937575365742"><ele>83.33333333333334</ele><time>2026-04-19T10:25:14.001Z</time></trkpt><trkpt lat="46.071604797276386" lon="12.919863685268288"><ele>83.16666666666667</ele><time>2026-04-19T10:25:15.001Z</time></trkpt><trkpt lat="46.071537688680635" lon="12.919794070235438"><ele>83.0</ele><time>2026-04-19T10:25:16.001Z</time></trkpt><trkpt lat="46.07146882338917" lon="12.91972552169538"><ele>83.33333333333334</ele><time>2026-04-19T10:25:17.001Z</time></trkpt><trkpt lat="46.071411190838745" lon="12.919651589521532"><ele>83.66666666666667</ele><time>2026-04-19T10:25:18.001Z</time></trkpt><trkpt lat="46.07133509139705" lon="12.919590167179075"><ele>84.0</ele><time>2026-04-19T10:25:19.001Z</time></trkpt><trkpt lat="46.07127240977264" lon="12.919541370205788"><ele>84.33333333333333</ele><time>2026-04-19T10:25:20.001Z</time></trkpt><trkpt lat="46.07121357312524" lon="12.919495706582447"><ele>84.66666666666666</ele><time>2026-04-19T10:25:21.001Z</time></trkpt><trkpt lat="46.071146467551664" lon="12.919461682874406"><ele>85.0</ele><time>2026-04-19T10:25:22.001Z</time></trkpt><trkpt lat="46.071064738690964" lon="12.919451153667486"><ele>85.0</ele><time>2026-04-19T10:25:23.001Z</time></trkpt><trkpt lat="46.07096843273372" lon="12.919445371278378"><ele>85.0</ele><time>2026-04-19T10:25:24.001Z</time></trkpt><trkpt lat="46.07087572708824" lon="12.919458108932098"><ele>85.0</ele><time>2026-04-19T10:25:25.001Z</time></trkpt><trkpt lat="46.070784764353334" lon="12.919474169601436"><ele>85.0</ele><time>2026-04-19T10:25:26Z</time></trkpt><trkpt lat="46.070709955210546" lon="12.919500155209553"><ele>85.0</ele><time>2026-04-19T10:25:27Z</time></trkpt><trkpt lat="46.070645158568325" lon="12.919531324200245"><ele>85.0</ele><time>2026-04-19T10:25:28Z</time></trkpt><trkpt lat="46.07059701415918" lon="12.919605652925108"><ele>85.0</ele><time>2026-04-19T10:25:32Z</time></trkpt><trkpt lat="46.07064572704173" lon="12.919690595852686"><ele>85.0</ele><time>2026-04-19T10:25:35Z</time></trkpt><trkpt lat="46.07068484209985" lon="12.91976255016765"><ele>85.0</ele><time>2026-04-19T10:25:36Z</time></trkpt><trkpt lat="46.07071460272113" lon="12.919848697167618"><ele>85.0</ele><time>2026-04-19T10:25:37Z</time></trkpt><trkpt lat="46.070738516134504" lon="12.919940024000045"><ele>85.0</ele><time>2026-04-19T10:25:38Z</time></trkpt><trkpt lat="46.07075161261015" lon="12.920058826644516"><ele>85.0</ele><time>2026-04-19T10:25:40Z</time></trkpt><trkpt lat="46.07070913674608" lon="12.920147884037139"><ele>85.0</ele><time>2026-04-19T10:25:42Z</time></trkpt><trkpt lat="46.07058273035499" lon="12.920197014266321"><ele>85.0</ele><time>2026-04-19T10:25:44Z</time></trkpt><trkpt lat="46.07051324828275" lon="12.920208369988863"><ele>85.0</ele><time>2026-04-19T10:25:45Z</time></trkpt><trkpt lat="46.070443820463986" lon="12.920219729276994"><ele>85.0</ele><time>2026-04-19T10:25:46Z</time></trkpt><trkpt lat="46.07037513342509" lon="12.920221910924319"><ele>85.0</ele><time>2026-04-19T10:25:47Z</time></trkpt><trkpt lat="46.070252699044175" lon="12.920189612721767"><ele>85.0</ele><time>2026-04-19T10:25:49Z</time></trkpt><trkpt lat="46.0701652291874" lon="12.920148077594641"><ele>85.0</ele><time>2026-04-19T10:25:50Z</time></trkpt><trkpt lat="46.07006603213625" lon="12.920109830250704"><ele>85.0</ele><time>2026-04-19T10:25:51Z</time></trkpt><trkpt lat="46.06995770379719" lon="12.920078549295814"><ele>85.0</ele><time>2026-04-19T10:25:52Z</time></trkpt><trkpt lat="46.06987027336428" lon="12.920051539514835"><ele>85.0</ele><time>2026-04-19T10:25:53Z</time></trkpt><trkpt lat="46.069785437666674" lon="12.920028583130627"><ele>85.0</ele><time>2026-04-19T10:25:54Z</time></trkpt><trkpt lat="46.06970844792366" lon="12.92000689036214"><ele>85.0</ele><time>2026-04-19T10:25:55Z</time></trkpt><trkpt lat="46.06963782585568" lon="12.91999667836818"><ele>85.0</ele><time>2026-04-19T10:25:56Z</time></trkpt><trkpt lat="46.06957301992695" lon="12.919994488754911"><ele>85.0</ele><time>2026-04-19T10:25:57Z</time></trkpt><trkpt lat="46.069453884300216" lon="12.920007831769267"><ele>85.0</ele><time>2026-04-19T10:25:59Z</time></trkpt><trkpt lat="46.0693707298041" lon="12.919983181716615"><ele>85.0</ele><time>2026-04-19T10:26:00Z</time></trkpt><trkpt lat="46.069274006172414" lon="12.919932919958637"><ele>85.0</ele><time>2026-04-19T10:26:01Z</time></trkpt><trkpt lat="46.069166123858544" lon="12.919877482965187"><ele>85.0</ele><time>2026-04-19T10:26:02Z</time></trkpt><trkpt lat="46.069070579609146" lon="12.91982475367643"><ele>85.0</ele><time>2026-04-19T10:26:03Z</time></trkpt><trkpt lat="46.0689903766723" lon="12.919777099994755"><ele>85.0</ele><time>2026-04-19T10:26:04Z</time></trkpt><trkpt lat="46.06892003341134" lon="12.919734326927202"><ele>85.0</ele><time>2026-04-19T10:26:05Z</time></trkpt><trkpt lat="46.06886236273971" lon="12.919689435868381"><ele>85.0</ele><time>2026-04-19T10:26:06Z</time></trkpt><trkpt lat="46.06880911123708" lon="12.919638714025885"><ele>85.0</ele><time>2026-04-19T10:26:07Z</time></trkpt><trkpt lat="46.0687089801847" lon="12.919523449862176"><ele>85.0</ele><time>2026-04-19T10:26:09Z</time></trkpt><trkpt lat="46.06863236255486" lon="12.919451198993778"><ele>85.0</ele><time>2026-04-19T10:26:10Z</time></trkpt><trkpt lat="46.06854872053571" lon="12.919357712411893"><ele>85.0</ele><time>2026-04-19T10:26:11Z</time></trkpt><trkpt lat="46.06845933662721" lon="12.919255835085657"><ele>85.0</ele><time>2026-04-19T10:26:12Z</time></trkpt><trkpt lat="46.068363363563485" lon="12.919163378914844"><ele>85.0</ele><time>2026-04-19T10:26:13Z</time></trkpt><trkpt lat="46.068264591202286" lon="12.919082953271994"><ele>85.0</ele><time>2026-04-19T10:26:14Z</time></trkpt><trkpt lat="46.068172354020575" lon="12.919002431906959"><ele>84.4</ele><time>2026-04-19T10:26:15Z</time></trkpt><trkpt lat="46.06809114198899" lon="12.9189357090457"><ele>83.8</ele><time>2026-04-19T10:26:16Z</time></trkpt><trkpt lat="46.06800399274135" lon="12.91887918741865"><ele>83.19999999999999</ele><time>2026-04-19T10:26:17Z</time></trkpt><trkpt lat="46.06790990797777" lon="12.918814276190455"><ele>82.6</ele><time>2026-04-19T10:26:18Z</time></trkpt><trkpt lat="46.06782039353819" lon="12.918738784901308"><ele>82.0</ele><time>2026-04-19T10:26:19Z</time></trkpt><trkpt lat="46.067727091664295" lon="12.918635903084226"><ele>82.0</ele><time>2026-04-19T10:26:20Z</time></trkpt><trkpt lat="46.06764508880089" lon="12.918544614242753"><ele>82.0</ele><time>2026-04-19T10:26:21Z</time></trkpt><trkpt lat="46.06756714627337" lon="12.918466166228654"><ele>82.0</ele><time>2026-04-19T10:26:22Z</time></trkpt><trkpt lat="46.06750066126438" lon="12.91839301126909"><ele>82.0</ele><time>2026-04-19T10:26:23Z</time></trkpt><trkpt lat="46.067427952312244" lon="12.918306691719545"><ele>82.0</ele><time>2026-04-19T10:26:24Z</time></trkpt><trkpt lat="46.067356423474635" lon="12.918204914033769"><ele>81.8</ele><time>2026-04-19T10:26:25Z</time></trkpt><trkpt lat="46.06726513168834" lon="12.918109109255138"><ele>81.6</ele><time>2026-04-19T10:26:26Z</time></trkpt><trkpt lat="46.06716605090347" lon="12.918018266755318"><ele>81.39999999999999</ele><time>2026-04-19T10:26:27Z</time></trkpt><trkpt lat="46.067078459327945" lon="12.91793060394701"><ele>81.19999999999999</ele><time>2026-04-19T10:26:28Z</time></trkpt><trkpt lat="46.06700073350711" lon="12.917852567456814"><ele>81.0</ele><time>2026-04-19T10:26:29Z</time></trkpt><trkpt lat="46.066935602445845" lon="12.91775849076395"><ele>81.0</ele><time>2026-04-19T10:26:30Z</time></trkpt><trkpt lat="46.066861182017675" lon="12.917654403133328"><ele>81.0</ele><time>2026-04-19T10:26:31Z</time></trkpt><trkpt lat="46.066785122787486" lon="12.917548874727634"><ele>81.0</ele><time>2026-04-19T10:26:32Z</time></trkpt><trkpt lat="46.06670874086508" lon="12.917451242671824"><ele>81.0</ele><time>2026-04-19T10:26:33Z</time></trkpt><trkpt lat="46.06664655651134" lon="12.917365739896589"><ele>81.0</ele><time>2026-04-19T10:26:34Z</time></trkpt><trkpt lat="46.066579049441735" lon="12.917278455020382"><ele>81.33333333333333</ele><time>2026-04-19T10:26:35Z</time></trkpt><trkpt lat="46.0665113649347" lon="12.917181454673482"><ele>81.66666666666667</ele><time>2026-04-19T10:26:36Z</time></trkpt><trkpt lat="46.06644693003251" lon="12.917069886807319"><ele>82.0</ele><time>2026-04-19T10:26:37Z</time></trkpt><trkpt lat="46.06638766452901" lon="12.916978940956827"><ele>82.33333333333334</ele><time>2026-04-19T10:26:38Z</time></trkpt><trkpt lat="46.066333304279645" lon="12.916904785141089"><ele>82.66666666666667</ele><time>2026-04-19T10:26:39Z</time></trkpt><trkpt lat="46.066277091680156" lon="12.916849353080845"><ele>83.0</ele><time>2026-04-19T10:26:40Z</time></trkpt><trkpt lat="46.066215516783835" lon="12.916797994005844"><ele>83.0</ele><time>2026-04-19T10:26:41.001Z</time></trkpt><trkpt lat="46.066126261422156" lon="12.916740256934599"><ele>83.0</ele><time>2026-04-19T10:26:42.001Z</time></trkpt><trkpt lat="46.066042610554355" lon="12.91666888075793"><ele>83.0</ele><time>2026-04-19T10:26:43.001Z</time></trkpt><trkpt lat="46.0659655667719" lon="12.916593645706616"><ele>83.0</ele><time>2026-04-19T10:26:44.001Z</time></trkpt><trkpt lat="46.06587055377889" lon="12.916511613298233"><ele>83.0</ele><time>2026-04-19T10:26:45.001Z</time></trkpt><trkpt lat="46.06577247529146" lon="12.916428194888654"><ele>83.0</ele><time>2026-04-19T10:26:46.001Z</time></trkpt><trkpt lat="46.06567156802641" lon="12.916341372252173"><ele>83.0</ele><time>2026-04-19T10:26:47.001Z</time></trkpt><trkpt lat="46.06558157365092" lon="12.916269903122464"><ele>83.0</ele><time>2026-04-19T10:26:48.001Z</time></trkpt><trkpt lat="46.065501677812144" lon="12.91620077237005"><ele>83.0</ele><time>2026-04-19T10:26:49.001Z</time></trkpt><trkpt lat="46.06542011465782" lon="12.916131529816905"><ele>83.0</ele><time>2026-04-19T10:26:50.001Z</time></trkpt><trkpt lat="46.06534218094154" lon="12.916060536715849"><ele>83.0</ele><time>2026-04-19T10:26:51.001Z</time></trkpt><trkpt lat="46.06525234497494" lon="12.915978940095037"><ele>83.0</ele><time>2026-04-19T10:26:52.001Z</time></trkpt><trkpt lat="46.06515698628986" lon="12.915878324403646"><ele>83.0</ele><time>2026-04-19T10:26:53.001Z</time></trkpt><trkpt lat="46.06506454065025" lon="12.915780631466493"><ele>83.0</ele><time>2026-04-19T10:26:54.001Z</time></trkpt><trkpt lat="46.064970693635026" lon="12.91570852964389"><ele>83.0</ele><time>2026-04-19T10:26:55.001Z</time></trkpt><trkpt lat="46.064882017016785" lon="12.915641927125357"><ele>83.0</ele><time>2026-04-19T10:26:56.001Z</time></trkpt><trkpt lat="46.0648028414153" lon="12.915554833954394"><ele>83.0</ele><time>2026-04-19T10:26:57.001Z</time></trkpt><trkpt lat="46.06472221714259" lon="12.915453837515702"><ele>83.0</ele><time>2026-04-19T10:26:58.001Z</time></trkpt><trkpt lat="46.06463602852645" lon="12.915365095545694"><ele>83.0</ele><time>2026-04-19T10:26:59.001Z</time></trkpt><trkpt lat="46.0645509416126" lon="12.915280851180372"><ele>83.0</ele><time>2026-04-19T10:27:00.001Z</time></trkpt><trkpt lat="46.06447457993963" lon="12.91518798498451"><ele>83.0</ele><time>2026-04-19T10:27:01.001Z</time></trkpt><trkpt lat="46.0643987828862" lon="12.915079239881956"><ele>83.0</ele><time>2026-04-19T10:27:02.001Z</time></trkpt><trkpt lat="46.064334396893486" lon="12.914995779374184"><ele>83.0</ele><time>2026-04-19T10:27:03.001Z</time></trkpt><trkpt lat="46.06425155044823" lon="12.91492528705289"><ele>83.0</ele><time>2026-04-19T10:27:04.001Z</time></trkpt><trkpt lat="46.064170889476365" lon="12.91484983938552"><ele>83.0</ele><time>2026-04-19T10:27:05.001Z</time></trkpt><trkpt lat="46.06409209463076" lon="12.91475997919444"><ele>82.5</ele><time>2026-04-19T10:27:06.001Z</time></trkpt><trkpt lat="46.06400565954144" lon="12.914676009267168"><ele>82.0</ele><time>2026-04-19T10:27:07.001Z</time></trkpt><trkpt lat="46.06390553524166" lon="12.914599226013877"><ele>81.5</ele><time>2026-04-19T10:27:08.001Z</time></trkpt><trkpt lat="46.06379767862579" lon="12.91452302409116"><ele>81.0</ele><time>2026-04-19T10:27:09.001Z</time></trkpt><trkpt lat="46.063691462486986" lon="12.914447463461315"><ele>81.0</ele><time>2026-04-19T10:27:10.001Z</time></trkpt><trkpt lat="46.06359757007748" lon="12.914384285387733"><ele>81.0</ele><time>2026-04-19T10:27:11.001Z</time></trkpt><trkpt lat="46.06350888079358" lon="12.914332565474687"><ele>81.0</ele><time>2026-04-19T10:27:12.001Z</time></trkpt><trkpt lat="46.06342044631191" lon="12.91429179858849"><ele>81.0</ele><time>2026-04-19T10:27:13.001Z</time></trkpt><trkpt lat="46.06334386157184" lon="12.914266220625942"><ele>81.0</ele><time>2026-04-19T10:27:14.001Z</time></trkpt><trkpt lat="46.063257681375354" lon="12.914247828349465"><ele>80.6</ele><time>2026-04-19T10:27:15.001Z</time></trkpt><trkpt lat="46.063165238907104" lon="12.914212472188217"><ele>80.19999999999999</ele><time>2026-04-19T10:27:16.001Z</time></trkpt><trkpt lat="46.063065100609215" lon="12.914161413324518"><ele>79.80000000000001</ele><time>2026-04-19T10:27:17.001Z</time></trkpt><trkpt lat="46.06295490531715" lon="12.914112468459686"><ele>79.4</ele><time>2026-04-19T10:27:18.001Z</time></trkpt><trkpt lat="46.06284827743204" lon="12.914072250939908"><ele>79.0</ele><time>2026-04-19T10:27:19.001Z</time></trkpt><trkpt lat="46.06275856890391" lon="12.91405009998332"><ele>79.0</ele><time>2026-04-19T10:27:20.001Z</time></trkpt><trkpt lat="46.06267040090606" lon="12.914042205627716"><ele>79.0</ele><time>2026-04-19T10:27:21.001Z</time></trkpt><trkpt lat="46.06257104691107" lon="12.91404188623196"><ele>79.0</ele><time>2026-04-19T10:27:22.001Z</time></trkpt><trkpt lat="46.062471602991295" lon="12.914035301652648"><ele>79.0</ele><time>2026-04-19T10:27:23.001Z</time></trkpt><trkpt lat="46.062390871686176" lon="12.914008894349227"><ele>79.0</ele><time>2026-04-19T10:27:24.001Z</time></trkpt><trkpt lat="46.0623030898554" lon="12.913966530898227"><ele>79.0</ele><time>2026-04-19T10:27:25.001Z</time></trkpt><trkpt lat="46.06220602056367" lon="12.913914076734862"><ele>79.0</ele><time>2026-04-19T10:27:26.001Z</time></trkpt><trkpt lat="46.062109611038224" lon="12.913857107329529"><ele>79.0</ele><time>2026-04-19T10:27:27.001Z</time></trkpt><trkpt lat="46.06201333629713" lon="12.913800156680493"><ele>79.0</ele><time>2026-04-19T10:27:28.001Z</time></trkpt><trkpt lat="46.061922231502365" lon="12.913752156379175"><ele>79.0</ele><time>2026-04-19T10:27:29.001Z</time></trkpt><trkpt lat="46.06182779103723" lon="12.91372475081006"><ele>79.0</ele><time>2026-04-19T10:27:30.001Z</time></trkpt><trkpt lat="46.06172929699743" lon="12.913720290741942"><ele>79.0</ele><time>2026-04-19T10:27:31.001Z</time></trkpt><trkpt lat="46.06162149014141" lon="12.913727214810473"><ele>79.0</ele><time>2026-04-19T10:27:32.001Z</time></trkpt><trkpt lat="46.061522665090166" lon="12.913734044263267"><ele>79.0</ele><time>2026-04-19T10:27:33.001Z</time></trkpt><trkpt lat="46.06143588135672" lon="12.913730487246653"><ele>79.0</ele><time>2026-04-19T10:27:34.001Z</time></trkpt><trkpt lat="46.06135992576358" lon="12.913718809066472"><ele>79.33333333333333</ele><time>2026-04-19T10:27:35.001Z</time></trkpt><trkpt lat="46.061293497353375" lon="12.913712547623904"><ele>79.66666666666666</ele><time>2026-04-19T10:27:36.001Z</time></trkpt><trkpt lat="46.061181717929735" lon="12.913724400051898"><ele>80.0</ele><time>2026-04-19T10:27:38.001Z</time></trkpt><trkpt lat="46.06109284979268" lon="12.913701140612766"><ele>80.33333333333333</ele><time>2026-04-19T10:27:40Z</time></trkpt><trkpt lat="46.061016790192966" lon="12.913673982078281"><ele>80.66666666666667</ele><time>2026-04-19T10:27:41Z</time></trkpt><trkpt lat="46.06093565502629" lon="12.913644683750569"><ele>81.0</ele><time>2026-04-19T10:27:42Z</time></trkpt><trkpt lat="46.060862068481605" lon="12.913601029664541"><ele>81.0</ele><time>2026-04-19T10:27:43Z</time></trkpt><trkpt lat="46.060776411836414" lon="12.91355995130406"><ele>81.0</ele><time>2026-04-19T10:27:44Z</time></trkpt><trkpt lat="46.0606841441787" lon="12.913529839648028"><ele>81.0</ele><time>2026-04-19T10:27:45Z</time></trkpt><trkpt lat="46.0606108342373" lon="12.91350830310537"><ele>81.0</ele><time>2026-04-19T10:27:46Z</time></trkpt><trkpt lat="46.060548625288945" lon="12.913483354243326"><ele>81.0</ele><time>2026-04-19T10:27:47Z</time></trkpt><trkpt lat="46.060486512842274" lon="12.913448542487558"><ele>81.0</ele><time>2026-04-19T10:27:48Z</time></trkpt><trkpt lat="46.060417118181036" lon="12.913401903939507"><ele>80.8</ele><time>2026-04-19T10:27:49Z</time></trkpt><trkpt lat="46.06034147839309" lon="12.913352138636293"><ele>80.6</ele><time>2026-04-19T10:27:50Z</time></trkpt><trkpt lat="46.06025942060904" lon="12.913324522583602"><ele>80.4</ele><time>2026-04-19T10:27:51Z</time></trkpt><trkpt lat="46.06017370185371" lon="12.91331846460398"><ele>80.2</ele><time>2026-04-19T10:27:52Z</time></trkpt><trkpt lat="46.0600811195701" lon="12.913310258847291"><ele>80.0</ele><time>2026-04-19T10:27:53Z</time></trkpt><trkpt lat="46.05997697155777" lon="12.913286545322077"><ele>80.4</ele><time>2026-04-19T10:27:54Z</time></trkpt><trkpt lat="46.05988143729781" lon="12.9132573508032"><ele>80.8</ele><time>2026-04-19T10:27:55Z</time></trkpt><trkpt lat="46.05977940133127" lon="12.913232213779104"><ele>81.19999999999999</ele><time>2026-04-19T10:27:56Z</time></trkpt><trkpt lat="46.05967159956618" lon="12.913214504918725"><ele>81.6</ele><time>2026-04-19T10:27:57Z</time></trkpt><trkpt lat="46.059563731236715" lon="12.91320626105272"><ele>82.0</ele><time>2026-04-19T10:27:58Z</time></trkpt><trkpt lat="46.05945238830682" lon="12.913194078515026"><ele>82.0</ele><time>2026-04-19T10:27:59Z</time></trkpt><trkpt lat="46.05933297931436" lon="12.913180566065787"><ele>82.0</ele><time>2026-04-19T10:28:00Z</time></trkpt><trkpt lat="46.05921967337219" lon="12.913178694864909"><ele>82.0</ele><time>2026-04-19T10:28:01Z</time></trkpt><trkpt lat="46.05912216573664" lon="12.91318253230691"><ele>82.0</ele><time>2026-04-19T10:28:02Z</time></trkpt><trkpt lat="46.0590256030073" lon="12.91318334670129"><ele>82.0</ele><time>2026-04-19T10:28:03Z</time></trkpt><trkpt lat="46.058931974499764" lon="12.913175711546947"><ele>81.8</ele><time>2026-04-19T10:28:04Z</time></trkpt><trkpt lat="46.058833124359175" lon="12.913158491168275"><ele>81.6</ele><time>2026-04-19T10:28:05Z</time></trkpt><trkpt lat="46.0587368090555" lon="12.91313807833242"><ele>81.39999999999999</ele><time>2026-04-19T10:28:06Z</time></trkpt><trkpt lat="46.05864501250858" lon="12.913115015844024"><ele>81.19999999999999</ele><time>2026-04-19T10:28:07Z</time></trkpt><trkpt lat="46.058553708998375" lon="12.91309685491144"><ele>81.0</ele><time>2026-04-19T10:28:08Z</time></trkpt><trkpt lat="46.05847727115014" lon="12.913091210327854"><ele>81.0</ele><time>2026-04-19T10:28:09Z</time></trkpt><trkpt lat="46.058411856902154" lon="12.91307746503315"><ele>81.0</ele><time>2026-04-19T10:28:10Z</time></trkpt><trkpt lat="46.05830875140304" lon="12.913021090250226"><ele>81.0</ele><time>2026-04-19T10:28:12Z</time></trkpt><trkpt lat="46.05823561163919" lon="12.912989774565752"><ele>81.0</ele><time>2026-04-19T10:28:14Z</time></trkpt><trkpt lat="46.05812375974297" lon="12.913042827911267"><ele>81.0</ele><time>2026-04-19T10:28:16Z</time></trkpt><trkpt lat="46.05804055815256" lon="12.91306566156014"><ele>80.66666666666667</ele><time>2026-04-19T10:28:17Z</time></trkpt><trkpt lat="46.057944866400675" lon="12.91306357507147"><ele>80.33333333333333</ele><time>2026-04-19T10:28:18Z</time></trkpt><trkpt lat="46.057835343849035" lon="12.91304078480975"><ele>80.0</ele><time>2026-04-19T10:28:19Z</time></trkpt><trkpt lat="46.05774443603053" lon="12.913025007440929"><ele>79.66666666666666</ele><time>2026-04-19T10:28:20Z</time></trkpt><trkpt lat="46.057666331980236" lon="12.913026694345039"><ele>79.33333333333333</ele><time>2026-04-19T10:28:21Z</time></trkpt><trkpt lat="46.057595221247766" lon="12.913020807773911"><ele>79.0</ele><time>2026-04-19T10:28:22Z</time></trkpt><trkpt lat="46.0575316303316" lon="12.913015697385184"><ele>79.0</ele><time>2026-04-19T10:28:23Z</time></trkpt><trkpt lat="46.05746536215801" lon="12.912979774990484"><ele>79.0</ele><time>2026-04-19T10:28:24Z</time></trkpt><trkpt lat="46.05738138714137" lon="12.912938574909157"><ele>79.0</ele><time>2026-04-19T10:28:25Z</time></trkpt><trkpt lat="46.05729589291092" lon="12.91292522900779"><ele>79.0</ele><time>2026-04-19T10:28:26Z</time></trkpt><trkpt lat="46.05718916897653" lon="12.912915828751725"><ele>79.0</ele><time>2026-04-19T10:28:27Z</time></trkpt><trkpt lat="46.057107211899904" lon="12.912913113796865"><ele>79.0</ele><time>2026-04-19T10:28:28Z</time></trkpt><trkpt lat="46.05703290171993" lon="12.912908490590418"><ele>78.83333333333333</ele><time>2026-04-19T10:28:29Z</time></trkpt><trkpt lat="46.05695795412027" lon="12.912889100874487"><ele>78.66666666666666</ele><time>2026-04-19T10:28:30Z</time></trkpt><trkpt lat="46.056876305303234" lon="12.912850778001115"><ele>78.5</ele><time>2026-04-19T10:28:31Z</time></trkpt><trkpt lat="46.05678610555999" lon="12.91281199063483"><ele>78.33333333333333</ele><time>2026-04-19T10:28:32Z</time></trkpt><trkpt lat="46.05668574993304" lon="12.912768334036754"><ele>78.16666666666667</ele><time>2026-04-19T10:28:33Z</time></trkpt><trkpt lat="46.056609579323" lon="12.912738111736656"><ele>78.0</ele><time>2026-04-19T10:28:34Z</time></trkpt><trkpt lat="46.05648762167523" lon="12.912721612964702"><ele>77.83333333333333</ele><time>2026-04-19T10:28:36Z</time></trkpt><trkpt lat="46.05642145336158" lon="12.91271189215794"><ele>77.66666666666667</ele><time>2026-04-19T10:28:37Z</time></trkpt><trkpt lat="46.05632294715571" lon="12.912695111895248"><ele>77.5</ele><time>2026-04-19T10:28:39Z</time></trkpt><trkpt lat="46.05623402657592" lon="12.912706762592803"><ele>77.33333333333334</ele><time>2026-04-19T10:28:41Z</time></trkpt><trkpt lat="46.05613301446305" lon="12.912723921824243"><ele>77.16666666666667</ele><time>2026-04-19T10:28:43.001Z</time></trkpt><trkpt lat="46.05605532351756" lon="12.912699975191856"><ele>77.0</ele><time>2026-04-19T10:28:45.001Z</time></trkpt><trkpt lat="46.05601621811075" lon="12.91261686610793"><ele>77.0</ele><time>2026-04-19T10:28:49.001Z</time></trkpt><trkpt lat="46.055954502315345" lon="12.912510244538884"><ele>77.0</ele><time>2026-04-19T10:28:52.001Z</time></trkpt><trkpt lat="46.055882547412374" lon="12.912445872196203"><ele>77.0</ele><time>2026-04-19T10:28:54.001Z</time></trkpt><trkpt lat="46.055795548637896" lon="12.91237015411908"><ele>77.0</ele><time>2026-04-19T10:28:56.001Z</time></trkpt><trkpt lat="46.05568987051199" lon="12.912300056277449"><ele>77.0</ele><time>2026-04-19T10:28:58.001Z</time></trkpt><trkpt lat="46.05557694261233" lon="12.912239154601576"><ele>77.0</ele><time>2026-04-19T10:29:00.001Z</time></trkpt><trkpt lat="46.055492752849005" lon="12.912229403812564"><ele>77.0</ele><time>2026-04-19T10:29:01.001Z</time></trkpt><trkpt lat="46.05540981221461" lon="12.91222559653047"><ele>77.0</ele><time>2026-04-19T10:29:02.001Z</time></trkpt><trkpt lat="46.05532000292022" lon="12.912220449696918"><ele>77.0</ele><time>2026-04-19T10:29:03.001Z</time></trkpt><trkpt lat="46.05523846786455" lon="12.912212068903186"><ele>77.0</ele><time>2026-04-19T10:29:04.001Z</time></trkpt><trkpt lat="46.05513738738956" lon="12.912216648659477"><ele>77.0</ele><time>2026-04-19T10:29:05.001Z</time></trkpt><trkpt lat="46.055030198499466" lon="12.91221549840342"><ele>77.0</ele><time>2026-04-19T10:29:06.001Z</time></trkpt><trkpt lat="46.05491644072378" lon="12.91219481015535"><ele>77.0</ele><time>2026-04-19T10:29:07.001Z</time></trkpt><trkpt lat="46.05481575719989" lon="12.91216501042432"><ele>77.0</ele><time>2026-04-19T10:29:08.001Z</time></trkpt><trkpt lat="46.05471186243792" lon="12.912126437739493"><ele>77.0</ele><time>2026-04-19T10:29:09.001Z</time></trkpt><trkpt lat="46.05461445987789" lon="12.912102693756355"><ele>77.0</ele><time>2026-04-19T10:29:10.001Z</time></trkpt><trkpt lat="46.05453319586903" lon="12.912088598163255"><ele>77.0</ele><time>2026-04-19T10:29:11.001Z</time></trkpt><trkpt lat="46.054446045670986" lon="12.91207123101638"><ele>77.0</ele><time>2026-04-19T10:29:12.001Z</time></trkpt><trkpt lat="46.05437313501595" lon="12.91205665862652"><ele>77.0</ele><time>2026-04-19T10:29:13.001Z</time></trkpt><trkpt lat="46.054303190573854" lon="12.912051746129796"><ele>77.0</ele><time>2026-04-19T10:29:14.001Z</time></trkpt><trkpt lat="46.054232519821014" lon="12.912038759714871"><ele>77.0</ele><time>2026-04-19T10:29:15.001Z</time></trkpt><trkpt lat="46.05413743372218" lon="12.912028977990097"><ele>77.0</ele><time>2026-04-19T10:29:16.001Z</time></trkpt><trkpt lat="46.05405398233502" lon="12.912015829273061"><ele>76.85714285714286</ele><time>2026-04-19T10:29:17.001Z</time></trkpt><trkpt lat="46.0539840669036" lon="12.912013309352341"><ele>76.71428571428572</ele><time>2026-04-19T10:29:18.001Z</time></trkpt><trkpt lat="46.05391592283713" lon="12.912029985725725"><ele>76.57142857142857</ele><time>2026-04-19T10:29:19.001Z</time></trkpt><trkpt lat="46.05384787650071" lon="12.912050326611656"><ele>76.42857142857143</ele><time>2026-04-19T10:29:20.001Z</time></trkpt><trkpt lat="46.05378336363089" lon="12.912074792538203"><ele>76.28571428571429</ele><time>2026-04-19T10:29:21.001Z</time></trkpt><trkpt lat="46.053718789389755" lon="12.912108449990814"><ele>76.14285714285714</ele><time>2026-04-19T10:29:22.001Z</time></trkpt><trkpt lat="46.05365246582593" lon="12.912150156890986"><ele>76.0</ele><time>2026-04-19T10:29:23.001Z</time></trkpt><trkpt lat="46.05358482593925" lon="12.912180489876858"><ele>76.0</ele><time>2026-04-19T10:29:24.001Z</time></trkpt><trkpt lat="46.05350140039108" lon="12.912206891330179"><ele>76.0</ele><time>2026-04-19T10:29:25.001Z</time></trkpt><trkpt lat="46.0534171894564" lon="12.912225498378247"><ele>76.0</ele><time>2026-04-19T10:29:26.001Z</time></trkpt><trkpt lat="46.05333455477352" lon="12.912243751304702"><ele>76.0</ele><time>2026-04-19T10:29:27.001Z</time></trkpt><trkpt lat="46.0532567452229" lon="12.912256199043629"><ele>76.0</ele><time>2026-04-19T10:29:28.001Z</time></trkpt><trkpt lat="46.05317175887841" lon="12.912276100275857"><ele>76.0</ele><time>2026-04-19T10:29:29.001Z</time></trkpt><trkpt lat="46.053089188804265" lon="12.912270863355598"><ele>76.2</ele><time>2026-04-19T10:29:30.001Z</time></trkpt><trkpt lat="46.053016280890155" lon="12.912244065146604"><ele>76.39999999999999</ele><time>2026-04-19T10:29:31.001Z</time></trkpt><trkpt lat="46.0529340854968" lon="12.912194931992245"><ele>76.6</ele><time>2026-04-19T10:29:32.001Z</time></trkpt><trkpt lat="46.0528460020144" lon="12.912145818712393"><ele>76.8</ele><time>2026-04-19T10:29:33.001Z</time></trkpt><trkpt lat="46.05274536704123" lon="12.912104461524404"><ele>77.0</ele><time>2026-04-19T10:29:34.001Z</time></trkpt><trkpt lat="46.05262361237944" lon="12.912049622175498"><ele>77.0</ele><time>2026-04-19T10:29:35.001Z</time></trkpt><trkpt lat="46.0525235847832" lon="12.912007984459947"><ele>77.0</ele><time>2026-04-19T10:29:36.001Z</time></trkpt><trkpt lat="46.05243977406768" lon="12.911968483801223"><ele>77.0</ele><time>2026-04-19T10:29:37.001Z</time></trkpt><trkpt lat="46.05235939361711" lon="12.911936962276899"><ele>77.0</ele><time>2026-04-19T10:29:38.001Z</time></trkpt><trkpt lat="46.052284664883196" lon="12.911910950583984"><ele>77.0</ele><time>2026-04-19T10:29:39.001Z</time></trkpt><trkpt lat="46.05220480096605" lon="12.911884368565433"><ele>77.0</ele><time>2026-04-19T10:29:40.001Z</time></trkpt><trkpt lat="46.05211251517962" lon="12.911836738574337"><ele>77.0</ele><time>2026-04-19T10:29:41.001Z</time></trkpt><trkpt lat="46.05203578323664" lon="12.911786745474416"><ele>77.0</ele><time>2026-04-19T10:29:42Z</time></trkpt><trkpt lat="46.0519626355943" lon="12.911742300517204"><ele>77.0</ele><time>2026-04-19T10:29:43Z</time></trkpt><trkpt lat="46.0518975886862" lon="12.911686147851203"><ele>77.0</ele><time>2026-04-19T10:29:44Z</time></trkpt><trkpt lat="46.05182893350491" lon="12.911615615869843"><ele>77.0</ele><time>2026-04-19T10:29:45Z</time></trkpt><trkpt lat="46.05174994143041" lon="12.91154840658396"><ele>77.0</ele><time>2026-04-19T10:29:46Z</time></trkpt><trkpt lat="46.05167483308193" lon="12.911504204798481"><ele>76.8</ele><time>2026-04-19T10:29:47Z</time></trkpt><trkpt lat="46.05158403584121" lon="12.911453122593976"><ele>76.6</ele><time>2026-04-19T10:29:48Z</time></trkpt><trkpt lat="46.051480688458106" lon="12.911407941025955"><ele>76.39999999999999</ele><time>2026-04-19T10:29:49Z</time></trkpt><trkpt lat="46.05136988804808" lon="12.911376228924993"><ele>76.2</ele><time>2026-04-19T10:29:50Z</time></trkpt><trkpt lat="46.05126993084889" lon="12.911364370704874"><ele>76.0</ele><time>2026-04-19T10:29:51Z</time></trkpt><trkpt lat="46.051167541867265" lon="12.911358222575238"><ele>76.0</ele><time>2026-04-19T10:29:52Z</time></trkpt><trkpt lat="46.05106101330118" lon="12.91134871862479"><ele>76.0</ele><time>2026-04-19T10:29:53Z</time></trkpt><trkpt lat="46.05096270730686" lon="12.911335727919726"><ele>76.0</ele><time>2026-04-19T10:29:54Z</time></trkpt><trkpt lat="46.050854543872774" lon="12.911323009075279"><ele>76.0</ele><time>2026-04-19T10:29:55Z</time></trkpt><trkpt lat="46.05075322731964" lon="12.911311012202722"><ele>76.0</ele><time>2026-04-19T10:29:56Z</time></trkpt><trkpt lat="46.0506520792477" lon="12.911297902015088"><ele>76.0</ele><time>2026-04-19T10:29:57Z</time></trkpt><trkpt lat="46.05053456562837" lon="12.911308510964332"><ele>76.0</ele><time>2026-04-19T10:29:58Z</time></trkpt><trkpt lat="46.05042038756101" lon="12.911328674127255"><ele>76.0</ele><time>2026-04-19T10:29:59Z</time></trkpt><trkpt lat="46.05031451713767" lon="12.911336346866849"><ele>76.0</ele><time>2026-04-19T10:30:00Z</time></trkpt><trkpt lat="46.050203231450574" lon="12.911337449392617"><ele>76.0</ele><time>2026-04-19T10:30:01Z</time></trkpt><trkpt lat="46.050089993130754" lon="12.911336781305044"><ele>76.0</ele><time>2026-04-19T10:30:02Z</time></trkpt><trkpt lat="46.0499821611562" lon="12.911344378458773"><ele>76.0</ele><time>2026-04-19T10:30:03Z</time></trkpt><trkpt lat="46.04987294359226" lon="12.911348551749246"><ele>76.0</ele><time>2026-04-19T10:30:04Z</time></trkpt><trkpt lat="46.0497640666228" lon="12.911352786140059"><ele>76.0</ele><time>2026-04-19T10:30:05Z</time></trkpt><trkpt lat="46.04964534432106" lon="12.911350526912877"><ele>76.0</ele><time>2026-04-19T10:30:06Z</time></trkpt><trkpt lat="46.049521254770546" lon="12.911350562152291"><ele>76.0</ele><time>2026-04-19T10:30:07Z</time></trkpt><trkpt lat="46.04939930190478" lon="12.911343962787921"><ele>76.0</ele><time>2026-04-19T10:30:08Z</time></trkpt><trkpt lat="46.04929737402717" lon="12.911347094863052"><ele>76.0</ele><time>2026-04-19T10:30:09Z</time></trkpt><trkpt lat="46.04919501523464" lon="12.911352270897797"><ele>75.8</ele><time>2026-04-19T10:30:10Z</time></trkpt><trkpt lat="46.04908873474237" lon="12.911349064167256"><ele>75.6</ele><time>2026-04-19T10:30:11Z</time></trkpt><trkpt lat="46.04898457113637" lon="12.911354816931452"><ele>75.4</ele><time>2026-04-19T10:30:12Z</time></trkpt><trkpt lat="46.04887865146049" lon="12.911371927122085"><ele>75.2</ele><time>2026-04-19T10:30:13Z</time></trkpt><trkpt lat="46.04875387663257" lon="12.911386856926695"><ele>75.0</ele><time>2026-04-19T10:30:14Z</time></trkpt><trkpt lat="46.048635571431134" lon="12.91140196404628"><ele>75.0</ele><time>2026-04-19T10:30:15Z</time></trkpt><trkpt lat="46.04851191695924" lon="12.911426858945573"><ele>75.0</ele><time>2026-04-19T10:30:16Z</time></trkpt><trkpt lat="46.04839643641047" lon="12.911449179970095"><ele>75.0</ele><time>2026-04-19T10:30:17Z</time></trkpt><trkpt lat="46.04828898126466" lon="12.911454165593772"><ele>75.0</ele><time>2026-04-19T10:30:18Z</time></trkpt><trkpt lat="46.04817952840502" lon="12.91144869036432"><ele>74.75</ele><time>2026-04-19T10:30:19Z</time></trkpt><trkpt lat="46.048065304317305" lon="12.911441415475066"><ele>74.5</ele><time>2026-04-19T10:30:20Z</time></trkpt><trkpt lat="46.04795511164192" lon="12.911440194685234"><ele>74.25</ele><time>2026-04-19T10:30:21Z</time></trkpt><trkpt lat="46.04784854984394" lon="12.911447564543789"><ele>74.0</ele><time>2026-04-19T10:30:22Z</time></trkpt><trkpt lat="46.04772558582677" lon="12.911460570528558"><ele>74.0</ele><time>2026-04-19T10:30:23Z</time></trkpt><trkpt lat="46.04760339066883" lon="12.911473845056308"><ele>74.0</ele><time>2026-04-19T10:30:24Z</time></trkpt><trkpt lat="46.04749924050663" lon="12.911476037662368"><ele>74.0</ele><time>2026-04-19T10:30:25Z</time></trkpt><trkpt lat="46.047409821240464" lon="12.9114734054533"><ele>74.0</ele><time>2026-04-19T10:30:26Z</time></trkpt><trkpt lat="46.04732270493279" lon="12.911479621227494"><ele>74.0</ele><time>2026-04-19T10:30:27Z</time></trkpt><trkpt lat="46.04723626240668" lon="12.911472687225904"><ele>74.0</ele><time>2026-04-19T10:30:28Z</time></trkpt><trkpt lat="46.04715249191466" lon="12.911456847118554"><ele>74.0</ele><time>2026-04-19T10:30:29Z</time></trkpt><trkpt lat="46.04704880619312" lon="12.911432013290607"><ele>74.0</ele><time>2026-04-19T10:30:30Z</time></trkpt><trkpt lat="46.046921953550786" lon="12.9114255858201"><ele>74.0</ele><time>2026-04-19T10:30:31Z</time></trkpt><trkpt lat="46.04679018725708" lon="12.911436968998391"><ele>74.0</ele><time>2026-04-19T10:30:32Z</time></trkpt><trkpt lat="46.04669176398679" lon="12.91144109448155"><ele>74.2</ele><time>2026-04-19T10:30:33Z</time></trkpt><trkpt lat="46.046600718437524" lon="12.911431439574336"><ele>74.4</ele><time>2026-04-19T10:30:34Z</time></trkpt><trkpt lat="46.04650993497719" lon="12.91141280700217"><ele>74.6</ele><time>2026-04-19T10:30:35Z</time></trkpt><trkpt lat="46.04641431002103" lon="12.911374735888588"><ele>74.8</ele><time>2026-04-19T10:30:36Z</time></trkpt><trkpt lat="46.046296709689614" lon="12.911330156188356"><ele>75.0</ele><time>2026-04-19T10:30:37Z</time></trkpt><trkpt lat="46.04617374113752" lon="12.911277102634013"><ele>75.0</ele><time>2026-04-19T10:30:38Z</time></trkpt><trkpt lat="46.04605543424479" lon="12.911232432479311"><ele>75.0</ele><time>2026-04-19T10:30:39Z</time></trkpt><trkpt lat="46.045953076064485" lon="12.911204485573105"><ele>75.0</ele><time>2026-04-19T10:30:40Z</time></trkpt><trkpt lat="46.04585693456715" lon="12.911185367336827"><ele>75.0</ele><time>2026-04-19T10:30:41Z</time></trkpt><trkpt lat="46.04576130020151" lon="12.911163880566056"><ele>75.0</ele><time>2026-04-19T10:30:42Z</time></trkpt><trkpt lat="46.045663843192614" lon="12.911138245793843"><ele>75.0</ele><time>2026-04-19T10:30:43Z</time></trkpt><trkpt lat="46.0455723871844" lon="12.911114247444152"><ele>75.0</ele><time>2026-04-19T10:30:44Z</time></trkpt><trkpt lat="46.0454833067551" lon="12.911081333115906"><ele>75.0</ele><time>2026-04-19T10:30:45Z</time></trkpt><trkpt lat="46.045396459491705" lon="12.911053317646646"><ele>75.0</ele><time>2026-04-19T10:30:46Z</time></trkpt><trkpt lat="46.045329760843714" lon="12.911008226388542"><ele>75.0</ele><time>2026-04-19T10:30:47Z</time></trkpt><trkpt lat="46.04527399059508" lon="12.91096015043958"><ele>75.0</ele><time>2026-04-19T10:30:48Z</time></trkpt><trkpt lat="46.04520388988506" lon="12.910911237577281"><ele>75.25</ele><time>2026-04-19T10:30:50Z</time></trkpt><trkpt lat="46.045124874454054" lon="12.91083244826643"><ele>75.5</ele><time>2026-04-19T10:30:53Z</time></trkpt><trkpt lat="46.04500355517635" lon="12.91079103099585"><ele>75.75</ele><time>2026-04-19T10:30:55Z</time></trkpt><trkpt lat="46.04489104180711" lon="12.910828088354277"><ele>76.0</ele><time>2026-04-19T10:30:56Z</time></trkpt><trkpt lat="46.04477113619619" lon="12.91085798529183"><ele>76.25</ele><time>2026-04-19T10:30:57Z</time></trkpt><trkpt lat="46.04461306140939" lon="12.910896089148979"><ele>76.5</ele><time>2026-04-19T10:30:58Z</time></trkpt><trkpt lat="46.044476609248626" lon="12.910933859604764"><ele>76.75</ele><time>2026-04-19T10:30:59Z</time></trkpt><trkpt lat="46.04436626350251" lon="12.910962394843562"><ele>77.0</ele><time>2026-04-19T10:31:00Z</time></trkpt><trkpt lat="46.04426608294486" lon="12.910992185220637"><ele>76.66666666666667</ele><time>2026-04-19T10:31:01Z</time></trkpt><trkpt lat="46.04418336733156" lon="12.911018321790735"><ele>76.33333333333334</ele><time>2026-04-19T10:31:02Z</time></trkpt><trkpt lat="46.04411141830126" lon="12.91103657625323"><ele>76.0</ele><time>2026-04-19T10:31:03Z</time></trkpt><trkpt lat="46.04404896306698" lon="12.911061279277279"><ele>75.66666666666667</ele><time>2026-04-19T10:31:04Z</time></trkpt><trkpt lat="46.043964867888505" lon="12.911101354219124"><ele>75.33333333333333</ele><time>2026-04-19T10:31:05Z</time></trkpt><trkpt lat="46.04385909741847" lon="12.911138901531979"><ele>75.0</ele><time>2026-04-19T10:31:06Z</time></trkpt><trkpt lat="46.04375968769149" lon="12.911169828476954"><ele>74.5</ele><time>2026-04-19T10:31:07Z</time></trkpt><trkpt lat="46.04365011767717" lon="12.91119216292015"><ele>74.0</ele><time>2026-04-19T10:31:08Z</time></trkpt><trkpt lat="46.04354355274692" lon="12.911206913934572"><ele>73.5</ele><time>2026-04-19T10:31:09Z</time></trkpt><trkpt lat="46.043423916536234" lon="12.911188934743482"><ele>73.0</ele><time>2026-04-19T10:31:10Z</time></trkpt><trkpt lat="46.04331220611713" lon="12.911172652260053"><ele>73.0</ele><time>2026-04-19T10:31:11Z</time></trkpt><trkpt lat="46.04320242787186" lon="12.911145545724835"><ele>73.0</ele><time>2026-04-19T10:31:12Z</time></trkpt><trkpt lat="46.04308983258668" lon="12.911142912212298"><ele>73.0</ele><time>2026-04-19T10:31:13Z</time></trkpt><trkpt lat="46.04295668515501" lon="12.911127930705272"><ele>73.0</ele><time>2026-04-19T10:31:14Z</time></trkpt><trkpt lat="46.04282454946169" lon="12.911116377974928"><ele>73.0</ele><time>2026-04-19T10:31:15Z</time></trkpt><trkpt lat="46.04270392863459" lon="12.91111257477262"><ele>73.0</ele><time>2026-04-19T10:31:16Z</time></trkpt><trkpt lat="46.042594936108586" lon="12.911118090632781"><ele>73.0</ele><time>2026-04-19T10:31:17Z</time></trkpt><trkpt lat="46.04249361938048" lon="12.911134450110529"><ele>73.0</ele><time>2026-04-19T10:31:18Z</time></trkpt><trkpt lat="46.04240162175603" lon="12.911137348180684"><ele>73.0</ele><time>2026-04-19T10:31:19Z</time></trkpt><trkpt lat="46.0423058144941" lon="12.911135282719009"><ele>72.8</ele><time>2026-04-19T10:31:20Z</time></trkpt><trkpt lat="46.04220277895941" lon="12.911146239933318"><ele>72.6</ele><time>2026-04-19T10:31:21.001Z</time></trkpt><trkpt lat="46.04209282397232" lon="12.911144617281611"><ele>72.4</ele><time>2026-04-19T10:31:22.001Z</time></trkpt><trkpt lat="46.04199347540238" lon="12.911136599532833"><ele>72.2</ele><time>2026-04-19T10:31:23.001Z</time></trkpt><trkpt lat="46.041895905830145" lon="12.911139700878005"><ele>72.0</ele><time>2026-04-19T10:31:24.001Z</time></trkpt><trkpt lat="46.041814391679225" lon="12.911128444834551"><ele>72.0</ele><time>2026-04-19T10:31:25.001Z</time></trkpt><trkpt lat="46.041709160612676" lon="12.91109146352481"><ele>72.0</ele><time>2026-04-19T10:31:27.001Z</time></trkpt><trkpt lat="46.04163633319635" lon="12.911113045578924"><ele>72.0</ele><time>2026-04-19T10:31:28.001Z</time></trkpt><trkpt lat="46.041545631169534" lon="12.91113604718174"><ele>72.0</ele><time>2026-04-19T10:31:29.001Z</time></trkpt><trkpt lat="46.04144209271873" lon="12.911107548987722"><ele>72.0</ele><time>2026-04-19T10:31:30.001Z</time></trkpt><trkpt lat="46.041329730399454" lon="12.911081981461455"><ele>72.0</ele><time>2026-04-19T10:31:31.001Z</time></trkpt><trkpt lat="46.04121605140721" lon="12.91107036377982"><ele>72.0</ele><time>2026-04-19T10:31:32.001Z</time></trkpt><trkpt lat="46.04109670284245" lon="12.911062069364107"><ele>72.0</ele><time>2026-04-19T10:31:33.001Z</time></trkpt><trkpt lat="46.04100332114368" lon="12.911052607838382"><ele>72.0</ele><time>2026-04-19T10:31:34.001Z</time></trkpt><trkpt lat="46.040916966172475" lon="12.911052975524807"><ele>72.0</ele><time>2026-04-19T10:31:35.001Z</time></trkpt><trkpt lat="46.040826607656996" lon="12.911056543623067"><ele>71.8</ele><time>2026-04-19T10:31:36.001Z</time></trkpt><trkpt lat="46.04071498226104" lon="12.911058980248379"><ele>71.6</ele><time>2026-04-19T10:31:37.001Z</time></trkpt><trkpt lat="46.04061618029862" lon="12.911054563422015"><ele>71.39999999999999</ele><time>2026-04-19T10:31:38.001Z</time></trkpt><trkpt lat="46.040522783909125" lon="12.911047236091795"><ele>71.2</ele><time>2026-04-19T10:31:39.001Z</time></trkpt><trkpt lat="46.04042514499249" lon="12.911042561922658"><ele>71.0</ele><time>2026-04-19T10:31:40.001Z</time></trkpt><trkpt lat="46.04033669173386" lon="12.911035133099304"><ele>71.0</ele><time>2026-04-19T10:31:41.001Z</time></trkpt><trkpt lat="46.04024448875112" lon="12.911037426535389"><ele>71.0</ele><time>2026-04-19T10:31:42.001Z</time></trkpt><trkpt lat="46.04014772732957" lon="12.911048254967897"><ele>71.0</ele><time>2026-04-19T10:31:43.001Z</time></trkpt><trkpt lat="46.04003297749079" lon="12.911064549073417"><ele>71.0</ele><time>2026-04-19T10:31:44Z</time></trkpt><trkpt lat="46.03991375265953" lon="12.911069150736118"><ele>71.0</ele><time>2026-04-19T10:31:45Z</time></trkpt><trkpt lat="46.03982309671759" lon="12.91108825072101"><ele>71.0</ele><time>2026-04-19T10:31:46Z</time></trkpt><trkpt lat="46.0397353006408" lon="12.911105307295129"><ele>71.0</ele><time>2026-04-19T10:31:47Z</time></trkpt><trkpt lat="46.039632824135325" lon="12.91113534961228"><ele>71.0</ele><time>2026-04-19T10:31:48Z</time></trkpt><trkpt lat="46.03953285421624" lon="12.911163860702688"><ele>71.0</ele><time>2026-04-19T10:31:49Z</time></trkpt><trkpt lat="46.03943661171331" lon="12.911192824301258"><ele>71.0</ele><time>2026-04-19T10:31:50Z</time></trkpt><trkpt lat="46.03933018601513" lon="12.911222173853254"><ele>71.0</ele><time>2026-04-19T10:31:51Z</time></trkpt><trkpt lat="46.039212133930974" lon="12.91125537309765"><ele>71.0</ele><time>2026-04-19T10:31:52Z</time></trkpt><trkpt lat="46.0391071575014" lon="12.911276000903598"><ele>71.0</ele><time>2026-04-19T10:31:53Z</time></trkpt><trkpt lat="46.039010257514306" lon="12.911277276248972"><ele>71.0</ele><time>2026-04-19T10:31:54Z</time></trkpt><trkpt lat="46.03890262896563" lon="12.911260456318525"><ele>71.0</ele><time>2026-04-19T10:31:55Z</time></trkpt><trkpt lat="46.03877684155773" lon="12.911255033738348"><ele>71.0</ele><time>2026-04-19T10:31:56Z</time></trkpt><trkpt lat="46.0386629803327" lon="12.911247756494522"><ele>71.0</ele><time>2026-04-19T10:31:57Z</time></trkpt><trkpt lat="46.03857162699632" lon="12.911224812236226"><ele>71.0</ele><time>2026-04-19T10:31:58Z</time></trkpt><trkpt lat="46.03848424515286" lon="12.911196722501328"><ele>71.0</ele><time>2026-04-19T10:31:59Z</time></trkpt><trkpt lat="46.03840271019924" lon="12.911178468284236"><ele>71.0</ele><time>2026-04-19T10:32:00Z</time></trkpt><trkpt lat="46.0383192100371" lon="12.911154356871178"><ele>71.0</ele><time>2026-04-19T10:32:01Z</time></trkpt><trkpt lat="46.03823395851923" lon="12.911124206397455"><ele>71.0</ele><time>2026-04-19T10:32:02Z</time></trkpt><trkpt lat="46.03813375441935" lon="12.911098919000807"><ele>71.0</ele><time>2026-04-19T10:32:03Z</time></trkpt><trkpt lat="46.0380387130305" lon="12.911076244061896"><ele>71.0</ele><time>2026-04-19T10:32:04Z</time></trkpt><trkpt lat="46.037933036587305" lon="12.911054441968446"><ele>71.0</ele><time>2026-04-19T10:32:05Z</time></trkpt><trkpt lat="46.03783205921688" lon="12.911045549121077"><ele>71.0</ele><time>2026-04-19T10:32:06Z</time></trkpt><trkpt lat="46.03773103778573" lon="12.911053041285552"><ele>71.0</ele><time>2026-04-19T10:32:07Z</time></trkpt><trkpt lat="46.03764530966178" lon="12.91106211136468"><ele>71.0</ele><time>2026-04-19T10:32:08Z</time></trkpt><trkpt lat="46.03756154254696" lon="12.91106465125302"><ele>71.0</ele><time>2026-04-19T10:32:09Z</time></trkpt><trkpt lat="46.037474358963166" lon="12.911074292774465"><ele>71.0</ele><time>2026-04-19T10:32:10Z</time></trkpt><trkpt lat="46.037382088285355" lon="12.911084404470719"><ele>71.0</ele><time>2026-04-19T10:32:11Z</time></trkpt><trkpt lat="46.03729147395098" lon="12.911087781331375"><ele>71.0</ele><time>2026-04-19T10:32:12Z</time></trkpt><trkpt lat="46.037198111292625" lon="12.911084362135528"><ele>71.0</ele><time>2026-04-19T10:32:13Z</time></trkpt><trkpt lat="46.037109459236994" lon="12.911077745797702"><ele>71.0</ele><time>2026-04-19T10:32:14Z</time></trkpt><trkpt lat="46.037020669164654" lon="12.911088768354292"><ele>71.0</ele><time>2026-04-19T10:32:15Z</time></trkpt><trkpt lat="46.03691611124725" lon="12.911103417220472"><ele>71.0</ele><time>2026-04-19T10:32:16Z</time></trkpt><trkpt lat="46.03679731722286" lon="12.911114808713014"><ele>71.0</ele><time>2026-04-19T10:32:17Z</time></trkpt><trkpt lat="46.03667812433972" lon="12.911121708673821"><ele>71.0</ele><time>2026-04-19T10:32:18Z</time></trkpt><trkpt lat="46.03657515486076" lon="12.911127330035567"><ele>71.0</ele><time>2026-04-19T10:32:19Z</time></trkpt><trkpt lat="46.03648607163474" lon="12.911134639326702"><ele>71.0</ele><time>2026-04-19T10:32:20Z</time></trkpt><trkpt lat="46.036390899366744" lon="12.911137944276645"><ele>71.2</ele><time>2026-04-19T10:32:21Z</time></trkpt><trkpt lat="46.03629157150309" lon="12.91114329894697"><ele>71.39999999999999</ele><time>2026-04-19T10:32:22Z</time></trkpt><trkpt lat="46.03619068440825" lon="12.911163066698615"><ele>71.6</ele><time>2026-04-19T10:32:23Z</time></trkpt><trkpt lat="46.036084961271555" lon="12.91120958098421"><ele>71.8</ele><time>2026-04-19T10:32:24Z</time></trkpt><trkpt lat="46.03597048861044" lon="12.911273233862875"><ele>72.0</ele><time>2026-04-19T10:32:25Z</time></trkpt><trkpt lat="46.03585173673683" lon="12.911339285290028"><ele>71.6</ele><time>2026-04-19T10:32:26Z</time></trkpt><trkpt lat="46.035766595857794" lon="12.911405341521913"><ele>71.2</ele><time>2026-04-19T10:32:27Z</time></trkpt><trkpt lat="46.03568428470838" lon="12.911468219036355"><ele>70.8</ele><time>2026-04-19T10:32:28Z</time></trkpt><trkpt lat="46.035594861896335" lon="12.91152009810418"><ele>70.4</ele><time>2026-04-19T10:32:29Z</time></trkpt><trkpt lat="46.0355143168794" lon="12.911574593409762"><ele>70.0</ele><time>2026-04-19T10:32:30Z</time></trkpt><trkpt lat="46.03542165352185" lon="12.911627556105156"><ele>70.0</ele><time>2026-04-19T10:32:31Z</time></trkpt><trkpt lat="46.035337166657314" lon="12.911658490431252"><ele>70.0</ele><time>2026-04-19T10:32:32Z</time></trkpt><trkpt lat="46.03525382438503" lon="12.911663565057701"><ele>70.0</ele><time>2026-04-19T10:32:33Z</time></trkpt><trkpt lat="46.03515796270091" lon="12.911662253398537"><ele>70.0</ele><time>2026-04-19T10:32:34Z</time></trkpt><trkpt lat="46.03506695232756" lon="12.91168099136001"><ele>70.0</ele><time>2026-04-19T10:32:35Z</time></trkpt><trkpt lat="46.03496110183353" lon="12.911729502859773"><ele>69.83333333333333</ele><time>2026-04-19T10:32:36Z</time></trkpt><trkpt lat="46.034871912941114" lon="12.911784180214255"><ele>69.66666666666666</ele><time>2026-04-19T10:32:37Z</time></trkpt><trkpt lat="46.0347989020702" lon="12.911819312565951"><ele>69.5</ele><time>2026-04-19T10:32:38Z</time></trkpt><trkpt lat="46.034725944486695" lon="12.91182664687136"><ele>69.33333333333333</ele><time>2026-04-19T10:32:39Z</time></trkpt><trkpt lat="46.03463745637964" lon="12.91183293745656"><ele>69.16666666666667</ele><time>2026-04-19T10:32:40Z</time></trkpt><trkpt lat="46.0345463558979" lon="12.911843103738725"><ele>69.0</ele><time>2026-04-19T10:32:41Z</time></trkpt><trkpt lat="46.034445472332955" lon="12.911870768317222"><ele>69.0</ele><time>2026-04-19T10:32:42Z</time></trkpt><trkpt lat="46.034364531042904" lon="12.911902699269115"><ele>69.0</ele><time>2026-04-19T10:32:43Z</time></trkpt><trkpt lat="46.034286073338464" lon="12.911944796593415"><ele>69.0</ele><time>2026-04-19T10:32:44Z</time></trkpt><trkpt lat="46.034212478177395" lon="12.911976260057617"><ele>69.0</ele><time>2026-04-19T10:32:45Z</time></trkpt><trkpt lat="46.034133602692485" lon="12.911984962051816"><ele>69.0</ele><time>2026-04-19T10:32:46Z</time></trkpt><trkpt lat="46.03404738430539" lon="12.91198525109854"><ele>69.0</ele><time>2026-04-19T10:32:47Z</time></trkpt><trkpt lat="46.033962333002385" lon="12.91198306408521"><ele>68.8</ele><time>2026-04-19T10:32:48Z</time></trkpt><trkpt lat="46.03387219265635" lon="12.911985349593978"><ele>68.60000000000001</ele><time>2026-04-19T10:32:49Z</time></trkpt><trkpt lat="46.033785041086645" lon="12.91196223850972"><ele>68.4</ele><time>2026-04-19T10:32:50Z</time></trkpt><trkpt lat="46.033687286055915" lon="12.911922225398945"><ele>68.2</ele><time>2026-04-19T10:32:51Z</time></trkpt><trkpt lat="46.03357660001766" lon="12.91187477377547"><ele>68.0</ele><time>2026-04-19T10:32:52Z</time></trkpt><trkpt lat="46.033471362851756" lon="12.911835050094702"><ele>68.0</ele><time>2026-04-19T10:32:53Z</time></trkpt><trkpt lat="46.03335944145079" lon="12.911799902550142"><ele>68.0</ele><time>2026-04-19T10:32:54Z</time></trkpt><trkpt lat="46.03326436799664" lon="12.91179549943496"><ele>68.0</ele><time>2026-04-19T10:32:55Z</time></trkpt><trkpt lat="46.03317732506965" lon="12.911808303726405"><ele>68.0</ele><time>2026-04-19T10:32:56Z</time></trkpt><trkpt lat="46.033079286138445" lon="12.911820192235155"><ele>68.0</ele><time>2026-04-19T10:32:57Z</time></trkpt><trkpt lat="46.03297850337689" lon="12.91183910776658"><ele>68.0</ele><time>2026-04-19T10:32:58Z</time></trkpt><trkpt lat="46.03288576850572" lon="12.911862759202034"><ele>68.0</ele><time>2026-04-19T10:32:59Z</time></trkpt><trkpt lat="46.03280173323687" lon="12.91188045893942"><ele>68.0</ele><time>2026-04-19T10:33:00Z</time></trkpt><trkpt lat="46.03272312727257" lon="12.91189267572398"><ele>68.0</ele><time>2026-04-19T10:33:01Z</time></trkpt><trkpt lat="46.0326571491352" lon="12.911898596442661"><ele>68.0</ele><time>2026-04-19T10:33:02Z</time></trkpt><trkpt lat="46.03259143008266" lon="12.91191957190149"><ele>68.0</ele><time>2026-04-19T10:33:03Z</time></trkpt><trkpt lat="46.032514199156104" lon="12.911937466927078"><ele>67.8</ele><time>2026-04-19T10:33:04Z</time></trkpt><trkpt lat="46.0324409366272" lon="12.91193625417497"><ele>67.6</ele><time>2026-04-19T10:33:05Z</time></trkpt><trkpt lat="46.032311214006356" lon="12.911912816572242"><ele>67.4</ele><time>2026-04-19T10:33:07Z</time></trkpt><trkpt lat="46.03222339975837" lon="12.911910157675726"><ele>67.2</ele><time>2026-04-19T10:33:08Z</time></trkpt><trkpt lat="46.032122633187825" lon="12.911934373909338"><ele>67.0</ele><time>2026-04-19T10:33:09Z</time></trkpt><trkpt lat="46.031998549638836" lon="12.911964934515405"><ele>67.0</ele><time>2026-04-19T10:33:10Z</time></trkpt><trkpt lat="46.03188015812651" lon="12.911987170656566"><ele>67.0</ele><time>2026-04-19T10:33:11Z</time></trkpt><trkpt lat="46.03178112282999" lon="12.912006246895649"><ele>67.0</ele><time>2026-04-19T10:33:12Z</time></trkpt><trkpt lat="46.0316853710529" lon="12.912012309250343"><ele>67.0</ele><time>2026-04-19T10:33:13Z</time></trkpt><trkpt lat="46.03156407748475" lon="12.912007626390881"><ele>67.0</ele><time>2026-04-19T10:33:14Z</time></trkpt><trkpt lat="46.031455564521366" lon="12.91201441463928"><ele>67.4</ele><time>2026-04-19T10:33:15Z</time></trkpt><trkpt lat="46.03136923173918" lon="12.91201575398992"><ele>67.80000000000001</ele><time>2026-04-19T10:33:16Z</time></trkpt><trkpt lat="46.03128500502919" lon="12.912023522090735"><ele>68.2</ele><time>2026-04-19T10:33:17Z</time></trkpt><trkpt lat="46.0311864186756" lon="12.912014137107189"><ele>68.60000000000001</ele><time>2026-04-19T10:33:18Z</time></trkpt><trkpt lat="46.03109218590052" lon="12.912023847960034"><ele>69.0</ele><time>2026-04-19T10:33:19Z</time></trkpt><trkpt lat="46.03100602046435" lon="12.912035108248167"><ele>69.0</ele><time>2026-04-19T10:33:20Z</time></trkpt><trkpt lat="46.03091469418732" lon="12.912055538236158"><ele>69.0</ele><time>2026-04-19T10:33:21Z</time></trkpt><trkpt lat="46.03082236107503" lon="12.912079010336242"><ele>69.0</ele><time>2026-04-19T10:33:22Z</time></trkpt><trkpt lat="46.03072814606425" lon="12.912123300375502"><ele>69.0</ele><time>2026-04-19T10:33:23Z</time></trkpt><trkpt lat="46.030627820075345" lon="12.91216652448129"><ele>69.0</ele><time>2026-04-19T10:33:24Z</time></trkpt><trkpt lat="46.03052302681218" lon="12.912204149657999"><ele>69.2</ele><time>2026-04-19T10:33:25Z</time></trkpt><trkpt lat="46.03042578463111" lon="12.912242111215592"><ele>69.4</ele><time>2026-04-19T10:33:26Z</time></trkpt><trkpt lat="46.03033480090667" lon="12.912269413630348"><ele>69.6</ele><time>2026-04-19T10:33:27Z</time></trkpt><trkpt lat="46.03024969560973" lon="12.912303374286475"><ele>69.8</ele><time>2026-04-19T10:33:28Z</time></trkpt><trkpt lat="46.030156278341536" lon="12.912352934900095"><ele>70.0</ele><time>2026-04-19T10:33:29Z</time></trkpt><trkpt lat="46.0300581077181" lon="12.91240829248017"><ele>70.0</ele><time>2026-04-19T10:33:30Z</time></trkpt><trkpt lat="46.02997817026035" lon="12.912448195079985"><ele>70.0</ele><time>2026-04-19T10:33:31Z</time></trkpt><trkpt lat="46.02989820262406" lon="12.912487810060851"><ele>70.0</ele><time>2026-04-19T10:33:32Z</time></trkpt><trkpt lat="46.029816040376716" lon="12.912527943762672"><ele>70.0</ele><time>2026-04-19T10:33:33Z</time></trkpt><trkpt lat="46.02971485640669" lon="12.912572182149802"><ele>70.0</ele><time>2026-04-19T10:33:34Z</time></trkpt><trkpt lat="46.0296179072434" lon="12.91259551143452"><ele>69.6</ele><time>2026-04-19T10:33:35Z</time></trkpt><trkpt lat="46.029511260094196" lon="12.912608229126072"><ele>69.2</ele><time>2026-04-19T10:33:36Z</time></trkpt><trkpt lat="46.029399663262645" lon="12.912609255816244"><ele>68.8</ele><time>2026-04-19T10:33:37Z</time></trkpt><trkpt lat="46.02929867572211" lon="12.912619749365163"><ele>68.4</ele><time>2026-04-19T10:33:38Z</time></trkpt><trkpt lat="46.02920112605341" lon="12.912621760460173"><ele>68.0</ele><time>2026-04-19T10:33:39Z</time></trkpt><trkpt lat="46.02910936126176" lon="12.91263377277321"><ele>67.6</ele><time>2026-04-19T10:33:40Z</time></trkpt><trkpt lat="46.029017574355976" lon="12.912651178451874"><ele>67.19999999999999</ele><time>2026-04-19T10:33:41Z</time></trkpt><trkpt lat="46.028895859274066" lon="12.912681877620816"><ele>66.8</ele><time>2026-04-19T10:33:42Z</time></trkpt><trkpt lat="46.02877118367055" lon="12.912700762470235"><ele>66.39999999999999</ele><time>2026-04-19T10:33:43Z</time></trkpt><trkpt lat="46.02866712501644" lon="12.912712992300778"><ele>66.0</ele><time>2026-04-19T10:33:44Z</time></trkpt><trkpt lat="46.02858122624262" lon="12.91272004033325"><ele>66.0</ele><time>2026-04-19T10:33:45Z</time></trkpt><trkpt lat="46.02848495418704" lon="12.91272272309994"><ele>66.0</ele><time>2026-04-19T10:33:46Z</time></trkpt><trkpt lat="46.02839282095378" lon="12.912721843439483"><ele>66.0</ele><time>2026-04-19T10:33:47Z</time></trkpt><trkpt lat="46.02829604677177" lon="12.91273112094045"><ele>66.0</ele><time>2026-04-19T10:33:48Z</time></trkpt><trkpt lat="46.02820985470244" lon="12.912741033083078"><ele>66.0</ele><time>2026-04-19T10:33:49Z</time></trkpt><trkpt lat="46.02814070522178" lon="12.912758996714935"><ele>66.0</ele><time>2026-04-19T10:33:50Z</time></trkpt><trkpt lat="46.028039509548094" lon="12.912793408210055"><ele>66.2</ele><time>2026-04-19T10:33:52Z</time></trkpt><trkpt lat="46.027946854554344" lon="12.91281618505747"><ele>66.39999999999999</ele><time>2026-04-19T10:33:53Z</time></trkpt><trkpt lat="46.02784720333721" lon="12.912838851638227"><ele>66.6</ele><time>2026-04-19T10:33:54Z</time></trkpt><trkpt lat="46.027736401452536" lon="12.912877249549146"><ele>66.8</ele><time>2026-04-19T10:33:55Z</time></trkpt><trkpt lat="46.02765748791222" lon="12.912903348719102"><ele>67.0</ele><time>2026-04-19T10:33:56Z</time></trkpt><trkpt lat="46.027581316610195" lon="12.912937091999087"><ele>67.0</ele><time>2026-04-19T10:33:57Z</time></trkpt><trkpt lat="46.02749412075813" lon="12.912958658145977"><ele>67.0</ele><time>2026-04-19T10:33:58Z</time></trkpt><trkpt lat="46.027419036309176" lon="12.912986068174588"><ele>67.0</ele><time>2026-04-19T10:33:59Z</time></trkpt><trkpt lat="46.02735485225358" lon="12.912999563228281"><ele>67.0</ele><time>2026-04-19T10:34:00Z</time></trkpt><trkpt lat="46.02728195913851" lon="12.913036982769619"><ele>67.0</ele><time>2026-04-19T10:34:01Z</time></trkpt><trkpt lat="46.02719605585512" lon="12.91308640665946"><ele>67.0</ele><time>2026-04-19T10:34:02Z</time></trkpt><trkpt lat="46.02712012162364" lon="12.913123074849025"><ele>67.16666666666666</ele><time>2026-04-19T10:34:03Z</time></trkpt><trkpt lat="46.02704594066819" lon="12.91313541989537"><ele>67.33333333333333</ele><time>2026-04-19T10:34:04Z</time></trkpt><trkpt lat="46.02696742905765" lon="12.913126432775485"><ele>67.5</ele><time>2026-04-19T10:34:05Z</time></trkpt><trkpt lat="46.026878449208176" lon="12.91312506714267"><ele>67.66666666666667</ele><time>2026-04-19T10:34:06Z</time></trkpt><trkpt lat="46.026776864841004" lon="12.913128557791573"><ele>67.83333333333334</ele><time>2026-04-19T10:34:07Z</time></trkpt><trkpt lat="46.02667469512555" lon="12.913145132168621"><ele>68.0</ele><time>2026-04-19T10:34:08Z</time></trkpt><trkpt lat="46.02657826593244" lon="12.913155100533553"><ele>67.66666666666667</ele><time>2026-04-19T10:34:09Z</time></trkpt><trkpt lat="46.02648763058874" lon="12.913158275689018"><ele>67.33333333333334</ele><time>2026-04-19T10:34:10Z</time></trkpt><trkpt lat="46.026394165499944" lon="12.913153775820916"><ele>67.0</ele><time>2026-04-19T10:34:11Z</time></trkpt><trkpt lat="46.026310030923" lon="12.913153427315875"><ele>66.66666666666667</ele><time>2026-04-19T10:34:12Z</time></trkpt><trkpt lat="46.026236990218095" lon="12.913150831022222"><ele>66.33333333333333</ele><time>2026-04-19T10:34:13Z</time></trkpt><trkpt lat="46.026165560201164" lon="12.913141449095672"><ele>66.0</ele><time>2026-04-19T10:34:14Z</time></trkpt><trkpt lat="46.02607837830576" lon="12.913144506152642"><ele>66.0</ele><time>2026-04-19T10:34:15Z</time></trkpt><trkpt lat="46.025977180952495" lon="12.913160472088999"><ele>66.0</ele><time>2026-04-19T10:34:16Z</time></trkpt><trkpt lat="46.02588881528621" lon="12.913162245999928"><ele>66.0</ele><time>2026-04-19T10:34:17Z</time></trkpt><trkpt lat="46.025798510793926" lon="12.913143897110404"><ele>66.0</ele><time>2026-04-19T10:34:18Z</time></trkpt><trkpt lat="46.025713316277354" lon="12.91314524016447"><ele>66.0</ele><time>2026-04-19T10:34:19Z</time></trkpt><trkpt lat="46.0256190052927" lon="12.913150432423828"><ele>65.8</ele><time>2026-04-19T10:34:20Z</time></trkpt><trkpt lat="46.025501750249255" lon="12.913144904868169"><ele>65.6</ele><time>2026-04-19T10:34:21Z</time></trkpt><trkpt lat="46.02540016349505" lon="12.91315176426847"><ele>65.4</ele><time>2026-04-19T10:34:22Z</time></trkpt><trkpt lat="46.02530298605897" lon="12.913162171225242"><ele>65.2</ele><time>2026-04-19T10:34:23Z</time></trkpt><trkpt lat="46.02520058141903" lon="12.913188417105523"><ele>65.0</ele><time>2026-04-19T10:34:24Z</time></trkpt><trkpt lat="46.0251099475553" lon="12.913225587400794"><ele>65.0</ele><time>2026-04-19T10:34:25Z</time></trkpt><trkpt lat="46.02502933748326" lon="12.913269302759637"><ele>65.0</ele><time>2026-04-19T10:34:26Z</time></trkpt><trkpt lat="46.02496089176027" lon="12.91332955758775"><ele>65.0</ele><time>2026-04-19T10:34:27Z</time></trkpt><trkpt lat="46.02487918147587" lon="12.913387579598675"><ele>65.0</ele><time>2026-04-19T10:34:28Z</time></trkpt><trkpt lat="46.024800708602456" lon="12.913429014170802"><ele>65.0</ele><time>2026-04-19T10:34:29Z</time></trkpt><trkpt lat="46.024704772283904" lon="12.913460131347216"><ele>65.0</ele><time>2026-04-19T10:34:30Z</time></trkpt><trkpt lat="46.02460227968388" lon="12.913488116957783"><ele>65.0</ele><time>2026-04-19T10:34:31Z</time></trkpt><trkpt lat="46.0244979939394" lon="12.913508735790954"><ele>65.0</ele><time>2026-04-19T10:34:32Z</time></trkpt><trkpt lat="46.02439497752558" lon="12.91352519590482"><ele>65.0</ele><time>2026-04-19T10:34:33Z</time></trkpt><trkpt lat="46.024291397058086" lon="12.913545277699273"><ele>65.0</ele><time>2026-04-19T10:34:34Z</time></trkpt><trkpt lat="46.02420086484139" lon="12.91355674562924"><ele>65.0</ele><time>2026-04-19T10:34:35Z</time></trkpt><trkpt lat="46.02411830068517" lon="12.913576129295883"><ele>65.2</ele><time>2026-04-19T10:34:36Z</time></trkpt><trkpt lat="46.02403006521183" lon="12.91362084596916"><ele>65.4</ele><time>2026-04-19T10:34:37Z</time></trkpt><trkpt lat="46.023944077583934" lon="12.913650252252857"><ele>65.6</ele><time>2026-04-19T10:34:38Z</time></trkpt><trkpt lat="46.02384591079649" lon="12.913667031317754"><ele>65.8</ele><time>2026-04-19T10:34:39Z</time></trkpt><trkpt lat="46.023747872876335" lon="12.913668001940357"><ele>66.0</ele><time>2026-04-19T10:34:40Z</time></trkpt><trkpt lat="46.02364028747928" lon="12.913669023653394"><ele>66.0</ele><time>2026-04-19T10:34:41Z</time></trkpt><trkpt lat="46.02353471312864" lon="12.913655957606096"><ele>66.0</ele><time>2026-04-19T10:34:42Z</time></trkpt><trkpt lat="46.02343506871323" lon="12.913640643052357"><ele>66.0</ele><time>2026-04-19T10:34:43Z</time></trkpt><trkpt lat="46.02332069643604" lon="12.913619754812935"><ele>66.0</ele><time>2026-04-19T10:34:44Z</time></trkpt><trkpt lat="46.02321282438648" lon="12.913608016775296"><ele>66.0</ele><time>2026-04-19T10:34:45Z</time></trkpt><trkpt lat="46.02310534427987" lon="12.913601511889844"><ele>65.8</ele><time>2026-04-19T10:34:46Z</time></trkpt><trkpt lat="46.02299343376539" lon="12.913603376796752"><ele>65.6</ele><time>2026-04-19T10:34:47Z</time></trkpt><trkpt lat="46.022880704793906" lon="12.913611531901989"><ele>65.4</ele><time>2026-04-19T10:34:48Z</time></trkpt><trkpt lat="46.022774840806534" lon="12.913613305402382"><ele>65.2</ele><time>2026-04-19T10:34:49Z</time></trkpt><trkpt lat="46.022668888227344" lon="12.913622156185944"><ele>65.0</ele><time>2026-04-19T10:34:50Z</time></trkpt><trkpt lat="46.02255977239811" lon="12.913634812732072"><ele>65.0</ele><time>2026-04-19T10:34:51Z</time></trkpt><trkpt lat="46.022450294078155" lon="12.913645340546198"><ele>65.0</ele><time>2026-04-19T10:34:52Z</time></trkpt><trkpt lat="46.02234553655885" lon="12.913650763362838"><ele>65.0</ele><time>2026-04-19T10:34:53Z</time></trkpt><trkpt lat="46.02224172960625" lon="12.913658559611216"><ele>65.0</ele><time>2026-04-19T10:34:54Z</time></trkpt><trkpt lat="46.02213814292867" lon="12.91365723596221"><ele>65.0</ele><time>2026-04-19T10:34:55Z</time></trkpt><trkpt lat="46.02203653278351" lon="12.913653514821677"><ele>65.0</ele><time>2026-04-19T10:34:56Z</time></trkpt><trkpt lat="46.02192505120258" lon="12.913643203618872"><ele>65.0</ele><time>2026-04-19T10:34:57Z</time></trkpt><trkpt lat="46.02182588560479" lon="12.913632367478998"><ele>65.0</ele><time>2026-04-19T10:34:58Z</time></trkpt><trkpt lat="46.02173515251519" lon="12.9136431370202"><ele>65.0</ele><time>2026-04-19T10:34:59Z</time></trkpt><trkpt lat="46.02165823028431" lon="12.91365069134212"><ele>65.0</ele><time>2026-04-19T10:35:00Z</time></trkpt><trkpt lat="46.02158380553934" lon="12.91362765533241"><ele>65.0</ele><time>2026-04-19T10:35:01Z</time></trkpt><trkpt lat="46.02149552480869" lon="12.913572233082267"><ele>65.0</ele><time>2026-04-19T10:35:02Z</time></trkpt><trkpt lat="46.02140247756144" lon="12.913535812318095"><ele>65.0</ele><time>2026-04-19T10:35:03Z</time></trkpt><trkpt lat="46.0213028204917" lon="12.913509727988707"><ele>65.0</ele><time>2026-04-19T10:35:04Z</time></trkpt><trkpt lat="46.021191833029164" lon="12.913484153086944"><ele>65.0</ele><time>2026-04-19T10:35:05Z</time></trkpt><trkpt lat="46.02109833196814" lon="12.913450499619653"><ele>65.0</ele><time>2026-04-19T10:35:06Z</time></trkpt><trkpt lat="46.02102046565748" lon="12.913433802722482"><ele>65.0</ele><time>2026-04-19T10:35:07Z</time></trkpt><trkpt lat="46.02093745190369" lon="12.913405344132121"><ele>65.0</ele><time>2026-04-19T10:35:08Z</time></trkpt><trkpt lat="46.020843374606834" lon="12.91337097032138"><ele>65.0</ele><time>2026-04-19T10:35:09Z</time></trkpt><trkpt lat="46.020745205940145" lon="12.913337514596208"><ele>65.0</ele><time>2026-04-19T10:35:10Z</time></trkpt><trkpt lat="46.02065405472365" lon="12.913307914827614"><ele>64.83333333333334</ele><time>2026-04-19T10:35:11Z</time></trkpt><trkpt lat="46.02057674635297" lon="12.913290508216326"><ele>64.66666666666667</ele><time>2026-04-19T10:35:12Z</time></trkpt><trkpt lat="46.020508285839874" lon="12.91329328539927"><ele>64.5</ele><time>2026-04-19T10:35:13Z</time></trkpt><trkpt lat="46.02042784761021" lon="12.913317420315503"><ele>64.33333333333333</ele><time>2026-04-19T10:35:14Z</time></trkpt><trkpt lat="46.02034123810226" lon="12.913332563712292"><ele>64.16666666666666</ele><time>2026-04-19T10:35:15Z</time></trkpt><trkpt lat="46.02025885101811" lon="12.91334241102865"><ele>64.0</ele><time>2026-04-19T10:35:16Z</time></trkpt><trkpt lat="46.02016490245756" lon="12.913378315130412"><ele>64.0</ele><time>2026-04-19T10:35:17Z</time></trkpt><trkpt lat="46.02008268926408" lon="12.913422784493365"><ele>64.0</ele><time>2026-04-19T10:35:18Z</time></trkpt><trkpt lat="46.020001471464994" lon="12.913476613978116"><ele>64.0</ele><time>2026-04-19T10:35:19Z</time></trkpt><trkpt lat="46.01990950903455" lon="12.91355737554665"><ele>64.0</ele><time>2026-04-19T10:35:20Z</time></trkpt><trkpt lat="46.01981380287635" lon="12.913642139961095"><ele>64.0</ele><time>2026-04-19T10:35:21Z</time></trkpt><trkpt lat="46.01972586054321" lon="12.913708965582769"><ele>63.99999999999999</ele><time>2026-04-19T10:35:22Z</time></trkpt><trkpt lat="46.019649512099335" lon="12.913754333472518"><ele>64.0</ele><time>2026-04-19T10:35:23Z</time></trkpt><trkpt lat="46.01958036536506" lon="12.91379819395883"><ele>64.0</ele><time>2026-04-19T10:35:24Z</time></trkpt><trkpt lat="46.019506150275326" lon="12.91381695012486"><ele>64.0</ele><time>2026-04-19T10:35:25Z</time></trkpt><trkpt lat="46.01941391522494" lon="12.9138216679309"><ele>63.99999999999999</ele><time>2026-04-19T10:35:26Z</time></trkpt><trkpt lat="46.01932740763929" lon="12.913820806147985"><ele>64.0</ele><time>2026-04-19T10:35:27Z</time></trkpt><trkpt lat="46.019223519352984" lon="12.9138331133337"><ele>63.5</ele><time>2026-04-19T10:35:28Z</time></trkpt><trkpt lat="46.019118866461866" lon="12.913835743415808"><ele>63.0</ele><time>2026-04-19T10:35:29Z</time></trkpt><trkpt lat="46.01900451563072" lon="12.913829530420905"><ele>62.5</ele><time>2026-04-19T10:35:30Z</time></trkpt><trkpt lat="46.01888300318344" lon="12.913820677859567"><ele>62.0</ele><time>2026-04-19T10:35:31Z</time></trkpt><trkpt lat="46.018744375933515" lon="12.913805516508381"><ele>62.0</ele><time>2026-04-19T10:35:32Z</time></trkpt><trkpt lat="46.01858716429224" lon="12.913780561349785"><ele>62.0</ele><time>2026-04-19T10:35:33Z</time></trkpt><trkpt lat="46.01844564382408" lon="12.913757649340521"><ele>62.0</ele><time>2026-04-19T10:35:34Z</time></trkpt><trkpt lat="46.01833194178787" lon="12.913743038395008"><ele>62.0</ele><time>2026-04-19T10:35:35Z</time></trkpt><trkpt lat="46.018229662094576" lon="12.913745573434234"><ele>62.2</ele><time>2026-04-19T10:35:36Z</time></trkpt><trkpt lat="46.01812234170291" lon="12.913763419630135"><ele>62.400000000000006</ele><time>2026-04-19T10:35:37Z</time></trkpt><trkpt lat="46.01801498257884" lon="12.913791118850263"><ele>62.599999999999994</ele><time>2026-04-19T10:35:38Z</time></trkpt><trkpt lat="46.01790319053187" lon="12.91379419600569"><ele>62.8</ele><time>2026-04-19T10:35:39Z</time></trkpt><trkpt lat="46.01778412304022" lon="12.913790501674141"><ele>63.0</ele><time>2026-04-19T10:35:40Z</time></trkpt><trkpt lat="46.017664853649286" lon="12.913771058416598"><ele>63.0</ele><time>2026-04-19T10:35:41Z</time></trkpt><trkpt lat="46.017543169599946" lon="12.913755858033982"><ele>63.0</ele><time>2026-04-19T10:35:42Z</time></trkpt><trkpt lat="46.01744284334192" lon="12.913750092382534"><ele>63.0</ele><time>2026-04-19T10:35:43Z</time></trkpt><trkpt lat="46.01734770510689" lon="12.913747933129642"><ele>63.0</ele><time>2026-04-19T10:35:44Z</time></trkpt><trkpt lat="46.01725532922171" lon="12.913737182747818"><ele>63.0</ele><time>2026-04-19T10:35:45Z</time></trkpt><trkpt lat="46.017160471594366" lon="12.91373284718779"><ele>62.8</ele><time>2026-04-19T10:35:46Z</time></trkpt><trkpt lat="46.01707528732203" lon="12.913722164658195"><ele>62.599999999999994</ele><time>2026-04-19T10:35:47Z</time></trkpt><trkpt lat="46.01698286726201" lon="12.913717439911121"><ele>62.400000000000006</ele><time>2026-04-19T10:35:48Z</time></trkpt><trkpt lat="46.01688393286818" lon="12.913717971030225"><ele>62.2</ele><time>2026-04-19T10:35:49Z</time></trkpt><trkpt lat="46.01679348307466" lon="12.91371009450769"><ele>62.0</ele><time>2026-04-19T10:35:50Z</time></trkpt><trkpt lat="46.016711280564884" lon="12.913688775141138"><ele>61.8</ele><time>2026-04-19T10:35:51Z</time></trkpt><trkpt lat="46.016633478236365" lon="12.91367192000994"><ele>61.6</ele><time>2026-04-19T10:35:52Z</time></trkpt><trkpt lat="46.01654093300861" lon="12.913658992065303"><ele>61.39999999999999</ele><time>2026-04-19T10:35:53Z</time></trkpt><trkpt lat="46.01647405583021" lon="12.913634225301656"><ele>61.199999999999996</ele><time>2026-04-19T10:35:54Z</time></trkpt><trkpt lat="46.01636140474585" lon="12.913626203625657"><ele>61.0</ele><time>2026-04-19T10:35:56Z</time></trkpt><trkpt lat="46.016243967966794" lon="12.913575302775786"><ele>60.99999999999999</ele><time>2026-04-19T10:35:58Z</time></trkpt><trkpt lat="46.01616435486097" lon="12.91354833780458"><ele>61.0</ele><time>2026-04-19T10:35:59Z</time></trkpt><trkpt lat="46.016065722305186" lon="12.913527073173865"><ele>61.0</ele><time>2026-04-19T10:36:00Z</time></trkpt><trkpt lat="46.01597953915021" lon="12.913506974992847"><ele>61.0</ele><time>2026-04-19T10:36:01Z</time></trkpt><trkpt lat="46.01590417698803" lon="12.91349506613137"><ele>60.99999999999999</ele><time>2026-04-19T10:36:02Z</time></trkpt><trkpt lat="46.01581700703886" lon="12.913492672635895"><ele>61.0</ele><time>2026-04-19T10:36:03Z</time></trkpt><trkpt lat="46.01572166233691" lon="12.913481633545423"><ele>61.199999999999996</ele><time>2026-04-19T10:36:04Z</time></trkpt><trkpt lat="46.015608377981685" lon="12.91346248762085"><ele>61.39999999999999</ele><time>2026-04-19T10:36:05Z</time></trkpt><trkpt lat="46.01551166175078" lon="12.913448584433256"><ele>61.6</ele><time>2026-04-19T10:36:06Z</time></trkpt><trkpt lat="46.01541128589095" lon="12.913444486052954"><ele>61.8</ele><time>2026-04-19T10:36:07Z</time></trkpt><trkpt lat="46.01531483380976" lon="12.913445775314116"><ele>62.0</ele><time>2026-04-19T10:36:08Z</time></trkpt><trkpt lat="46.01521876437951" lon="12.913445577745572"><ele>62.0</ele><time>2026-04-19T10:36:09Z</time></trkpt><trkpt lat="46.01511927267302" lon="12.913437882570527"><ele>62.0</ele><time>2026-04-19T10:36:10Z</time></trkpt><trkpt lat="46.0150106274199" lon="12.913425804510029"><ele>62.0</ele><time>2026-04-19T10:36:11Z</time></trkpt><trkpt lat="46.01488054155497" lon="12.913415404614513"><ele>62.0</ele><time>2026-04-19T10:36:12Z</time></trkpt><trkpt lat="46.01476131122772" lon="12.913401953029128"><ele>61.8</ele><time>2026-04-19T10:36:13Z</time></trkpt><trkpt lat="46.01464724986517" lon="12.913386047572448"><ele>61.6</ele><time>2026-04-19T10:36:14Z</time></trkpt><trkpt lat="46.0145420988227" lon="12.913379127220031"><ele>61.39999999999999</ele><time>2026-04-19T10:36:15Z</time></trkpt><trkpt lat="46.01444302462112" lon="12.913375858017185"><ele>61.199999999999996</ele><time>2026-04-19T10:36:16Z</time></trkpt><trkpt lat="46.014346680499244" lon="12.913380824013148"><ele>61.0</ele><time>2026-04-19T10:36:17Z</time></trkpt><trkpt lat="46.014258721245554" lon="12.913379624884392"><ele>61.0</ele><time>2026-04-19T10:36:18Z</time></trkpt><trkpt lat="46.01418370193695" lon="12.913357355008282"><ele>60.99999999999999</ele><time>2026-04-19T10:36:19Z</time></trkpt><trkpt lat="46.01407546498626" lon="12.91332390198931"><ele>60.99999999999999</ele><time>2026-04-19T10:36:20Z</time></trkpt><trkpt lat="46.013980519240896" lon="12.913302435073204"><ele>61.0</ele><time>2026-04-19T10:36:21Z</time></trkpt><trkpt lat="46.01387363002372" lon="12.913272952573543"><ele>61.0</ele><time>2026-04-19T10:36:22Z</time></trkpt><trkpt lat="46.013784551062315" lon="12.913254374373437"><ele>61.0</ele><time>2026-04-19T10:36:23Z</time></trkpt><trkpt lat="46.013691694400215" lon="12.91325462864478"><ele>60.99999999999999</ele><time>2026-04-19T10:36:24Z</time></trkpt><trkpt lat="46.013595860784314" lon="12.913266029638196"><ele>60.99999999999999</ele><time>2026-04-19T10:36:25Z</time></trkpt><trkpt lat="46.013495186809585" lon="12.913265765533582"><ele>61.0</ele><time>2026-04-19T10:36:26Z</time></trkpt><trkpt lat="46.01338721615387" lon="12.913230074806494"><ele>61.0</ele><time>2026-04-19T10:36:27Z</time></trkpt><trkpt lat="46.01326000365844" lon="12.913191821016374"><ele>61.0</ele><time>2026-04-19T10:36:28Z</time></trkpt><trkpt lat="46.013126446733125" lon="12.913161390166039"><ele>60.99999999999999</ele><time>2026-04-19T10:36:29Z</time></trkpt><trkpt lat="46.01301669987118" lon="12.91313692818168"><ele>60.99999999999999</ele><time>2026-04-19T10:36:30Z</time></trkpt><trkpt lat="46.01291315723536" lon="12.91312189205156"><ele>61.0</ele><time>2026-04-19T10:36:31Z</time></trkpt><trkpt lat="46.01281501080192" lon="12.913115522451097"><ele>61.0</ele><time>2026-04-19T10:36:32Z</time></trkpt><trkpt lat="46.012716082537295" lon="12.913098553848945"><ele>61.0</ele><time>2026-04-19T10:36:33Z</time></trkpt><trkpt lat="46.01261018802079" lon="12.913071034408974"><ele>60.99999999999999</ele><time>2026-04-19T10:36:34Z</time></trkpt><trkpt lat="46.01251395171218" lon="12.9130366316861"><ele>60.99999999999999</ele><time>2026-04-19T10:36:35Z</time></trkpt><trkpt lat="46.01240939598725" lon="12.913005858742132"><ele>61.0</ele><time>2026-04-19T10:36:36Z</time></trkpt><trkpt lat="46.012302939324115" lon="12.912992711766172"><ele>61.0</ele><time>2026-04-19T10:36:37Z</time></trkpt><trkpt lat="46.0121999608946" lon="12.912981266346867"><ele>61.0</ele><time>2026-04-19T10:36:38Z</time></trkpt><trkpt lat="46.01209868652888" lon="12.912971954975097"><ele>60.99999999999999</ele><time>2026-04-19T10:36:39Z</time></trkpt><trkpt lat="46.01201325736636" lon="12.912964591479732"><ele>60.99999999999999</ele><time>2026-04-19T10:36:40Z</time></trkpt><trkpt lat="46.01192584824399" lon="12.912957395179307"><ele>61.0</ele><time>2026-04-19T10:36:41Z</time></trkpt><trkpt lat="46.01182639729314" lon="12.912951930681434"><ele>61.0</ele><time>2026-04-19T10:36:42Z</time></trkpt><trkpt lat="46.01173296368569" lon="12.912940415035767"><ele>61.0</ele><time>2026-04-19T10:36:43Z</time></trkpt><trkpt lat="46.011640261151335" lon="12.91290448438827"><ele>60.99999999999999</ele><time>2026-04-19T10:36:44Z</time></trkpt><trkpt lat="46.011561138158704" lon="12.912877746764186"><ele>60.99999999999999</ele><time>2026-04-19T10:36:45Z</time></trkpt><trkpt lat="46.01148582410996" lon="12.91286261624618"><ele>61.0</ele><time>2026-04-19T10:36:46Z</time></trkpt><trkpt lat="46.01139007083982" lon="12.912870499070305"><ele>61.0</ele><time>2026-04-19T10:36:47Z</time></trkpt><trkpt lat="46.011283259332345" lon="12.912898009912649"><ele>61.0</ele><time>2026-04-19T10:36:48Z</time></trkpt><trkpt lat="46.011172991971605" lon="12.912920719511625"><ele>60.99999999999999</ele><time>2026-04-19T10:36:49Z</time></trkpt><trkpt lat="46.01106714558795" lon="12.912926422445183"><ele>60.99999999999999</ele><time>2026-04-19T10:36:50Z</time></trkpt><trkpt lat="46.01097941182741" lon="12.912934990418883"><ele>61.0</ele><time>2026-04-19T10:36:51Z</time></trkpt><trkpt lat="46.01089277079823" lon="12.91295275704173"><ele>61.0</ele><time>2026-04-19T10:36:52Z</time></trkpt><trkpt lat="46.01079222129717" lon="12.91297032161249"><ele>60.83333333333333</ele><time>2026-04-19T10:36:53Z</time></trkpt><trkpt lat="46.01069719145952" lon="12.91298291668017"><ele>60.666666666666664</ele><time>2026-04-19T10:36:54Z</time></trkpt><trkpt lat="46.01060375883415" lon="12.912982749850613"><ele>60.5</ele><time>2026-04-19T10:36:55Z</time></trkpt><trkpt lat="46.01052453571013" lon="12.91297818493317"><ele>60.33333333333333</ele><time>2026-04-19T10:36:56Z</time></trkpt><trkpt lat="46.01044699929541" lon="12.912958878846505"><ele>60.166666666666664</ele><time>2026-04-19T10:36:57Z</time></trkpt><trkpt lat="46.01036649457948" lon="12.912914379509086"><ele>60.0</ele><time>2026-04-19T10:36:58Z</time></trkpt><trkpt lat="46.01026663911215" lon="12.91285127713397"><ele>60.0</ele><time>2026-04-19T10:36:59Z</time></trkpt><trkpt lat="46.010157395396895" lon="12.912784097692715"><ele>60.0</ele><time>2026-04-19T10:37:00Z</time></trkpt><trkpt lat="46.01005881158365" lon="12.912735255287048"><ele>60.0</ele><time>2026-04-19T10:37:01Z</time></trkpt><trkpt lat="46.00996421455323" lon="12.912700259720106"><ele>60.0</ele><time>2026-04-19T10:37:02Z</time></trkpt><trkpt lat="46.00984696804739" lon="12.912663761393288"><ele>60.0</ele><time>2026-04-19T10:37:03Z</time></trkpt><trkpt lat="46.00973824030932" lon="12.912625893946936"><ele>59.8</ele><time>2026-04-19T10:37:04Z</time></trkpt><trkpt lat="46.00963479937407" lon="12.912583155421956"><ele>59.6</ele><time>2026-04-19T10:37:05Z</time></trkpt><trkpt lat="46.00953677345507" lon="12.91254927766798"><ele>59.400000000000006</ele><time>2026-04-19T10:37:06Z</time></trkpt><trkpt lat="46.00943654819915" lon="12.912522943259843"><ele>59.2</ele><time>2026-04-19T10:37:07Z</time></trkpt><trkpt lat="46.0093296820152" lon="12.91248303665523"><ele>59.0</ele><time>2026-04-19T10:37:08Z</time></trkpt><trkpt lat="46.00922455285746" lon="12.91244282787755"><ele>59.2</ele><time>2026-04-19T10:37:09Z</time></trkpt><trkpt lat="46.00913132092327" lon="12.912397056997207"><ele>59.400000000000006</ele><time>2026-04-19T10:37:10Z</time></trkpt><trkpt lat="46.00904424288971" lon="12.912356774512979"><ele>59.6</ele><time>2026-04-19T10:37:11Z</time></trkpt><trkpt lat="46.00894463672559" lon="12.91232660879155"><ele>59.8</ele><time>2026-04-19T10:37:12Z</time></trkpt><trkpt lat="46.008829625179395" lon="12.912302533497328"><ele>60.0</ele><time>2026-04-19T10:37:13Z</time></trkpt><trkpt lat="46.00872350440781" lon="12.912284124222627"><ele>60.0</ele><time>2026-04-19T10:37:14Z</time></trkpt><trkpt lat="46.008618096000305" lon="12.912268341500567"><ele>60.0</ele><time>2026-04-19T10:37:15Z</time></trkpt><trkpt lat="46.008518944546836" lon="12.912260667850116"><ele>60.0</ele><time>2026-04-19T10:37:16Z</time></trkpt><trkpt lat="46.00842482554613" lon="12.912237076028317"><ele>60.0</ele><time>2026-04-19T10:37:17Z</time></trkpt><trkpt lat="46.00832232651337" lon="12.912220977462333"><ele>60.0</ele><time>2026-04-19T10:37:18Z</time></trkpt><trkpt lat="46.00822737909009" lon="12.912190377485622"><ele>59.8</ele><time>2026-04-19T10:37:19Z</time></trkpt><trkpt lat="46.00812098381946" lon="12.912152241299285"><ele>59.6</ele><time>2026-04-19T10:37:20Z</time></trkpt><trkpt lat="46.00801514819143" lon="12.912127469710892"><ele>59.400000000000006</ele><time>2026-04-19T10:37:21Z</time></trkpt><trkpt lat="46.00792496140429" lon="12.912108807029227"><ele>59.2</ele><time>2026-04-19T10:37:22Z</time></trkpt><trkpt lat="46.0078191652998" lon="12.912103110385088"><ele>59.0</ele><time>2026-04-19T10:37:23Z</time></trkpt><trkpt lat="46.00771445243507" lon="12.912109164763473"><ele>59.0</ele><time>2026-04-19T10:37:24Z</time></trkpt><trkpt lat="46.007625216073265" lon="12.912086484873914"><ele>59.00000000000001</ele><time>2026-04-19T10:37:25Z</time></trkpt><trkpt lat="46.00752375191399" lon="12.912073547105834"><ele>59.00000000000001</ele><time>2026-04-19T10:37:26Z</time></trkpt><trkpt lat="46.007432165024994" lon="12.912056238986635"><ele>59.0</ele><time>2026-04-19T10:37:27Z</time></trkpt><trkpt lat="46.00733654444298" lon="12.9120405664751"><ele>59.0</ele><time>2026-04-19T10:37:28Z</time></trkpt><trkpt lat="46.00726580072632" lon="12.912013890455666"><ele>58.833333333333336</ele><time>2026-04-19T10:37:29Z</time></trkpt><trkpt lat="46.00718607091352" lon="12.911995220091713"><ele>58.66666666666667</ele><time>2026-04-19T10:37:30Z</time></trkpt><trkpt lat="46.0071040433969" lon="12.91198738669405"><ele>58.5</ele><time>2026-04-19T10:37:31Z</time></trkpt><trkpt lat="46.00702641181886" lon="12.911977552773148"><ele>58.33333333333333</ele><time>2026-04-19T10:37:32Z</time></trkpt><trkpt lat="46.00695040870548" lon="12.91196029346229"><ele>58.166666666666664</ele><time>2026-04-19T10:37:33Z</time></trkpt><trkpt lat="46.0068738906159" lon="12.911937219338986"><ele>58.0</ele><time>2026-04-19T10:37:34Z</time></trkpt><trkpt lat="46.006798720743824" lon="12.911897549179884"><ele>57.99999999999999</ele><time>2026-04-19T10:37:35Z</time></trkpt><trkpt lat="46.00674241324701" lon="12.911850265631841"><ele>58.0</ele><time>2026-04-19T10:37:36Z</time></trkpt><trkpt lat="46.00663382983902" lon="12.911842978812302"><ele>58.0</ele><time>2026-04-19T10:37:38Z</time></trkpt><trkpt lat="46.006564387288215" lon="12.911826911932696"><ele>58.0</ele><time>2026-04-19T10:37:39Z</time></trkpt><trkpt lat="46.00647423998246" lon="12.911795031933694"><ele>57.99999999999999</ele><time>2026-04-19T10:37:40Z</time></trkpt><trkpt lat="46.00636749733559" lon="12.911765811704065"><ele>58.0</ele><time>2026-04-19T10:37:41Z</time></trkpt><trkpt lat="46.00627282609902" lon="12.911742478936631"><ele>57.99999999999999</ele><time>2026-04-19T10:37:42Z</time></trkpt><trkpt lat="46.00620303146864" lon="12.911723111267786"><ele>58.0</ele><time>2026-04-19T10:37:43Z</time></trkpt><trkpt lat="46.00612573279702" lon="12.911693710417367"><ele>58.0</ele><time>2026-04-19T10:37:44Z</time></trkpt><trkpt lat="46.006051503851594" lon="12.911643431897428"><ele>58.0</ele><time>2026-04-19T10:37:45Z</time></trkpt><trkpt lat="46.005947585619644" lon="12.911615118463686"><ele>57.99999999999999</ele><time>2026-04-19T10:37:46Z</time></trkpt><trkpt lat="46.0058469039076" lon="12.911590189708287"><ele>58.0</ele><time>2026-04-19T10:37:47Z</time></trkpt><trkpt lat="46.00577212922994" lon="12.911545422626844"><ele>57.83333333333333</ele><time>2026-04-19T10:37:48Z</time></trkpt><trkpt lat="46.00568753970215" lon="12.911504246465379"><ele>57.666666666666664</ele><time>2026-04-19T10:37:49Z</time></trkpt><trkpt lat="46.00560768973635" lon="12.911478227476675"><ele>57.5</ele><time>2026-04-19T10:37:50Z</time></trkpt><trkpt lat="46.0055126147305" lon="12.91147188510076"><ele>57.33333333333333</ele><time>2026-04-19T10:37:51Z</time></trkpt><trkpt lat="46.005413683417714" lon="12.91147657229209"><ele>57.166666666666664</ele><time>2026-04-19T10:37:52Z</time></trkpt><trkpt lat="46.005340094841834" lon="12.911503701736429"><ele>57.0</ele><time>2026-04-19T10:37:53Z</time></trkpt><trkpt lat="46.00526688847982" lon="12.911537432359417"><ele>57.0</ele><time>2026-04-19T10:37:54Z</time></trkpt><trkpt lat="46.00519703386031" lon="12.911527293429492"><ele>56.99999999999999</ele><time>2026-04-19T10:37:55Z</time></trkpt><trkpt lat="46.00511882796536" lon="12.911495896867255"><ele>57.0</ele><time>2026-04-19T10:37:56Z</time></trkpt><trkpt lat="46.00504429744499" lon="12.911474508281358"><ele>57.0</ele><time>2026-04-19T10:37:57Z</time></trkpt><trkpt lat="46.0049683227174" lon="12.911468187499207"><ele>56.99999999999999</ele><time>2026-04-19T10:37:58Z</time></trkpt><trkpt lat="46.00490059000663" lon="12.911431732704314"><ele>57.0</ele><time>2026-04-19T10:37:59Z</time></trkpt><trkpt lat="46.00483410478393" lon="12.911389659945247"><ele>57.0</ele><time>2026-04-19T10:38:00Z</time></trkpt><trkpt lat="46.00475894486756" lon="12.911358693192067"><ele>57.166666666666664</ele><time>2026-04-19T10:38:01Z</time></trkpt><trkpt lat="46.00469350802157" lon="12.911342447745623"><ele>57.33333333333333</ele><time>2026-04-19T10:38:02Z</time></trkpt><trkpt lat="46.004574664738485" lon="12.911355084217101"><ele>57.5</ele><time>2026-04-19T10:38:04Z</time></trkpt><trkpt lat="46.0045113647891" lon="12.91136040244794"><ele>57.666666666666664</ele><time>2026-04-19T10:38:05Z</time></trkpt><trkpt lat="46.004434949018865" lon="12.911350793650326"><ele>57.83333333333333</ele><time>2026-04-19T10:38:06Z</time></trkpt><trkpt lat="46.004365021438836" lon="12.911381856965718"><ele>58.0</ele><time>2026-04-19T10:38:07Z</time></trkpt><trkpt lat="46.004248960934945" lon="12.911388673359982"><ele>57.99999999999999</ele><time>2026-04-19T10:38:09Z</time></trkpt><trkpt lat="46.00418625983209" lon="12.911355325425003"><ele>58.0</ele><time>2026-04-19T10:38:10Z</time></trkpt><trkpt lat="46.00405883631828" lon="12.91132756170462"><ele>58.0</ele><time>2026-04-19T10:38:12Z</time></trkpt><trkpt lat="46.00397924408528" lon="12.911325858619776"><ele>58.0</ele><time>2026-04-19T10:38:13Z</time></trkpt><trkpt lat="46.003896730398914" lon="12.911339974041239"><ele>57.99999999999999</ele><time>2026-04-19T10:38:14Z</time></trkpt><trkpt lat="46.003807434381216" lon="12.9113659723122"><ele>58.0</ele><time>2026-04-19T10:38:15Z</time></trkpt><trkpt lat="46.00373977707625" lon="12.911383973247716"><ele>57.8</ele><time>2026-04-19T10:38:16Z</time></trkpt><trkpt lat="46.00361846403433" lon="12.91135036849699"><ele>57.599999999999994</ele><time>2026-04-19T10:38:18Z</time></trkpt><trkpt lat="46.003532955655835" lon="12.911301862891325"><ele>57.400000000000006</ele><time>2026-04-19T10:38:19Z</time></trkpt><trkpt lat="46.00345308820113" lon="12.911270989368587"><ele>57.2</ele><time>2026-04-19T10:38:20Z</time></trkpt><trkpt lat="46.00337855421735" lon="12.911268205394492"><ele>57.0</ele><time>2026-04-19T10:38:21Z</time></trkpt><trkpt lat="46.00329331548525" lon="12.911285905725155"><ele>56.833333333333336</ele><time>2026-04-19T10:38:22Z</time></trkpt><trkpt lat="46.00320164890532" lon="12.911301369306756"><ele>56.66666666666667</ele><time>2026-04-19T10:38:23Z</time></trkpt><trkpt lat="46.00311912252172" lon="12.911296403517104"><ele>56.5</ele><time>2026-04-19T10:38:24Z</time></trkpt><trkpt lat="46.003044682628904" lon="12.911261266109474"><ele>56.333333333333336</ele><time>2026-04-19T10:38:25Z</time></trkpt><trkpt lat="46.00297619776455" lon="12.911242902705366"><ele>56.16666666666667</ele><time>2026-04-19T10:38:26Z</time></trkpt><trkpt lat="46.002891712929234" lon="12.911214129528409"><ele>56.0</ele><time>2026-04-19T10:38:27Z</time></trkpt><trkpt lat="46.00282646834371" lon="12.911206818830456"><ele>56.00000000000001</ele><time>2026-04-19T10:38:28Z</time></trkpt><trkpt lat="46.002724658251864" lon="12.911247666070125"><ele>56.0</ele><time>2026-04-19T10:38:30Z</time></trkpt><trkpt lat="46.00265703815147" lon="12.91126528339509"><ele>56.0</ele><time>2026-04-19T10:38:31Z</time></trkpt><trkpt lat="46.002586190644884" lon="12.911268174584949"><ele>56.0</ele><time>2026-04-19T10:38:32Z</time></trkpt><trkpt lat="46.002516558642164" lon="12.911285539930466"><ele>56.00000000000001</ele><time>2026-04-19T10:38:33Z</time></trkpt><trkpt lat="46.002411172635455" lon="12.911313953510206"><ele>56.0</ele><time>2026-04-19T10:38:35Z</time></trkpt><trkpt lat="46.00230656320566" lon="12.911325497526626"><ele>56.199999999999996</ele><time>2026-04-19T10:38:37Z</time></trkpt><trkpt lat="46.002195600696666" lon="12.911363859469647"><ele>56.39999999999999</ele><time>2026-04-19T10:38:39Z</time></trkpt><trkpt lat="46.00209983955389" lon="12.911326875713373"><ele>56.6</ele><time>2026-04-19T10:38:40Z</time></trkpt><trkpt lat="46.001996399351704" lon="12.911297178901895"><ele>56.8</ele><time>2026-04-19T10:38:41Z</time></trkpt><trkpt lat="46.00187691102262" lon="12.911260652952759"><ele>57.0</ele><time>2026-04-19T10:38:42Z</time></trkpt><trkpt lat="46.00175760940448" lon="12.91124148309455"><ele>57.0</ele><time>2026-04-19T10:38:43Z</time></trkpt><trkpt lat="46.001666975875494" lon="12.911239771958959"><ele>57.0</ele><time>2026-04-19T10:38:44Z</time></trkpt><trkpt lat="46.00158069942416" lon="12.91124320165292"><ele>57.0</ele><time>2026-04-19T10:38:45Z</time></trkpt><trkpt lat="46.00150384216867" lon="12.911238791433222"><ele>57.0</ele><time>2026-04-19T10:38:46Z</time></trkpt><trkpt lat="46.00143366384528" lon="12.911242925363709"><ele>57.0</ele><time>2026-04-19T10:38:47Z</time></trkpt><trkpt lat="46.00135868129533" lon="12.911253198108396"><ele>57.0</ele><time>2026-04-19T10:38:48Z</time></trkpt><trkpt lat="46.001276893389736" lon="12.911263044725285"><ele>56.8</ele><time>2026-04-19T10:38:49Z</time></trkpt><trkpt lat="46.00120974900375" lon="12.911233046205641"><ele>56.6</ele><time>2026-04-19T10:38:50Z</time></trkpt><trkpt lat="46.00106473203844" lon="12.911229872901878"><ele>56.39999999999999</ele><time>2026-04-19T10:38:52Z</time></trkpt><trkpt lat="46.000973014109526" lon="12.911238356025992"><ele>56.199999999999996</ele><time>2026-04-19T10:38:53Z</time></trkpt><trkpt lat="46.00089076481072" lon="12.911231698367084"><ele>56.0</ele><time>2026-04-19T10:38:54Z</time></trkpt><trkpt lat="46.00082166136303" lon="12.911203362925518"><ele>55.8</ele><time>2026-04-19T10:38:55Z</time></trkpt><trkpt lat="46.00074705355092" lon="12.911180520518977"><ele>55.599999999999994</ele><time>2026-04-19T10:38:56Z</time></trkpt><trkpt lat="46.000650614494376" lon="12.911165146192806"><ele>55.4</ele><time>2026-04-19T10:38:57Z</time></trkpt><trkpt lat="46.00053355953735" lon="12.911161773893603"><ele>55.2</ele><time>2026-04-19T10:38:58Z</time></trkpt><trkpt lat="46.00042944101562" lon="12.911168333125389"><ele>55.0</ele><time>2026-04-19T10:38:59Z</time></trkpt><trkpt lat="46.000351010715534" lon="12.91118253069712"><ele>55.0</ele><time>2026-04-19T10:39:00Z</time></trkpt><trkpt lat="46.00023670680913" lon="12.911192161962731"><ele>55.0</ele><time>2026-04-19T10:39:02Z</time></trkpt><trkpt lat="46.000098589519354" lon="12.911196866395207"><ele>55.0</ele><time>2026-04-19T10:39:06Z</time></trkpt><trkpt lat="46.00001494731603" lon="12.911199953426156"><ele>55.0</ele><time>2026-04-19T10:39:07Z</time></trkpt><trkpt lat="45.999918251516355" lon="12.911199668879632"><ele>55.0</ele><time>2026-04-19T10:39:08Z</time></trkpt><trkpt lat="45.99980319786414" lon="12.91120135888345"><ele>55.0</ele><time>2026-04-19T10:39:09Z</time></trkpt><trkpt lat="45.999718710200455" lon="12.911182683390297"><ele>55.0</ele><time>2026-04-19T10:39:10Z</time></trkpt><trkpt lat="45.999569129673446" lon="12.911167412972194"><ele>55.0</ele><time>2026-04-19T10:39:12Z</time></trkpt><trkpt lat="45.999464511117075" lon="12.911139278341018"><ele>55.0</ele><time>2026-04-19T10:39:13Z</time></trkpt><trkpt lat="45.999369365671626" lon="12.91114076220031"><ele>55.0</ele><time>2026-04-19T10:39:14Z</time></trkpt><trkpt lat="45.99927923901928" lon="12.911173195139217"><ele>55.0</ele><time>2026-04-19T10:39:15Z</time></trkpt><trkpt lat="45.99918673722216" lon="12.911181099436284"><ele>55.0</ele><time>2026-04-19T10:39:16Z</time></trkpt><trkpt lat="45.999095674584765" lon="12.911193812951874"><ele>55.0</ele><time>2026-04-19T10:39:17Z</time></trkpt><trkpt lat="45.999005469375625" lon="12.911194116271014"><ele>55.0</ele><time>2026-04-19T10:39:18Z</time></trkpt><trkpt lat="45.99890495689577" lon="12.911193715208697"><ele>55.0</ele><time>2026-04-19T10:39:19Z</time></trkpt><trkpt lat="45.99880467358341" lon="12.91119116482455"><ele>54.99999999999999</ele><time>2026-04-19T10:39:20Z</time></trkpt><trkpt lat="45.99871334339948" lon="12.911192380872318"><ele>55.0</ele><time>2026-04-19T10:39:21Z</time></trkpt><trkpt lat="45.998624555833494" lon="12.91118997182162"><ele>55.0</ele><time>2026-04-19T10:39:22Z</time></trkpt><trkpt lat="45.99854897826356" lon="12.91118880862776"><ele>55.0</ele><time>2026-04-19T10:39:23Z</time></trkpt><trkpt lat="45.998470435748324" lon="12.91117997777733"><ele>54.99999999999999</ele><time>2026-04-19T10:39:24Z</time></trkpt><trkpt lat="45.99839860751691" lon="12.911171565913175"><ele>55.0</ele><time>2026-04-19T10:39:25Z</time></trkpt><trkpt lat="45.99831689495194" lon="12.911146991178574"><ele>54.8</ele><time>2026-04-19T10:39:26Z</time></trkpt><trkpt lat="45.99823721709312" lon="12.911097339356713"><ele>54.6</ele><time>2026-04-19T10:39:27Z</time></trkpt><trkpt lat="45.99813404721619" lon="12.911056834725905"><ele>54.400000000000006</ele><time>2026-04-19T10:39:28Z</time></trkpt><trkpt lat="45.99803284723899" lon="12.911029870131223"><ele>54.2</ele><time>2026-04-19T10:39:29Z</time></trkpt><trkpt lat="45.997937802904815" lon="12.911017689037415"><ele>54.0</ele><time>2026-04-19T10:39:30Z</time></trkpt><trkpt lat="45.997849532657064" lon="12.911019925809047"><ele>54.0</ele><time>2026-04-19T10:39:31Z</time></trkpt><trkpt lat="45.99775316445895" lon="12.911024989164455"><ele>54.00000000000001</ele><time>2026-04-19T10:39:32Z</time></trkpt><trkpt lat="45.997646870547115" lon="12.911018892577204"><ele>54.00000000000001</ele><time>2026-04-19T10:39:33Z</time></trkpt><trkpt lat="45.997541356690796" lon="12.91100811352409"><ele>54.0</ele><time>2026-04-19T10:39:34Z</time></trkpt><trkpt lat="45.997433266970496" lon="12.911003221724364"><ele>54.0</ele><time>2026-04-19T10:39:35Z</time></trkpt><trkpt lat="45.99732007847953" lon="12.911000035914004"><ele>54.2</ele><time>2026-04-19T10:39:36Z</time></trkpt><trkpt lat="45.997205674676486" lon="12.910994559246728"><ele>54.400000000000006</ele><time>2026-04-19T10:39:37Z</time></trkpt><trkpt lat="45.997097328227234" lon="12.910978480644"><ele>54.6</ele><time>2026-04-19T10:39:38Z</time></trkpt><trkpt lat="45.99700681998111" lon="12.910973483834725"><ele>54.8</ele><time>2026-04-19T10:39:39Z</time></trkpt><trkpt lat="45.996933034100316" lon="12.910972970020017"><ele>55.0</ele><time>2026-04-19T10:39:40Z</time></trkpt><trkpt lat="45.996866464095696" lon="12.910961832314543"><ele>55.0</ele><time>2026-04-19T10:39:41Z</time></trkpt><trkpt lat="45.996778609540634" lon="12.91097996977866"><ele>55.0</ele><time>2026-04-19T10:39:42Z</time></trkpt><trkpt lat="45.996672159996116" lon="12.910995431495724"><ele>55.0</ele><time>2026-04-19T10:39:43Z</time></trkpt><trkpt lat="45.996567301994354" lon="12.910973046326882"><ele>55.0</ele><time>2026-04-19T10:39:44Z</time></trkpt><trkpt lat="45.99646287946872" lon="12.91101032624494"><ele>55.0</ele><time>2026-04-19T10:39:45Z</time></trkpt><trkpt lat="45.99635173461896" lon="12.91101836400948"><ele>54.6</ele><time>2026-04-19T10:39:46Z</time></trkpt><trkpt lat="45.99624113928803" lon="12.91102588148507"><ele>54.2</ele><time>2026-04-19T10:39:47Z</time></trkpt><trkpt lat="45.99612960948213" lon="12.911033563031555"><ele>53.8</ele><time>2026-04-19T10:39:48Z</time></trkpt><trkpt lat="45.996021503110306" lon="12.911028010544879"><ele>53.4</ele><time>2026-04-19T10:39:49Z</time></trkpt><trkpt lat="45.99592780662231" lon="12.911012335197091"><ele>53.0</ele><time>2026-04-19T10:39:50Z</time></trkpt><trkpt lat="45.99582496636446" lon="12.910980314460094"><ele>53.0</ele><time>2026-04-19T10:39:51Z</time></trkpt><trkpt lat="45.99570660745205" lon="12.910941200037845"><ele>53.0</ele><time>2026-04-19T10:39:52Z</time></trkpt><trkpt lat="45.99558250822211" lon="12.910949209585677"><ele>53.0</ele><time>2026-04-19T10:39:53Z</time></trkpt><trkpt lat="45.9954470868489" lon="12.910934804253356"><ele>53.0</ele><time>2026-04-19T10:39:54Z</time></trkpt><trkpt lat="45.99533402137669" lon="12.910927588325189"><ele>53.2</ele><time>2026-04-19T10:39:55Z</time></trkpt><trkpt lat="45.995209949759804" lon="12.910895348605973"><ele>53.4</ele><time>2026-04-19T10:39:56Z</time></trkpt><trkpt lat="45.995117399780526" lon="12.910877303286467"><ele>53.60000000000001</ele><time>2026-04-19T10:39:57Z</time></trkpt><trkpt lat="45.99499933392466" lon="12.910845087045063"><ele>53.800000000000004</ele><time>2026-04-19T10:39:58Z</time></trkpt><trkpt lat="45.99489453723825" lon="12.910838357667958"><ele>54.0</ele><time>2026-04-19T10:39:59Z</time></trkpt><trkpt lat="45.994782554470405" lon="12.910820314684537"><ele>53.5</ele><time>2026-04-19T10:40:00Z</time></trkpt><trkpt lat="45.99465851138295" lon="12.910830271232278"><ele>53.0</ele><time>2026-04-19T10:40:01Z</time></trkpt><trkpt lat="45.994535831824976" lon="12.910863495838107"><ele>52.5</ele><time>2026-04-19T10:40:02Z</time></trkpt><trkpt lat="45.994416960450856" lon="12.910873567578935"><ele>52.0</ele><time>2026-04-19T10:40:03Z</time></trkpt><trkpt lat="45.994318185861374" lon="12.910899046219928"><ele>51.99999999999999</ele><time>2026-04-19T10:40:04Z</time></trkpt><trkpt lat="45.994230243693536" lon="12.910903555885108"><ele>52.0</ele><time>2026-04-19T10:40:05Z</time></trkpt><trkpt lat="45.994166536906796" lon="12.91092505296907"><ele>52.0</ele><time>2026-04-19T10:40:06Z</time></trkpt><trkpt lat="45.994041994099014" lon="12.910985555469985"><ele>52.0</ele><time>2026-04-19T10:40:08Z</time></trkpt><trkpt lat="45.993969938999975" lon="12.910985933425968"><ele>51.99999999999999</ele><time>2026-04-19T10:40:09Z</time></trkpt><trkpt lat="45.99388557288492" lon="12.910953225637071"><ele>52.0</ele><time>2026-04-19T10:40:10Z</time></trkpt><trkpt lat="45.99378260779453" lon="12.91090271638727"><ele>52.2</ele><time>2026-04-19T10:40:11Z</time></trkpt><trkpt lat="45.99368172782519" lon="12.910835675511708"><ele>52.400000000000006</ele><time>2026-04-19T10:40:12Z</time></trkpt><trkpt lat="45.993585799093026" lon="12.910758159641155"><ele>52.599999999999994</ele><time>2026-04-19T10:40:13Z</time></trkpt><trkpt lat="45.993481605264" lon="12.910682394209445"><ele>52.8</ele><time>2026-04-19T10:40:14Z</time></trkpt><trkpt lat="45.99338488028233" lon="12.910624977201604"><ele>53.0</ele><time>2026-04-19T10:40:15Z</time></trkpt><trkpt lat="45.99328325367189" lon="12.91057292020344"><ele>53.2</ele><time>2026-04-19T10:40:16Z</time></trkpt><trkpt lat="45.993184727881996" lon="12.910535050486624"><ele>53.4</ele><time>2026-04-19T10:40:17Z</time></trkpt><trkpt lat="45.99307487802105" lon="12.910506070280551"><ele>53.60000000000001</ele><time>2026-04-19T10:40:18Z</time></trkpt><trkpt lat="45.99296379538292" lon="12.910486889264696"><ele>53.800000000000004</ele><time>2026-04-19T10:40:19Z</time></trkpt><trkpt lat="45.99285843276579" lon="12.910482648523423"><ele>54.0</ele><time>2026-04-19T10:40:20Z</time></trkpt><trkpt lat="45.99277526591987" lon="12.91047882464883"><ele>54.0</ele><time>2026-04-19T10:40:21Z</time></trkpt><trkpt lat="45.99270463249019" lon="12.910463509705242"><ele>54.00000000000001</ele><time>2026-04-19T10:40:22Z</time></trkpt><trkpt lat="45.99262722299736" lon="12.910425723354347"><ele>54.00000000000001</ele><time>2026-04-19T10:40:23Z</time></trkpt><trkpt lat="45.99252823426583" lon="12.910356083451529"><ele>54.0</ele><time>2026-04-19T10:40:24Z</time></trkpt><trkpt lat="45.99241924467996" lon="12.910280428727926"><ele>54.0</ele><time>2026-04-19T10:40:25Z</time></trkpt><trkpt lat="45.99229869545706" lon="12.910212045658879"><ele>53.800000000000004</ele><time>2026-04-19T10:40:26Z</time></trkpt><trkpt lat="45.9921942955978" lon="12.91015163699804"><ele>53.60000000000001</ele><time>2026-04-19T10:40:27Z</time></trkpt><trkpt lat="45.992104320771496" lon="12.910115879071846"><ele>53.4</ele><time>2026-04-19T10:40:28Z</time></trkpt><trkpt lat="45.992018081251004" lon="12.910063791857578"><ele>53.2</ele><time>2026-04-19T10:40:29Z</time></trkpt><trkpt lat="45.99194820741678" lon="12.91001100998254"><ele>53.0</ele><time>2026-04-19T10:40:30Z</time></trkpt><trkpt lat="45.99187874279304" lon="12.909953418280445"><ele>53.0</ele><time>2026-04-19T10:40:31Z</time></trkpt><trkpt lat="45.99182879625182" lon="12.909894414660842"><ele>53.0</ele><time>2026-04-19T10:40:32Z</time></trkpt><trkpt lat="45.991740092093295" lon="12.909857811420945"><ele>53.0</ele><time>2026-04-19T10:40:33Z</time></trkpt><trkpt lat="45.99162897148743" lon="12.909814574225605"><ele>53.0</ele><time>2026-04-19T10:40:34Z</time></trkpt><trkpt lat="45.99151645553054" lon="12.909773594492593"><ele>53.0</ele><time>2026-04-19T10:40:35Z</time></trkpt><trkpt lat="45.99139564583285" lon="12.90972109070219"><ele>53.0</ele><time>2026-04-19T10:40:36Z</time></trkpt><trkpt lat="45.99128848660932" lon="12.90967670307632"><ele>53.0</ele><time>2026-04-19T10:40:37Z</time></trkpt><trkpt lat="45.991182752704304" lon="12.909655843229643"><ele>53.0</ele><time>2026-04-19T10:40:38Z</time></trkpt><trkpt lat="45.991069191992025" lon="12.909610126144464"><ele>53.0</ele><time>2026-04-19T10:40:39Z</time></trkpt><trkpt lat="45.99095236796686" lon="12.909579119701034"><ele>53.0</ele><time>2026-04-19T10:40:40Z</time></trkpt><trkpt lat="45.99083202363482" lon="12.909553630342488"><ele>53.0</ele><time>2026-04-19T10:40:41Z</time></trkpt><trkpt lat="45.990707434705506" lon="12.909537282819842"><ele>53.0</ele><time>2026-04-19T10:40:42Z</time></trkpt><trkpt lat="45.99058484727389" lon="12.909523671193417"><ele>53.0</ele><time>2026-04-19T10:40:43Z</time></trkpt><trkpt lat="45.990456705891845" lon="12.90949897637402"><ele>53.0</ele><time>2026-04-19T10:40:44Z</time></trkpt><trkpt lat="45.99032774897079" lon="12.909463993265687"><ele>53.0</ele><time>2026-04-19T10:40:45Z</time></trkpt><trkpt lat="45.990197845714846" lon="12.909419829276326"><ele>53.0</ele><time>2026-04-19T10:40:46Z</time></trkpt><trkpt lat="45.99008555760029" lon="12.909392112576027"><ele>53.0</ele><time>2026-04-19T10:40:47Z</time></trkpt><trkpt lat="45.989976094236496" lon="12.909373604760022"><ele>52.75</ele><time>2026-04-19T10:40:48Z</time></trkpt><trkpt lat="45.989855695708705" lon="12.909353716083116"><ele>52.5</ele><time>2026-04-19T10:40:49Z</time></trkpt><trkpt lat="45.989730078597184" lon="12.90932899917309"><ele>52.25</ele><time>2026-04-19T10:40:50Z</time></trkpt><trkpt lat="45.98960498389416" lon="12.909303716567898"><ele>52.0</ele><time>2026-04-19T10:40:51Z</time></trkpt><trkpt lat="45.98948583372718" lon="12.909278519855459"><ele>52.0</ele><time>2026-04-19T10:40:52Z</time></trkpt><trkpt lat="45.98937296379146" lon="12.909248915727586"><ele>52.0</ele><time>2026-04-19T10:40:53Z</time></trkpt><trkpt lat="45.989267739900264" lon="12.909228655628933"><ele>52.0</ele><time>2026-04-19T10:40:54Z</time></trkpt><trkpt lat="45.98917730844904" lon="12.909212805192352"><ele>52.0</ele><time>2026-04-19T10:40:55Z</time></trkpt><trkpt lat="45.989084935819186" lon="12.909210497558275"><ele>52.0</ele><time>2026-04-19T10:40:56Z</time></trkpt><trkpt lat="45.988981158976294" lon="12.90920267156673"><ele>51.75</ele><time>2026-04-19T10:40:57Z</time></trkpt><trkpt lat="45.9888526573709" lon="12.90918217616999"><ele>51.5</ele><time>2026-04-19T10:40:58Z</time></trkpt><trkpt lat="45.98873356290177" lon="12.909139930905807"><ele>51.25</ele><time>2026-04-19T10:40:59Z</time></trkpt><trkpt lat="45.98860718263578" lon="12.90910379789632"><ele>51.0</ele><time>2026-04-19T10:41:00Z</time></trkpt><trkpt lat="45.98852188572351" lon="12.909053882535558"><ele>51.0</ele><time>2026-04-19T10:41:01Z</time></trkpt><trkpt lat="45.98842216779349" lon="12.908996074774002"><ele>51.0</ele><time>2026-04-19T10:41:02Z</time></trkpt><trkpt lat="45.98831700688433" lon="12.908956423736278"><ele>51.0</ele><time>2026-04-19T10:41:03Z</time></trkpt><trkpt lat="45.98821035475055" lon="12.908957978987807"><ele>51.0</ele><time>2026-04-19T10:41:04Z</time></trkpt><trkpt lat="45.98812541069058" lon="12.908955233465846"><ele>51.0</ele><time>2026-04-19T10:41:05Z</time></trkpt><trkpt lat="45.98800886016617" lon="12.90884329263188"><ele>51.0</ele><time>2026-04-19T10:41:06Z</time></trkpt><trkpt lat="45.98790294063552" lon="12.908790766102657"><ele>51.0</ele><time>2026-04-19T10:41:07Z</time></trkpt><trkpt lat="45.98780848228086" lon="12.908738691405011"><ele>51.0</ele><time>2026-04-19T10:41:08Z</time></trkpt><trkpt lat="45.98771232567878" lon="12.908698668367922"><ele>51.0</ele><time>2026-04-19T10:41:09Z</time></trkpt><trkpt lat="45.987633003891425" lon="12.90868106794735"><ele>51.0</ele><time>2026-04-19T10:41:10Z</time></trkpt><trkpt lat="45.98755485997918" lon="12.908687777175304"><ele>51.0</ele><time>2026-04-19T10:41:11Z</time></trkpt><trkpt lat="45.98746760972093" lon="12.908688653410618"><ele>51.0</ele><time>2026-04-19T10:41:12Z</time></trkpt><trkpt lat="45.98736658751506" lon="12.908692767285276"><ele>51.0</ele><time>2026-04-19T10:41:13Z</time></trkpt><trkpt lat="45.987265217814084" lon="12.908692212137133"><ele>51.0</ele><time>2026-04-19T10:41:14Z</time></trkpt><trkpt lat="45.987170902144626" lon="12.908729463896606"><ele>51.0</ele><time>2026-04-19T10:41:15Z</time></trkpt><trkpt lat="45.987105450610855" lon="12.908750413731367"><ele>51.0</ele><time>2026-04-19T10:41:16Z</time></trkpt><trkpt lat="45.987030216063616" lon="12.90875573196253"><ele>51.0</ele><time>2026-04-19T10:41:17Z</time></trkpt><trkpt lat="45.986879340665695" lon="12.90873817968517"><ele>51.0</ele><time>2026-04-19T10:41:19Z</time></trkpt><trkpt lat="45.98679349613556" lon="12.908735213942778"><ele>51.0</ele><time>2026-04-19T10:41:20Z</time></trkpt><trkpt lat="45.986729090358025" lon="12.908715976811735"><ele>51.0</ele><time>2026-04-19T10:41:21Z</time></trkpt><trkpt lat="45.98665913522563" lon="12.908687766360613"><ele>50.8</ele><time>2026-04-19T10:41:22Z</time></trkpt><trkpt lat="45.98654683238096" lon="12.908672832131241"><ele>50.599999999999994</ele><time>2026-04-19T10:41:24Z</time></trkpt><trkpt lat="45.9864549015904" lon="12.908644018079688"><ele>50.4</ele><time>2026-04-19T10:41:25Z</time></trkpt><trkpt lat="45.986368254765566" lon="12.908610746081104"><ele>50.2</ele><time>2026-04-19T10:41:26Z</time></trkpt><trkpt lat="45.98628320140246" lon="12.908585436222578"><ele>50.0</ele><time>2026-04-19T10:41:27Z</time></trkpt><trkpt lat="45.98620395587718" lon="12.908567514291727"><ele>50.0</ele><time>2026-04-19T10:41:28Z</time></trkpt><trkpt lat="45.98612469605784" lon="12.908559508590836"><ele>50.0</ele><time>2026-04-19T10:41:29Z</time></trkpt><trkpt lat="45.986036178137326" lon="12.908560642346462"><ele>50.0</ele><time>2026-04-19T10:41:30Z</time></trkpt><trkpt lat="45.985935964503014" lon="12.908552049880614"><ele>50.0</ele><time>2026-04-19T10:41:31Z</time></trkpt><trkpt lat="45.985845743309184" lon="12.908546497101021"><ele>50.0</ele><time>2026-04-19T10:41:32Z</time></trkpt><trkpt lat="45.98573900451344" lon="12.908534033330097"><ele>50.0</ele><time>2026-04-19T10:41:33Z</time></trkpt><trkpt lat="45.98564922410433" lon="12.908539530946825"><ele>50.0</ele><time>2026-04-19T10:41:34Z</time></trkpt><trkpt lat="45.98554462554333" lon="12.908520923530837"><ele>50.0</ele><time>2026-04-19T10:41:35Z</time></trkpt><trkpt lat="45.98543935215187" lon="12.908501679131971"><ele>50.0</ele><time>2026-04-19T10:41:36Z</time></trkpt><trkpt lat="45.98532951208145" lon="12.908475688268307"><ele>50.0</ele><time>2026-04-19T10:41:37Z</time></trkpt><trkpt lat="45.98520995374755" lon="12.908448083543163"><ele>50.0</ele><time>2026-04-19T10:41:38Z</time></trkpt><trkpt lat="45.98509060050713" lon="12.908419630004646"><ele>50.0</ele><time>2026-04-19T10:41:39Z</time></trkpt><trkpt lat="45.98498712149835" lon="12.908390217822404"><ele>50.0</ele><time>2026-04-19T10:41:40Z</time></trkpt><trkpt lat="45.984896349579145" lon="12.90836445250743"><ele>50.0</ele><time>2026-04-19T10:41:41Z</time></trkpt><trkpt lat="45.984802746054804" lon="12.908341636662877"><ele>50.0</ele><time>2026-04-19T10:41:42Z</time></trkpt><trkpt lat="45.9847121556757" lon="12.908323601495207"><ele>49.8</ele><time>2026-04-19T10:41:43Z</time></trkpt><trkpt lat="45.98462007458125" lon="12.908281478707792"><ele>49.6</ele><time>2026-04-19T10:41:44Z</time></trkpt><trkpt lat="45.98451668230604" lon="12.908255328226199"><ele>49.400000000000006</ele><time>2026-04-19T10:41:45Z</time></trkpt><trkpt lat="45.984415014347704" lon="12.908227233244537"><ele>49.2</ele><time>2026-04-19T10:41:46Z</time></trkpt><trkpt lat="45.98431810834126" lon="12.908193064005514"><ele>49.0</ele><time>2026-04-19T10:41:47Z</time></trkpt><trkpt lat="45.984214966512525" lon="12.908168096586975"><ele>49.2</ele><time>2026-04-19T10:41:48Z</time></trkpt><trkpt lat="45.98413327169671" lon="12.908152367111256"><ele>49.400000000000006</ele><time>2026-04-19T10:41:49Z</time></trkpt><trkpt lat="45.98404652190944" lon="12.908139780112906"><ele>49.6</ele><time>2026-04-19T10:41:50Z</time></trkpt><trkpt lat="45.98396201264801" lon="12.908107604364803"><ele>49.8</ele><time>2026-04-19T10:41:51Z</time></trkpt><trkpt lat="45.9838608050198" lon="12.908043020277306"><ele>50.0</ele><time>2026-04-19T10:41:52Z</time></trkpt><trkpt lat="45.98378016414695" lon="12.90797911997317"><ele>50.00000000000001</ele><time>2026-04-19T10:41:53Z</time></trkpt><trkpt lat="45.98370339012915" lon="12.90792454981432"><ele>50.0</ele><time>2026-04-19T10:41:54Z</time></trkpt><trkpt lat="45.983616086772344" lon="12.907875929311393"><ele>50.0</ele><time>2026-04-19T10:41:55Z</time></trkpt><trkpt lat="45.98352486456513" lon="12.907835593905151"><ele>50.0</ele><time>2026-04-19T10:41:56Z</time></trkpt><trkpt lat="45.98345831943317" lon="12.907834743555002"><ele>50.00000000000001</ele><time>2026-04-19T10:41:57Z</time></trkpt><trkpt lat="45.98336949324034" lon="12.907828127382595"><ele>50.0</ele><time>2026-04-19T10:41:58Z</time></trkpt><trkpt lat="45.98327653568813" lon="12.90780862867556"><ele>49.8</ele><time>2026-04-19T10:41:59Z</time></trkpt><trkpt lat="45.98319857566543" lon="12.907793465033885"><ele>49.6</ele><time>2026-04-19T10:42:00Z</time></trkpt><trkpt lat="45.98310465493728" lon="12.907759071410396"><ele>49.400000000000006</ele><time>2026-04-19T10:42:01Z</time></trkpt><trkpt lat="45.98299649545551" lon="12.907694859374768"><ele>49.2</ele><time>2026-04-19T10:42:02Z</time></trkpt><trkpt lat="45.982888206952325" lon="12.90763357899555"><ele>49.0</ele><time>2026-04-19T10:42:03Z</time></trkpt><trkpt lat="45.98277434063211" lon="12.907568466374428"><ele>49.0</ele><time>2026-04-19T10:42:04Z</time></trkpt><trkpt lat="45.98266922782185" lon="12.907509736656229"><ele>49.0</ele><time>2026-04-19T10:42:05Z</time></trkpt><trkpt lat="45.982579088873635" lon="12.90745940925426"><ele>49.0</ele><time>2026-04-19T10:42:06Z</time></trkpt><trkpt lat="45.982475113489215" lon="12.907378230942314"><ele>49.0</ele><time>2026-04-19T10:42:07Z</time></trkpt><trkpt lat="45.98238198212446" lon="12.907331046169835"><ele>49.0</ele><time>2026-04-19T10:42:08Z</time></trkpt><trkpt lat="45.98228365035607" lon="12.907293528564404"><ele>49.0</ele><time>2026-04-19T10:42:09Z</time></trkpt><trkpt lat="45.98216103540851" lon="12.907253240318768"><ele>49.0</ele><time>2026-04-19T10:42:10Z</time></trkpt><trkpt lat="45.98206153909137" lon="12.907209172494891"><ele>49.0</ele><time>2026-04-19T10:42:11Z</time></trkpt><trkpt lat="45.98194012474324" lon="12.907178382703723"><ele>49.0</ele><time>2026-04-19T10:42:12Z</time></trkpt><trkpt lat="45.981837036216746" lon="12.907150566514717"><ele>49.0</ele><time>2026-04-19T10:42:13Z</time></trkpt><trkpt lat="45.98172123436056" lon="12.907137501176173"><ele>49.0</ele><time>2026-04-19T10:42:14Z</time></trkpt><trkpt lat="45.98161179358288" lon="12.907126164537349"><ele>49.0</ele><time>2026-04-19T10:42:15Z</time></trkpt><trkpt lat="45.9815070586836" lon="12.907097061541554"><ele>49.0</ele><time>2026-04-19T10:42:16Z</time></trkpt><trkpt lat="45.981396292855464" lon="12.90709469969581"><ele>49.0</ele><time>2026-04-19T10:42:17Z</time></trkpt><trkpt lat="45.98127974886187" lon="12.907083037112722"><ele>48.75</ele><time>2026-04-19T10:42:18Z</time></trkpt><trkpt lat="45.98116975473421" lon="12.907063316746736"><ele>48.5</ele><time>2026-04-19T10:42:19Z</time></trkpt><trkpt lat="45.98105045156095" lon="12.9070281500424"><ele>48.25</ele><time>2026-04-19T10:42:20Z</time></trkpt><trkpt lat="45.98092716457254" lon="12.906980843708753"><ele>48.0</ele><time>2026-04-19T10:42:21Z</time></trkpt><trkpt lat="45.98080683947753" lon="12.906934356580908"><ele>48.0</ele><time>2026-04-19T10:42:22Z</time></trkpt><trkpt lat="45.98067410790012" lon="12.906906931995097"><ele>48.0</ele><time>2026-04-19T10:42:23Z</time></trkpt><trkpt lat="45.98052381923167" lon="12.906895540533885"><ele>48.0</ele><time>2026-04-19T10:42:24Z</time></trkpt><trkpt lat="45.98035671515119" lon="12.90691076629987"><ele>48.0</ele><time>2026-04-19T10:42:25Z</time></trkpt><trkpt lat="45.98021117712995" lon="12.9069345560466"><ele>48.0</ele><time>2026-04-19T10:42:26Z</time></trkpt><trkpt lat="45.98008192376534" lon="12.90692961876204"><ele>48.0</ele><time>2026-04-19T10:42:27Z</time></trkpt><trkpt lat="45.97997016544426" lon="12.906925458337087"><ele>48.0</ele><time>2026-04-19T10:42:28Z</time></trkpt><trkpt lat="45.979860002254476" lon="12.906916658221231"><ele>47.75</ele><time>2026-04-19T10:42:29Z</time></trkpt><trkpt lat="45.979745220316765" lon="12.906911382876137"><ele>47.5</ele><time>2026-04-19T10:42:30Z</time></trkpt><trkpt lat="45.97962477759245" lon="12.906909807817467"><ele>47.25</ele><time>2026-04-19T10:42:31Z</time></trkpt><trkpt lat="45.979511334371445" lon="12.906900585491726"><ele>47.0</ele><time>2026-04-19T10:42:32Z</time></trkpt><trkpt lat="45.97939624695348" lon="12.90688849763949"><ele>47.0</ele><time>2026-04-19T10:42:33Z</time></trkpt><trkpt lat="45.979277418122365" lon="12.906874721333518"><ele>47.0</ele><time>2026-04-19T10:42:34Z</time></trkpt><trkpt lat="45.97916679106646" lon="12.906849134867215"><ele>47.0</ele><time>2026-04-19T10:42:35Z</time></trkpt><trkpt lat="45.97905380113389" lon="12.906832196005624"><ele>47.0</ele><time>2026-04-19T10:42:36Z</time></trkpt><trkpt lat="45.97895939260333" lon="12.906810157278267"><ele>47.0</ele><time>2026-04-19T10:42:37Z</time></trkpt><trkpt lat="45.97888911694147" lon="12.906801144994912"><ele>47.0</ele><time>2026-04-19T10:42:38Z</time></trkpt><trkpt lat="45.97879720717849" lon="12.906754983803692"><ele>47.0</ele><time>2026-04-19T10:42:39Z</time></trkpt><trkpt lat="45.978696002382335" lon="12.906713543734709"><ele>47.0</ele><time>2026-04-19T10:42:40Z</time></trkpt><trkpt lat="45.978596348245624" lon="12.90670003985388"><ele>47.0</ele><time>2026-04-19T10:42:41Z</time></trkpt><trkpt lat="45.978480827556055" lon="12.90667413772763"><ele>47.0</ele><time>2026-04-19T10:42:42Z</time></trkpt><trkpt lat="45.97838733433933" lon="12.906651905970955"><ele>46.8</ele><time>2026-04-19T10:42:43Z</time></trkpt><trkpt lat="45.97827835385349" lon="12.906631444429555"><ele>46.6</ele><time>2026-04-19T10:42:44Z</time></trkpt><trkpt lat="45.97816927873286" lon="12.90659171252367"><ele>46.4</ele><time>2026-04-19T10:42:45Z</time></trkpt><trkpt lat="45.97806043795239" lon="12.906573942348627"><ele>46.199999999999996</ele><time>2026-04-19T10:42:46Z</time></trkpt><trkpt lat="45.97795397386648" lon="12.906551169069894"><ele>46.0</ele><time>2026-04-19T10:42:47Z</time></trkpt><trkpt lat="45.97785515468326" lon="12.9065250412577"><ele>46.0</ele><time>2026-04-19T10:42:48Z</time></trkpt><trkpt lat="45.97777736550454" lon="12.906483795134736"><ele>46.0</ele><time>2026-04-19T10:42:49Z</time></trkpt><trkpt lat="45.97771027202942" lon="12.906438797415314"><ele>46.0</ele><time>2026-04-19T10:42:50Z</time></trkpt><trkpt lat="45.97763421120743" lon="12.906392889457493"><ele>46.0</ele><time>2026-04-19T10:42:51Z</time></trkpt><trkpt lat="45.97754649120978" lon="12.906339979740956"><ele>46.0</ele><time>2026-04-19T10:42:52Z</time></trkpt><trkpt lat="45.977449648736716" lon="12.906290441136754"><ele>46.0</ele><time>2026-04-19T10:42:53Z</time></trkpt><trkpt lat="45.97737091443089" lon="12.906255992678986"><ele>46.0</ele><time>2026-04-19T10:42:54Z</time></trkpt><trkpt lat="45.97729157884885" lon="12.906232953237435"><ele>46.0</ele><time>2026-04-19T10:42:55Z</time></trkpt><trkpt lat="45.97721612672357" lon="12.906221171341732"><ele>46.0</ele><time>2026-04-19T10:42:56Z</time></trkpt><trkpt lat="45.97713532101679" lon="12.906197761471251"><ele>46.0</ele><time>2026-04-19T10:42:57Z</time></trkpt><trkpt lat="45.97705828968229" lon="12.906168817038873"><ele>46.0</ele><time>2026-04-19T10:42:58Z</time></trkpt><trkpt lat="45.97696566803071" lon="12.906136663852577"><ele>46.0</ele><time>2026-04-19T10:42:59Z</time></trkpt><trkpt lat="45.97686063478131" lon="12.906104454780541"><ele>46.0</ele><time>2026-04-19T10:43:00Z</time></trkpt><trkpt lat="45.97675226638141" lon="12.906078394061979"><ele>46.0</ele><time>2026-04-19T10:43:01Z</time></trkpt><trkpt lat="45.97666703899384" lon="12.906058110657284"><ele>46.0</ele><time>2026-04-19T10:43:02Z</time></trkpt><trkpt lat="45.97660299401163" lon="12.90603339861297"><ele>46.0</ele><time>2026-04-19T10:43:03Z</time></trkpt><trkpt lat="45.9764505338641" lon="12.905950002915386"><ele>46.0</ele><time>2026-04-19T10:43:05Z</time></trkpt><trkpt lat="45.976365374643876" lon="12.905852811407502"><ele>46.0</ele><time>2026-04-19T10:43:06Z</time></trkpt><trkpt lat="45.97629041187848" lon="12.905786339484242"><ele>46.0</ele><time>2026-04-19T10:43:07Z</time></trkpt><trkpt lat="45.976212310648854" lon="12.905734644913302"><ele>46.0</ele><time>2026-04-19T10:43:08Z</time></trkpt><trkpt lat="45.9761394464831" lon="12.905695668582599"><ele>46.0</ele><time>2026-04-19T10:43:09Z</time></trkpt><trkpt lat="45.976083310067715" lon="12.905651842500939"><ele>46.0</ele><time>2026-04-19T10:43:10Z</time></trkpt><trkpt lat="45.9760076753109" lon="12.90558484409313"><ele>46.0</ele><time>2026-04-19T10:43:11Z</time></trkpt><trkpt lat="45.97593021083809" lon="12.905509864089014"><ele>46.0</ele><time>2026-04-19T10:43:12Z</time></trkpt><trkpt lat="45.97585811101449" lon="12.90542743865021"><ele>46.0</ele><time>2026-04-19T10:43:13Z</time></trkpt><trkpt lat="45.9757831511762" lon="12.905371842772787"><ele>46.0</ele><time>2026-04-19T10:43:14Z</time></trkpt><trkpt lat="45.97571500237412" lon="12.905328705331966"><ele>46.0</ele><time>2026-04-19T10:43:15Z</time></trkpt><trkpt lat="45.975625696283444" lon="12.90530251154027"><ele>46.0</ele><time>2026-04-19T10:43:16Z</time></trkpt><trkpt lat="45.97553662302393" lon="12.9052653678936"><ele>46.0</ele><time>2026-04-19T10:43:17Z</time></trkpt><trkpt lat="45.975448044582386" lon="12.905234836562112"><ele>46.0</ele><time>2026-04-19T10:43:18Z</time></trkpt><trkpt lat="45.97536400532781" lon="12.905199440444491"><ele>46.0</ele><time>2026-04-19T10:43:19Z</time></trkpt><trkpt lat="45.97526730292756" lon="12.905189495142936"><ele>46.0</ele><time>2026-04-19T10:43:20Z</time></trkpt><trkpt lat="45.97516727283144" lon="12.905179501062435"><ele>46.0</ele><time>2026-04-19T10:43:21Z</time></trkpt><trkpt lat="45.97507955940459" lon="12.905159060138269"><ele>46.0</ele><time>2026-04-19T10:43:22Z</time></trkpt><trkpt lat="45.97501101584669" lon="12.905129639782064"><ele>46.0</ele><time>2026-04-19T10:43:23Z</time></trkpt><trkpt lat="45.9748930557654" lon="12.905100991700145"><ele>45.833333333333336</ele><time>2026-04-19T10:43:25Z</time></trkpt><trkpt lat="45.97480981846295" lon="12.90510944835812"><ele>45.66666666666667</ele><time>2026-04-19T10:43:26Z</time></trkpt><trkpt lat="45.974734294894056" lon="12.90509916055791"><ele>45.5</ele><time>2026-04-19T10:43:27Z</time></trkpt><trkpt lat="45.974666786008775" lon="12.905081993963508"><ele>45.333333333333336</ele><time>2026-04-19T10:43:28Z</time></trkpt><trkpt lat="45.974599248553545" lon="12.905072229537607"><ele>45.166666666666664</ele><time>2026-04-19T10:43:29Z</time></trkpt><trkpt lat="45.97453630628791" lon="12.905064881220984"><ele>45.0</ele><time>2026-04-19T10:43:30Z</time></trkpt><trkpt lat="45.97441235551038" lon="12.905099038800762"><ele>45.0</ele><time>2026-04-19T10:43:32Z</time></trkpt><trkpt lat="45.97433140847075" lon="12.905138055612202"><ele>45.0</ele><time>2026-04-19T10:43:33Z</time></trkpt><trkpt lat="45.974240993706346" lon="12.905150557803621"><ele>45.0</ele><time>2026-04-19T10:43:34Z</time></trkpt><trkpt lat="45.97412592491219" lon="12.905136664640732"><ele>45.0</ele><time>2026-04-19T10:43:35Z</time></trkpt><trkpt lat="45.97399253433465" lon="12.90510255175838"><ele>45.0</ele><time>2026-04-19T10:43:36Z</time></trkpt><trkpt lat="45.973842236567336" lon="12.905057020254105"><ele>45.25</ele><time>2026-04-19T10:43:37Z</time></trkpt><trkpt lat="45.97369518005434" lon="12.905019747760171"><ele>45.5</ele><time>2026-04-19T10:43:38Z</time></trkpt><trkpt lat="45.97357462546349" lon="12.904979626736637"><ele>45.75</ele><time>2026-04-19T10:43:39Z</time></trkpt><trkpt lat="45.9734579509092" lon="12.904946363856501"><ele>46.0</ele><time>2026-04-19T10:43:40Z</time></trkpt><trkpt lat="45.9733421363386" lon="12.904927615479776"><ele>46.0</ele><time>2026-04-19T10:43:41Z</time></trkpt><trkpt lat="45.973244745002205" lon="12.904920358389402"><ele>46.0</ele><time>2026-04-19T10:43:42Z</time></trkpt><trkpt lat="45.97315173047433" lon="12.904923893884582"><ele>46.0</ele><time>2026-04-19T10:43:43Z</time></trkpt><trkpt lat="45.973046227939854" lon="12.90492913901901"><ele>46.0</ele><time>2026-04-19T10:43:44Z</time></trkpt><trkpt lat="45.97294656084399" lon="12.904913190051543"><ele>46.0</ele><time>2026-04-19T10:43:45Z</time></trkpt><trkpt lat="45.97285277112022" lon="12.904875266155692"><ele>46.0</ele><time>2026-04-19T10:43:46Z</time></trkpt><trkpt lat="45.97274402212321" lon="12.9048256378139"><ele>46.0</ele><time>2026-04-19T10:43:47Z</time></trkpt><trkpt lat="45.97263045623968" lon="12.90478653926651"><ele>46.0</ele><time>2026-04-19T10:43:48Z</time></trkpt><trkpt lat="45.972528929071544" lon="12.904745289096898"><ele>46.0</ele><time>2026-04-19T10:43:49Z</time></trkpt><trkpt lat="45.97242969663524" lon="12.90468863795892"><ele>46.0</ele><time>2026-04-19T10:43:50Z</time></trkpt><trkpt lat="45.972320029459645" lon="12.904598714508507"><ele>45.75</ele><time>2026-04-19T10:43:51Z</time></trkpt><trkpt lat="45.972205421765224" lon="12.904565917672508"><ele>45.5</ele><time>2026-04-19T10:43:52Z</time></trkpt><trkpt lat="45.972070944321025" lon="12.904540068319708"><ele>45.25</ele><time>2026-04-19T10:43:53Z</time></trkpt><trkpt lat="45.97193835826592" lon="12.904531890730164"><ele>45.0</ele><time>2026-04-19T10:43:54Z</time></trkpt><trkpt lat="45.97179320864671" lon="12.904506571406763"><ele>45.0</ele><time>2026-04-19T10:43:55Z</time></trkpt><trkpt lat="45.9716717402475" lon="12.904488335749202"><ele>45.0</ele><time>2026-04-19T10:43:56Z</time></trkpt><trkpt lat="45.971581010518804" lon="12.904491325049788"><ele>45.0</ele><time>2026-04-19T10:43:57Z</time></trkpt><trkpt lat="45.97146168037409" lon="12.904461070743745"><ele>45.0</ele><time>2026-04-19T10:43:58Z</time></trkpt><trkpt lat="45.971347223438116" lon="12.904461369596552"><ele>45.0</ele><time>2026-04-19T10:43:59Z</time></trkpt><trkpt lat="45.97121895319502" lon="12.904464130063907"><ele>45.0</ele><time>2026-04-19T10:44:00Z</time></trkpt><trkpt lat="45.97109267526459" lon="12.904455924005452"><ele>45.0</ele><time>2026-04-19T10:44:01Z</time></trkpt><trkpt lat="45.970970063298445" lon="12.904436891347252"><ele>45.0</ele><time>2026-04-19T10:44:02Z</time></trkpt><trkpt lat="45.97085379208807" lon="12.904423042159962"><ele>45.0</ele><time>2026-04-19T10:44:03Z</time></trkpt><trkpt lat="45.970721084334414" lon="12.90438007838154"><ele>45.0</ele><time>2026-04-19T10:44:04Z</time></trkpt><trkpt lat="45.9706202678793" lon="12.904335096068726"><ele>45.0</ele><time>2026-04-19T10:44:05Z</time></trkpt><trkpt lat="45.97050246151791" lon="12.904304349833218"><ele>45.0</ele><time>2026-04-19T10:44:06Z</time></trkpt><trkpt lat="45.97039698479729" lon="12.904282491969994"><ele>45.0</ele><time>2026-04-19T10:44:07Z</time></trkpt><trkpt lat="45.97027642512358" lon="12.904244567244827"><ele>45.0</ele><time>2026-04-19T10:44:08Z</time></trkpt><trkpt lat="45.970175032018986" lon="12.904224951559238"><ele>45.0</ele><time>2026-04-19T10:44:09Z</time></trkpt><trkpt lat="45.970046531131324" lon="12.904189920779647"><ele>45.0</ele><time>2026-04-19T10:44:10Z</time></trkpt><trkpt lat="45.969937388875586" lon="12.904146312700258"><ele>45.0</ele><time>2026-04-19T10:44:11Z</time></trkpt><trkpt lat="45.96986317051761" lon="12.904106559122202"><ele>45.0</ele><time>2026-04-19T10:44:12Z</time></trkpt><trkpt lat="45.969788942628966" lon="12.904104988300853"><ele>45.2</ele><time>2026-04-19T10:44:13Z</time></trkpt><trkpt lat="45.9697010228212" lon="12.904114772125157"><ele>45.4</ele><time>2026-04-19T10:44:14Z</time></trkpt><trkpt lat="45.969604420102584" lon="12.904142999838992"><ele>45.599999999999994</ele><time>2026-04-19T10:44:15Z</time></trkpt><trkpt lat="45.96946738717533" lon="12.904106695668114"><ele>45.8</ele><time>2026-04-19T10:44:16Z</time></trkpt><trkpt lat="45.969368934078005" lon="12.90409560481609"><ele>46.0</ele><time>2026-04-19T10:44:17Z</time></trkpt><trkpt lat="45.96926106079596" lon="12.904059674986057"><ele>45.25</ele><time>2026-04-19T10:44:18Z</time></trkpt><trkpt lat="45.96914657286703" lon="12.904029073576549"><ele>44.5</ele><time>2026-04-19T10:44:19Z</time></trkpt><trkpt lat="45.96903349708316" lon="12.90399725368173"><ele>43.75</ele><time>2026-04-19T10:44:20Z</time></trkpt><trkpt lat="45.968917161749054" lon="12.903966642335895"><ele>43.0</ele><time>2026-04-19T10:44:21Z</time></trkpt><trkpt lat="45.96879888156428" lon="12.903941039268569"><ele>43.0</ele><time>2026-04-19T10:44:22Z</time></trkpt><trkpt lat="45.968700467563515" lon="12.903929492012924"><ele>43.0</ele><time>2026-04-19T10:44:23Z</time></trkpt><trkpt lat="45.96859688490359" lon="12.903911835223838"><ele>43.0</ele><time>2026-04-19T10:44:24Z</time></trkpt><trkpt lat="45.9685175103913" lon="12.903897073219591"><ele>43.0</ele><time>2026-04-19T10:44:25Z</time></trkpt><trkpt lat="45.968385629728566" lon="12.903892097948486"><ele>43.0</ele><time>2026-04-19T10:44:26Z</time></trkpt><trkpt lat="45.968253804702094" lon="12.903897375505046"><ele>42.8</ele><time>2026-04-19T10:44:27Z</time></trkpt><trkpt lat="45.96813195710769" lon="12.903910075217919"><ele>42.599999999999994</ele><time>2026-04-19T10:44:28Z</time></trkpt><trkpt lat="45.96803760264146" lon="12.903914796168955"><ele>42.400000000000006</ele><time>2026-04-19T10:44:29Z</time></trkpt><trkpt lat="45.96794311968031" lon="12.903899206376664"><ele>42.2</ele><time>2026-04-19T10:44:30Z</time></trkpt><trkpt lat="45.96785581963869" lon="12.90389176880401"><ele>42.0</ele><time>2026-04-19T10:44:31Z</time></trkpt><trkpt lat="45.96778002270718" lon="12.903897327257534"><ele>42.0</ele><time>2026-04-19T10:44:32Z</time></trkpt><trkpt lat="45.96770731882364" lon="12.903919526029332"><ele>42.0</ele><time>2026-04-19T10:44:33Z</time></trkpt><trkpt lat="45.96763242105178" lon="12.903953134848116"><ele>42.0</ele><time>2026-04-19T10:44:34Z</time></trkpt><trkpt lat="45.96756842938818" lon="12.903992621006351"><ele>42.0</ele><time>2026-04-19T10:44:35Z</time></trkpt><trkpt lat="45.96750917190364" lon="12.904030952436125"><ele>42.0</ele><time>2026-04-19T10:44:36Z</time></trkpt><trkpt lat="45.967437897326135" lon="12.904118327098471"><ele>42.0</ele><time>2026-04-19T10:44:37Z</time></trkpt><trkpt lat="45.967365730440164" lon="12.904145054757635"><ele>42.0</ele><time>2026-04-19T10:44:38Z</time></trkpt><trkpt lat="45.96726803730542" lon="12.904186053740226"><ele>42.0</ele><time>2026-04-19T10:44:39Z</time></trkpt><trkpt lat="45.967156788263786" lon="12.904228484223866"><ele>42.0</ele><time>2026-04-19T10:44:40Z</time></trkpt><trkpt lat="45.967048366248555" lon="12.90427181920455"><ele>42.0</ele><time>2026-04-19T10:44:41Z</time></trkpt><trkpt lat="45.96696035934731" lon="12.904317641451286"><ele>42.0</ele><time>2026-04-19T10:44:42Z</time></trkpt><trkpt lat="45.96689134446556" lon="12.904373091066875"><ele>42.333333333333336</ele><time>2026-04-19T10:44:43Z</time></trkpt><trkpt lat="45.966825599715456" lon="12.904450560905333"><ele>42.666666666666664</ele><time>2026-04-19T10:44:44Z</time></trkpt><trkpt lat="45.96675025024024" lon="12.904523615915734"><ele>43.0</ele><time>2026-04-19T10:44:45Z</time></trkpt><trkpt lat="45.96668607881097" lon="12.904577333714375"><ele>43.33333333333333</ele><time>2026-04-19T10:44:46Z</time></trkpt><trkpt lat="45.966628032548684" lon="12.904619299565177"><ele>43.666666666666664</ele><time>2026-04-19T10:44:47Z</time></trkpt><trkpt lat="45.96655472279317" lon="12.90466926824251"><ele>44.0</ele><time>2026-04-19T10:44:48Z</time></trkpt><trkpt lat="45.96647440720596" lon="12.904709663150982"><ele>44.0</ele><time>2026-04-19T10:44:49Z</time></trkpt><trkpt lat="45.96637575555943" lon="12.904765468495356"><ele>44.0</ele><time>2026-04-19T10:44:50Z</time></trkpt><trkpt lat="45.96630546294244" lon="12.904791738475799"><ele>44.0</ele><time>2026-04-19T10:44:51Z</time></trkpt><trkpt lat="45.966196264894215" lon="12.904814908933389"><ele>44.0</ele><time>2026-04-19T10:44:52Z</time></trkpt><trkpt lat="45.966105731464864" lon="12.904827352367144"><ele>44.0</ele><time>2026-04-19T10:44:53Z</time></trkpt><trkpt lat="45.96601607516123" lon="12.904882285526284"><ele>44.0</ele><time>2026-04-19T10:44:54Z</time></trkpt><trkpt lat="45.965952007169584" lon="12.904902248826764"><ele>44.0</ele><time>2026-04-19T10:44:55Z</time></trkpt><trkpt lat="45.96586514370909" lon="12.904904783115818"><ele>44.0</ele><time>2026-04-19T10:44:56Z</time></trkpt><trkpt lat="45.96576607466071" lon="12.904928926418552"><ele>44.0</ele><time>2026-04-19T10:44:57Z</time></trkpt><trkpt lat="45.965682731507904" lon="12.904912161856155"><ele>44.0</ele><time>2026-04-19T10:44:58Z</time></trkpt><trkpt lat="45.96558818458998" lon="12.904930396094104"><ele>44.0</ele><time>2026-04-19T10:45:00Z</time></trkpt><trkpt lat="45.965536776542045" lon="12.904986807704708"><ele>44.166666666666664</ele><time>2026-04-19T10:45:03Z</time></trkpt><trkpt lat="45.965619986338034" lon="12.90506556733774"><ele>44.33333333333333</ele><time>2026-04-19T10:45:07Z</time></trkpt><trkpt lat="45.96569948533355" lon="12.90501582819655"><ele>44.5</ele><time>2026-04-19T10:45:11Z</time></trkpt><trkpt lat="45.965713233197974" lon="12.904867090012594"><ele>44.666666666666664</ele><time>2026-04-19T10:45:13Z</time></trkpt><trkpt lat="45.96569035112135" lon="12.904771793238606"><ele>44.833333333333336</ele><time>2026-04-19T10:45:14Z</time></trkpt><trkpt lat="45.965654893085706" lon="12.90469521445113"><ele>45.0</ele><time>2026-04-19T10:45:15Z</time></trkpt><trkpt lat="45.965560447955056" lon="12.904618054607207"><ele>45.0</ele><time>2026-04-19T10:45:17Z</time></trkpt><trkpt lat="45.965468181061745" lon="12.904500946421901"><ele>45.0</ele><time>2026-04-19T10:45:19Z</time></trkpt><trkpt lat="45.9653922414225" lon="12.904363340304183"><ele>45.0</ele><time>2026-04-19T10:45:21Z</time></trkpt><trkpt lat="45.9653456107111" lon="12.904295009291335"><ele>45.0</ele><time>2026-04-19T10:45:22Z</time></trkpt><trkpt lat="45.965300357407386" lon="12.904227816983695"><ele>45.0</ele><time>2026-04-19T10:45:23Z</time></trkpt><trkpt lat="45.96524728406154" lon="12.904144716618294"><ele>45.0</ele><time>2026-04-19T10:45:24Z</time></trkpt><trkpt lat="45.96519989835411" lon="12.904065961844715"><ele>45.0</ele><time>2026-04-19T10:45:25Z</time></trkpt><trkpt lat="45.96514337429796" lon="12.904000121420728"><ele>45.0</ele><time>2026-04-19T10:45:26Z</time></trkpt><trkpt lat="45.9650827844521" lon="12.903945437651723"><ele>45.0</ele><time>2026-04-19T10:45:27Z</time></trkpt><trkpt lat="45.96500559671634" lon="12.903888391571911"><ele>45.0</ele><time>2026-04-19T10:45:28Z</time></trkpt><trkpt lat="45.96493736231051" lon="12.903830823512513"><ele>45.0</ele><time>2026-04-19T10:45:29Z</time></trkpt><trkpt lat="45.96484728155714" lon="12.903758205377146"><ele>45.0</ele><time>2026-04-19T10:45:31Z</time></trkpt><trkpt lat="45.964747900100164" lon="12.903765320776333"><ele>45.0</ele><time>2026-04-19T10:45:33Z</time></trkpt><trkpt lat="45.9646372608547" lon="12.903712639683835"><ele>45.0</ele><time>2026-04-19T10:45:35Z</time></trkpt><trkpt lat="45.964535285210616" lon="12.903667549855497"><ele>45.0</ele><time>2026-04-19T10:45:37Z</time></trkpt><trkpt lat="45.96446635051606" lon="12.903604942918351"><ele>45.0</ele><time>2026-04-19T10:45:38Z</time></trkpt><trkpt lat="45.964387758885515" lon="12.903540816342547"><ele>45.0</ele><time>2026-04-19T10:45:39Z</time></trkpt><trkpt lat="45.9643146436697" lon="12.903455812419402"><ele>45.0</ele><time>2026-04-19T10:45:40Z</time></trkpt><trkpt lat="45.96419768041781" lon="12.903343660218628"><ele>45.0</ele><time>2026-04-19T10:45:41Z</time></trkpt><trkpt lat="45.964094294009215" lon="12.903270400990039"><ele>45.0</ele><time>2026-04-19T10:45:42Z</time></trkpt><trkpt lat="45.96400912139846" lon="12.903228542749481"><ele>45.0</ele><time>2026-04-19T10:45:43Z</time></trkpt><trkpt lat="45.96392829496994" lon="12.903194664835217"><ele>44.8</ele><time>2026-04-19T10:45:44Z</time></trkpt><trkpt lat="45.963848673978156" lon="12.903162182361426"><ele>44.6</ele><time>2026-04-19T10:45:45Z</time></trkpt><trkpt lat="45.963765072495846" lon="12.903141297259195"><ele>44.400000000000006</ele><time>2026-04-19T10:45:46Z</time></trkpt><trkpt lat="45.963670271667354" lon="12.903114078194548"><ele>44.2</ele><time>2026-04-19T10:45:47Z</time></trkpt><trkpt lat="45.963560067455795" lon="12.903062579929038"><ele>44.0</ele><time>2026-04-19T10:45:48Z</time></trkpt><trkpt lat="45.963429368950166" lon="12.902994834873692"><ele>44.0</ele><time>2026-04-19T10:45:49Z</time></trkpt><trkpt lat="45.963299994031345" lon="12.90293372723676"><ele>44.0</ele><time>2026-04-19T10:45:50Z</time></trkpt><trkpt lat="45.963195508213005" lon="12.902889690086077"><ele>44.0</ele><time>2026-04-19T10:45:51Z</time></trkpt><trkpt lat="45.96310745088237" lon="12.902853498647518"><ele>44.0</ele><time>2026-04-19T10:45:52Z</time></trkpt><trkpt lat="45.96302827453565" lon="12.902818756495112"><ele>44.0</ele><time>2026-04-19T10:45:53Z</time></trkpt><trkpt lat="45.96295626377969" lon="12.902790161438977"><ele>44.0</ele><time>2026-04-19T10:45:54Z</time></trkpt><trkpt lat="45.962892506777514" lon="12.902763881273781"><ele>44.0</ele><time>2026-04-19T10:45:55Z</time></trkpt><trkpt lat="45.96280940517666" lon="12.902740815850784"><ele>44.0</ele><time>2026-04-19T10:45:56Z</time></trkpt><trkpt lat="45.962717929514525" lon="12.902708650814851"><ele>44.0</ele><time>2026-04-19T10:45:57Z</time></trkpt><trkpt lat="45.96263690887893" lon="12.902686491196015"><ele>44.0</ele><time>2026-04-19T10:45:58Z</time></trkpt><trkpt lat="45.96256156926801" lon="12.90263834537597"><ele>44.0</ele><time>2026-04-19T10:45:59Z</time></trkpt><trkpt lat="45.962496347563224" lon="12.902615463524981"><ele>43.6</ele><time>2026-04-19T10:46:00Z</time></trkpt><trkpt lat="45.96242920455756" lon="12.90257061437427"><ele>43.2</ele><time>2026-04-19T10:46:01Z</time></trkpt><trkpt lat="45.96236247130574" lon="12.902522522862473"><ele>42.800000000000004</ele><time>2026-04-19T10:46:02Z</time></trkpt><trkpt lat="45.9622979154353" lon="12.902473662906447"><ele>42.400000000000006</ele><time>2026-04-19T10:46:03Z</time></trkpt><trkpt lat="45.962192606415734" lon="12.902399816284381"><ele>42.0</ele><time>2026-04-19T10:46:05Z</time></trkpt><trkpt lat="45.962101995915084" lon="12.902303015815782"><ele>42.0</ele><time>2026-04-19T10:46:07Z</time></trkpt><trkpt lat="45.9620393045878" lon="12.902232424028655"><ele>42.0</ele><time>2026-04-19T10:46:09Z</time></trkpt><trkpt lat="45.96197248657016" lon="12.902219143149203"><ele>42.0</ele><time>2026-04-19T10:46:13Z</time></trkpt><trkpt lat="45.96191129532883" lon="12.902261967290414"><ele>42.0</ele><time>2026-04-19T10:46:16Z</time></trkpt><trkpt lat="45.96183013398386" lon="12.902212872596602"><ele>42.0</ele><time>2026-04-19T10:46:18Z</time></trkpt><trkpt lat="45.96180599598099" lon="12.902099209723778"><ele>42.0</ele><time>2026-04-19T10:46:20Z</time></trkpt><trkpt lat="45.96177660401339" lon="12.902014937051323"><ele>42.0</ele><time>2026-04-19T10:46:21Z</time></trkpt><trkpt lat="45.96172396245692" lon="12.901914906533593"><ele>42.0</ele><time>2026-04-19T10:46:22Z</time></trkpt><trkpt lat="45.96166540607811" lon="12.90182836363531"><ele>42.0</ele><time>2026-04-19T10:46:23Z</time></trkpt><trkpt lat="45.96157421492369" lon="12.901729424580845"><ele>42.0</ele><time>2026-04-19T10:46:25Z</time></trkpt><trkpt lat="45.96146832515945" lon="12.901655859385052"><ele>42.0</ele><time>2026-04-19T10:46:27Z</time></trkpt><trkpt lat="45.96138067447184" lon="12.901593552338856"><ele>41.833333333333336</ele><time>2026-04-19T10:46:29Z</time></trkpt><trkpt lat="45.96131144001191" lon="12.901573362047026"><ele>41.666666666666664</ele><time>2026-04-19T10:46:32Z</time></trkpt><trkpt lat="45.96124000924444" lon="12.90151826064212"><ele>41.5</ele><time>2026-04-19T10:46:34Z</time></trkpt><trkpt lat="45.961173943248134" lon="12.901462092637626"><ele>41.33333333333333</ele><time>2026-04-19T10:46:36Z</time></trkpt><trkpt lat="45.96107455639482" lon="12.90141794016987"><ele>41.166666666666664</ele><time>2026-04-19T10:46:39Z</time></trkpt><trkpt lat="45.960999349375285" lon="12.901440524290695"><ele>41.0</ele><time>2026-04-19T10:46:44Z</time></trkpt><trkpt lat="45.96090045710012" lon="12.901381869757179"><ele>40.8</ele><time>2026-04-19T10:46:47Z</time></trkpt><trkpt lat="45.960811560377245" lon="12.901367908078125"><ele>40.599999999999994</ele><time>2026-04-19T10:46:48Z</time></trkpt><trkpt lat="45.96072057108244" lon="12.90131425554531"><ele>40.4</ele><time>2026-04-19T10:46:49Z</time></trkpt><trkpt lat="45.96063457964873" lon="12.901275020140133"><ele>40.2</ele><time>2026-04-19T10:46:50Z</time></trkpt><trkpt lat="45.96055393067859" lon="12.901243213003951"><ele>40.0</ele><time>2026-04-19T10:46:51Z</time></trkpt><trkpt lat="45.96044049406899" lon="12.901212450985511"><ele>40.0</ele><time>2026-04-19T10:46:53Z</time></trkpt><trkpt lat="45.96034033701618" lon="12.90123539763232"><ele>40.0</ele><time>2026-04-19T10:46:55Z</time></trkpt><trkpt lat="45.96028158144238" lon="12.901269153350258"><ele>40.0</ele><time>2026-04-19T10:46:56Z</time></trkpt><trkpt lat="45.96017355092495" lon="12.901340780589072"><ele>40.0</ele><time>2026-04-19T10:46:58Z</time></trkpt><trkpt lat="45.960114981213394" lon="12.901388739168492"><ele>40.0</ele><time>2026-04-19T10:47:00Z</time></trkpt><trkpt lat="45.9600574254218" lon="12.901440777267803"><ele>40.0</ele><time>2026-04-19T10:47:02Z</time></trkpt><trkpt lat="45.95998396024385" lon="12.901469337937318"><ele>40.333333333333336</ele><time>2026-04-19T10:47:05Z</time></trkpt><trkpt lat="45.95996321235942" lon="12.901382737218624"><ele>40.66666666666667</ele><time>2026-04-19T10:48:00Z</time></trkpt><trkpt lat="45.95989348788709" lon="12.901339986895177"><ele>41.0</ele><time>2026-04-19T10:48:29Z</time></trkpt><trkpt lat="45.95979319578033" lon="12.901398529525908"><ele>41.333333333333336</ele><time>2026-04-19T10:48:31Z</time></trkpt><trkpt lat="45.95972865482006" lon="12.901454242276838"><ele>41.666666666666664</ele><time>2026-04-19T10:48:32Z</time></trkpt><trkpt lat="45.95966104859143" lon="12.901500673763149"><ele>42.0</ele><time>2026-04-19T10:48:33Z</time></trkpt><trkpt lat="45.95959242550376" lon="12.901548001372445"><ele>42.0</ele><time>2026-04-19T10:48:34Z</time></trkpt><trkpt lat="45.9595363548299" lon="12.90159014933666"><ele>42.0</ele><time>2026-04-19T10:48:35Z</time></trkpt><trkpt lat="45.95948107606947" lon="12.901633690207106"><ele>42.0</ele><time>2026-04-19T10:48:36Z</time></trkpt><trkpt lat="45.95942496975261" lon="12.901684705666211"><ele>42.0</ele><time>2026-04-19T10:48:37Z</time></trkpt><trkpt lat="45.95932280487929" lon="12.90176464730319"><ele>42.0</ele><time>2026-04-19T10:48:39Z</time></trkpt><trkpt lat="45.959257053642155" lon="12.901771209934317"><ele>42.0</ele><time>2026-04-19T10:48:40Z</time></trkpt><trkpt lat="45.95919074637618" lon="12.901747600872024"><ele>42.0</ele><time>2026-04-19T10:48:42Z</time></trkpt><trkpt lat="45.95912602852617" lon="12.901762859019472"><ele>41.5</ele><time>2026-04-19T10:48:43Z</time></trkpt><trkpt lat="45.95905391917285" lon="12.901769116144736"><ele>41.0</ele><time>2026-04-19T10:48:44Z</time></trkpt><trkpt lat="45.958992216434744" lon="12.901806101232879"><ele>40.5</ele><time>2026-04-19T10:48:45Z</time></trkpt><trkpt lat="45.9589127582042" lon="12.901815467187717"><ele>40.0</ele><time>2026-04-19T10:48:46Z</time></trkpt><trkpt lat="45.95881466231676" lon="12.901800893735286"><ele>39.5</ele><time>2026-04-19T10:48:47Z</time></trkpt><trkpt lat="45.95871454495988" lon="12.9017902965741"><ele>39.0</ele><time>2026-04-19T10:48:48Z</time></trkpt><trkpt lat="45.958624730016425" lon="12.901765519818104"><ele>39.0</ele><time>2026-04-19T10:48:49Z</time></trkpt><trkpt lat="45.95852667232986" lon="12.90174703933891"><ele>39.0</ele><time>2026-04-19T10:48:50Z</time></trkpt><trkpt lat="45.958427744701595" lon="12.901692427094535"><ele>39.0</ele><time>2026-04-19T10:48:51Z</time></trkpt><trkpt lat="45.95829323833059" lon="12.901634559906379"><ele>39.0</ele><time>2026-04-19T10:48:52Z</time></trkpt><trkpt lat="45.95817606456766" lon="12.901584072540325"><ele>39.0</ele><time>2026-04-19T10:48:53Z</time></trkpt><trkpt lat="45.95807892338544" lon="12.901528696593173"><ele>39.0</ele><time>2026-04-19T10:48:54Z</time></trkpt><trkpt lat="45.95799522945337" lon="12.901473122841152"><ele>39.0</ele><time>2026-04-19T10:48:55Z</time></trkpt><trkpt lat="45.95790229312832" lon="12.901415670800448"><ele>39.0</ele><time>2026-04-19T10:48:56Z</time></trkpt><trkpt lat="45.95780818822634" lon="12.901355585950059"><ele>39.0</ele><time>2026-04-19T10:48:57Z</time></trkpt><trkpt lat="45.95773312025846" lon="12.901319414254285"><ele>39.0</ele><time>2026-04-19T10:48:58Z</time></trkpt><trkpt lat="45.957653554641595" lon="12.901284407712707"><ele>39.0</ele><time>2026-04-19T10:48:59Z</time></trkpt><trkpt lat="45.95751900453996" lon="12.901230537652387"><ele>39.0</ele><time>2026-04-19T10:49:01Z</time></trkpt><trkpt lat="45.957410128074784" lon="12.90124307032282"><ele>39.0</ele><time>2026-04-19T10:49:02Z</time></trkpt><trkpt lat="45.95732009910063" lon="12.901248970847368"><ele>39.0</ele><time>2026-04-19T10:49:03Z</time></trkpt><trkpt lat="45.957239298802925" lon="12.901275843818322"><ele>39.2</ele><time>2026-04-19T10:49:04Z</time></trkpt><trkpt lat="45.957148772663516" lon="12.901365359356838"><ele>39.4</ele><time>2026-04-19T10:49:05Z</time></trkpt><trkpt lat="45.957051805087936" lon="12.901438935261702"><ele>39.6</ele><time>2026-04-19T10:49:06Z</time></trkpt><trkpt lat="45.95695999168326" lon="12.901461154493614"><ele>39.8</ele><time>2026-04-19T10:49:07Z</time></trkpt><trkpt lat="45.956894803834125" lon="12.901512349966344"><ele>40.0</ele><time>2026-04-19T10:49:08Z</time></trkpt><trkpt lat="45.95680957340894" lon="12.901566544885053"><ele>40.0</ele><time>2026-04-19T10:49:10Z</time></trkpt><trkpt lat="45.95672719581483" lon="12.901589682732668"><ele>40.0</ele><time>2026-04-19T10:49:12Z</time></trkpt><trkpt lat="45.95664481377667" lon="12.901596376636551"><ele>40.0</ele><time>2026-04-19T10:49:14Z</time></trkpt><trkpt lat="45.95652890357996" lon="12.901673121293138"><ele>40.0</ele><time>2026-04-19T10:49:16Z</time></trkpt><trkpt lat="45.95646610683967" lon="12.901725159873534"><ele>40.0</ele><time>2026-04-19T10:49:17Z</time></trkpt><trkpt lat="45.95640012782731" lon="12.901769291624836"><ele>40.0</ele><time>2026-04-19T10:49:18Z</time></trkpt><trkpt lat="45.95624615377733" lon="12.901851263688473"><ele>40.0</ele><time>2026-04-19T10:49:20Z</time></trkpt><trkpt lat="45.956163995682" lon="12.901866116362651"><ele>40.0</ele><time>2026-04-19T10:49:21Z</time></trkpt><trkpt lat="45.95607307071301" lon="12.901884435452342"><ele>40.0</ele><time>2026-04-19T10:49:22Z</time></trkpt><trkpt lat="45.95596866056978" lon="12.90190311113574"><ele>40.0</ele><time>2026-04-19T10:49:23Z</time></trkpt><trkpt lat="45.95587463714252" lon="12.901927442454806"><ele>40.0</ele><time>2026-04-19T10:49:24Z</time></trkpt><trkpt lat="45.95579025192082" lon="12.901961078618367"><ele>39.833333333333336</ele><time>2026-04-19T10:49:25Z</time></trkpt><trkpt lat="45.95572030591236" lon="12.901966918853429"><ele>39.66666666666667</ele><time>2026-04-19T10:49:26Z</time></trkpt><trkpt lat="45.95564606015738" lon="12.901997369342869"><ele>39.5</ele><time>2026-04-19T10:49:27Z</time></trkpt><trkpt lat="45.955555985695305" lon="12.902016795253514"><ele>39.333333333333336</ele><time>2026-04-19T10:49:28Z</time></trkpt><trkpt lat="45.95546984733919" lon="12.902093461403794"><ele>39.166666666666664</ele><time>2026-04-19T10:49:29Z</time></trkpt><trkpt lat="45.95538340993357" lon="12.902114991909128"><ele>39.0</ele><time>2026-04-19T10:49:30Z</time></trkpt><trkpt lat="45.95531335370438" lon="12.902151312613809"><ele>39.0</ele><time>2026-04-19T10:49:31Z</time></trkpt><trkpt lat="45.95525158631574" lon="12.90219969349453"><ele>39.0</ele><time>2026-04-19T10:49:32Z</time></trkpt><trkpt lat="45.955165440692014" lon="12.90228190916659"><ele>39.0</ele><time>2026-04-19T10:49:34Z</time></trkpt><trkpt lat="45.95505048008096" lon="12.902465727620283"><ele>39.0</ele><time>2026-04-19T10:49:36Z</time></trkpt><trkpt lat="45.95497531667841" lon="12.902543230053507"><ele>39.0</ele><time>2026-04-19T10:49:37Z</time></trkpt><trkpt lat="45.95490475325276" lon="12.902651333279849"><ele>39.0</ele><time>2026-04-19T10:49:38Z</time></trkpt><trkpt lat="45.95481102929683" lon="12.902740700772652"><ele>39.0</ele><time>2026-04-19T10:49:39Z</time></trkpt><trkpt lat="45.95473311827091" lon="12.902786947326298"><ele>39.0</ele><time>2026-04-19T10:49:40Z</time></trkpt><trkpt lat="45.95466108571553" lon="12.902834371637658"><ele>39.0</ele><time>2026-04-19T10:49:41Z</time></trkpt><trkpt lat="45.954586732644174" lon="12.902866253893892"><ele>39.0</ele><time>2026-04-19T10:49:42Z</time></trkpt><trkpt lat="45.95449990948754" lon="12.902885078896801"><ele>39.0</ele><time>2026-04-19T10:49:43Z</time></trkpt><trkpt lat="45.95438364630141" lon="12.902895247215914"><ele>39.0</ele><time>2026-04-19T10:49:44Z</time></trkpt><trkpt lat="45.954268861189306" lon="12.902906906612518"><ele>39.0</ele><time>2026-04-19T10:49:45Z</time></trkpt><trkpt lat="45.954174818813755" lon="12.902921589229344"><ele>39.0</ele><time>2026-04-19T10:49:46Z</time></trkpt><trkpt lat="45.95408771431088" lon="12.902932050391826"><ele>39.0</ele><time>2026-04-19T10:49:47Z</time></trkpt><trkpt lat="45.95399978071565" lon="12.902941987898574"><ele>39.0</ele><time>2026-04-19T10:49:48Z</time></trkpt><trkpt lat="45.95391232209114" lon="12.902948390518166"><ele>39.0</ele><time>2026-04-19T10:49:49Z</time></trkpt><trkpt lat="45.95382551103077" lon="12.90295006770737"><ele>39.0</ele><time>2026-04-19T10:49:50Z</time></trkpt><trkpt lat="45.95373979334774" lon="12.902963810493683"><ele>39.0</ele><time>2026-04-19T10:49:51Z</time></trkpt><trkpt lat="45.953662104775326" lon="12.902990175923676"><ele>39.0</ele><time>2026-04-19T10:49:52Z</time></trkpt><trkpt lat="45.95358233435682" lon="12.903026868528272"><ele>39.0</ele><time>2026-04-19T10:49:53Z</time></trkpt><trkpt lat="45.95350412882279" lon="12.903065345220016"><ele>39.0</ele><time>2026-04-19T10:49:54Z</time></trkpt><trkpt lat="45.953410007228925" lon="12.903101648335449"><ele>39.0</ele><time>2026-04-19T10:49:55Z</time></trkpt><trkpt lat="45.953339435063306" lon="12.903160102560289"><ele>39.0</ele><time>2026-04-19T10:49:56Z</time></trkpt><trkpt lat="45.95327610961732" lon="12.903219310784822"><ele>39.0</ele><time>2026-04-19T10:49:57Z</time></trkpt><trkpt lat="45.953206384755546" lon="12.903270063832103"><ele>39.0</ele><time>2026-04-19T10:49:58Z</time></trkpt><trkpt lat="45.95314228374164" lon="12.903313348374006"><ele>39.0</ele><time>2026-04-19T10:49:59Z</time></trkpt><trkpt lat="45.953077818061196" lon="12.903349215307916"><ele>39.0</ele><time>2026-04-19T10:50:00Z</time></trkpt><trkpt lat="45.953007997726495" lon="12.903396712276603"><ele>39.0</ele><time>2026-04-19T10:50:01Z</time></trkpt><trkpt lat="45.95294943446841" lon="12.903448803490337"><ele>39.0</ele><time>2026-04-19T10:50:02Z</time></trkpt><trkpt lat="45.95283467747557" lon="12.9035346573221"><ele>39.0</ele><time>2026-04-19T10:50:04Z</time></trkpt><trkpt lat="45.95273575991182" lon="12.90362782253639"><ele>39.0</ele><time>2026-04-19T10:50:06Z</time></trkpt><trkpt lat="45.95267553534681" lon="12.903677017099943"><ele>39.0</ele><time>2026-04-19T10:50:07Z</time></trkpt><trkpt lat="45.952627415577545" lon="12.903768077961589"><ele>39.0</ele><time>2026-04-19T10:50:08Z</time></trkpt><trkpt lat="45.952557157148725" lon="12.903859674682348"><ele>39.0</ele><time>2026-04-19T10:50:09Z</time></trkpt><trkpt lat="45.95249632675223" lon="12.90395591528336"><ele>39.0</ele><time>2026-04-19T10:50:10Z</time></trkpt><trkpt lat="45.952378809415606" lon="12.904064258063269"><ele>39.0</ele><time>2026-04-19T10:50:12Z</time></trkpt><trkpt lat="45.95232225539254" lon="12.904105043869366"><ele>39.0</ele><time>2026-04-19T10:50:13Z</time></trkpt><trkpt lat="45.9522495367953" lon="12.90416622193412"><ele>38.8</ele><time>2026-04-19T10:50:14Z</time></trkpt><trkpt lat="45.95211326843603" lon="12.904232029635693"><ele>38.599999999999994</ele><time>2026-04-19T10:50:16Z</time></trkpt><trkpt lat="45.95202446198824" lon="12.90429006923562"><ele>38.4</ele><time>2026-04-19T10:50:17Z</time></trkpt><trkpt lat="45.951949507073884" lon="12.904345065150194"><ele>38.199999999999996</ele><time>2026-04-19T10:50:18Z</time></trkpt><trkpt lat="45.951884201803345" lon="12.90438290369852"><ele>38.0</ele><time>2026-04-19T10:50:19Z</time></trkpt><trkpt lat="45.951791186279955" lon="12.904427604033403"><ele>37.8</ele><time>2026-04-19T10:50:21Z</time></trkpt><trkpt lat="45.9516685236782" lon="12.904461191898479"><ele>37.599999999999994</ele><time>2026-04-19T10:50:24Z</time></trkpt><trkpt lat="45.951588907963156" lon="12.90446625903852"><ele>37.400000000000006</ele><time>2026-04-19T10:50:25Z</time></trkpt><trkpt lat="45.951509873985664" lon="12.904482988502576"><ele>37.2</ele><time>2026-04-19T10:50:26Z</time></trkpt><trkpt lat="45.95140357558239" lon="12.904479732573959"><ele>37.0</ele><time>2026-04-19T10:50:28Z</time></trkpt><trkpt lat="45.95130114148283" lon="12.904542222905553"><ele>37.0</ele><time>2026-04-19T10:50:30Z</time></trkpt><trkpt lat="45.95123812395998" lon="12.90460402975527"><ele>37.0</ele><time>2026-04-19T10:50:31Z</time></trkpt><trkpt lat="45.95114653888773" lon="12.904668277774807"><ele>37.0</ele><time>2026-04-19T10:50:32Z</time></trkpt><trkpt lat="45.95105099549496" lon="12.904707465904883"><ele>37.0</ele><time>2026-04-19T10:50:33Z</time></trkpt><trkpt lat="45.95095261377002" lon="12.90475289254229"><ele>37.0</ele><time>2026-04-19T10:50:35Z</time></trkpt><trkpt lat="45.95089067665858" lon="12.904799833945978"><ele>37.2</ele><time>2026-04-19T10:50:36Z</time></trkpt><trkpt lat="45.95082492607907" lon="12.90481446288396"><ele>37.400000000000006</ele><time>2026-04-19T10:50:37Z</time></trkpt><trkpt lat="45.950737604826664" lon="12.904830606029021"><ele>37.599999999999994</ele><time>2026-04-19T10:50:39Z</time></trkpt><trkpt lat="45.950615082052316" lon="12.904843951834176"><ele>37.8</ele><time>2026-04-19T10:50:41Z</time></trkpt><trkpt lat="45.95054387812744" lon="12.90485273856615"><ele>38.0</ele><time>2026-04-19T10:50:42Z</time></trkpt><trkpt lat="45.9504230977492" lon="12.904878184632045"><ele>38.0</ele><time>2026-04-19T10:50:44Z</time></trkpt><trkpt lat="45.95033789484731" lon="12.90483383396639"><ele>38.0</ele><time>2026-04-19T10:50:45Z</time></trkpt><trkpt lat="45.950269853376426" lon="12.904815442958357"><ele>38.0</ele><time>2026-04-19T10:50:46Z</time></trkpt><trkpt lat="45.950190177577966" lon="12.904832096103977"><ele>38.0</ele><time>2026-04-19T10:50:47Z</time></trkpt><trkpt lat="45.950115039054346" lon="12.904831014011574"><ele>38.0</ele><time>2026-04-19T10:50:48Z</time></trkpt><trkpt lat="45.95004039939689" lon="12.904776431937565"><ele>38.0</ele><time>2026-04-19T10:50:49Z</time></trkpt><trkpt lat="45.94993747255284" lon="12.904753698999997"><ele>37.8</ele><time>2026-04-19T10:50:50Z</time></trkpt><trkpt lat="45.949828009263065" lon="12.904696053497371"><ele>37.599999999999994</ele><time>2026-04-19T10:50:51Z</time></trkpt><trkpt lat="45.94971833843" lon="12.904644322587103"><ele>37.400000000000006</ele><time>2026-04-19T10:50:52Z</time></trkpt><trkpt lat="45.949631484767956" lon="12.90461953604962"><ele>37.2</ele><time>2026-04-19T10:50:53Z</time></trkpt><trkpt lat="45.949548029613865" lon="12.90460108420851"><ele>37.0</ele><time>2026-04-19T10:50:54Z</time></trkpt><trkpt lat="45.94947405261133" lon="12.904574955333006"><ele>37.0</ele><time>2026-04-19T10:50:55Z</time></trkpt><trkpt lat="45.9493973339989" lon="12.904552517958637"><ele>37.0</ele><time>2026-04-19T10:50:56Z</time></trkpt><trkpt lat="45.94931663390298" lon="12.904544980870206"><ele>37.0</ele><time>2026-04-19T10:50:57Z</time></trkpt><trkpt lat="45.94923270818277" lon="12.904550599198975"><ele>37.0</ele><time>2026-04-19T10:50:58Z</time></trkpt><trkpt lat="45.949131769125565" lon="12.90456918806066"><ele>37.0</ele><time>2026-04-19T10:50:59Z</time></trkpt><trkpt lat="45.94903129266303" lon="12.90458855898904"><ele>37.0</ele><time>2026-04-19T10:51:00Z</time></trkpt><trkpt lat="45.9489560812764" lon="12.904595575597376"><ele>37.0</ele><time>2026-04-19T10:51:01Z</time></trkpt><trkpt lat="45.9488417890784" lon="12.904592405723326"><ele>37.0</ele><time>2026-04-19T10:51:03Z</time></trkpt><trkpt lat="45.94877424749528" lon="12.904591439973672"><ele>37.0</ele><time>2026-04-19T10:51:04Z</time></trkpt><trkpt lat="45.94868514697524" lon="12.904552337737046"><ele>37.0</ele><time>2026-04-19T10:51:06Z</time></trkpt><trkpt lat="45.9485919794551" lon="12.90442069625718"><ele>37.0</ele><time>2026-04-19T10:51:08Z</time></trkpt><trkpt lat="45.94855411360959" lon="12.904343673360879"><ele>37.0</ele><time>2026-04-19T10:51:09Z</time></trkpt><trkpt lat="45.948508861637386" lon="12.904246820431528"><ele>37.0</ele><time>2026-04-19T10:51:10Z</time></trkpt><trkpt lat="45.94846088164243" lon="12.904122951461686"><ele>37.0</ele><time>2026-04-19T10:51:11Z</time></trkpt><trkpt lat="45.94842742345316" lon="12.904012303617376"><ele>37.0</ele><time>2026-04-19T10:51:12Z</time></trkpt><trkpt lat="45.948401710300786" lon="12.903924742349853"><ele>37.0</ele><time>2026-04-19T10:51:13Z</time></trkpt><trkpt lat="45.948351106214695" lon="12.90376364318204"><ele>37.0</ele><time>2026-04-19T10:51:15Z</time></trkpt><trkpt lat="45.94832754307886" lon="12.903673678406955"><ele>37.0</ele><time>2026-04-19T10:51:16Z</time></trkpt><trkpt lat="45.948304386431595" lon="12.903586567130615"><ele>37.0</ele><time>2026-04-19T10:51:17Z</time></trkpt><trkpt lat="45.948287676147984" lon="12.903429678896801"><ele>37.0</ele><time>2026-04-19T10:51:19Z</time></trkpt><trkpt lat="45.94829611173316" lon="12.903331297919287"><ele>37.0</ele><time>2026-04-19T10:51:20Z</time></trkpt><trkpt lat="45.9483524852876" lon="12.90317237425166"><ele>37.0</ele><time>2026-04-19T10:51:22Z</time></trkpt><trkpt lat="45.94837911276585" lon="12.903070361532667"><ele>37.0</ele><time>2026-04-19T10:51:23Z</time></trkpt><trkpt lat="45.94842680945502" lon="12.90295433479822"><ele>37.0</ele><time>2026-04-19T10:51:24Z</time></trkpt><trkpt lat="45.94848472815114" lon="12.90284996752322"><ele>37.0</ele><time>2026-04-19T10:51:25Z</time></trkpt><trkpt lat="45.9485154909707" lon="12.902761817557295"><ele>37.0</ele><time>2026-04-19T10:51:26Z</time></trkpt><trkpt lat="45.948558044571676" lon="12.90267838004331"><ele>37.0</ele><time>2026-04-19T10:51:27Z</time></trkpt><trkpt lat="45.94859642038997" lon="12.902581964226197"><ele>37.0</ele><time>2026-04-19T10:51:28Z</time></trkpt><trkpt lat="45.94863505994152" lon="12.902493833811452"><ele>37.0</ele><time>2026-04-19T10:51:29Z</time></trkpt><trkpt lat="45.94870166878347" lon="12.902362591207606"><ele>37.0</ele><time>2026-04-19T10:51:31Z</time></trkpt><trkpt lat="45.94877714150773" lon="12.902229901381489"><ele>37.0</ele><time>2026-04-19T10:51:33Z</time></trkpt><trkpt lat="45.94883623535669" lon="12.902177472734628"><ele>37.0</ele><time>2026-04-19T10:51:34Z</time></trkpt><trkpt lat="45.9488844613659" lon="12.902117730487621"><ele>37.0</ele><time>2026-04-19T10:51:35Z</time></trkpt><trkpt lat="45.94894892356784" lon="12.901977170576336"><ele>37.0</ele><time>2026-04-19T10:51:37Z</time></trkpt><trkpt lat="45.94901811965681" lon="12.90185419508963"><ele>37.0</ele><time>2026-04-19T10:51:39Z</time></trkpt><trkpt lat="45.94910655179786" lon="12.901732643764172"><ele>37.0</ele><time>2026-04-19T10:51:41Z</time></trkpt><trkpt lat="45.949189327509224" lon="12.901655249899223"><ele>37.0</ele><time>2026-04-19T10:51:43Z</time></trkpt><trkpt lat="45.94923923290011" lon="12.901566297689989"><ele>37.0</ele><time>2026-04-19T10:51:45Z</time></trkpt><trkpt lat="45.94930972209239" lon="12.901500398427535"><ele>37.16666666666667</ele><time>2026-04-19T10:51:47Z</time></trkpt><trkpt lat="45.94937955389491" lon="12.901444045829688"><ele>37.333333333333336</ele><time>2026-04-19T10:51:49Z</time></trkpt><trkpt lat="45.949449525127854" lon="12.901384167993161"><ele>37.5</ele><time>2026-04-19T10:51:51Z</time></trkpt><trkpt lat="45.94952237232224" lon="12.901363422569151"><ele>37.666666666666664</ele><time>2026-04-19T10:51:54Z</time></trkpt><trkpt lat="45.94961694305273" lon="12.901367225612939"><ele>37.83333333333333</ele><time>2026-04-19T10:51:56Z</time></trkpt><trkpt lat="45.949701595689596" lon="12.901366363583634"><ele>38.0</ele><time>2026-04-19T10:51:58Z</time></trkpt><trkpt lat="45.949768889095026" lon="12.901380068859103"><ele>38.0</ele><time>2026-04-19T10:52:00Z</time></trkpt><trkpt lat="45.94990683649303" lon="12.901444136895337"><ele>38.0</ele><time>2026-04-19T10:52:01Z</time></trkpt><trkpt lat="45.95000543028045" lon="12.901480098571655"><ele>38.0</ele><time>2026-04-19T10:52:02Z</time></trkpt><trkpt lat="45.95010866644128" lon="12.90152707135086"><ele>38.0</ele><time>2026-04-19T10:52:03Z</time></trkpt><trkpt lat="45.95023054187596" lon="12.90158520436781"><ele>38.33333333333333</ele><time>2026-04-19T10:52:04Z</time></trkpt><trkpt lat="45.95029853203858" lon="12.901625356480974"><ele>38.666666666666664</ele><time>2026-04-19T10:52:05Z</time></trkpt><trkpt lat="45.95038000843968" lon="12.901680861334427"><ele>39.0</ele><time>2026-04-19T10:52:06Z</time></trkpt><trkpt lat="45.950452970191535" lon="12.901732930160971"><ele>39.333333333333336</ele><time>2026-04-19T10:52:07Z</time></trkpt><trkpt lat="45.95053244714705" lon="12.901767134753266"><ele>39.66666666666667</ele><time>2026-04-19T10:52:08Z</time></trkpt><trkpt lat="45.95059684476528" lon="12.901798592183964"><ele>40.0</ele><time>2026-04-19T10:52:09Z</time></trkpt><trkpt lat="45.95066262084447" lon="12.901816978804739"><ele>40.0</ele><time>2026-04-19T10:52:10Z</time></trkpt><trkpt lat="45.95075010689938" lon="12.901870404777416"><ele>40.0</ele><time>2026-04-19T10:52:12Z</time></trkpt><trkpt lat="45.95082260688569" lon="12.90189409453776"><ele>40.0</ele><time>2026-04-19T10:52:14Z</time></trkpt><trkpt lat="45.950896730362906" lon="12.901865936854646"><ele>40.0</ele><time>2026-04-19T10:52:17Z</time></trkpt><trkpt lat="45.95096210198405" lon="12.901846445582223"><ele>40.0</ele><time>2026-04-19T10:52:21Z</time></trkpt><trkpt lat="45.95102293639338" lon="12.901805915868978"><ele>40.0</ele><time>2026-04-19T10:52:24Z</time></trkpt><trkpt lat="45.9510887598019" lon="12.901717488210016"><ele>40.0</ele><time>2026-04-19T10:52:27Z</time></trkpt><trkpt lat="45.9511028693297" lon="12.901456681353153"><ele>40.0</ele><time>2026-04-19T10:52:30Z</time></trkpt><trkpt lat="45.951048365009584" lon="12.901325385176316"><ele>40.0</ele><time>2026-04-19T10:52:32Z</time></trkpt><trkpt lat="45.95092176888842" lon="12.901190779271987"><ele>40.0</ele><time>2026-04-19T10:52:34Z</time></trkpt><trkpt lat="45.95085535510921" lon="12.9011586098716"><ele>40.0</ele><time>2026-04-19T10:52:35Z</time></trkpt><trkpt lat="45.950803918055364" lon="12.901103620386264"><ele>40.0</ele><time>2026-04-19T10:52:36Z</time></trkpt><trkpt lat="45.950765971407584" lon="12.900956838184843"><ele>40.0</ele><time>2026-04-19T10:52:38Z</time></trkpt><trkpt lat="45.95071639928558" lon="12.90087386369127"><ele>40.0</ele><time>2026-04-19T10:52:39Z</time></trkpt><trkpt lat="45.95065076042875" lon="12.900747721132268"><ele>40.0</ele><time>2026-04-19T10:52:40Z</time></trkpt><trkpt lat="45.950574020390775" lon="12.900609321656903"><ele>39.8</ele><time>2026-04-19T10:52:41Z</time></trkpt><trkpt lat="45.95050817959246" lon="12.9005247863182"><ele>39.6</ele><time>2026-04-19T10:52:42Z</time></trkpt><trkpt lat="45.95045898668252" lon="12.900461146571056"><ele>39.4</ele><time>2026-04-19T10:52:43Z</time></trkpt><trkpt lat="45.9503642877422" lon="12.900435714393067"><ele>39.2</ele><time>2026-04-19T10:52:44Z</time></trkpt><trkpt lat="45.95031176115739" lon="12.900369752849494"><ele>39.0</ele><time>2026-04-19T10:52:45Z</time></trkpt><trkpt lat="45.95021721640649" lon="12.900222684516114"><ele>39.0</ele><time>2026-04-19T10:52:47Z</time></trkpt><trkpt lat="45.95019224219148" lon="12.900117010845152"><ele>39.0</ele><time>2026-04-19T10:52:48Z</time></trkpt><trkpt lat="45.950167010550736" lon="12.900015348208436"><ele>39.0</ele><time>2026-04-19T10:52:49Z</time></trkpt><trkpt lat="45.950161834427746" lon="12.899864723650504"><ele>39.0</ele><time>2026-04-19T10:52:50Z</time></trkpt><trkpt lat="45.95015716715764" lon="12.899661559008036"><ele>39.0</ele><time>2026-04-19T10:52:51Z</time></trkpt><trkpt lat="45.950163010206005" lon="12.899522001505908"><ele>39.166666666666664</ele><time>2026-04-19T10:52:52Z</time></trkpt><trkpt lat="45.950160240890604" lon="12.899410265191957"><ele>39.333333333333336</ele><time>2026-04-19T10:52:53Z</time></trkpt><trkpt lat="45.95015290789961" lon="12.899304076936922"><ele>39.5</ele><time>2026-04-19T10:52:54Z</time></trkpt><trkpt lat="45.950139124312" lon="12.899205696233642"><ele>39.66666666666667</ele><time>2026-04-19T10:52:55Z</time></trkpt><trkpt lat="45.950138865611414" lon="12.899100947006199"><ele>39.833333333333336</ele><time>2026-04-19T10:52:56Z</time></trkpt><trkpt lat="45.95011342684588" lon="12.898993163528315"><ele>40.0</ele><time>2026-04-19T10:52:57Z</time></trkpt><trkpt lat="45.950029855431985" lon="12.89888759676135"><ele>40.25</ele><time>2026-04-19T10:52:58Z</time></trkpt><trkpt lat="45.94990048043779" lon="12.898765663536246"><ele>40.5</ele><time>2026-04-19T10:52:59Z</time></trkpt><trkpt lat="45.94977947433191" lon="12.898651931015872"><ele>40.75</ele><time>2026-04-19T10:53:00Z</time></trkpt><trkpt lat="45.94966894680883" lon="12.898530676711559"><ele>41.0</ele><time>2026-04-19T10:53:01Z</time></trkpt><trkpt lat="45.94957009407891" lon="12.898410255996918"><ele>40.5</ele><time>2026-04-19T10:53:02Z</time></trkpt><trkpt lat="45.94947559292571" lon="12.898299334963513"><ele>40.0</ele><time>2026-04-19T10:53:03Z</time></trkpt><trkpt lat="45.949382609259246" lon="12.898199601776573"><ele>39.5</ele><time>2026-04-19T10:53:04Z</time></trkpt><trkpt lat="45.949289648317134" lon="12.898086792908513"><ele>39.0</ele><time>2026-04-19T10:53:05Z</time></trkpt><trkpt lat="45.949203275916354" lon="12.89797084932457"><ele>39.0</ele><time>2026-04-19T10:53:06Z</time></trkpt><trkpt lat="45.94912203127901" lon="12.897867902590232"><ele>39.0</ele><time>2026-04-19T10:53:07Z</time></trkpt><trkpt lat="45.94905165970644" lon="12.897769801786495"><ele>39.0</ele><time>2026-04-19T10:53:08Z</time></trkpt><trkpt lat="45.94899698399451" lon="12.897690886501806"><ele>39.0</ele><time>2026-04-19T10:53:09Z</time></trkpt><trkpt lat="45.94893854940282" lon="12.89762964642171"><ele>39.0</ele><time>2026-04-19T10:53:10Z</time></trkpt><trkpt lat="45.94888618232206" lon="12.897525618612441"><ele>39.0</ele><time>2026-04-19T10:53:11Z</time></trkpt><trkpt lat="45.94885441730644" lon="12.897396993106153"><ele>39.25</ele><time>2026-04-19T10:53:12Z</time></trkpt><trkpt lat="45.94882146667529" lon="12.897243609192348"><ele>39.5</ele><time>2026-04-19T10:53:13Z</time></trkpt><trkpt lat="45.94876846698055" lon="12.897090998676102"><ele>39.75</ele><time>2026-04-19T10:53:14Z</time></trkpt><trkpt lat="45.9487042679573" lon="12.896949544903576"><ele>40.0</ele><time>2026-04-19T10:53:15Z</time></trkpt><trkpt lat="45.948627991293165" lon="12.896804700123965"><ele>39.75</ele><time>2026-04-19T10:53:16Z</time></trkpt><trkpt lat="45.94854675639866" lon="12.896670372532762"><ele>39.5</ele><time>2026-04-19T10:53:17Z</time></trkpt><trkpt lat="45.94845398273331" lon="12.89654725241406"><ele>39.25</ele><time>2026-04-19T10:53:18Z</time></trkpt><trkpt lat="45.94835298598074" lon="12.896436178401231"><ele>39.0</ele><time>2026-04-19T10:53:19Z</time></trkpt><trkpt lat="45.94827290232709" lon="12.89634500924597"><ele>39.0</ele><time>2026-04-19T10:53:20Z</time></trkpt><trkpt lat="45.94816760110246" lon="12.896250299986376"><ele>39.0</ele><time>2026-04-19T10:53:21Z</time></trkpt><trkpt lat="45.948077573623515" lon="12.8961424319777"><ele>39.0</ele><time>2026-04-19T10:53:22Z</time></trkpt><trkpt lat="45.94799532729925" lon="12.896043964155622"><ele>39.0</ele><time>2026-04-19T10:53:23Z</time></trkpt><trkpt lat="45.9479249221148" lon="12.895935285541864"><ele>38.75</ele><time>2026-04-19T10:53:24Z</time></trkpt><trkpt lat="45.947881900111156" lon="12.895801340911003"><ele>38.5</ele><time>2026-04-19T10:53:25Z</time></trkpt><trkpt lat="45.94783566851721" lon="12.89565966650858"><ele>38.25</ele><time>2026-04-19T10:53:26Z</time></trkpt><trkpt lat="45.94780093709677" lon="12.89547318757635"><ele>38.0</ele><time>2026-04-19T10:53:27Z</time></trkpt><trkpt lat="45.947779960391486" lon="12.895273782399268"><ele>38.0</ele><time>2026-04-19T10:53:28Z</time></trkpt><trkpt lat="45.94774249666649" lon="12.895084505136948"><ele>38.0</ele><time>2026-04-19T10:53:29Z</time></trkpt><trkpt lat="45.94770215639576" lon="12.89489252025536"><ele>38.0</ele><time>2026-04-19T10:53:30Z</time></trkpt><trkpt lat="45.9476590699288" lon="12.894693707065896"><ele>38.0</ele><time>2026-04-19T10:53:31Z</time></trkpt><trkpt lat="45.94761933134318" lon="12.894504060431052"><ele>38.0</ele><time>2026-04-19T10:53:32Z</time></trkpt><trkpt lat="45.947582573751674" lon="12.894325500547234"><ele>38.0</ele><time>2026-04-19T10:53:33Z</time></trkpt><trkpt lat="45.94754893848811" lon="12.894160096603127"><ele>38.0</ele><time>2026-04-19T10:53:34Z</time></trkpt><trkpt lat="45.947522580112064" lon="12.893995700149338"><ele>38.0</ele><time>2026-04-19T10:53:35Z</time></trkpt><trkpt lat="45.94750922742305" lon="12.89381411613528"><ele>38.0</ele><time>2026-04-19T10:53:36Z</time></trkpt><trkpt lat="45.94749598543482" lon="12.893622328266812"><ele>38.0</ele><time>2026-04-19T10:53:37Z</time></trkpt><trkpt lat="45.94748908908951" lon="12.893421512369308"><ele>38.0</ele><time>2026-04-19T10:53:38Z</time></trkpt><trkpt lat="45.947502368285875" lon="12.893219044280858"><ele>38.0</ele><time>2026-04-19T10:53:39Z</time></trkpt><trkpt lat="45.94748300430297" lon="12.893016886405126"><ele>38.0</ele><time>2026-04-19T10:53:40Z</time></trkpt><trkpt lat="45.9474938589435" lon="12.892843198610448"><ele>38.0</ele><time>2026-04-19T10:53:41Z</time></trkpt><trkpt lat="45.94747537038572" lon="12.892677435537157"><ele>38.0</ele><time>2026-04-19T10:53:42Z</time></trkpt><trkpt lat="45.9474701008842" lon="12.892500363780274"><ele>38.0</ele><time>2026-04-19T10:53:43Z</time></trkpt><trkpt lat="45.94744632780448" lon="12.892274954188865"><ele>38.33333333333333</ele><time>2026-04-19T10:53:44Z</time></trkpt><trkpt lat="45.94742346101952" lon="12.892041250242693"><ele>38.666666666666664</ele><time>2026-04-19T10:53:45Z</time></trkpt><trkpt lat="45.947397700376825" lon="12.891809929661044"><ele>39.0</ele><time>2026-04-19T10:53:46Z</time></trkpt><trkpt lat="45.94737258050157" lon="12.891592140705361"><ele>39.0</ele><time>2026-04-19T10:53:47Z</time></trkpt><trkpt lat="45.94735088814495" lon="12.891390559024455"><ele>39.0</ele><time>2026-04-19T10:53:48Z</time></trkpt><trkpt lat="45.94732717095192" lon="12.891196825077767"><ele>39.0</ele><time>2026-04-19T10:53:49Z</time></trkpt><trkpt lat="45.947300510288535" lon="12.891008028042494"><ele>39.0</ele><time>2026-04-19T10:53:50Z</time></trkpt><trkpt lat="45.94728241569373" lon="12.890815639052871"><ele>38.75</ele><time>2026-04-19T10:53:51Z</time></trkpt><trkpt lat="45.94726122088382" lon="12.89062697164559"><ele>38.5</ele><time>2026-04-19T10:53:52Z</time></trkpt><trkpt lat="45.94725088572617" lon="12.89044199838099"><ele>38.25</ele><time>2026-04-19T10:53:53Z</time></trkpt><trkpt lat="45.947233810327056" lon="12.890253364490716"><ele>38.0</ele><time>2026-04-19T10:53:54Z</time></trkpt><trkpt lat="45.947214127821674" lon="12.890063661431022"><ele>38.0</ele><time>2026-04-19T10:53:55Z</time></trkpt><trkpt lat="45.9471932445212" lon="12.889871324295697"><ele>38.0</ele><time>2026-04-19T10:53:56Z</time></trkpt><trkpt lat="45.94717420693375" lon="12.889675583811503"><ele>38.0</ele><time>2026-04-19T10:53:57Z</time></trkpt><trkpt lat="45.94715016193424" lon="12.889476744353521"><ele>38.0</ele><time>2026-04-19T10:53:58Z</time></trkpt><trkpt lat="45.94713542100587" lon="12.889264825030413"><ele>38.25</ele><time>2026-04-19T10:53:59Z</time></trkpt><trkpt lat="45.94711167547117" lon="12.889052729040882"><ele>38.5</ele><time>2026-04-19T10:54:00Z</time></trkpt><trkpt lat="45.94708771614394" lon="12.888831645758847"><ele>38.75</ele><time>2026-04-19T10:54:01Z</time></trkpt><trkpt lat="45.94706738723557" lon="12.888644061944587"><ele>39.0</ele><time>2026-04-19T10:54:02Z</time></trkpt><trkpt lat="45.947028161174195" lon="12.888445173721454"><ele>39.25</ele><time>2026-04-19T10:54:03Z</time></trkpt><trkpt lat="45.94700754143529" lon="12.888242908707891"><ele>39.5</ele><time>2026-04-19T10:54:04Z</time></trkpt><trkpt lat="45.94699159552443" lon="12.888039559928046"><ele>39.75</ele><time>2026-04-19T10:54:05Z</time></trkpt><trkpt lat="45.94697282348252" lon="12.887849936063818"><ele>40.0</ele><time>2026-04-19T10:54:06Z</time></trkpt><trkpt lat="45.94695592807396" lon="12.887641866789684"><ele>40.25</ele><time>2026-04-19T10:54:07Z</time></trkpt><trkpt lat="45.94692502024496" lon="12.88745841370032"><ele>40.5</ele><time>2026-04-19T10:54:08Z</time></trkpt><trkpt lat="45.946909451689656" lon="12.887273000719736"><ele>40.75</ele><time>2026-04-19T10:54:09Z</time></trkpt><trkpt lat="45.94688173655882" lon="12.887099914249665"><ele>41.0</ele><time>2026-04-19T10:54:10Z</time></trkpt><trkpt lat="45.94685019724417" lon="12.886936210764448"><ele>41.0</ele><time>2026-04-19T10:54:11Z</time></trkpt><trkpt lat="45.946817838292205" lon="12.886798479772981"><ele>41.0</ele><time>2026-04-19T10:54:12Z</time></trkpt><trkpt lat="45.946771208801614" lon="12.886675457791236"><ele>41.0</ele><time>2026-04-19T10:54:13Z</time></trkpt><trkpt lat="45.946726717751794" lon="12.886549626125584"><ele>41.0</ele><time>2026-04-19T10:54:14Z</time></trkpt><trkpt lat="45.9466864989737" lon="12.886426190820659"><ele>41.0</ele><time>2026-04-19T10:54:15Z</time></trkpt><trkpt lat="45.94662905872732" lon="12.886314472064972"><ele>41.0</ele><time>2026-04-19T10:54:16Z</time></trkpt><trkpt lat="45.946750453696325" lon="12.886055456584907"><ele>41.0</ele><time>2026-04-19T10:54:17Z</time></trkpt><trkpt lat="45.94679714668901" lon="12.885844907061069"><ele>41.0</ele><time>2026-04-19T10:54:18Z</time></trkpt><trkpt lat="45.94683575637433" lon="12.885632016917917"><ele>41.0</ele><time>2026-04-19T10:54:19Z</time></trkpt><trkpt lat="45.946845652865285" lon="12.88541985250117"><ele>41.0</ele><time>2026-04-19T10:54:20Z</time></trkpt><trkpt lat="45.946822175573885" lon="12.885177312639339"><ele>41.0</ele><time>2026-04-19T10:54:21Z</time></trkpt><trkpt lat="45.94680511487072" lon="12.884953459341302"><ele>41.0</ele><time>2026-04-19T10:54:22Z</time></trkpt><trkpt lat="45.94678152644237" lon="12.884730114409786"><ele>41.0</ele><time>2026-04-19T10:54:23Z</time></trkpt><trkpt lat="45.94674539785032" lon="12.884512412882625"><ele>41.0</ele><time>2026-04-19T10:54:24Z</time></trkpt><trkpt lat="45.946700525653085" lon="12.884287402296938"><ele>40.666666666666664</ele><time>2026-04-19T10:54:25Z</time></trkpt><trkpt lat="45.94667893319791" lon="12.884039523485617"><ele>40.333333333333336</ele><time>2026-04-19T10:54:26Z</time></trkpt><trkpt lat="45.9466811111604" lon="12.883816181205546"><ele>40.0</ele><time>2026-04-19T10:54:27Z</time></trkpt><trkpt lat="45.94665650224306" lon="12.883600737857238"><ele>40.0</ele><time>2026-04-19T10:54:28Z</time></trkpt><trkpt lat="45.94661433070955" lon="12.883397270822778"><ele>40.0</ele><time>2026-04-19T10:54:29Z</time></trkpt><trkpt lat="45.94659432356244" lon="12.883157703999188"><ele>40.0</ele><time>2026-04-19T10:54:30Z</time></trkpt><trkpt lat="45.94656644703612" lon="12.882936178334178"><ele>40.0</ele><time>2026-04-19T10:54:31Z</time></trkpt><trkpt lat="45.94653193393499" lon="12.882726196551726"><ele>40.0</ele><time>2026-04-19T10:54:32Z</time></trkpt><trkpt lat="45.946513868559045" lon="12.882528222285828"><ele>40.0</ele><time>2026-04-19T10:54:33Z</time></trkpt><trkpt lat="45.946493034586844" lon="12.882339712587099"><ele>40.0</ele><time>2026-04-19T10:54:34Z</time></trkpt><trkpt lat="45.94647352715102" lon="12.88215453413836"><ele>40.0</ele><time>2026-04-19T10:54:35Z</time></trkpt><trkpt lat="45.946453660259" lon="12.881985941450507"><ele>40.0</ele><time>2026-04-19T10:54:36Z</time></trkpt><trkpt lat="45.94643398434549" lon="12.881821273012648"><ele>40.0</ele><time>2026-04-19T10:54:37Z</time></trkpt><trkpt lat="45.946423287984416" lon="12.881656231268403"><ele>40.0</ele><time>2026-04-19T10:54:38Z</time></trkpt><trkpt lat="45.946403025982825" lon="12.881492730005247"><ele>39.8</ele><time>2026-04-19T10:54:39Z</time></trkpt><trkpt lat="45.946383113568174" lon="12.881328145873434"><ele>39.6</ele><time>2026-04-19T10:54:40Z</time></trkpt><trkpt lat="45.94636574866682" lon="12.881176690137044"><ele>39.4</ele><time>2026-04-19T10:54:41Z</time></trkpt><trkpt lat="45.94635417822895" lon="12.881039475764245"><ele>39.2</ele><time>2026-04-19T10:54:42Z</time></trkpt><trkpt lat="45.94636155359734" lon="12.880907234522486"><ele>39.0</ele><time>2026-04-19T10:54:43Z</time></trkpt><trkpt lat="45.94639879866302" lon="12.880778775315918"><ele>39.0</ele><time>2026-04-19T10:54:44Z</time></trkpt><trkpt lat="45.94646855644386" lon="12.880668434962805"><ele>39.0</ele><time>2026-04-19T10:54:45Z</time></trkpt><trkpt lat="45.94656626733464" lon="12.880596726498304"><ele>39.0</ele><time>2026-04-19T10:54:46Z</time></trkpt><trkpt lat="45.94664575728977" lon="12.880461353636665"><ele>39.0</ele><time>2026-04-19T10:54:47Z</time></trkpt><trkpt lat="45.94670615487615" lon="12.880294041976567"><ele>39.0</ele><time>2026-04-19T10:54:48Z</time></trkpt><trkpt lat="45.94672749077889" lon="12.880137111665318"><ele>39.0</ele><time>2026-04-19T10:54:49Z</time></trkpt><trkpt lat="45.946726220959484" lon="12.879955909220081"><ele>39.0</ele><time>2026-04-19T10:54:50Z</time></trkpt><trkpt lat="45.94669279450317" lon="12.87980442754176"><ele>39.0</ele><time>2026-04-19T10:54:51Z</time></trkpt><trkpt lat="45.94662101355754" lon="12.879645690831786"><ele>39.25</ele><time>2026-04-19T10:54:52Z</time></trkpt><trkpt lat="45.946512928727614" lon="12.879510842325187"><ele>39.5</ele><time>2026-04-19T10:54:53Z</time></trkpt><trkpt lat="45.94641768281083" lon="12.879345073926313"><ele>39.75</ele><time>2026-04-19T10:54:54Z</time></trkpt><trkpt lat="45.94636541005449" lon="12.879158072380477"><ele>40.0</ele><time>2026-04-19T10:54:55Z</time></trkpt><trkpt lat="45.94630622454907" lon="12.878978737826385"><ele>40.0</ele><time>2026-04-19T10:54:56Z</time></trkpt><trkpt lat="45.9462850379632" lon="12.878762866381035"><ele>40.0</ele><time>2026-04-19T10:54:57Z</time></trkpt><trkpt lat="45.94623403892321" lon="12.878559017878251"><ele>40.0</ele><time>2026-04-19T10:54:58Z</time></trkpt><trkpt lat="45.946179729085316" lon="12.878361208934562"><ele>40.0</ele><time>2026-04-19T10:54:59Z</time></trkpt><trkpt lat="45.946125023767515" lon="12.878183391878908"><ele>40.0</ele><time>2026-04-19T10:55:00Z</time></trkpt><trkpt lat="45.94607613048878" lon="12.87796243686037"><ele>40.0</ele><time>2026-04-19T10:55:01Z</time></trkpt><trkpt lat="45.94602826582112" lon="12.877754117005768"><ele>40.0</ele><time>2026-04-19T10:55:02Z</time></trkpt><trkpt lat="45.94598740769473" lon="12.877544435001482"><ele>40.333333333333336</ele><time>2026-04-19T10:55:03Z</time></trkpt><trkpt lat="45.945953913520235" lon="12.877337807246665"><ele>40.666666666666664</ele><time>2026-04-19T10:55:04Z</time></trkpt><trkpt lat="45.94592304615687" lon="12.877124649354313"><ele>41.0</ele><time>2026-04-19T10:55:05Z</time></trkpt><trkpt lat="45.945893979080104" lon="12.876909902281417"><ele>41.33333333333333</ele><time>2026-04-19T10:55:06Z</time></trkpt><trkpt lat="45.94587067829601" lon="12.876694723374955"><ele>41.666666666666664</ele><time>2026-04-19T10:55:07Z</time></trkpt><trkpt lat="45.94585176305296" lon="12.87647784728202"><ele>42.0</ele><time>2026-04-19T10:55:08Z</time></trkpt><trkpt lat="45.94583300329196" lon="12.876264663650245"><ele>42.0</ele><time>2026-04-19T10:55:09Z</time></trkpt><trkpt lat="45.9458043100384" lon="12.876053860062038"><ele>42.0</ele><time>2026-04-19T10:55:10Z</time></trkpt><trkpt lat="45.94578073363811" lon="12.875852892708261"><ele>42.0</ele><time>2026-04-19T10:55:11Z</time></trkpt><trkpt lat="45.94576094243371" lon="12.87562356055559"><ele>42.0</ele><time>2026-04-19T10:55:12Z</time></trkpt><trkpt lat="45.94574090639091" lon="12.875400744718096"><ele>42.0</ele><time>2026-04-19T10:55:13Z</time></trkpt><trkpt lat="45.945680783931365" lon="12.87495658702216"><ele>42.0</ele><time>2026-04-19T10:55:15Z</time></trkpt><trkpt lat="45.94565539589035" lon="12.874725128235363"><ele>42.0</ele><time>2026-04-19T10:55:16Z</time></trkpt><trkpt lat="45.945632198496455" lon="12.874518650328517"><ele>42.0</ele><time>2026-04-19T10:55:17Z</time></trkpt><trkpt lat="45.945607902502104" lon="12.874302393893158"><ele>41.25</ele><time>2026-04-19T10:55:18Z</time></trkpt><trkpt lat="45.94558548270034" lon="12.874102837324186"><ele>40.5</ele><time>2026-04-19T10:55:19Z</time></trkpt><trkpt lat="45.94556252253592" lon="12.873898470976505"><ele>39.75</ele><time>2026-04-19T10:55:20Z</time></trkpt><trkpt lat="45.945539244702495" lon="12.873691735642126"><ele>39.0</ele><time>2026-04-19T10:55:21Z</time></trkpt><trkpt lat="45.94551546844198" lon="12.873481250942703"><ele>39.25</ele><time>2026-04-19T10:55:22Z</time></trkpt><trkpt lat="45.9454923131461" lon="12.873276179174916"><ele>39.5</ele><time>2026-04-19T10:55:23Z</time></trkpt><trkpt lat="45.94546943508978" lon="12.873072316893387"><ele>39.75</ele><time>2026-04-19T10:55:24Z</time></trkpt><trkpt lat="45.94544584081579" lon="12.872862072525253"><ele>40.0</ele><time>2026-04-19T10:55:25Z</time></trkpt><trkpt lat="45.945422229486034" lon="12.872651676184066"><ele>39.75</ele><time>2026-04-19T10:55:26Z</time></trkpt><trkpt lat="45.945399305131765" lon="12.872447401376075"><ele>39.5</ele><time>2026-04-19T10:55:27Z</time></trkpt><trkpt lat="45.945376233314846" lon="12.872226226552208"><ele>39.25</ele><time>2026-04-19T10:55:28Z</time></trkpt><trkpt lat="45.94535499949015" lon="12.87201839104157"><ele>39.0</ele><time>2026-04-19T10:55:29Z</time></trkpt><trkpt lat="45.94533289708124" lon="12.871809590998643"><ele>39.25</ele><time>2026-04-19T10:55:30Z</time></trkpt><trkpt lat="45.945309023016435" lon="12.871597518503714"><ele>39.5</ele><time>2026-04-19T10:55:31Z</time></trkpt><trkpt lat="45.94528433714782" lon="12.871383351262844"><ele>39.75</ele><time>2026-04-19T10:55:32Z</time></trkpt><trkpt lat="45.9452752713266" lon="12.871170693654628"><ele>40.0</ele><time>2026-04-19T10:55:33Z</time></trkpt><trkpt lat="45.9452499651547" lon="12.870959301522165"><ele>39.5</ele><time>2026-04-19T10:55:34Z</time></trkpt><trkpt lat="45.94523096242924" lon="12.870770781542248"><ele>39.0</ele><time>2026-04-19T10:55:35Z</time></trkpt><trkpt lat="45.945199571409354" lon="12.870590953205559"><ele>38.5</ele><time>2026-04-19T10:55:36Z</time></trkpt><trkpt lat="45.945184764393744" lon="12.870429371542587"><ele>38.0</ele><time>2026-04-19T10:55:37Z</time></trkpt><trkpt lat="45.945220002808426" lon="12.870243555883034"><ele>38.25</ele><time>2026-04-19T10:55:38Z</time></trkpt><trkpt lat="45.94525994007177" lon="12.870093909724599"><ele>38.5</ele><time>2026-04-19T10:55:39Z</time></trkpt><trkpt lat="45.9452975388061" lon="12.869931048159202"><ele>38.75</ele><time>2026-04-19T10:55:40Z</time></trkpt><trkpt lat="45.9453566072414" lon="12.869782971232771"><ele>39.0</ele><time>2026-04-19T10:55:41Z</time></trkpt><trkpt lat="45.945419609425855" lon="12.869647345097407"><ele>39.0</ele><time>2026-04-19T10:55:42Z</time></trkpt><trkpt lat="45.945470633975546" lon="12.869517977169469"><ele>39.0</ele><time>2026-04-19T10:55:43Z</time></trkpt><trkpt lat="45.94552274604465" lon="12.869401751742021"><ele>39.0</ele><time>2026-04-19T10:55:44Z</time></trkpt><trkpt lat="45.945511495370226" lon="12.869260467509111"><ele>39.0</ele><time>2026-04-19T10:55:45Z</time></trkpt><trkpt lat="45.94548607090501" lon="12.869139982290065"><ele>39.0</ele><time>2026-04-19T10:55:46Z</time></trkpt><trkpt lat="45.94544018260759" lon="12.869024979392666"><ele>39.0</ele><time>2026-04-19T10:55:47Z</time></trkpt><trkpt lat="45.94537429720702" lon="12.868939860770222"><ele>39.0</ele><time>2026-04-19T10:55:48Z</time></trkpt><trkpt lat="45.94530724479459" lon="12.868884517929525"><ele>39.0</ele><time>2026-04-19T10:55:49Z</time></trkpt><trkpt lat="45.94520945161319" lon="12.868843299092104"><ele>39.0</ele><time>2026-04-19T10:55:50Z</time></trkpt><trkpt lat="45.94509614141798" lon="12.868833150193723"><ele>39.0</ele><time>2026-04-19T10:55:51Z</time></trkpt><trkpt lat="45.94498729362477" lon="12.868823159341803"><ele>39.0</ele><time>2026-04-19T10:55:52Z</time></trkpt><trkpt lat="45.94489368847335" lon="12.868832483394781"><ele>39.0</ele><time>2026-04-19T10:55:53Z</time></trkpt><trkpt lat="45.94481051830049" lon="12.868809922878514"><ele>39.0</ele><time>2026-04-19T10:55:54Z</time></trkpt><trkpt lat="45.94480739806022" lon="12.868504137899164"><ele>39.0</ele><time>2026-04-19T10:55:55Z</time></trkpt><trkpt lat="45.94476457096342" lon="12.868318811543368"><ele>38.5</ele><time>2026-04-19T10:55:56Z</time></trkpt><trkpt lat="45.944724985908856" lon="12.868128893504661"><ele>38.0</ele><time>2026-04-19T10:55:57Z</time></trkpt><trkpt lat="45.944665948861676" lon="12.867935675193875"><ele>37.5</ele><time>2026-04-19T10:55:58Z</time></trkpt><trkpt lat="45.944607598818585" lon="12.867740318789844"><ele>37.0</ele><time>2026-04-19T10:55:59Z</time></trkpt><trkpt lat="45.9445571878146" lon="12.86754663309706"><ele>37.0</ele><time>2026-04-19T10:56:00Z</time></trkpt><trkpt lat="45.94450617843889" lon="12.867348113370985"><ele>37.0</ele><time>2026-04-19T10:56:01Z</time></trkpt><trkpt lat="45.94445795763596" lon="12.867158058768029"><ele>37.0</ele><time>2026-04-19T10:56:02Z</time></trkpt><trkpt lat="45.94441226027064" lon="12.866985889050747"><ele>37.0</ele><time>2026-04-19T10:56:03Z</time></trkpt><trkpt lat="45.944403125198" lon="12.866823056548867"><ele>37.0</ele><time>2026-04-19T10:56:04Z</time></trkpt><trkpt lat="45.94430661638696" lon="12.866677879913617"><ele>37.0</ele><time>2026-04-19T10:56:05Z</time></trkpt><trkpt lat="45.94425707343667" lon="12.866514690025774"><ele>37.0</ele><time>2026-04-19T10:56:06Z</time></trkpt><trkpt lat="45.94421165630911" lon="12.866334323947765"><ele>37.0</ele><time>2026-04-19T10:56:07Z</time></trkpt><trkpt lat="45.94416505583425" lon="12.866126381659516"><ele>36.25</ele><time>2026-04-19T10:56:08Z</time></trkpt><trkpt lat="45.94411758816627" lon="12.865926828884508"><ele>35.5</ele><time>2026-04-19T10:56:09Z</time></trkpt><trkpt lat="45.944072733353835" lon="12.865742506620307"><ele>34.75</ele><time>2026-04-19T10:56:10Z</time></trkpt><trkpt lat="45.94402423400387" lon="12.865557545577051"><ele>34.0</ele><time>2026-04-19T10:56:11Z</time></trkpt><trkpt lat="45.943968614404355" lon="12.865399997980633"><ele>34.0</ele><time>2026-04-19T10:56:12Z</time></trkpt><trkpt lat="45.94391018914154" lon="12.865239254862587"><ele>34.0</ele><time>2026-04-19T10:56:13Z</time></trkpt><trkpt lat="45.94386745017636" lon="12.865088294774678"><ele>34.0</ele><time>2026-04-19T10:56:14Z</time></trkpt><trkpt lat="45.94379122071674" lon="12.864942500575667"><ele>34.0</ele><time>2026-04-19T10:56:15Z</time></trkpt><trkpt lat="45.943704346770666" lon="12.864793942607768"><ele>34.5</ele><time>2026-04-19T10:56:16Z</time></trkpt><trkpt lat="45.943613757513525" lon="12.864648274442459"><ele>35.0</ele><time>2026-04-19T10:56:17Z</time></trkpt><trkpt lat="45.94353679752098" lon="12.864484002248409"><ele>35.5</ele><time>2026-04-19T10:56:18Z</time></trkpt><trkpt lat="45.94345352052511" lon="12.864344163842937"><ele>36.0</ele><time>2026-04-19T10:56:19Z</time></trkpt><trkpt lat="45.94337613953959" lon="12.864188385400416"><ele>36.0</ele><time>2026-04-19T10:56:20Z</time></trkpt><trkpt lat="45.9433122215504" lon="12.86400800780457"><ele>36.0</ele><time>2026-04-19T10:56:21Z</time></trkpt><trkpt lat="45.94324117364804" lon="12.863814299593834"><ele>36.0</ele><time>2026-04-19T10:56:22Z</time></trkpt><trkpt lat="45.94316518923958" lon="12.863638749095765"><ele>36.0</ele><time>2026-04-19T10:56:23Z</time></trkpt><trkpt lat="45.943058940532794" lon="12.863472019392637"><ele>36.333333333333336</ele><time>2026-04-19T10:56:24Z</time></trkpt><trkpt lat="45.94294990314244" lon="12.86330181965317"><ele>36.66666666666667</ele><time>2026-04-19T10:56:25Z</time></trkpt><trkpt lat="45.94284780753754" lon="12.863131443809822"><ele>37.0</ele><time>2026-04-19T10:56:26Z</time></trkpt><trkpt lat="45.94274290645757" lon="12.862965488126568"><ele>37.0</ele><time>2026-04-19T10:56:27Z</time></trkpt><trkpt lat="45.94263789203486" lon="12.86280941571936"><ele>37.0</ele><time>2026-04-19T10:56:28Z</time></trkpt><trkpt lat="45.942533285116454" lon="12.862659629903414"><ele>37.0</ele><time>2026-04-19T10:56:29Z</time></trkpt><trkpt lat="45.942430257889136" lon="12.862510058930939"><ele>37.0</ele><time>2026-04-19T10:56:30Z</time></trkpt><trkpt lat="45.942320199553954" lon="12.862377221824454"><ele>36.66666666666667</ele><time>2026-04-19T10:56:31Z</time></trkpt><trkpt lat="45.94220760829945" lon="12.862267409991631"><ele>36.333333333333336</ele><time>2026-04-19T10:56:32Z</time></trkpt><trkpt lat="45.94206939852461" lon="12.862167714547905"><ele>36.0</ele><time>2026-04-19T10:56:33Z</time></trkpt><trkpt lat="45.9419186026386" lon="12.862080191822397"><ele>36.0</ele><time>2026-04-19T10:56:34Z</time></trkpt><trkpt lat="45.94176916855385" lon="12.861983652013919"><ele>36.0</ele><time>2026-04-19T10:56:35Z</time></trkpt><trkpt lat="45.94161978759543" lon="12.86188730289095"><ele>36.0</ele><time>2026-04-19T10:56:36Z</time></trkpt><trkpt lat="45.94149899278388" lon="12.861801685005965"><ele>36.25</ele><time>2026-04-19T10:56:37Z</time></trkpt><trkpt lat="45.94138564244084" lon="12.861721330451134"><ele>36.5</ele><time>2026-04-19T10:56:38Z</time></trkpt><trkpt lat="45.94126697812124" lon="12.8616312161817"><ele>36.75</ele><time>2026-04-19T10:56:39Z</time></trkpt><trkpt lat="45.941155792803805" lon="12.861519704840676"><ele>37.0</ele><time>2026-04-19T10:56:40Z</time></trkpt><trkpt lat="45.94105773346553" lon="12.861376832777871"><ele>37.0</ele><time>2026-04-19T10:56:41Z</time></trkpt><trkpt lat="45.94094866952351" lon="12.861246123628943"><ele>37.0</ele><time>2026-04-19T10:56:42Z</time></trkpt><trkpt lat="45.94081847673981" lon="12.86113887432821"><ele>37.0</ele><time>2026-04-19T10:56:43Z</time></trkpt><trkpt lat="45.94068583384162" lon="12.861049391932754"><ele>37.0</ele><time>2026-04-19T10:56:44Z</time></trkpt><trkpt lat="45.94055264854529" lon="12.8609760501432"><ele>36.25</ele><time>2026-04-19T10:56:45Z</time></trkpt><trkpt lat="45.94041288355863" lon="12.860914871569088"><ele>35.5</ele><time>2026-04-19T10:56:46Z</time></trkpt><trkpt lat="45.940264771294586" lon="12.86086240420605"><ele>34.75</ele><time>2026-04-19T10:56:47Z</time></trkpt><trkpt lat="45.94012511272688" lon="12.860830063487812"><ele>34.0</ele><time>2026-04-19T10:56:48Z</time></trkpt><trkpt lat="45.940000946746025" lon="12.860812382111405"><ele>34.0</ele><time>2026-04-19T10:56:49Z</time></trkpt><trkpt lat="45.93988965963167" lon="12.860797149540137"><ele>34.0</ele><time>2026-04-19T10:56:50Z</time></trkpt><trkpt lat="45.9397875853742" lon="12.860779673760813"><ele>34.0</ele><time>2026-04-19T10:56:51Z</time></trkpt><trkpt lat="45.9396951353703" lon="12.86074139614316"><ele>34.0</ele><time>2026-04-19T10:56:52Z</time></trkpt><trkpt lat="45.9396090236026" lon="12.86069703907504"><ele>34.0</ele><time>2026-04-19T10:56:53Z</time></trkpt><trkpt lat="45.93951673796284" lon="12.860645311890666"><ele>34.0</ele><time>2026-04-19T10:56:54Z</time></trkpt><trkpt lat="45.93942315331228" lon="12.860563493667213"><ele>34.0</ele><time>2026-04-19T10:56:55Z</time></trkpt><trkpt lat="45.939343858820116" lon="12.860461418436127"><ele>34.0</ele><time>2026-04-19T10:56:56Z</time></trkpt><trkpt lat="45.939254514587375" lon="12.86035269859436"><ele>34.0</ele><time>2026-04-19T10:56:57Z</time></trkpt><trkpt lat="45.9391783302827" lon="12.860197130556958"><ele>33.66666666666667</ele><time>2026-04-19T10:56:58Z</time></trkpt><trkpt lat="45.93908715506106" lon="12.86003056467785"><ele>33.333333333333336</ele><time>2026-04-19T10:56:59Z</time></trkpt><trkpt lat="45.93897470130709" lon="12.85986355304155"><ele>33.0</ele><time>2026-04-19T10:57:00Z</time></trkpt><trkpt lat="45.938863936419445" lon="12.859700955054416"><ele>33.0</ele><time>2026-04-19T10:57:01Z</time></trkpt><trkpt lat="45.93875861014769" lon="12.859563636523104"><ele>33.0</ele><time>2026-04-19T10:57:02Z</time></trkpt><trkpt lat="45.93864398817989" lon="12.859440366782726"><ele>33.0</ele><time>2026-04-19T10:57:03Z</time></trkpt><trkpt lat="45.93853122782425" lon="12.859324353209793"><ele>33.0</ele><time>2026-04-19T10:57:04Z</time></trkpt><trkpt lat="45.93843610293811" lon="12.859227422989981"><ele>33.333333333333336</ele><time>2026-04-19T10:57:05Z</time></trkpt><trkpt lat="45.93832958514226" lon="12.859135676854773"><ele>33.66666666666667</ele><time>2026-04-19T10:57:06Z</time></trkpt><trkpt lat="45.938184309030376" lon="12.859074774759018"><ele>34.0</ele><time>2026-04-19T10:57:07Z</time></trkpt><trkpt lat="45.938002171783346" lon="12.85902827750248"><ele>34.0</ele><time>2026-04-19T10:57:08Z</time></trkpt><trkpt lat="45.93780396457943" lon="12.859000691150822"><ele>34.0</ele><time>2026-04-19T10:57:09Z</time></trkpt><trkpt lat="45.93763938519191" lon="12.858963292034291"><ele>34.0</ele><time>2026-04-19T10:57:10Z</time></trkpt><trkpt lat="45.937486940056374" lon="12.85892739462321"><ele>35.0</ele><time>2026-04-19T10:57:11Z</time></trkpt><trkpt lat="45.93733857725732" lon="12.858888877537002"><ele>36.0</ele><time>2026-04-19T10:57:12Z</time></trkpt><trkpt lat="45.937202802088756" lon="12.858854105031968"><ele>37.0</ele><time>2026-04-19T10:57:13Z</time></trkpt><trkpt lat="45.93703793392734" lon="12.858849662235768"><ele>37.0</ele><time>2026-04-19T10:57:14Z</time></trkpt><trkpt lat="45.93690752748404" lon="12.858841875615372"><ele>37.0</ele><time>2026-04-19T10:57:15Z</time></trkpt><trkpt lat="45.93673950718281" lon="12.858828655125944"><ele>37.0</ele><time>2026-04-19T10:57:16Z</time></trkpt><trkpt lat="45.936592959748" lon="12.858801906376321"><ele>37.0</ele><time>2026-04-19T10:57:17Z</time></trkpt><trkpt lat="45.936442326724006" lon="12.858785196211262"><ele>36.75</ele><time>2026-04-19T10:57:18Z</time></trkpt><trkpt lat="45.93629660919554" lon="12.858778965777095"><ele>36.5</ele><time>2026-04-19T10:57:19Z</time></trkpt><trkpt lat="45.93615968568007" lon="12.858769388318118"><ele>36.25</ele><time>2026-04-19T10:57:20Z</time></trkpt><trkpt lat="45.936028075839985" lon="12.858754995519945"><ele>36.0</ele><time>2026-04-19T10:57:21Z</time></trkpt><trkpt lat="45.93591100957019" lon="12.858740858320196"><ele>35.6</ele><time>2026-04-19T10:57:22Z</time></trkpt><trkpt lat="45.93580297125507" lon="12.85873298857629"><ele>35.2</ele><time>2026-04-19T10:57:23Z</time></trkpt><trkpt lat="45.935689846851446" lon="12.858739653245124"><ele>34.8</ele><time>2026-04-19T10:57:24Z</time></trkpt><trkpt lat="45.93562477612304" lon="12.85868512592707"><ele>34.4</ele><time>2026-04-19T10:57:25Z</time></trkpt><trkpt lat="45.93556632566299" lon="12.85864156571352"><ele>34.0</ele><time>2026-04-19T10:57:26Z</time></trkpt><trkpt lat="45.93548040227597" lon="12.858550902711073"><ele>34.0</ele><time>2026-04-19T10:57:27Z</time></trkpt><trkpt lat="45.935447503008064" lon="12.858381553927579"><ele>34.0</ele><time>2026-04-19T10:57:28Z</time></trkpt><trkpt lat="45.935369068248214" lon="12.858199730951295"><ele>34.0</ele><time>2026-04-19T10:57:29Z</time></trkpt><trkpt lat="45.93528473993218" lon="12.858002943053345"><ele>34.0</ele><time>2026-04-19T10:57:30Z</time></trkpt><trkpt lat="45.93518355331477" lon="12.857766814605183"><ele>33.0</ele><time>2026-04-19T10:57:31Z</time></trkpt><trkpt lat="45.935052146959286" lon="12.857455157812028"><ele>32.0</ele><time>2026-04-19T10:57:32Z</time></trkpt><trkpt lat="45.93492299949886" lon="12.857133039035231"><ele>32.0</ele><time>2026-04-19T10:57:33Z</time></trkpt><trkpt lat="45.934776983325676" lon="12.856772986577054"><ele>32.0</ele><time>2026-04-19T10:57:34Z</time></trkpt><trkpt lat="45.93464401953099" lon="12.856532966186329"><ele>32.0</ele><time>2026-04-19T10:57:35Z</time></trkpt><trkpt lat="45.93452521168361" lon="12.856257721588292"><ele>32.0</ele><time>2026-04-19T10:57:36Z</time></trkpt><trkpt lat="45.93441879784843" lon="12.856003305441883"><ele>32.0</ele><time>2026-04-19T10:57:37Z</time></trkpt><trkpt lat="45.93432431511348" lon="12.855770703858575"><ele>32.0</ele><time>2026-04-19T10:57:38Z</time></trkpt><trkpt lat="45.93421518244599" lon="12.855526738005347"><ele>32.0</ele><time>2026-04-19T10:57:39Z</time></trkpt><trkpt lat="45.934105147607355" lon="12.855292612076884"><ele>32.0</ele><time>2026-04-19T10:57:40Z</time></trkpt><trkpt lat="45.93400632047903" lon="12.855076976645947"><ele>32.0</ele><time>2026-04-19T10:57:41Z</time></trkpt><trkpt lat="45.933885349652684" lon="12.854920088798316"><ele>32.0</ele><time>2026-04-19T10:57:42Z</time></trkpt><trkpt lat="45.93378476774833" lon="12.854767815596361"><ele>32.0</ele><time>2026-04-19T10:57:43Z</time></trkpt><trkpt lat="45.93368634638655" lon="12.854607624881636"><ele>32.0</ele><time>2026-04-19T10:57:44Z</time></trkpt><trkpt lat="45.93359224102666" lon="12.854412204592846"><ele>32.0</ele><time>2026-04-19T10:57:45Z</time></trkpt><trkpt lat="45.933501296275615" lon="12.85417069064293"><ele>32.0</ele><time>2026-04-19T10:57:46Z</time></trkpt><trkpt lat="45.933423208057015" lon="12.853942173553978"><ele>32.5</ele><time>2026-04-19T10:57:47Z</time></trkpt><trkpt lat="45.9333551441073" lon="12.853768885994397"><ele>33.0</ele><time>2026-04-19T10:57:48Z</time></trkpt><trkpt lat="45.933294303087756" lon="12.853608944472128"><ele>33.5</ele><time>2026-04-19T10:57:49Z</time></trkpt><trkpt lat="45.93325829254518" lon="12.85343215874401"><ele>34.0</ele><time>2026-04-19T10:57:50Z</time></trkpt><trkpt lat="45.933239068607634" lon="12.853218718529861"><ele>34.25</ele><time>2026-04-19T10:57:51Z</time></trkpt><trkpt lat="45.93323139877213" lon="12.853011821515274"><ele>34.5</ele><time>2026-04-19T10:57:52Z</time></trkpt><trkpt lat="45.933231448478445" lon="12.852828546732098"><ele>34.75</ele><time>2026-04-19T10:57:53Z</time></trkpt><trkpt lat="45.93323508276407" lon="12.852663795589727"><ele>35.0</ele><time>2026-04-19T10:57:54Z</time></trkpt><trkpt lat="45.93325106044376" lon="12.85250523085501"><ele>34.5</ele><time>2026-04-19T10:57:55Z</time></trkpt><trkpt lat="45.933280237025656" lon="12.852353926770911"><ele>34.0</ele><time>2026-04-19T10:57:56Z</time></trkpt><trkpt lat="45.933311592813034" lon="12.852195097295349"><ele>33.5</ele><time>2026-04-19T10:57:57Z</time></trkpt><trkpt lat="45.93333624549788" lon="12.852023412091006"><ele>33.0</ele><time>2026-04-19T10:57:58Z</time></trkpt><trkpt lat="45.9333536793507" lon="12.851860495118839"><ele>33.25</ele><time>2026-04-19T10:57:59Z</time></trkpt><trkpt lat="45.93335946834386" lon="12.85170720702423"><ele>33.5</ele><time>2026-04-19T10:58:00Z</time></trkpt><trkpt lat="45.93334689424599" lon="12.851548119274293"><ele>33.75</ele><time>2026-04-19T10:58:01Z</time></trkpt><trkpt lat="45.93330700152232" lon="12.851379072968147"><ele>34.0</ele><time>2026-04-19T10:58:02Z</time></trkpt><trkpt lat="45.93325434812483" lon="12.851163574531773"><ele>34.0</ele><time>2026-04-19T10:58:03Z</time></trkpt><trkpt lat="45.93317832898395" lon="12.85092334032792"><ele>34.0</ele><time>2026-04-19T10:58:04Z</time></trkpt><trkpt lat="45.93311009182284" lon="12.850704832120579"><ele>34.0</ele><time>2026-04-19T10:58:05Z</time></trkpt><trkpt lat="45.93303902993837" lon="12.850523669110332"><ele>34.0</ele><time>2026-04-19T10:58:06Z</time></trkpt><trkpt lat="45.93299492620421" lon="12.850345711743936"><ele>34.0</ele><time>2026-04-19T10:58:07Z</time></trkpt><trkpt lat="45.932953614936096" lon="12.850180005777968"><ele>34.0</ele><time>2026-04-19T10:58:08Z</time></trkpt><trkpt lat="45.93292404533279" lon="12.850030280637721"><ele>34.0</ele><time>2026-04-19T10:58:09Z</time></trkpt><trkpt lat="45.932905096813755" lon="12.849880368209256"><ele>33.6</ele><time>2026-04-19T10:58:10Z</time></trkpt><trkpt lat="45.93290802276262" lon="12.849727048459314"><ele>33.2</ele><time>2026-04-19T10:58:11Z</time></trkpt><trkpt lat="45.93290213450794" lon="12.849571643537898"><ele>32.800000000000004</ele><time>2026-04-19T10:58:12Z</time></trkpt><trkpt lat="45.932893963702774" lon="12.849418939278547"><ele>32.4</ele><time>2026-04-19T10:58:13Z</time></trkpt><trkpt lat="45.93290083700249" lon="12.849286396462048"><ele>32.0</ele><time>2026-04-19T10:58:14Z</time></trkpt><trkpt lat="45.93292580304897" lon="12.849136112025288"><ele>31.999999999999996</ele><time>2026-04-19T10:58:15Z</time></trkpt><trkpt lat="45.93293631298963" lon="12.849002716351801"><ele>32.0</ele><time>2026-04-19T10:58:16Z</time></trkpt><trkpt lat="45.93293950648039" lon="12.848894471949622"><ele>32.0</ele><time>2026-04-19T10:58:17Z</time></trkpt><trkpt lat="45.93292808352866" lon="12.84878029139032"><ele>32.0</ele><time>2026-04-19T10:58:18Z</time></trkpt><trkpt lat="45.93288608592624" lon="12.84866473088087"><ele>31.999999999999996</ele><time>2026-04-19T10:58:19Z</time></trkpt><trkpt lat="45.932861951850164" lon="12.848561500948957"><ele>32.0</ele><time>2026-04-19T10:58:20Z</time></trkpt><trkpt lat="45.93286418237416" lon="12.848459008933975"><ele>32.25</ele><time>2026-04-19T10:58:21Z</time></trkpt><trkpt lat="45.93286322066338" lon="12.848303446564417"><ele>32.5</ele><time>2026-04-19T10:58:23Z</time></trkpt><trkpt lat="45.932852109705856" lon="12.8481828505652"><ele>32.75</ele><time>2026-04-19T10:58:26Z</time></trkpt><trkpt lat="45.93296250855091" lon="12.848027317221026"><ele>33.0</ele><time>2026-04-19T10:58:28Z</time></trkpt><trkpt lat="45.93303214781482" lon="12.847916659074722"><ele>33.0</ele><time>2026-04-19T10:58:29Z</time></trkpt><trkpt lat="45.93310488128079" lon="12.84775918650365"><ele>33.0</ele><time>2026-04-19T10:58:30Z</time></trkpt><trkpt lat="45.93316717884569" lon="12.847578919608786"><ele>33.0</ele><time>2026-04-19T10:58:31Z</time></trkpt><trkpt lat="45.93320728577652" lon="12.847376282164905"><ele>33.0</ele><time>2026-04-19T10:58:32Z</time></trkpt><trkpt lat="45.933226163841034" lon="12.8471814276573"><ele>33.333333333333336</ele><time>2026-04-19T10:58:33Z</time></trkpt><trkpt lat="45.93322760805123" lon="12.846951894606597"><ele>33.66666666666667</ele><time>2026-04-19T10:58:34Z</time></trkpt><trkpt lat="45.933222384751986" lon="12.846730522590862"><ele>34.0</ele><time>2026-04-19T10:58:35Z</time></trkpt><trkpt lat="45.93321399910455" lon="12.84653000119352"><ele>34.0</ele><time>2026-04-19T10:58:36Z</time></trkpt><trkpt lat="45.93325175102672" lon="12.846344512112582"><ele>34.0</ele><time>2026-04-19T10:58:37Z</time></trkpt><trkpt lat="45.93328965268462" lon="12.846159928756277"><ele>34.0</ele><time>2026-04-19T10:58:38Z</time></trkpt><trkpt lat="45.93335584002525" lon="12.845969855335541"><ele>34.0</ele><time>2026-04-19T10:58:39Z</time></trkpt><trkpt lat="45.93343644404863" lon="12.845788652792667"><ele>33.333333333333336</ele><time>2026-04-19T10:58:40Z</time></trkpt><trkpt lat="45.93353524024097" lon="12.84555936524078"><ele>32.666666666666664</ele><time>2026-04-19T10:58:41Z</time></trkpt><trkpt lat="45.93365082986246" lon="12.845387733208268"><ele>32.0</ele><time>2026-04-19T10:58:42Z</time></trkpt><trkpt lat="45.933730009986625" lon="12.845187353148523"><ele>32.75</ele><time>2026-04-19T10:58:43Z</time></trkpt><trkpt lat="45.93380191725464" lon="12.845018922400063"><ele>33.5</ele><time>2026-04-19T10:58:44Z</time></trkpt><trkpt lat="45.933883597397184" lon="12.844868333172576"><ele>34.25</ele><time>2026-04-19T10:58:45Z</time></trkpt><trkpt lat="45.933952304320044" lon="12.844719893244443"><ele>35.0</ele><time>2026-04-19T10:58:46Z</time></trkpt><trkpt lat="45.93401743319624" lon="12.844579183626676"><ele>35.0</ele><time>2026-04-19T10:58:47Z</time></trkpt><trkpt lat="45.93407846053925" lon="12.844449808908534"><ele>35.0</ele><time>2026-04-19T10:58:48Z</time></trkpt><trkpt lat="45.93413378129583" lon="12.844338128947623"><ele>35.0</ele><time>2026-04-19T10:58:49Z</time></trkpt><trkpt lat="45.93417356799191" lon="12.84425927897901"><ele>35.0</ele><time>2026-04-19T10:58:50Z</time></trkpt><trkpt lat="45.93410448409614" lon="12.844029708007287"><ele>35.0</ele><time>2026-04-19T10:58:52Z</time></trkpt><trkpt lat="45.93405630250844" lon="12.843933124111796"><ele>34.8</ele><time>2026-04-19T10:58:53Z</time></trkpt><trkpt lat="45.93399303043242" lon="12.843811583225058"><ele>34.6</ele><time>2026-04-19T10:58:54Z</time></trkpt><trkpt lat="45.933928069695845" lon="12.84369643421164"><ele>34.4</ele><time>2026-04-19T10:58:55Z</time></trkpt><trkpt lat="45.93386370832049" lon="12.843584258770766"><ele>34.2</ele><time>2026-04-19T10:58:56Z</time></trkpt><trkpt lat="45.93380520811948" lon="12.843486739612977"><ele>34.0</ele><time>2026-04-19T10:58:57Z</time></trkpt><trkpt lat="45.93375805128435" lon="12.84340941133184"><ele>33.833333333333336</ele><time>2026-04-19T10:58:58Z</time></trkpt><trkpt lat="45.93371749382575" lon="12.84333787634094"><ele>33.66666666666667</ele><time>2026-04-19T10:58:59Z</time></trkpt><trkpt lat="45.93370320608646" lon="12.843219337500754"><ele>33.5</ele><time>2026-04-19T10:59:02Z</time></trkpt><trkpt lat="45.93376928444959" lon="12.843140815382664"><ele>33.333333333333336</ele><time>2026-04-19T10:59:03Z</time></trkpt><trkpt lat="45.933848950947166" lon="12.84304983428038"><ele>33.166666666666664</ele><time>2026-04-19T10:59:04Z</time></trkpt><trkpt lat="45.933914345576596" lon="12.842969175330309"><ele>33.0</ele><time>2026-04-19T10:59:05Z</time></trkpt><trkpt lat="45.934003422213074" lon="12.842860053735128"><ele>33.0</ele><time>2026-04-19T10:59:06Z</time></trkpt><trkpt lat="45.93407906669299" lon="12.8427673869448"><ele>33.0</ele><time>2026-04-19T10:59:07Z</time></trkpt><trkpt lat="45.934178175443364" lon="12.842642387000899"><ele>33.0</ele><time>2026-04-19T10:59:08Z</time></trkpt><trkpt lat="45.93424405102413" lon="12.842559940411677"><ele>33.0</ele><time>2026-04-19T10:59:09Z</time></trkpt><trkpt lat="45.934325287240945" lon="12.842446125328744"><ele>33.0</ele><time>2026-04-19T10:59:10Z</time></trkpt><trkpt lat="45.93440060396705" lon="12.842345636717226"><ele>33.0</ele><time>2026-04-19T10:59:11Z</time></trkpt><trkpt lat="45.93445943794734" lon="12.842269216857508"><ele>33.0</ele><time>2026-04-19T10:59:12Z</time></trkpt><trkpt lat="45.93452751298395" lon="12.84221689075314"><ele>33.0</ele><time>2026-04-19T10:59:13Z</time></trkpt><trkpt lat="45.93457065387602" lon="12.842146592607198"><ele>33.0</ele><time>2026-04-19T10:59:14Z</time></trkpt><trkpt lat="45.934600134795446" lon="12.84205965639052"><ele>33.0</ele><time>2026-04-19T10:59:15Z</time></trkpt><trkpt lat="45.9346092236388" lon="12.841867074370859"><ele>33.0</ele><time>2026-04-19T10:59:17Z</time></trkpt><trkpt lat="45.934584399946814" lon="12.841755185845848"><ele>32.833333333333336</ele><time>2026-04-19T10:59:18Z</time></trkpt><trkpt lat="45.93457894250379" lon="12.841639794879375"><ele>32.666666666666664</ele><time>2026-04-19T10:59:19Z</time></trkpt><trkpt lat="45.934545666699776" lon="12.8415192208461"><ele>32.5</ele><time>2026-04-19T10:59:20Z</time></trkpt><trkpt lat="45.93454574145871" lon="12.841410432703924"><ele>32.33333333333333</ele><time>2026-04-19T10:59:21Z</time></trkpt><trkpt lat="45.93453154326918" lon="12.841315663312566"><ele>32.166666666666664</ele><time>2026-04-19T10:59:22Z</time></trkpt><trkpt lat="45.93451388288032" lon="12.841209239670787"><ele>32.0</ele><time>2026-04-19T10:59:24Z</time></trkpt><trkpt lat="45.93441771494263" lon="12.841054928501759"><ele>32.0</ele><time>2026-04-19T10:59:29Z</time></trkpt><trkpt lat="45.9343222895602" lon="12.841018393793416"><ele>32.0</ele><time>2026-04-19T10:59:30Z</time></trkpt><trkpt lat="45.9342337220021" lon="12.840970723048072"><ele>32.0</ele><time>2026-04-19T10:59:31Z</time></trkpt><trkpt lat="45.93415136065376" lon="12.84091978412783"><ele>32.0</ele><time>2026-04-19T10:59:32Z</time></trkpt><trkpt lat="45.934050296147056" lon="12.840853086038475"><ele>32.0</ele><time>2026-04-19T10:59:33Z</time></trkpt><trkpt lat="45.93397075496177" lon="12.840795735691472"><ele>32.0</ele><time>2026-04-19T10:59:34Z</time></trkpt><trkpt lat="45.933857979391746" lon="12.840715866097211"><ele>32.0</ele><time>2026-04-19T10:59:35Z</time></trkpt><trkpt lat="45.933760275361195" lon="12.840650154729667"><ele>32.0</ele><time>2026-04-19T10:59:36Z</time></trkpt><trkpt lat="45.93365260333649" lon="12.840577739283466"><ele>32.0</ele><time>2026-04-19T10:59:37Z</time></trkpt><trkpt lat="45.933550109862004" lon="12.840506802123333"><ele>32.0</ele><time>2026-04-19T10:59:38Z</time></trkpt><trkpt lat="45.93344880918503" lon="12.840434651415535"><ele>32.0</ele><time>2026-04-19T10:59:39Z</time></trkpt><trkpt lat="45.93335844517513" lon="12.840370071241603"><ele>32.0</ele><time>2026-04-19T10:59:40Z</time></trkpt><trkpt lat="45.93329830314577" lon="12.840330150538351"><ele>32.0</ele><time>2026-04-19T10:59:41Z</time></trkpt><trkpt lat="45.933212804267896" lon="12.840278595129949"><ele>32.0</ele><time>2026-04-19T10:59:43Z</time></trkpt><trkpt lat="45.93327197093664" lon="12.840203359541402"><ele>31.8</ele><time>2026-04-19T10:59:46Z</time></trkpt><trkpt lat="45.93333465788964" lon="12.840153345835267"><ele>31.6</ele><time>2026-04-19T10:59:47Z</time></trkpt><trkpt lat="45.93342898130962" lon="12.840120820400855"><ele>31.400000000000002</ele><time>2026-04-19T10:59:48Z</time></trkpt><trkpt lat="45.933555608188" lon="12.840115653899257"><ele>31.200000000000003</ele><time>2026-04-19T10:59:49Z</time></trkpt><trkpt lat="45.933699867082645" lon="12.840122961161548"><ele>31.0</ele><time>2026-04-19T10:59:50Z</time></trkpt><trkpt lat="45.93384799746973" lon="12.840057818422396"><ele>31.0</ele><time>2026-04-19T10:59:51Z</time></trkpt><trkpt lat="45.933999834556246" lon="12.839988946803269"><ele>31.0</ele><time>2026-04-19T10:59:52Z</time></trkpt><trkpt lat="45.93412781987025" lon="12.839927617852302"><ele>31.0</ele><time>2026-04-19T10:59:53Z</time></trkpt><trkpt lat="45.93423305657665" lon="12.8398825832406"><ele>31.0</ele><time>2026-04-19T10:59:54Z</time></trkpt><trkpt lat="45.934309713255615" lon="12.83984568160581"><ele>31.0</ele><time>2026-04-19T10:59:55Z</time></trkpt><trkpt lat="45.934402146894854" lon="12.839791802803832"><ele>31.0</ele><time>2026-04-19T10:59:56Z</time></trkpt><trkpt lat="45.9344757268005" lon="12.839749209954407"><ele>31.0</ele><time>2026-04-19T10:59:57Z</time></trkpt><trkpt lat="45.93456641761294" lon="12.839625096761186"><ele>31.0</ele><time>2026-04-19T10:59:59Z</time></trkpt><trkpt lat="45.934581266457464" lon="12.839511465026957"><ele>31.0</ele><time>2026-04-19T11:00:00Z</time></trkpt><trkpt lat="45.93458013301732" lon="12.839368006120885"><ele>31.25</ele><time>2026-04-19T11:00:01Z</time></trkpt><trkpt lat="45.93455491937392" lon="12.839237045372167"><ele>31.5</ele><time>2026-04-19T11:00:02Z</time></trkpt><trkpt lat="45.934521345818986" lon="12.839072651191758"><ele>31.75</ele><time>2026-04-19T11:00:03Z</time></trkpt><trkpt lat="45.93448004232822" lon="12.838905773676444"><ele>32.0</ele><time>2026-04-19T11:00:04Z</time></trkpt><trkpt lat="45.93440624234489" lon="12.83868636593243"><ele>32.0</ele><time>2026-04-19T11:00:05Z</time></trkpt><trkpt lat="45.93431911951466" lon="12.838479313147326"><ele>32.0</ele><time>2026-04-19T11:00:06Z</time></trkpt><trkpt lat="45.93424670414385" lon="12.83832456351128"><ele>32.0</ele><time>2026-04-19T11:00:07Z</time></trkpt><trkpt lat="45.93418131702723" lon="12.838191159322712"><ele>32.0</ele><time>2026-04-19T11:00:08Z</time></trkpt><trkpt lat="45.93412402150453" lon="12.838081748348952"><ele>31.666666666666664</ele><time>2026-04-19T11:00:09Z</time></trkpt><trkpt lat="45.93406615648985" lon="12.838001490723915"><ele>31.333333333333332</ele><time>2026-04-19T11:00:10Z</time></trkpt><trkpt lat="45.934024501137245" lon="12.83790323546463"><ele>31.0</ele><time>2026-04-19T11:00:12Z</time></trkpt><trkpt lat="45.93411867421315" lon="12.837800849033062"><ele>30.666666666666664</ele><time>2026-04-19T11:00:16Z</time></trkpt><trkpt lat="45.934193394658344" lon="12.837779124532785"><ele>30.333333333333332</ele><time>2026-04-19T11:00:17Z</time></trkpt><trkpt lat="45.9342595557281" lon="12.837752587018185"><ele>30.0</ele><time>2026-04-19T11:00:18Z</time></trkpt><trkpt lat="45.93431928113023" lon="12.837713104945887"><ele>30.0</ele><time>2026-04-19T11:00:19Z</time></trkpt><trkpt lat="45.9343734704681" lon="12.837658092712758"><ele>30.0</ele><time>2026-04-19T11:00:20Z</time></trkpt><trkpt lat="45.9344249637756" lon="12.837592196459784"><ele>30.0</ele><time>2026-04-19T11:00:21Z</time></trkpt><trkpt lat="45.934479144735256" lon="12.837537562216085"><ele>30.0</ele><time>2026-04-19T11:00:22Z</time></trkpt><trkpt lat="45.934535940808004" lon="12.837459514524085"><ele>30.0</ele><time>2026-04-19T11:00:23Z</time></trkpt><trkpt lat="45.93461689785594" lon="12.837402304477191"><ele>30.0</ele><time>2026-04-19T11:00:24Z</time></trkpt><trkpt lat="45.93468907306672" lon="12.837330960842674"><ele>30.0</ele><time>2026-04-19T11:00:25Z</time></trkpt><trkpt lat="45.934747279120884" lon="12.837270362630722"><ele>30.0</ele><time>2026-04-19T11:00:26Z</time></trkpt><trkpt lat="45.934812165367" lon="12.83719749807179"><ele>30.0</ele><time>2026-04-19T11:00:27Z</time></trkpt><trkpt lat="45.934882219970305" lon="12.837116632085147"><ele>30.0</ele><time>2026-04-19T11:00:28Z</time></trkpt><trkpt lat="45.93495409117044" lon="12.837033669295163"><ele>30.0</ele><time>2026-04-19T11:00:29Z</time></trkpt><trkpt lat="45.93502197811059" lon="12.836955554207364"><ele>30.0</ele><time>2026-04-19T11:00:30Z</time></trkpt><trkpt lat="45.935095120388304" lon="12.836872733828802"><ele>30.75</ele><time>2026-04-19T11:00:31Z</time></trkpt><trkpt lat="45.935200990421166" lon="12.836755028525172"><ele>31.5</ele><time>2026-04-19T11:00:32Z</time></trkpt><trkpt lat="45.93529256590343" lon="12.836654710462739"><ele>32.25</ele><time>2026-04-19T11:00:33Z</time></trkpt><trkpt lat="45.93540905852588" lon="12.836527096429274"><ele>33.0</ele><time>2026-04-19T11:00:34Z</time></trkpt><trkpt lat="45.93551474513246" lon="12.83641132016391"><ele>33.0</ele><time>2026-04-19T11:00:35Z</time></trkpt><trkpt lat="45.935610305691256" lon="12.836307693074495"><ele>33.0</ele><time>2026-04-19T11:00:36Z</time></trkpt><trkpt lat="45.9356970851653" lon="12.836215341957859"><ele>33.0</ele><time>2026-04-19T11:00:37Z</time></trkpt><trkpt lat="45.93577680067652" lon="12.836133712400716"><ele>33.0</ele><time>2026-04-19T11:00:38Z</time></trkpt><trkpt lat="45.93585160918228" lon="12.836060841341956"><ele>33.0</ele><time>2026-04-19T11:00:39Z</time></trkpt><trkpt lat="45.935920320194846" lon="12.835994288042814"><ele>33.4</ele><time>2026-04-19T11:00:40Z</time></trkpt><trkpt lat="45.935983987018645" lon="12.835931058384276"><ele>33.8</ele><time>2026-04-19T11:00:41Z</time></trkpt><trkpt lat="45.936060582783625" lon="12.835849979268355"><ele>34.2</ele><time>2026-04-19T11:00:43Z</time></trkpt><trkpt lat="45.936136570605115" lon="12.835777220181164"><ele>34.6</ele><time>2026-04-19T11:00:45Z</time></trkpt><trkpt lat="45.936187810631345" lon="12.83571014260572"><ele>35.0</ele><time>2026-04-19T11:00:47Z</time></trkpt><trkpt lat="45.93614542757082" lon="12.835462992301563"><ele>35.0</ele><time>2026-04-19T11:00:49Z</time></trkpt><trkpt lat="45.93611779711768" lon="12.8353568240866"><ele>35.0</ele><time>2026-04-19T11:00:50Z</time></trkpt><trkpt lat="45.93608912613065" lon="12.835244445044722"><ele>35.0</ele><time>2026-04-19T11:00:51Z</time></trkpt><trkpt lat="45.93606275885086" lon="12.835123766892325"><ele>35.0</ele><time>2026-04-19T11:00:52Z</time></trkpt><trkpt lat="45.9359992139963" lon="12.83497717122758"><ele>35.0</ele><time>2026-04-19T11:00:53Z</time></trkpt><trkpt lat="45.935962102162236" lon="12.834824344825348"><ele>34.8</ele><time>2026-04-19T11:00:54Z</time></trkpt><trkpt lat="45.935938740202445" lon="12.83468647369496"><ele>34.6</ele><time>2026-04-19T11:00:55Z</time></trkpt><trkpt lat="45.93595776391805" lon="12.83454081657755"><ele>34.4</ele><time>2026-04-19T11:00:56Z</time></trkpt><trkpt lat="45.935926333891544" lon="12.834382961175539"><ele>34.2</ele><time>2026-04-19T11:00:57Z</time></trkpt><trkpt lat="45.93588801058584" lon="12.834237569294073"><ele>34.0</ele><time>2026-04-19T11:00:58Z</time></trkpt><trkpt lat="45.93582807211098" lon="12.834086689067396"><ele>33.75</ele><time>2026-04-19T11:00:59Z</time></trkpt><trkpt lat="45.93574802987194" lon="12.833942754582031"><ele>33.5</ele><time>2026-04-19T11:01:00Z</time></trkpt><trkpt lat="45.935669738531416" lon="12.833779512655314"><ele>33.25</ele><time>2026-04-19T11:01:01Z</time></trkpt><trkpt lat="45.93559473009784" lon="12.833635094584517"><ele>33.0</ele><time>2026-04-19T11:01:02Z</time></trkpt><trkpt lat="45.93553053949656" lon="12.833500458081161"><ele>32.75</ele><time>2026-04-19T11:01:03Z</time></trkpt><trkpt lat="45.93545535584818" lon="12.833344436176736"><ele>32.5</ele><time>2026-04-19T11:01:04Z</time></trkpt><trkpt lat="45.935392998743076" lon="12.833205113332397"><ele>32.25</ele><time>2026-04-19T11:01:05Z</time></trkpt><trkpt lat="45.935306759056594" lon="12.833060548049607"><ele>32.0</ele><time>2026-04-19T11:01:06Z</time></trkpt><trkpt lat="45.935224634706366" lon="12.832916866939236"><ele>32.0</ele><time>2026-04-19T11:01:07Z</time></trkpt><trkpt lat="45.93514565642122" lon="12.832777310474345"><ele>32.0</ele><time>2026-04-19T11:01:08Z</time></trkpt><trkpt lat="45.93502701566542" lon="12.832614293255089"><ele>32.0</ele><time>2026-04-19T11:01:09Z</time></trkpt><trkpt lat="45.934909282032784" lon="12.832451497664199"><ele>32.33333333333333</ele><time>2026-04-19T11:01:10Z</time></trkpt><trkpt lat="45.93479510585353" lon="12.832278637830253"><ele>32.666666666666664</ele><time>2026-04-19T11:01:11Z</time></trkpt><trkpt lat="45.934675277541764" lon="12.832095508999958"><ele>33.0</ele><time>2026-04-19T11:01:12Z</time></trkpt><trkpt lat="45.934564455740535" lon="12.83192067378877"><ele>32.666666666666664</ele><time>2026-04-19T11:01:13Z</time></trkpt><trkpt lat="45.934444806436304" lon="12.83177253025323"><ele>32.33333333333333</ele><time>2026-04-19T11:01:14Z</time></trkpt><trkpt lat="45.93433603540636" lon="12.831598395107545"><ele>32.0</ele><time>2026-04-19T11:01:15Z</time></trkpt><trkpt lat="45.93422129705639" lon="12.83143628799492"><ele>31.0</ele><time>2026-04-19T11:01:16Z</time></trkpt><trkpt lat="45.934100185662864" lon="12.831247668033594"><ele>30.0</ele><time>2026-04-19T11:01:17Z</time></trkpt><trkpt lat="45.93396729275663" lon="12.831039756976136"><ele>29.0</ele><time>2026-04-19T11:01:18Z</time></trkpt><trkpt lat="45.93381559377783" lon="12.830836212653725"><ele>29.0</ele><time>2026-04-19T11:01:19Z</time></trkpt><trkpt lat="45.933712403314225" lon="12.830626719093628"><ele>29.0</ele><time>2026-04-19T11:01:20Z</time></trkpt><trkpt lat="45.93364225156281" lon="12.830483371999785"><ele>29.0</ele><time>2026-04-19T11:01:21Z</time></trkpt><trkpt lat="45.933559083158876" lon="12.830289662374028"><ele>29.0</ele><time>2026-04-19T11:01:22Z</time></trkpt><trkpt lat="45.93346695933204" lon="12.830122626839167"><ele>29.0</ele><time>2026-04-19T11:01:23Z</time></trkpt><trkpt lat="45.93339462135527" lon="12.829984582297355"><ele>29.0</ele><time>2026-04-19T11:01:24Z</time></trkpt><trkpt lat="45.93331421690714" lon="12.829846610068008"><ele>29.0</ele><time>2026-04-19T11:01:25Z</time></trkpt><trkpt lat="45.93323402469532" lon="12.829698496839386"><ele>29.0</ele><time>2026-04-19T11:01:26Z</time></trkpt><trkpt lat="45.93311823057376" lon="12.829487137901243"><ele>29.0</ele><time>2026-04-19T11:01:27Z</time></trkpt><trkpt lat="45.9330158561178" lon="12.829388651866994"><ele>29.0</ele><time>2026-04-19T11:01:28Z</time></trkpt><trkpt lat="45.932949519043014" lon="12.82927479684122"><ele>29.0</ele><time>2026-04-19T11:01:29Z</time></trkpt><trkpt lat="45.932910736824105" lon="12.829202760340225"><ele>29.0</ele><time>2026-04-19T11:01:30Z</time></trkpt><trkpt lat="45.93287841627064" lon="12.82912176205123"><ele>29.0</ele><time>2026-04-19T11:01:32Z</time></trkpt><trkpt lat="45.93296112243054" lon="12.828949693468156"><ele>29.0</ele><time>2026-04-19T11:01:34Z</time></trkpt><trkpt lat="45.933046612108434" lon="12.828867485660757"><ele>29.0</ele><time>2026-04-19T11:01:35Z</time></trkpt><trkpt lat="45.93313704728107" lon="12.828751377459591"><ele>29.0</ele><time>2026-04-19T11:01:36Z</time></trkpt><trkpt lat="45.933211819680366" lon="12.828654670466697"><ele>29.0</ele><time>2026-04-19T11:01:37Z</time></trkpt><trkpt lat="45.93327977632395" lon="12.8285964208269"><ele>29.0</ele><time>2026-04-19T11:01:38Z</time></trkpt><trkpt lat="45.93336573683475" lon="12.828579416527676"><ele>29.0</ele><time>2026-04-19T11:01:39Z</time></trkpt><trkpt lat="45.93346697026194" lon="12.828591727842827"><ele>29.0</ele><time>2026-04-19T11:01:40Z</time></trkpt><trkpt lat="45.93358152394091" lon="12.828614448908708"><ele>29.0</ele><time>2026-04-19T11:01:41Z</time></trkpt><trkpt lat="45.9336926746124" lon="12.828576975803102"><ele>29.0</ele><time>2026-04-19T11:01:42Z</time></trkpt><trkpt lat="45.933794195277834" lon="12.828529367936207"><ele>29.0</ele><time>2026-04-19T11:01:43Z</time></trkpt><trkpt lat="45.93390340376841" lon="12.828413156210345"><ele>29.0</ele><time>2026-04-19T11:01:44Z</time></trkpt><trkpt lat="45.93402299684194" lon="12.828256337549641"><ele>29.0</ele><time>2026-04-19T11:01:45Z</time></trkpt><trkpt lat="45.93413930994609" lon="12.828103274334968"><ele>29.0</ele><time>2026-04-19T11:01:46Z</time></trkpt><trkpt lat="45.93420903894689" lon="12.82798767933031"><ele>29.0</ele><time>2026-04-19T11:01:47Z</time></trkpt><trkpt lat="45.93426463508101" lon="12.82789637047899"><ele>29.0</ele><time>2026-04-19T11:01:48Z</time></trkpt><trkpt lat="45.934350124875984" lon="12.827768674853074"><ele>29.0</ele><time>2026-04-19T11:01:50Z</time></trkpt><trkpt lat="45.93444396852742" lon="12.827702752777864"><ele>29.0</ele><time>2026-04-19T11:01:52Z</time></trkpt><trkpt lat="45.93452040591066" lon="12.827745945425864"><ele>29.2</ele><time>2026-04-19T11:01:53Z</time></trkpt><trkpt lat="45.93457538372528" lon="12.827832629807283"><ele>29.4</ele><time>2026-04-19T11:01:54Z</time></trkpt><trkpt lat="45.93462952505926" lon="12.827882506506842"><ele>29.6</ele><time>2026-04-19T11:01:55Z</time></trkpt><trkpt lat="45.934717804810624" lon="12.82788734731573"><ele>29.8</ele><time>2026-04-19T11:01:56Z</time></trkpt><trkpt lat="45.934819127565035" lon="12.827802577710159"><ele>30.0</ele><time>2026-04-19T11:01:57Z</time></trkpt><trkpt lat="45.93492232666992" lon="12.82768100972216"><ele>30.0</ele><time>2026-04-19T11:01:58Z</time></trkpt><trkpt lat="45.93500851258356" lon="12.827536110956503"><ele>30.0</ele><time>2026-04-19T11:01:59Z</time></trkpt><trkpt lat="45.9350788256949" lon="12.827377980501621"><ele>30.0</ele><time>2026-04-19T11:02:00Z</time></trkpt><trkpt lat="45.93516415127404" lon="12.827222919638116"><ele>30.0</ele><time>2026-04-19T11:02:01Z</time></trkpt><trkpt lat="45.93526168330432" lon="12.827084200624222"><ele>30.0</ele><time>2026-04-19T11:02:02Z</time></trkpt><trkpt lat="45.93538725223918" lon="12.826967101935775"><ele>30.0</ele><time>2026-04-19T11:02:03Z</time></trkpt><trkpt lat="45.935527459478" lon="12.826838513791744"><ele>30.0</ele><time>2026-04-19T11:02:04Z</time></trkpt><trkpt lat="45.93567106787279" lon="12.826705494811275"><ele>30.333333333333336</ele><time>2026-04-19T11:02:05Z</time></trkpt><trkpt lat="45.93581101606632" lon="12.82657105544024"><ele>30.666666666666668</ele><time>2026-04-19T11:02:06Z</time></trkpt><trkpt lat="45.935950421054585" lon="12.826439588828547"><ele>31.0</ele><time>2026-04-19T11:02:07Z</time></trkpt><trkpt lat="45.93607242921019" lon="12.826324077665548"><ele>30.0</ele><time>2026-04-19T11:02:08Z</time></trkpt><trkpt lat="45.936191891303935" lon="12.826206124210616"><ele>29.0</ele><time>2026-04-19T11:02:09Z</time></trkpt><trkpt lat="45.93632978548819" lon="12.826069971335944"><ele>28.0</ele><time>2026-04-19T11:02:10Z</time></trkpt><trkpt lat="45.93646349056974" lon="12.825939818260048"><ele>28.0</ele><time>2026-04-19T11:02:11Z</time></trkpt><trkpt lat="45.93658402332236" lon="12.825832343693028"><ele>28.0</ele><time>2026-04-19T11:02:12Z</time></trkpt><trkpt lat="45.936694846379524" lon="12.825737326418777"><ele>28.0</ele><time>2026-04-19T11:02:13Z</time></trkpt><trkpt lat="45.93678857615565" lon="12.825656964594193"><ele>28.0</ele><time>2026-04-19T11:02:14Z</time></trkpt><trkpt lat="45.9368855736845" lon="12.825573801103207"><ele>28.333333333333336</ele><time>2026-04-19T11:02:15Z</time></trkpt><trkpt lat="45.93697400225443" lon="12.825497984520437"><ele>28.666666666666668</ele><time>2026-04-19T11:02:16Z</time></trkpt><trkpt lat="45.93705189981054" lon="12.825431196800825"><ele>29.0</ele><time>2026-04-19T11:02:17Z</time></trkpt><trkpt lat="45.93713216597191" lon="12.825361797402644"><ele>29.333333333333336</ele><time>2026-04-19T11:02:18Z</time></trkpt><trkpt lat="45.937201958710936" lon="12.825298349156629"><ele>29.666666666666668</ele><time>2026-04-19T11:02:19Z</time></trkpt><trkpt lat="45.93727400412763" lon="12.825252159153083"><ele>30.0</ele><time>2026-04-19T11:02:20Z</time></trkpt><trkpt lat="45.937341615601305" lon="12.82521016276488"><ele>30.0</ele><time>2026-04-19T11:02:26Z</time></trkpt><trkpt lat="45.93729909025617" lon="12.824942111899507"><ele>30.0</ele><time>2026-04-19T11:02:28Z</time></trkpt><trkpt lat="45.937256653714726" lon="12.824827146076544"><ele>30.0</ele><time>2026-04-19T11:02:29Z</time></trkpt><trkpt lat="45.937210066478855" lon="12.82470600718453"><ele>30.0</ele><time>2026-04-19T11:02:30Z</time></trkpt><trkpt lat="45.937153988684074" lon="12.824567198753764"><ele>30.0</ele><time>2026-04-19T11:02:31Z</time></trkpt><trkpt lat="45.937063076193304" lon="12.8244094271176"><ele>30.0</ele><time>2026-04-19T11:02:32Z</time></trkpt><trkpt lat="45.9369551431722" lon="12.824240873069424"><ele>30.0</ele><time>2026-04-19T11:02:33Z</time></trkpt><trkpt lat="45.93684097970581" lon="12.824063146102834"><ele>30.0</ele><time>2026-04-19T11:02:34Z</time></trkpt><trkpt lat="45.93669854659361" lon="12.82389572826162"><ele>30.0</ele><time>2026-04-19T11:02:35Z</time></trkpt><trkpt lat="45.936554517802364" lon="12.82371857051016"><ele>30.0</ele><time>2026-04-19T11:02:36Z</time></trkpt><trkpt lat="45.93643371771124" lon="12.823563482645364"><ele>30.0</ele><time>2026-04-19T11:02:37Z</time></trkpt><trkpt lat="45.93634156181203" lon="12.823411385158579"><ele>30.0</ele><time>2026-04-19T11:02:38Z</time></trkpt><trkpt lat="45.936237075463524" lon="12.823249685788465"><ele>30.0</ele><time>2026-04-19T11:02:39Z</time></trkpt><trkpt lat="45.93612574915124" lon="12.823105316171361"><ele>30.0</ele><time>2026-04-19T11:02:40Z</time></trkpt><trkpt lat="45.93602787753007" lon="12.822970304749164"><ele>30.0</ele><time>2026-04-19T11:02:41Z</time></trkpt><trkpt lat="45.935943245517684" lon="12.822836476452252"><ele>30.0</ele><time>2026-04-19T11:02:42Z</time></trkpt><trkpt lat="45.93584483057753" lon="12.822700091476506"><ele>30.0</ele><time>2026-04-19T11:02:43Z</time></trkpt><trkpt lat="45.93574626079222" lon="12.822539135399605"><ele>30.0</ele><time>2026-04-19T11:02:44Z</time></trkpt><trkpt lat="45.93565244431582" lon="12.822356167134615"><ele>30.0</ele><time>2026-04-19T11:02:45Z</time></trkpt><trkpt lat="45.93555865083211" lon="12.822188121024007"><ele>30.0</ele><time>2026-04-19T11:02:46Z</time></trkpt><trkpt lat="45.93543977648525" lon="12.82202147612323"><ele>30.0</ele><time>2026-04-19T11:02:47Z</time></trkpt><trkpt lat="45.93533592358669" lon="12.821855351320728"><ele>30.0</ele><time>2026-04-19T11:02:48Z</time></trkpt><trkpt lat="45.93523702038589" lon="12.821700175387575"><ele>30.0</ele><time>2026-04-19T11:02:49Z</time></trkpt><trkpt lat="45.93515406783061" lon="12.82154626546029"><ele>30.0</ele><time>2026-04-19T11:02:50Z</time></trkpt><trkpt lat="45.93507624153896" lon="12.821379557268765"><ele>30.0</ele><time>2026-04-19T11:02:51Z</time></trkpt><trkpt lat="45.935000299475156" lon="12.821205880274306"><ele>30.0</ele><time>2026-04-19T11:02:52Z</time></trkpt><trkpt lat="45.93491808331233" lon="12.821024814283469"><ele>30.0</ele><time>2026-04-19T11:02:53Z</time></trkpt><trkpt lat="45.93484904363484" lon="12.82085332022621"><ele>30.0</ele><time>2026-04-19T11:02:54Z</time></trkpt><trkpt lat="45.93478132749302" lon="12.820688104419082"><ele>30.0</ele><time>2026-04-19T11:02:55Z</time></trkpt><trkpt lat="45.934723196642" lon="12.820529544964844"><ele>30.0</ele><time>2026-04-19T11:02:56Z</time></trkpt><trkpt lat="45.93465738788997" lon="12.820370400453148"><ele>30.0</ele><time>2026-04-19T11:02:57Z</time></trkpt><trkpt lat="45.93459452782461" lon="12.820218714949625"><ele>30.0</ele><time>2026-04-19T11:02:58Z</time></trkpt><trkpt lat="45.93452468013688" lon="12.820045611913324"><ele>30.0</ele><time>2026-04-19T11:02:59Z</time></trkpt><trkpt lat="45.934437002464" lon="12.819854111770146"><ele>30.0</ele><time>2026-04-19T11:03:00Z</time></trkpt><trkpt lat="45.93436095925282" lon="12.819639773681008"><ele>30.0</ele><time>2026-04-19T11:03:01Z</time></trkpt><trkpt lat="45.93427241209625" lon="12.819410943086348"><ele>30.0</ele><time>2026-04-19T11:03:02Z</time></trkpt><trkpt lat="45.93417190323642" lon="12.819183662089632"><ele>30.333333333333336</ele><time>2026-04-19T11:03:03Z</time></trkpt><trkpt lat="45.93405246084748" lon="12.818932613791457"><ele>30.666666666666668</ele><time>2026-04-19T11:03:04Z</time></trkpt><trkpt lat="45.93394109122771" lon="12.818684636223708"><ele>31.0</ele><time>2026-04-19T11:03:05Z</time></trkpt><trkpt lat="45.93384800887876" lon="12.818464567755818"><ele>30.25</ele><time>2026-04-19T11:03:06Z</time></trkpt><trkpt lat="45.93377216630572" lon="12.81826163398891"><ele>29.5</ele><time>2026-04-19T11:03:07Z</time></trkpt><trkpt lat="45.93367826112422" lon="12.818109212653846"><ele>28.75</ele><time>2026-04-19T11:03:08Z</time></trkpt><trkpt lat="45.93361569114513" lon="12.817934990405307"><ele>28.0</ele><time>2026-04-19T11:03:09Z</time></trkpt><trkpt lat="45.933540030230475" lon="12.817718159260263"><ele>28.0</ele><time>2026-04-19T11:03:10Z</time></trkpt><trkpt lat="45.93345440083218" lon="12.81753588843628"><ele>28.0</ele><time>2026-04-19T11:03:11Z</time></trkpt><trkpt lat="45.93337458590413" lon="12.817379900924493"><ele>28.0</ele><time>2026-04-19T11:03:12Z</time></trkpt><trkpt lat="45.93327752032256" lon="12.817239796883657"><ele>28.0</ele><time>2026-04-19T11:03:13Z</time></trkpt><trkpt lat="45.933197578658216" lon="12.817086806731778"><ele>28.0</ele><time>2026-04-19T11:03:14Z</time></trkpt><trkpt lat="45.93311876347289" lon="12.816940523617157"><ele>28.0</ele><time>2026-04-19T11:03:15Z</time></trkpt><trkpt lat="45.933062854454114" lon="12.816813098798159"><ele>28.0</ele><time>2026-04-19T11:03:16Z</time></trkpt><trkpt lat="45.933002181741855" lon="12.816668612057821"><ele>28.0</ele><time>2026-04-19T11:03:17Z</time></trkpt><trkpt lat="45.932948110389255" lon="12.816532419773626"><ele>28.4</ele><time>2026-04-19T11:03:18Z</time></trkpt><trkpt lat="45.93288298908659" lon="12.81643470992029"><ele>28.799999999999997</ele><time>2026-04-19T11:03:19Z</time></trkpt><trkpt lat="45.932819294976746" lon="12.816305089968441"><ele>29.2</ele><time>2026-04-19T11:03:20Z</time></trkpt><trkpt lat="45.93277973772113" lon="12.816188797334144"><ele>29.6</ele><time>2026-04-19T11:03:21Z</time></trkpt><trkpt lat="45.93274743096979" lon="12.816071127217034"><ele>30.0</ele><time>2026-04-19T11:03:22Z</time></trkpt><trkpt lat="45.932713701143825" lon="12.815946091419349"><ele>30.0</ele><time>2026-04-19T11:03:23Z</time></trkpt><trkpt lat="45.93268242888654" lon="12.815803079716904"><ele>30.0</ele><time>2026-04-19T11:03:24Z</time></trkpt><trkpt lat="45.93265037179291" lon="12.81564777101614"><ele>30.0</ele><time>2026-04-19T11:03:25Z</time></trkpt><trkpt lat="45.93261358968942" lon="12.81549623097139"><ele>30.0</ele><time>2026-04-19T11:03:26Z</time></trkpt><trkpt lat="45.93257153377261" lon="12.815336816074852"><ele>30.0</ele><time>2026-04-19T11:03:27Z</time></trkpt><trkpt lat="45.932517628350126" lon="12.815177842282834"><ele>30.0</ele><time>2026-04-19T11:03:28Z</time></trkpt><trkpt lat="45.932464370115255" lon="12.815026535043808"><ele>30.0</ele><time>2026-04-19T11:03:29Z</time></trkpt><trkpt lat="45.93241864659843" lon="12.814885375571665"><ele>30.0</ele><time>2026-04-19T11:03:30Z</time></trkpt><trkpt lat="45.932362412253845" lon="12.814711766699537"><ele>30.0</ele><time>2026-04-19T11:03:31Z</time></trkpt><trkpt lat="45.93230893010574" lon="12.81454665456719"><ele>30.0</ele><time>2026-04-19T11:03:32Z</time></trkpt><trkpt lat="45.932257387061064" lon="12.814394072639002"><ele>30.0</ele><time>2026-04-19T11:03:33Z</time></trkpt><trkpt lat="45.93219394033765" lon="12.814260542221074"><ele>30.0</ele><time>2026-04-19T11:03:34Z</time></trkpt><trkpt lat="45.932155350514165" lon="12.814096758021993"><ele>30.0</ele><time>2026-04-19T11:03:35Z</time></trkpt><trkpt lat="45.93210751924763" lon="12.813944157173408"><ele>29.8</ele><time>2026-04-19T11:03:36Z</time></trkpt><trkpt lat="45.93206030223741" lon="12.813773309473126"><ele>29.6</ele><time>2026-04-19T11:03:37Z</time></trkpt><trkpt lat="45.93202370368516" lon="12.813628200338744"><ele>29.4</ele><time>2026-04-19T11:03:38Z</time></trkpt><trkpt lat="45.93199887312243" lon="12.813501507281554"><ele>29.2</ele><time>2026-04-19T11:03:39Z</time></trkpt><trkpt lat="45.931982729704266" lon="12.813388576882774"><ele>29.0</ele><time>2026-04-19T11:03:40Z</time></trkpt><trkpt lat="45.93197647369424" lon="12.813267556207212"><ele>28.75</ele><time>2026-04-19T11:03:41Z</time></trkpt><trkpt lat="45.932024542356665" lon="12.813138110708971"><ele>28.5</ele><time>2026-04-19T11:03:42Z</time></trkpt><trkpt lat="45.9320832700434" lon="12.812969776479141"><ele>28.25</ele><time>2026-04-19T11:03:43Z</time></trkpt><trkpt lat="45.93215119925708" lon="12.812833762634082"><ele>28.0</ele><time>2026-04-19T11:03:44Z</time></trkpt><trkpt lat="45.93226561196363" lon="12.812718070876203"><ele>28.25</ele><time>2026-04-19T11:03:45Z</time></trkpt><trkpt lat="45.932363312200685" lon="12.812541506889316"><ele>28.5</ele><time>2026-04-19T11:03:46Z</time></trkpt><trkpt lat="45.932448591752795" lon="12.812359855038508"><ele>28.75</ele><time>2026-04-19T11:03:47Z</time></trkpt><trkpt lat="45.932520285075434" lon="12.81220482063107"><ele>29.0</ele><time>2026-04-19T11:03:48Z</time></trkpt><trkpt lat="45.932579179547226" lon="12.812059609052831"><ele>29.0</ele><time>2026-04-19T11:03:49Z</time></trkpt><trkpt lat="45.93261619725127" lon="12.811898134570587"><ele>29.0</ele><time>2026-04-19T11:03:50Z</time></trkpt><trkpt lat="45.93263350556739" lon="12.811714407243327"><ele>29.0</ele><time>2026-04-19T11:03:51Z</time></trkpt><trkpt lat="45.932646659392915" lon="12.811492342261479"><ele>29.0</ele><time>2026-04-19T11:03:52Z</time></trkpt><trkpt lat="45.93266213981141" lon="12.811262475743947"><ele>28.5</ele><time>2026-04-19T11:03:53Z</time></trkpt><trkpt lat="45.93267851239492" lon="12.811027944812553"><ele>28.0</ele><time>2026-04-19T11:03:54Z</time></trkpt><trkpt lat="45.93269159072986" lon="12.81086858951058"><ele>27.5</ele><time>2026-04-19T11:03:55Z</time></trkpt><trkpt lat="45.93271046155415" lon="12.810713661539586"><ele>27.0</ele><time>2026-04-19T11:03:56Z</time></trkpt><trkpt lat="45.9327089365593" lon="12.810576341620116"><ele>27.0</ele><time>2026-04-19T11:03:57Z</time></trkpt><trkpt lat="45.93271408666385" lon="12.81043742208366"><ele>27.0</ele><time>2026-04-19T11:03:58Z</time></trkpt><trkpt lat="45.93270975209317" lon="12.81032669546115"><ele>27.0</ele><time>2026-04-19T11:03:59Z</time></trkpt><trkpt lat="45.932696678312325" lon="12.81020813115727"><ele>27.0</ele><time>2026-04-19T11:04:00Z</time></trkpt><trkpt lat="45.93263878701848" lon="12.810095310275557"><ele>27.0</ele><time>2026-04-19T11:04:01Z</time></trkpt><trkpt lat="45.93259274779254" lon="12.809982207725565"><ele>27.0</ele><time>2026-04-19T11:04:02Z</time></trkpt><trkpt lat="45.9325074064613" lon="12.809888747087383"><ele>26.833333333333332</ele><time>2026-04-19T11:04:03Z</time></trkpt><trkpt lat="45.93244927951986" lon="12.809811600483819"><ele>26.666666666666664</ele><time>2026-04-19T11:04:04Z</time></trkpt><trkpt lat="45.93238882123935" lon="12.809734141655177"><ele>26.5</ele><time>2026-04-19T11:04:05Z</time></trkpt><trkpt lat="45.93232844113207" lon="12.80965900362291"><ele>26.333333333333332</ele><time>2026-04-19T11:04:06Z</time></trkpt><trkpt lat="45.932270715428444" lon="12.809583227243275"><ele>26.166666666666664</ele><time>2026-04-19T11:04:07Z</time></trkpt><trkpt lat="45.93221060687698" lon="12.809505826552222"><ele>26.0</ele><time>2026-04-19T11:04:08Z</time></trkpt><trkpt lat="45.93215217554993" lon="12.80942369577775"><ele>26.0</ele><time>2026-04-19T11:04:09Z</time></trkpt><trkpt lat="45.93209923929915" lon="12.809335660979075"><ele>26.0</ele><time>2026-04-19T11:04:10Z</time></trkpt><trkpt lat="45.932051958202166" lon="12.809248307747621"><ele>26.0</ele><time>2026-04-19T11:04:11Z</time></trkpt><trkpt lat="45.93200634307632" lon="12.80915933309"><ele>26.0</ele><time>2026-04-19T11:04:12Z</time></trkpt><trkpt lat="45.93196703291225" lon="12.809061295340806"><ele>26.0</ele><time>2026-04-19T11:04:13Z</time></trkpt><trkpt lat="45.9319270450477" lon="12.80885688932073"><ele>26.166666666666664</ele><time>2026-04-19T11:04:15Z</time></trkpt><trkpt lat="45.93191640473759" lon="12.808657790545135"><ele>26.333333333333332</ele><time>2026-04-19T11:04:17Z</time></trkpt><trkpt lat="45.93191992710055" lon="12.808558699953522"><ele>26.5</ele><time>2026-04-19T11:04:18Z</time></trkpt><trkpt lat="45.93193950447957" lon="12.808456303010075"><ele>26.666666666666664</ele><time>2026-04-19T11:04:19Z</time></trkpt><trkpt lat="45.931967825751265" lon="12.808353106622615"><ele>26.833333333333332</ele><time>2026-04-19T11:04:20Z</time></trkpt><trkpt lat="45.932011580983506" lon="12.808278649104283"><ele>27.0</ele><time>2026-04-19T11:04:21Z</time></trkpt><trkpt lat="45.93207451701694" lon="12.80821142615771"><ele>27.200000000000003</ele><time>2026-04-19T11:04:22Z</time></trkpt><trkpt lat="45.932144386391656" lon="12.808146545543536"><ele>27.400000000000002</ele><time>2026-04-19T11:04:23Z</time></trkpt><trkpt lat="45.93220945750259" lon="12.808065747001562"><ele>27.599999999999998</ele><time>2026-04-19T11:04:24Z</time></trkpt><trkpt lat="45.932279466653696" lon="12.80798069826318"><ele>27.799999999999997</ele><time>2026-04-19T11:04:25Z</time></trkpt><trkpt lat="45.93235015651767" lon="12.807876970085168"><ele>28.0</ele><time>2026-04-19T11:04:26Z</time></trkpt><trkpt lat="45.93237054715279" lon="12.807717613913018"><ele>28.0</ele><time>2026-04-19T11:04:27Z</time></trkpt><trkpt lat="45.932392916399195" lon="12.807555496748064"><ele>27.999999999999996</ele><time>2026-04-19T11:04:28Z</time></trkpt><trkpt lat="45.93241932500362" lon="12.8074075253858"><ele>27.999999999999996</ele><time>2026-04-19T11:04:29Z</time></trkpt><trkpt lat="45.932466581343725" lon="12.807290692702317"><ele>28.0</ele><time>2026-04-19T11:04:30Z</time></trkpt><trkpt lat="45.932501475514236" lon="12.807190273251939"><ele>28.0</ele><time>2026-04-19T11:04:31Z</time></trkpt><trkpt lat="45.93253950148886" lon="12.807108002264945"><ele>27.833333333333336</ele><time>2026-04-19T11:04:32Z</time></trkpt><trkpt lat="45.93257989564543" lon="12.807030623694121"><ele>27.666666666666668</ele><time>2026-04-19T11:04:33Z</time></trkpt><trkpt lat="45.93264343543885" lon="12.80696860138571"><ele>27.5</ele><time>2026-04-19T11:04:34Z</time></trkpt><trkpt lat="45.93272388817064" lon="12.806905305402907"><ele>27.333333333333336</ele><time>2026-04-19T11:04:35Z</time></trkpt><trkpt lat="45.93281862511853" lon="12.806834882709317"><ele>27.166666666666668</ele><time>2026-04-19T11:04:36Z</time></trkpt><trkpt lat="45.93291300302227" lon="12.806763007266957"><ele>27.0</ele><time>2026-04-19T11:04:37Z</time></trkpt><trkpt lat="45.93299657641396" lon="12.806698674842986"><ele>26.8</ele><time>2026-04-19T11:04:38Z</time></trkpt><trkpt lat="45.93306578837843" lon="12.806643993495667"><ele>26.6</ele><time>2026-04-19T11:04:39Z</time></trkpt><trkpt lat="45.933117007109296" lon="12.806572203379638"><ele>26.400000000000002</ele><time>2026-04-19T11:04:40Z</time></trkpt><trkpt lat="45.9332054113935" lon="12.806507263484232"><ele>26.200000000000003</ele><time>2026-04-19T11:04:42Z</time></trkpt><trkpt lat="45.933235476365915" lon="12.806400675305955"><ele>26.0</ele><time>2026-04-19T11:04:45Z</time></trkpt><trkpt lat="45.93320180282972" lon="12.8062095623837"><ele>26.0</ele><time>2026-04-19T11:04:47Z</time></trkpt><trkpt lat="45.933152796610266" lon="12.806091253605512"><ele>26.0</ele><time>2026-04-19T11:04:48Z</time></trkpt><trkpt lat="45.93309390613277" lon="12.80594189750452"><ele>26.0</ele><time>2026-04-19T11:04:49Z</time></trkpt><trkpt lat="45.93302468508384" lon="12.805764124802268"><ele>26.0</ele><time>2026-04-19T11:04:50Z</time></trkpt><trkpt lat="45.93294928749701" lon="12.805567211037044"><ele>25.666666666666664</ele><time>2026-04-19T11:04:51Z</time></trkpt><trkpt lat="45.93286495819119" lon="12.805347594508968"><ele>25.333333333333336</ele><time>2026-04-19T11:04:52Z</time></trkpt><trkpt lat="45.9327616410181" lon="12.80512448974087"><ele>25.0</ele><time>2026-04-19T11:04:53Z</time></trkpt><trkpt lat="45.93267170304931" lon="12.804865823369493"><ele>26.0</ele><time>2026-04-19T11:04:54Z</time></trkpt><trkpt lat="45.93257527279898" lon="12.80466040809252"><ele>27.0</ele><time>2026-04-19T11:04:55Z</time></trkpt><trkpt lat="45.93246959710485" lon="12.804449202505992"><ele>28.0</ele><time>2026-04-19T11:04:56Z</time></trkpt><trkpt lat="45.93235834371996" lon="12.804233852607535"><ele>28.0</ele><time>2026-04-19T11:04:57Z</time></trkpt><trkpt lat="45.93225482535963" lon="12.804033041830811"><ele>28.0</ele><time>2026-04-19T11:04:58Z</time></trkpt><trkpt lat="45.932172632097384" lon="12.803871321630398"><ele>28.0</ele><time>2026-04-19T11:04:59Z</time></trkpt><trkpt lat="45.93210467194724" lon="12.803739665383182"><ele>28.0</ele><time>2026-04-19T11:05:00Z</time></trkpt><trkpt lat="45.932010092573094" lon="12.803573293328805"><ele>27.5</ele><time>2026-04-19T11:05:01Z</time></trkpt><trkpt lat="45.93190522097941" lon="12.80342355979998"><ele>27.0</ele><time>2026-04-19T11:05:02Z</time></trkpt><trkpt lat="45.93178885078803" lon="12.803288167327631"><ele>26.5</ele><time>2026-04-19T11:05:03Z</time></trkpt><trkpt lat="45.931669634065344" lon="12.803155390973282"><ele>26.0</ele><time>2026-04-19T11:05:04Z</time></trkpt><trkpt lat="45.931543872125616" lon="12.80301117158379"><ele>26.0</ele><time>2026-04-19T11:05:05Z</time></trkpt><trkpt lat="45.93141099993854" lon="12.802857872863951"><ele>26.0</ele><time>2026-04-19T11:05:06Z</time></trkpt><trkpt lat="45.93125346818229" lon="12.802676123474695"><ele>26.0</ele><time>2026-04-19T11:05:07Z</time></trkpt><trkpt lat="45.931119570339405" lon="12.802521641331623"><ele>25.75</ele><time>2026-04-19T11:05:08Z</time></trkpt><trkpt lat="45.93100665169479" lon="12.802391363539359"><ele>25.5</ele><time>2026-04-19T11:05:09Z</time></trkpt><trkpt lat="45.93089578073688" lon="12.802263516984347"><ele>25.25</ele><time>2026-04-19T11:05:10Z</time></trkpt><trkpt lat="45.930778299608875" lon="12.80212851207359"><ele>25.0</ele><time>2026-04-19T11:05:11Z</time></trkpt><trkpt lat="45.93064390808589" lon="12.80197407430887"><ele>25.666666666666668</ele><time>2026-04-19T11:05:12Z</time></trkpt><trkpt lat="45.930489985881024" lon="12.80179719261502"><ele>26.333333333333336</ele><time>2026-04-19T11:05:13Z</time></trkpt><trkpt lat="45.930339724081044" lon="12.801626178398203"><ele>27.0</ele><time>2026-04-19T11:05:14Z</time></trkpt><trkpt lat="45.93022003811088" lon="12.801489070333119"><ele>27.0</ele><time>2026-04-19T11:05:15Z</time></trkpt><trkpt lat="45.93012151123395" lon="12.801369572755195"><ele>27.0</ele><time>2026-04-19T11:05:16Z</time></trkpt><trkpt lat="45.93001871283692" lon="12.80123885369945"><ele>27.0</ele><time>2026-04-19T11:05:17Z</time></trkpt><trkpt lat="45.92990388385482" lon="12.801087211774094"><ele>27.0</ele><time>2026-04-19T11:05:18Z</time></trkpt><trkpt lat="45.92976917560339" lon="12.800909317448323"><ele>27.0</ele><time>2026-04-19T11:05:19Z</time></trkpt><trkpt lat="45.929624122437374" lon="12.800715259688149"><ele>27.0</ele><time>2026-04-19T11:05:20Z</time></trkpt><trkpt lat="45.92951311736475" lon="12.800511404346427"><ele>27.0</ele><time>2026-04-19T11:05:21Z</time></trkpt><trkpt lat="45.92944125825837" lon="12.80050340567976"><ele>27.0</ele><time>2026-04-19T11:05:22Z</time></trkpt><trkpt lat="45.92932187181151" lon="12.800343670099052"><ele>27.0</ele><time>2026-04-19T11:05:23Z</time></trkpt><trkpt lat="45.92920612330585" lon="12.800203304897654"><ele>27.0</ele><time>2026-04-19T11:05:24Z</time></trkpt><trkpt lat="45.9290911066308" lon="12.800049516605714"><ele>27.0</ele><time>2026-04-19T11:05:25Z</time></trkpt><trkpt lat="45.92899023635032" lon="12.799885298943908"><ele>27.0</ele><time>2026-04-19T11:05:26Z</time></trkpt><trkpt lat="45.928902100169445" lon="12.799733682401122"><ele>27.0</ele><time>2026-04-19T11:05:27Z</time></trkpt><trkpt lat="45.92880338564358" lon="12.799563868403371"><ele>27.0</ele><time>2026-04-19T11:05:28Z</time></trkpt><trkpt lat="45.928703407998334" lon="12.799414053997236"><ele>27.0</ele><time>2026-04-19T11:05:29Z</time></trkpt><trkpt lat="45.92862017839166" lon="12.799272662663414"><ele>27.0</ele><time>2026-04-19T11:05:30Z</time></trkpt><trkpt lat="45.92853381060795" lon="12.799101124000302"><ele>27.0</ele><time>2026-04-19T11:05:31Z</time></trkpt><trkpt lat="45.92842148704721" lon="12.798951323339336"><ele>27.0</ele><time>2026-04-19T11:05:32Z</time></trkpt><trkpt lat="45.928328941318654" lon="12.798807392577048"><ele>27.0</ele><time>2026-04-19T11:05:33Z</time></trkpt><trkpt lat="45.928241058177626" lon="12.798686061191574"><ele>27.0</ele><time>2026-04-19T11:05:34Z</time></trkpt><trkpt lat="45.9281480329311" lon="12.798586297085699"><ele>27.0</ele><time>2026-04-19T11:05:35Z</time></trkpt><trkpt lat="45.92805427646898" lon="12.798457285433157"><ele>27.0</ele><time>2026-04-19T11:05:36Z</time></trkpt><trkpt lat="45.92795904355545" lon="12.798331020987087"><ele>26.75</ele><time>2026-04-19T11:05:37Z</time></trkpt><trkpt lat="45.927881265324075" lon="12.798224864860542"><ele>26.5</ele><time>2026-04-19T11:05:38Z</time></trkpt><trkpt lat="45.92781066328974" lon="12.798091898819843"><ele>26.25</ele><time>2026-04-19T11:05:39Z</time></trkpt><trkpt lat="45.927718721023275" lon="12.797968137806064"><ele>26.0</ele><time>2026-04-19T11:05:40Z</time></trkpt><trkpt lat="45.92761659360506" lon="12.797838405066813"><ele>26.25</ele><time>2026-04-19T11:05:41Z</time></trkpt><trkpt lat="45.92750968402545" lon="12.797726064285461"><ele>26.5</ele><time>2026-04-19T11:05:42Z</time></trkpt><trkpt lat="45.9274082720331" lon="12.797602131702924"><ele>26.75</ele><time>2026-04-19T11:05:43Z</time></trkpt><trkpt lat="45.92731414748486" lon="12.797451847586702"><ele>27.0</ele><time>2026-04-19T11:05:44Z</time></trkpt><trkpt lat="45.927213880013205" lon="12.797331158021523"><ele>27.0</ele><time>2026-04-19T11:05:45Z</time></trkpt><trkpt lat="45.927128448577825" lon="12.797231236614707"><ele>27.0</ele><time>2026-04-19T11:05:46Z</time></trkpt><trkpt lat="45.92703228744613" lon="12.797109908173153"><ele>27.0</ele><time>2026-04-19T11:05:47Z</time></trkpt><trkpt lat="45.92693817524331" lon="12.796981522080161"><ele>27.0</ele><time>2026-04-19T11:05:48Z</time></trkpt><trkpt lat="45.92683555817324" lon="12.796851171114485"><ele>27.25</ele><time>2026-04-19T11:05:49Z</time></trkpt><trkpt lat="45.92674110059022" lon="12.796728536613719"><ele>27.5</ele><time>2026-04-19T11:05:50Z</time></trkpt><trkpt lat="45.926651377938136" lon="12.79660004046755"><ele>27.75</ele><time>2026-04-19T11:05:51Z</time></trkpt><trkpt lat="45.9265600726165" lon="12.796463606950079"><ele>28.0</ele><time>2026-04-19T11:05:52Z</time></trkpt><trkpt lat="45.92647910571929" lon="12.796323818740207"><ele>28.0</ele><time>2026-04-19T11:05:53Z</time></trkpt><trkpt lat="45.926401376991016" lon="12.796193152978198"><ele>27.999999999999996</ele><time>2026-04-19T11:05:54Z</time></trkpt><trkpt lat="45.92632105186716" lon="12.796074188950433"><ele>27.999999999999996</ele><time>2026-04-19T11:05:55Z</time></trkpt><trkpt lat="45.92625844899397" lon="12.795951719727334"><ele>28.0</ele><time>2026-04-19T11:05:56Z</time></trkpt><trkpt lat="45.926191010078774" lon="12.795842280788738"><ele>28.0</ele><time>2026-04-19T11:05:57Z</time></trkpt><trkpt lat="45.92612722064368" lon="12.795722171657891"><ele>28.25</ele><time>2026-04-19T11:05:58Z</time></trkpt><trkpt lat="45.92605781648192" lon="12.795599346339335"><ele>28.5</ele><time>2026-04-19T11:05:59Z</time></trkpt><trkpt lat="45.92597728117714" lon="12.79548304536034"><ele>28.75</ele><time>2026-04-19T11:06:00Z</time></trkpt><trkpt lat="45.92589813696279" lon="12.795341816256947"><ele>29.0</ele><time>2026-04-19T11:06:01Z</time></trkpt><trkpt lat="45.925799750031686" lon="12.795166675466144"><ele>29.0</ele><time>2026-04-19T11:06:02Z</time></trkpt><trkpt lat="45.92569535510691" lon="12.794977294172675"><ele>29.0</ele><time>2026-04-19T11:06:03Z</time></trkpt><trkpt lat="45.925598858012975" lon="12.794811880178395"><ele>29.0</ele><time>2026-04-19T11:06:04Z</time></trkpt><trkpt lat="45.92552365305731" lon="12.794693425343892"><ele>29.0</ele><time>2026-04-19T11:06:05Z</time></trkpt><trkpt lat="45.925462246412195" lon="12.794575053048762"><ele>29.0</ele><time>2026-04-19T11:06:06Z</time></trkpt><trkpt lat="45.9254161603691" lon="12.794461198210614"><ele>29.0</ele><time>2026-04-19T11:06:07Z</time></trkpt><trkpt lat="45.92536601096838" lon="12.794328911845579"><ele>29.0</ele><time>2026-04-19T11:06:09Z</time></trkpt><trkpt lat="45.92545665699959" lon="12.794262153613415"><ele>29.0</ele><time>2026-04-19T11:06:11Z</time></trkpt><trkpt lat="45.92553193285726" lon="12.794218428100072"><ele>29.0</ele><time>2026-04-19T11:06:12Z</time></trkpt><trkpt lat="45.9256470939853" lon="12.794102377345602"><ele>29.0</ele><time>2026-04-19T11:06:13Z</time></trkpt><trkpt lat="45.9257674524559" lon="12.79397289321658"><ele>29.0</ele><time>2026-04-19T11:06:14Z</time></trkpt><trkpt lat="45.925899222958876" lon="12.793824824716223"><ele>29.0</ele><time>2026-04-19T11:06:15Z</time></trkpt><trkpt lat="45.92602223190138" lon="12.793666237394088"><ele>29.0</ele><time>2026-04-19T11:06:16Z</time></trkpt><trkpt lat="45.926141505992035" lon="12.793549516462926"><ele>29.0</ele><time>2026-04-19T11:06:17Z</time></trkpt><trkpt lat="45.92624371983399" lon="12.79343406848821"><ele>29.0</ele><time>2026-04-19T11:06:18Z</time></trkpt><trkpt lat="45.926338536223675" lon="12.793327356569941"><ele>29.0</ele><time>2026-04-19T11:06:19Z</time></trkpt><trkpt lat="45.926406922335225" lon="12.793216767776824"><ele>28.2</ele><time>2026-04-19T11:06:20Z</time></trkpt><trkpt lat="45.92648042391386" lon="12.793150425737453"><ele>27.4</ele><time>2026-04-19T11:06:21Z</time></trkpt><trkpt lat="45.926501680554836" lon="12.793011629704974"><ele>26.6</ele><time>2026-04-19T11:06:23Z</time></trkpt><trkpt lat="45.926479137701655" lon="12.792913467048677"><ele>25.8</ele><time>2026-04-19T11:06:24Z</time></trkpt><trkpt lat="45.92642199831705" lon="12.79279956424716"><ele>25.0</ele><time>2026-04-19T11:06:25Z</time></trkpt><trkpt lat="45.92633033991793" lon="12.792641899304243"><ele>24.333333333333336</ele><time>2026-04-19T11:06:26Z</time></trkpt><trkpt lat="45.92622528562398" lon="12.792457432289485"><ele>23.666666666666668</ele><time>2026-04-19T11:06:27Z</time></trkpt><trkpt lat="45.92611072133802" lon="12.792248474438386"><ele>23.0</ele><time>2026-04-19T11:06:28Z</time></trkpt><trkpt lat="45.92596335309112" lon="12.791951091394449"><ele>24.0</ele><time>2026-04-19T11:06:29Z</time></trkpt><trkpt lat="45.92582066505494" lon="12.791686251796332"><ele>25.0</ele><time>2026-04-19T11:06:30Z</time></trkpt><trkpt lat="45.925673548811574" lon="12.79145550481963"><ele>25.0</ele><time>2026-04-19T11:06:31Z</time></trkpt><trkpt lat="45.925564334349495" lon="12.791246067449624"><ele>25.0</ele><time>2026-04-19T11:06:32Z</time></trkpt><trkpt lat="45.925450195786276" lon="12.79105078449618"><ele>25.0</ele><time>2026-04-19T11:06:33Z</time></trkpt><trkpt lat="45.92535329773722" lon="12.79087215800466"><ele>24.8</ele><time>2026-04-19T11:06:34Z</time></trkpt><trkpt lat="45.92527282576487" lon="12.790728720156759"><ele>24.6</ele><time>2026-04-19T11:06:35Z</time></trkpt><trkpt lat="45.9252032224388" lon="12.790608115393312"><ele>24.4</ele><time>2026-04-19T11:06:36Z</time></trkpt><trkpt lat="45.92515064201584" lon="12.79048345157198"><ele>24.2</ele><time>2026-04-19T11:06:37Z</time></trkpt><trkpt lat="45.92508820086648" lon="12.790378144246384"><ele>24.0</ele><time>2026-04-19T11:06:38Z</time></trkpt><trkpt lat="45.92504830480741" lon="12.790245995083932"><ele>23.75</ele><time>2026-04-19T11:06:40Z</time></trkpt><trkpt lat="45.925170425733434" lon="12.790124953200253"><ele>23.5</ele><time>2026-04-19T11:06:42Z</time></trkpt><trkpt lat="45.92527520957297" lon="12.79012263196908"><ele>23.25</ele><time>2026-04-19T11:06:43Z</time></trkpt><trkpt lat="45.925400005798025" lon="12.79005745982478"><ele>23.0</ele><time>2026-04-19T11:06:44Z</time></trkpt><trkpt lat="45.92550074190391" lon="12.790000032176932"><ele>23.0</ele><time>2026-04-19T11:06:45Z</time></trkpt><trkpt lat="45.92558615731176" lon="12.789949237219478"><ele>23.0</ele><time>2026-04-19T11:06:46Z</time></trkpt><trkpt lat="45.925659268231975" lon="12.789882904079217"><ele>23.0</ele><time>2026-04-19T11:06:47Z</time></trkpt><trkpt lat="45.92572687196361" lon="12.78983872643767"><ele>23.0</ele><time>2026-04-19T11:06:48Z</time></trkpt><trkpt lat="45.92578202946902" lon="12.789787162818646"><ele>23.0</ele><time>2026-04-19T11:06:49Z</time></trkpt><trkpt lat="45.925820256717905" lon="12.789637289719577"><ele>23.0</ele><time>2026-04-19T11:06:51Z</time></trkpt><trkpt lat="45.92574717782226" lon="12.789553921301943"><ele>23.0</ele><time>2026-04-19T11:06:52Z</time></trkpt><trkpt lat="45.92568882629722" lon="12.789462813332372"><ele>23.0</ele><time>2026-04-19T11:06:53Z</time></trkpt><trkpt lat="45.92563131290347" lon="12.78932450513353"><ele>23.0</ele><time>2026-04-19T11:06:54Z</time></trkpt><trkpt lat="45.92558049000665" lon="12.789188519853477"><ele>23.0</ele><time>2026-04-19T11:06:55Z</time></trkpt><trkpt lat="45.925535554955545" lon="12.789064132176547"><ele>23.0</ele><time>2026-04-19T11:06:56Z</time></trkpt><trkpt lat="45.92549127581533" lon="12.788940017986034"><ele>23.0</ele><time>2026-04-19T11:06:57Z</time></trkpt><trkpt lat="45.92544667586346" lon="12.788814554747717"><ele>23.0</ele><time>2026-04-19T11:06:58Z</time></trkpt><trkpt lat="45.92540177309704" lon="12.788688239666522"><ele>23.0</ele><time>2026-04-19T11:06:59Z</time></trkpt><trkpt lat="45.92535499318638" lon="12.788556644024858"><ele>23.0</ele><time>2026-04-19T11:07:00Z</time></trkpt><trkpt lat="45.925305875757545" lon="12.788418472784373"><ele>23.0</ele><time>2026-04-19T11:07:01Z</time></trkpt><trkpt lat="45.925256469481305" lon="12.78828214432312"><ele>23.2</ele><time>2026-04-19T11:07:02Z</time></trkpt><trkpt lat="45.9252068157172" lon="12.788146571822516"><ele>23.4</ele><time>2026-04-19T11:07:03Z</time></trkpt><trkpt lat="45.92516146756155" lon="12.78802227696716"><ele>23.599999999999998</ele><time>2026-04-19T11:07:04Z</time></trkpt><trkpt lat="45.92511949709033" lon="12.787906348459796"><ele>23.799999999999997</ele><time>2026-04-19T11:07:05Z</time></trkpt><trkpt lat="45.92508639175006" lon="12.787809231329655"><ele>24.0</ele><time>2026-04-19T11:07:06Z</time></trkpt><trkpt lat="45.925044167661056" lon="12.787681539199744"><ele>23.5</ele><time>2026-04-19T11:07:08Z</time></trkpt><trkpt lat="45.925242164768015" lon="12.787576453137273"><ele>23.0</ele><time>2026-04-19T11:07:10Z</time></trkpt><trkpt lat="45.925344282372315" lon="12.787590616552135"><ele>22.5</ele><time>2026-04-19T11:07:11Z</time></trkpt><trkpt lat="45.92545193793452" lon="12.787601130006834"><ele>22.0</ele><time>2026-04-19T11:07:12Z</time></trkpt><trkpt lat="45.9255692861316" lon="12.787595452546896"><ele>22.0</ele><time>2026-04-19T11:07:13Z</time></trkpt><trkpt lat="45.92569060241992" lon="12.787597969894941"><ele>22.0</ele><time>2026-04-19T11:07:14Z</time></trkpt><trkpt lat="45.92583174975982" lon="12.787608964517378"><ele>22.0</ele><time>2026-04-19T11:07:15Z</time></trkpt><trkpt lat="45.92599078191531" lon="12.787607219334465"><ele>22.0</ele><time>2026-04-19T11:07:16Z</time></trkpt><trkpt lat="45.926155193758845" lon="12.787603238404325"><ele>22.333333333333332</ele><time>2026-04-19T11:07:17Z</time></trkpt><trkpt lat="45.926331108893464" lon="12.78760012100601"><ele>22.666666666666668</ele><time>2026-04-19T11:07:18Z</time></trkpt><trkpt lat="45.92648531283605" lon="12.78759989521035"><ele>23.0</ele><time>2026-04-19T11:07:19Z</time></trkpt><trkpt lat="45.926627724233654" lon="12.787601054605915"><ele>23.0</ele><time>2026-04-19T11:07:20Z</time></trkpt><trkpt lat="45.92676108150578" lon="12.78759990994241"><ele>23.0</ele><time>2026-04-19T11:07:21Z</time></trkpt><trkpt lat="45.92689491789981" lon="12.787598539223437"><ele>23.0</ele><time>2026-04-19T11:07:22Z</time></trkpt><trkpt lat="45.92703079950208" lon="12.787588673708084"><ele>23.0</ele><time>2026-04-19T11:07:23Z</time></trkpt><trkpt lat="45.92715665722488" lon="12.78755603277863"><ele>23.0</ele><time>2026-04-19T11:07:24Z</time></trkpt><trkpt lat="45.92727368530257" lon="12.787483877305293"><ele>23.0</ele><time>2026-04-19T11:07:25Z</time></trkpt><trkpt lat="45.92737842307026" lon="12.787417176321869"><ele>23.0</ele><time>2026-04-19T11:07:26Z</time></trkpt><trkpt lat="45.92747806891852" lon="12.787367523875007"><ele>23.0</ele><time>2026-04-19T11:07:27Z</time></trkpt><trkpt lat="45.927571328286184" lon="12.78732099043225"><ele>23.0</ele><time>2026-04-19T11:07:28Z</time></trkpt><trkpt lat="45.927657367780874" lon="12.787273794822571"><ele>22.799999999999997</ele><time>2026-04-19T11:07:29Z</time></trkpt><trkpt lat="45.92772659584609" lon="12.787253254880593"><ele>22.6</ele><time>2026-04-19T11:07:30Z</time></trkpt><trkpt lat="45.927847633825905" lon="12.78732328450546"><ele>22.4</ele><time>2026-04-19T11:07:32Z</time></trkpt><trkpt lat="45.927926206029284" lon="12.78739790346288"><ele>22.200000000000003</ele><time>2026-04-19T11:07:33Z</time></trkpt><trkpt lat="45.92801744908701" lon="12.787484746404878"><ele>22.0</ele><time>2026-04-19T11:07:34Z</time></trkpt><trkpt lat="45.928110709827195" lon="12.787580719207208"><ele>22.0</ele><time>2026-04-19T11:07:35Z</time></trkpt><trkpt lat="45.928215971731404" lon="12.787692300698446"><ele>22.0</ele><time>2026-04-19T11:07:36Z</time></trkpt><trkpt lat="45.92832933905643" lon="12.787812836133702"><ele>22.0</ele><time>2026-04-19T11:07:37Z</time></trkpt><trkpt lat="45.928438451495936" lon="12.78792862517508"><ele>22.0</ele><time>2026-04-19T11:07:38Z</time></trkpt><trkpt lat="45.92855542928512" lon="12.788052662247345"><ele>22.666666666666664</ele><time>2026-04-19T11:07:39Z</time></trkpt><trkpt lat="45.92868669975379" lon="12.788187620967168"><ele>23.333333333333332</ele><time>2026-04-19T11:07:40Z</time></trkpt><trkpt lat="45.9288267578489" lon="12.788330240423328"><ele>24.0</ele><time>2026-04-19T11:07:41Z</time></trkpt><trkpt lat="45.92895912235172" lon="12.788468259250584"><ele>24.25</ele><time>2026-04-19T11:07:42Z</time></trkpt><trkpt lat="45.929076673774915" lon="12.7885904510774"><ele>24.5</ele><time>2026-04-19T11:07:43Z</time></trkpt><trkpt lat="45.92919030051362" lon="12.788709170474435"><ele>24.75</ele><time>2026-04-19T11:07:44Z</time></trkpt><trkpt lat="45.929303970974765" lon="12.788827862306201"><ele>25.0</ele><time>2026-04-19T11:07:45Z</time></trkpt><trkpt lat="45.92941735799232" lon="12.788947454048476"><ele>24.5</ele><time>2026-04-19T11:07:46Z</time></trkpt><trkpt lat="45.929534415342765" lon="12.789067305876397"><ele>24.0</ele><time>2026-04-19T11:07:47Z</time></trkpt><trkpt lat="45.92965169348183" lon="12.789190430983421"><ele>23.5</ele><time>2026-04-19T11:07:48Z</time></trkpt><trkpt lat="45.92976463018161" lon="12.789319738321442"><ele>23.0</ele><time>2026-04-19T11:07:49Z</time></trkpt><trkpt lat="45.929869070355245" lon="12.789465416952206"><ele>23.0</ele><time>2026-04-19T11:07:50Z</time></trkpt><trkpt lat="45.9299585971529" lon="12.789612982096767"><ele>23.0</ele><time>2026-04-19T11:07:51Z</time></trkpt><trkpt lat="45.9300390750965" lon="12.789742003163978"><ele>23.0</ele><time>2026-04-19T11:07:52Z</time></trkpt><trkpt lat="45.930117864172935" lon="12.789859210464002"><ele>23.0</ele><time>2026-04-19T11:07:53Z</time></trkpt><trkpt lat="45.930179831199354" lon="12.789964646874765"><ele>23.0</ele><time>2026-04-19T11:07:54Z</time></trkpt><trkpt lat="45.93023195079652" lon="12.790051838949035"><ele>23.0</ele><time>2026-04-19T11:07:55Z</time></trkpt><trkpt lat="45.93027696720763" lon="12.790126197780866"><ele>23.0</ele><time>2026-04-19T11:07:57Z</time></trkpt><trkpt lat="45.93033045642002" lon="12.79018247172297"><ele>23.0</ele><time>2026-04-19T11:08:08Z</time></trkpt><trkpt lat="45.93036830662307" lon="12.790259314196076"><ele>23.0</ele><time>2026-04-19T11:08:09Z</time></trkpt><trkpt lat="45.93043052231542" lon="12.790360093794323"><ele>23.0</ele><time>2026-04-19T11:08:11Z</time></trkpt><trkpt lat="45.93049014018473" lon="12.790307172088342"><ele>23.0</ele><time>2026-04-19T11:08:13Z</time></trkpt><trkpt lat="45.93053796129133" lon="12.790180726060003"><ele>23.0</ele><time>2026-04-19T11:08:15Z</time></trkpt><trkpt lat="45.93059506904002" lon="12.790103120062037"><ele>23.0</ele><time>2026-04-19T11:08:16Z</time></trkpt><trkpt lat="45.930663339332995" lon="12.790022561276482"><ele>23.0</ele><time>2026-04-19T11:08:17Z</time></trkpt><trkpt lat="45.93073025422068" lon="12.789936279252059"><ele>23.0</ele><time>2026-04-19T11:08:18Z</time></trkpt><trkpt lat="45.93080145735104" lon="12.789850231411549"><ele>23.0</ele><time>2026-04-19T11:08:19Z</time></trkpt><trkpt lat="45.930877765542334" lon="12.789750373612964"><ele>23.25</ele><time>2026-04-19T11:08:20Z</time></trkpt><trkpt lat="45.930963556989724" lon="12.789644765219666"><ele>23.5</ele><time>2026-04-19T11:08:21Z</time></trkpt><trkpt lat="45.93104896778686" lon="12.789531904297748"><ele>23.75</ele><time>2026-04-19T11:08:22Z</time></trkpt><trkpt lat="45.93113523471177" lon="12.789428041383797"><ele>24.0</ele><time>2026-04-19T11:08:23Z</time></trkpt><trkpt lat="45.9312201413075" lon="12.789319300735514"><ele>24.0</ele><time>2026-04-19T11:08:24Z</time></trkpt><trkpt lat="45.931305803473876" lon="12.789209211952711"><ele>24.0</ele><time>2026-04-19T11:08:25Z</time></trkpt><trkpt lat="45.931393839464185" lon="12.789097227618996"><ele>24.0</ele><time>2026-04-19T11:08:26Z</time></trkpt><trkpt lat="45.931478854605146" lon="12.788990273524032"><ele>24.0</ele><time>2026-04-19T11:08:27Z</time></trkpt><trkpt lat="45.93156285627501" lon="12.788882116654262"><ele>24.0</ele><time>2026-04-19T11:08:28Z</time></trkpt><trkpt lat="45.93164570197035" lon="12.788778779572734"><ele>24.0</ele><time>2026-04-19T11:08:29Z</time></trkpt><trkpt lat="45.931729163431896" lon="12.788671843556424"><ele>24.0</ele><time>2026-04-19T11:08:30Z</time></trkpt><trkpt lat="45.93181008555148" lon="12.788569449941274"><ele>24.0</ele><time>2026-04-19T11:08:31Z</time></trkpt><trkpt lat="45.93189136033274" lon="12.78846121270311"><ele>24.0</ele><time>2026-04-19T11:08:32Z</time></trkpt><trkpt lat="45.9319800659408" lon="12.78835379085726"><ele>24.0</ele><time>2026-04-19T11:08:33Z</time></trkpt><trkpt lat="45.93208217552645" lon="12.788225520381843"><ele>24.0</ele><time>2026-04-19T11:08:34Z</time></trkpt><trkpt lat="45.93218291367256" lon="12.788097532349758"><ele>24.0</ele><time>2026-04-19T11:08:35Z</time></trkpt><trkpt lat="45.93229003111623" lon="12.787959560236361"><ele>24.0</ele><time>2026-04-19T11:08:36Z</time></trkpt><trkpt lat="45.93240101584013" lon="12.787818403742365"><ele>24.0</ele><time>2026-04-19T11:08:37Z</time></trkpt><trkpt lat="45.93250891127788" lon="12.78767866945319"><ele>24.0</ele><time>2026-04-19T11:08:38Z</time></trkpt><trkpt lat="45.93261330408091" lon="12.787544042461755"><ele>24.0</ele><time>2026-04-19T11:08:39Z</time></trkpt><trkpt lat="45.932706602024695" lon="12.787424681786538"><ele>24.0</ele><time>2026-04-19T11:08:40Z</time></trkpt><trkpt lat="45.932798599645295" lon="12.787310184345596"><ele>23.799999999999997</ele><time>2026-04-19T11:08:41Z</time></trkpt><trkpt lat="45.93288390563789" lon="12.787200600193804"><ele>23.599999999999998</ele><time>2026-04-19T11:08:42Z</time></trkpt><trkpt lat="45.932962256390056" lon="12.787097236227627"><ele>23.4</ele><time>2026-04-19T11:08:43Z</time></trkpt><trkpt lat="45.93303179591466" lon="12.787009156342405"><ele>23.2</ele><time>2026-04-19T11:08:44Z</time></trkpt><trkpt lat="45.93309308506705" lon="12.786935033608055"><ele>23.0</ele><time>2026-04-19T11:08:45Z</time></trkpt><trkpt lat="45.933140015761126" lon="12.786874649082744"><ele>23.333333333333336</ele><time>2026-04-19T11:08:46Z</time></trkpt><trkpt lat="45.933169285112506" lon="12.78678528899773"><ele>23.666666666666668</ele><time>2026-04-19T11:08:49Z</time></trkpt><trkpt lat="45.933103639590875" lon="12.786660010601077"><ele>24.0</ele><time>2026-04-19T11:08:51Z</time></trkpt><trkpt lat="45.93304886241913" lon="12.786589254211973"><ele>24.333333333333336</ele><time>2026-04-19T11:08:52Z</time></trkpt><trkpt lat="45.9329832629501" lon="12.786521255062599"><ele>24.666666666666668</ele><time>2026-04-19T11:08:53Z</time></trkpt><trkpt lat="45.93291054876984" lon="12.786467573959591"><ele>25.0</ele><time>2026-04-19T11:08:54Z</time></trkpt><trkpt lat="45.93285810056547" lon="12.786342389436626"><ele>25.0</ele><time>2026-04-19T11:08:56Z</time></trkpt><trkpt lat="45.93288942633638" lon="12.786257592507846"><ele>25.0</ele><time>2026-04-19T11:08:57Z</time></trkpt><trkpt lat="45.93294008295609" lon="12.786139892072647"><ele>25.0</ele><time>2026-04-19T11:08:58Z</time></trkpt><trkpt lat="45.93300552506372" lon="12.785991273598954"><ele>25.0</ele><time>2026-04-19T11:08:59Z</time></trkpt><trkpt lat="45.93307153925522" lon="12.785834266043128"><ele>25.0</ele><time>2026-04-19T11:09:00Z</time></trkpt><trkpt lat="45.93311683035211" lon="12.785719907319113"><ele>26.0</ele><time>2026-04-19T11:09:01Z</time></trkpt><trkpt lat="45.933151333299975" lon="12.785619953011379"><ele>27.0</ele><time>2026-04-19T11:09:02Z</time></trkpt><trkpt lat="45.93318488031784" lon="12.785492945250343"><ele>28.0</ele><time>2026-04-19T11:09:03Z</time></trkpt><trkpt lat="45.93322404703006" lon="12.785362957393394"><ele>29.0</ele><time>2026-04-19T11:09:04Z</time></trkpt><trkpt lat="45.93326490248479" lon="12.785186921532814"><ele>30.0</ele><time>2026-04-19T11:09:05Z</time></trkpt><trkpt lat="45.933320983093395" lon="12.785030973432105"><ele>30.0</ele><time>2026-04-19T11:09:06Z</time></trkpt><trkpt lat="45.933377246266694" lon="12.78489911221195"><ele>30.0</ele><time>2026-04-19T11:09:07Z</time></trkpt><trkpt lat="45.93341157451644" lon="12.784790167906205"><ele>30.0</ele><time>2026-04-19T11:09:08Z</time></trkpt><trkpt lat="45.93344958217839" lon="12.784684439727652"><ele>30.0</ele><time>2026-04-19T11:09:09Z</time></trkpt><trkpt lat="45.93348473454634" lon="12.784596100043363"><ele>30.0</ele><time>2026-04-19T11:09:10Z</time></trkpt><trkpt lat="45.93359139789854" lon="12.784490467167918"><ele>31.0</ele><time>2026-04-19T11:09:12Z</time></trkpt><trkpt lat="45.93368638884448" lon="12.784451462965533"><ele>32.0</ele><time>2026-04-19T11:09:13Z</time></trkpt><trkpt lat="45.93379433779687" lon="12.784412766097981"><ele>33.0</ele><time>2026-04-19T11:09:14Z</time></trkpt><trkpt lat="45.93390693262834" lon="12.784407665770077"><ele>34.0</ele><time>2026-04-19T11:09:15Z</time></trkpt><trkpt lat="45.93400171094976" lon="12.78440435083037"><ele>35.0</ele><time>2026-04-19T11:09:16Z</time></trkpt><trkpt lat="45.93408669061345" lon="12.784400202665324"><ele>35.0</ele><time>2026-04-19T11:09:17Z</time></trkpt><trkpt lat="45.93417444235319" lon="12.784406676912106"><ele>35.0</ele><time>2026-04-19T11:09:18Z</time></trkpt><trkpt lat="45.93426081537459" lon="12.78444002381142"><ele>35.0</ele><time>2026-04-19T11:09:19Z</time></trkpt><trkpt lat="45.93435550291956" lon="12.784490179681189"><ele>35.0</ele><time>2026-04-19T11:09:20Z</time></trkpt><trkpt lat="45.934437367607266" lon="12.784528605045342"><ele>35.0</ele><time>2026-04-19T11:09:21Z</time></trkpt><trkpt lat="45.934509569939536" lon="12.7845238334278"><ele>35.0</ele><time>2026-04-19T11:09:22Z</time></trkpt><trkpt lat="45.934595561755934" lon="12.784484961737363"><ele>34.33333333333333</ele><time>2026-04-19T11:09:23Z</time></trkpt><trkpt lat="45.9346829001986" lon="12.784423314673568"><ele>33.666666666666664</ele><time>2026-04-19T11:09:24Z</time></trkpt><trkpt lat="45.93475964931424" lon="12.784346284272633"><ele>33.0</ele><time>2026-04-19T11:09:25Z</time></trkpt><trkpt lat="45.93484123677415" lon="12.784307650220153"><ele>32.333333333333336</ele><time>2026-04-19T11:09:26Z</time></trkpt><trkpt lat="45.93492465504907" lon="12.78430015026864"><ele>31.666666666666668</ele><time>2026-04-19T11:09:27Z</time></trkpt><trkpt lat="45.93500022443124" lon="12.784302051973063"><ele>31.0</ele><time>2026-04-19T11:09:28Z</time></trkpt><trkpt lat="45.93510199469917" lon="12.784326906754787"><ele>30.6</ele><time>2026-04-19T11:09:29Z</time></trkpt><trkpt lat="45.93521781487825" lon="12.784364803918372"><ele>30.200000000000003</ele><time>2026-04-19T11:09:30Z</time></trkpt><trkpt lat="45.93531676697827" lon="12.784381336754862"><ele>29.799999999999997</ele><time>2026-04-19T11:09:31Z</time></trkpt><trkpt lat="45.93540940489087" lon="12.784411848086698"><ele>29.4</ele><time>2026-04-19T11:09:32Z</time></trkpt><trkpt lat="45.93550169457717" lon="12.784448306406857"><ele>29.0</ele><time>2026-04-19T11:09:33Z</time></trkpt><trkpt lat="45.935600277119946" lon="12.784492143384545"><ele>29.0</ele><time>2026-04-19T11:09:34Z</time></trkpt><trkpt lat="45.93571861170564" lon="12.784534909482897"><ele>29.0</ele><time>2026-04-19T11:09:35Z</time></trkpt><trkpt lat="45.93583108841572" lon="12.78461030215188"><ele>29.0</ele><time>2026-04-19T11:09:36Z</time></trkpt><trkpt lat="45.935949873797846" lon="12.784690376517013"><ele>29.0</ele><time>2026-04-19T11:09:37Z</time></trkpt><trkpt lat="45.936052584204766" lon="12.784765556239352"><ele>28.6</ele><time>2026-04-19T11:09:38Z</time></trkpt><trkpt lat="45.93615464050978" lon="12.784825195536598"><ele>28.2</ele><time>2026-04-19T11:09:39Z</time></trkpt><trkpt lat="45.9362592889346" lon="12.784871397689662"><ele>27.800000000000004</ele><time>2026-04-19T11:09:40Z</time></trkpt><trkpt lat="45.9363651785288" lon="12.784941140605763"><ele>27.400000000000002</ele><time>2026-04-19T11:09:41Z</time></trkpt><trkpt lat="45.93645639266807" lon="12.784992834342587"><ele>27.0</ele><time>2026-04-19T11:09:42Z</time></trkpt><trkpt lat="45.936534756753154" lon="12.78503342963455"><ele>27.0</ele><time>2026-04-19T11:09:43Z</time></trkpt><trkpt lat="45.93659267243819" lon="12.78507203303594"><ele>27.0</ele><time>2026-04-19T11:09:44Z</time></trkpt><trkpt lat="45.93663937648934" lon="12.78514883738556"><ele>27.0</ele><time>2026-04-19T11:09:45Z</time></trkpt><trkpt lat="45.936676705789985" lon="12.785246326257216"><ele>27.0</ele><time>2026-04-19T11:09:46Z</time></trkpt><trkpt lat="45.93671635599623" lon="12.785343999638043"><ele>27.0</ele><time>2026-04-19T11:09:47Z</time></trkpt><trkpt lat="45.93678280873383" lon="12.78547070837614"><ele>27.0</ele><time>2026-04-19T11:09:49Z</time></trkpt><trkpt lat="45.936848470827215" lon="12.785555843928334"><ele>27.0</ele><time>2026-04-19T11:09:51Z</time></trkpt><trkpt lat="45.93691203544531" lon="12.785591487376998"><ele>27.000000000000004</ele><time>2026-04-19T11:09:52Z</time></trkpt><trkpt lat="45.93699894112288" lon="12.785629622973854"><ele>27.000000000000004</ele><time>2026-04-19T11:09:53Z</time></trkpt><trkpt lat="45.937104081528304" lon="12.785688668892174"><ele>27.0</ele><time>2026-04-19T11:09:54Z</time></trkpt><trkpt lat="45.93721307643823" lon="12.78577017731185"><ele>27.0</ele><time>2026-04-19T11:09:55Z</time></trkpt><trkpt lat="45.93732609483946" lon="12.785838777415071"><ele>27.0</ele><time>2026-04-19T11:09:56Z</time></trkpt><trkpt lat="45.93742874991894" lon="12.785899463698573"><ele>27.0</ele><time>2026-04-19T11:09:57Z</time></trkpt><trkpt lat="45.93753937348052" lon="12.785954041758412"><ele>27.0</ele><time>2026-04-19T11:09:58Z</time></trkpt><trkpt lat="45.937645442485845" lon="12.786014392368585"><ele>27.0</ele><time>2026-04-19T11:09:59Z</time></trkpt><trkpt lat="45.937750063919395" lon="12.78606347036557"><ele>26.6</ele><time>2026-04-19T11:10:00Z</time></trkpt><trkpt lat="45.93784683868138" lon="12.786090416351941"><ele>26.200000000000003</ele><time>2026-04-19T11:10:01Z</time></trkpt><trkpt lat="45.9379444932873" lon="12.786115265129745"><ele>25.8</ele><time>2026-04-19T11:10:02Z</time></trkpt><trkpt lat="45.93804309812912" lon="12.786150488060374"><ele>25.4</ele><time>2026-04-19T11:10:03Z</time></trkpt><trkpt lat="45.93813495729598" lon="12.786201469030718"><ele>25.0</ele><time>2026-04-19T11:10:04Z</time></trkpt><trkpt lat="45.938230951476584" lon="12.78628494514812"><ele>25.000000000000004</ele><time>2026-04-19T11:10:05Z</time></trkpt><trkpt lat="45.93831618011102" lon="12.786386155225502"><ele>25.0</ele><time>2026-04-19T11:10:06Z</time></trkpt><trkpt lat="45.938396881847" lon="12.7864556226554"><ele>25.0</ele><time>2026-04-19T11:10:07Z</time></trkpt><trkpt lat="45.93846818647674" lon="12.786501836174114"><ele>25.0</ele><time>2026-04-19T11:10:08Z</time></trkpt><trkpt lat="45.938546789506056" lon="12.786520915664237"><ele>25.000000000000004</ele><time>2026-04-19T11:10:09Z</time></trkpt><trkpt lat="45.93862707770597" lon="12.78650097312686"><ele>25.0</ele><time>2026-04-19T11:10:10Z</time></trkpt><trkpt lat="45.93870549978813" lon="12.786441440930387"><ele>25.0</ele><time>2026-04-19T11:10:11Z</time></trkpt><trkpt lat="45.93878873833996" lon="12.78633591510135"><ele>25.0</ele><time>2026-04-19T11:10:12Z</time></trkpt><trkpt lat="45.938879650544884" lon="12.7862049201548"><ele>25.0</ele><time>2026-04-19T11:10:13Z</time></trkpt><trkpt lat="45.938974829058715" lon="12.786072072995761"><ele>25.0</ele><time>2026-04-19T11:10:14Z</time></trkpt><trkpt lat="45.93907454010228" lon="12.78593746133716"><ele>24.75</ele><time>2026-04-19T11:10:15Z</time></trkpt><trkpt lat="45.93917812208521" lon="12.785786937025751"><ele>24.5</ele><time>2026-04-19T11:10:16Z</time></trkpt><trkpt lat="45.9392914817704" lon="12.785630797023586"><ele>24.25</ele><time>2026-04-19T11:10:17Z</time></trkpt><trkpt lat="45.939393202250166" lon="12.7854933918055"><ele>24.0</ele><time>2026-04-19T11:10:18Z</time></trkpt><trkpt lat="45.93948704360582" lon="12.785372554873527"><ele>24.0</ele><time>2026-04-19T11:10:19Z</time></trkpt><trkpt lat="45.93957263838148" lon="12.785250914176176"><ele>24.0</ele><time>2026-04-19T11:10:20Z</time></trkpt><trkpt lat="45.93965750050551" lon="12.785137151961692"><ele>24.0</ele><time>2026-04-19T11:10:21Z</time></trkpt><trkpt lat="45.93973338285747" lon="12.785033304746584"><ele>24.0</ele><time>2026-04-19T11:10:22Z</time></trkpt><trkpt lat="45.939807474241384" lon="12.78494722353031"><ele>24.0</ele><time>2026-04-19T11:10:23Z</time></trkpt><trkpt lat="45.93986895946544" lon="12.784874134007206"><ele>23.799999999999997</ele><time>2026-04-19T11:10:24Z</time></trkpt><trkpt lat="45.93992997603883" lon="12.784750311153488"><ele>23.599999999999998</ele><time>2026-04-19T11:10:26Z</time></trkpt><trkpt lat="45.93990364709328" lon="12.784648717122954"><ele>23.4</ele><time>2026-04-19T11:10:28Z</time></trkpt><trkpt lat="45.9399331868272" lon="12.784481697277707"><ele>23.2</ele><time>2026-04-19T11:10:30Z</time></trkpt><trkpt lat="45.93998082258241" lon="12.78458996586182"><ele>23.0</ele><time>2026-04-19T11:10:38Z</time></trkpt><trkpt lat="45.94001491239679" lon="12.784686710268824"><ele>23.2</ele><time>2026-04-19T11:10:39Z</time></trkpt><trkpt lat="45.94006761423292" lon="12.784793068177569"><ele>23.4</ele><time>2026-04-19T11:10:40Z</time></trkpt><trkpt lat="45.94012883006624" lon="12.784908271334618"><ele>23.599999999999998</ele><time>2026-04-19T11:10:41Z</time></trkpt><trkpt lat="45.94019182728763" lon="12.785030264809032"><ele>23.799999999999997</ele><time>2026-04-19T11:10:42Z</time></trkpt><trkpt lat="45.94026123020393" lon="12.7851536398191"><ele>24.0</ele><time>2026-04-19T11:10:43Z</time></trkpt><trkpt lat="45.94034099362631" lon="12.785298146289655"><ele>24.333333333333336</ele><time>2026-04-19T11:10:44Z</time></trkpt><trkpt lat="45.94043415549233" lon="12.785463559092774"><ele>24.666666666666668</ele><time>2026-04-19T11:10:45Z</time></trkpt><trkpt lat="45.9405381683108" lon="12.785681503714812"><ele>25.0</ele><time>2026-04-19T11:10:46Z</time></trkpt><trkpt lat="45.94067503619738" lon="12.785893445431974"><ele>25.0</ele><time>2026-04-19T11:10:47Z</time></trkpt><trkpt lat="45.940830900817886" lon="12.786135852162014"><ele>25.0</ele><time>2026-04-19T11:10:48Z</time></trkpt><trkpt lat="45.940983988072645" lon="12.786387274617697"><ele>25.0</ele><time>2026-04-19T11:10:49Z</time></trkpt><trkpt lat="45.94111348916679" lon="12.786594893745978"><ele>25.0</ele><time>2026-04-19T11:10:50Z</time></trkpt><trkpt lat="45.94123118006419" lon="12.78679553232687"><ele>25.0</ele><time>2026-04-19T11:10:51Z</time></trkpt><trkpt lat="45.94134154749212" lon="12.786995635032579"><ele>25.0</ele><time>2026-04-19T11:10:52Z</time></trkpt><trkpt lat="45.941455129543385" lon="12.787203322437593"><ele>25.0</ele><time>2026-04-19T11:10:53Z</time></trkpt><trkpt lat="45.94156824831043" lon="12.787406203118541"><ele>25.0</ele><time>2026-04-19T11:10:54Z</time></trkpt><trkpt lat="45.94167804857874" lon="12.787602150866535"><ele>25.333333333333336</ele><time>2026-04-19T11:10:55Z</time></trkpt><trkpt lat="45.9417800955096" lon="12.787789353539807"><ele>25.666666666666664</ele><time>2026-04-19T11:10:56Z</time></trkpt><trkpt lat="45.9418793328585" lon="12.787971208652525"><ele>26.0</ele><time>2026-04-19T11:10:57Z</time></trkpt><trkpt lat="45.941978428120414" lon="12.788156407484927"><ele>26.0</ele><time>2026-04-19T11:10:58Z</time></trkpt><trkpt lat="45.9420768714601" lon="12.788344467636"><ele>26.0</ele><time>2026-04-19T11:10:59Z</time></trkpt><trkpt lat="45.94218071961524" lon="12.788532201042678"><ele>26.0</ele><time>2026-04-19T11:11:00Z</time></trkpt><trkpt lat="45.942290892401175" lon="12.788734068529648"><ele>26.0</ele><time>2026-04-19T11:11:01Z</time></trkpt><trkpt lat="45.94241414649268" lon="12.788971731091276"><ele>26.0</ele><time>2026-04-19T11:11:02Z</time></trkpt><trkpt lat="45.942543269346004" lon="12.789209664048219"><ele>26.0</ele><time>2026-04-19T11:11:03Z</time></trkpt><trkpt lat="45.94265215100154" lon="12.789420811801255"><ele>26.25</ele><time>2026-04-19T11:11:04Z</time></trkpt><trkpt lat="45.942748083481604" lon="12.789610979103754"><ele>26.5</ele><time>2026-04-19T11:11:05Z</time></trkpt><trkpt lat="45.94283759142839" lon="12.78978645017463"><ele>26.75</ele><time>2026-04-19T11:11:06Z</time></trkpt><trkpt lat="45.942920679006285" lon="12.789934533802647"><ele>27.0</ele><time>2026-04-19T11:11:07Z</time></trkpt><trkpt lat="45.94299606335091" lon="12.790065412965284"><ele>27.0</ele><time>2026-04-19T11:11:08Z</time></trkpt><trkpt lat="45.94306205990862" lon="12.79017537105578"><ele>27.000000000000004</ele><time>2026-04-19T11:11:09Z</time></trkpt><trkpt lat="45.94310874648204" lon="12.790264335975616"><ele>27.000000000000004</ele><time>2026-04-19T11:11:10Z</time></trkpt><trkpt lat="45.943125555970575" lon="12.790361262981467"><ele>27.0</ele><time>2026-04-19T11:11:12Z</time></trkpt><trkpt lat="45.94302234362835" lon="12.790478873107235"><ele>27.0</ele><time>2026-04-19T11:11:14Z</time></trkpt><trkpt lat="45.94294090393684" lon="12.790570093963703"><ele>27.0</ele><time>2026-04-19T11:11:15Z</time></trkpt><trkpt lat="45.942849537394814" lon="12.790689317196678"><ele>27.0</ele><time>2026-04-19T11:11:16Z</time></trkpt><trkpt lat="45.94275068481986" lon="12.790833296023905"><ele>27.0</ele><time>2026-04-19T11:11:17Z</time></trkpt><trkpt lat="45.94265865842923" lon="12.790960026308419"><ele>27.0</ele><time>2026-04-19T11:11:18Z</time></trkpt><trkpt lat="45.94257188152235" lon="12.791084119687286"><ele>26.8</ele><time>2026-04-19T11:11:19Z</time></trkpt><trkpt lat="45.942488467252176" lon="12.791197106596643"><ele>26.6</ele><time>2026-04-19T11:11:20Z</time></trkpt><trkpt lat="45.94241827350063" lon="12.791296903389576"><ele>26.400000000000002</ele><time>2026-04-19T11:11:21Z</time></trkpt><trkpt lat="45.94235421617602" lon="12.79138757676648"><ele>26.200000000000003</ele><time>2026-04-19T11:11:22Z</time></trkpt><trkpt lat="45.94228766039521" lon="12.7914631376474"><ele>26.0</ele><time>2026-04-19T11:11:23Z</time></trkpt><trkpt lat="45.942220682237426" lon="12.791531773319212"><ele>25.999999999999996</ele><time>2026-04-19T11:11:24Z</time></trkpt><trkpt lat="45.94212868482795" lon="12.791629221520312"><ele>26.0</ele><time>2026-04-19T11:11:26Z</time></trkpt><trkpt lat="45.94206383990116" lon="12.791679571414951"><ele>26.0</ele><time>2026-04-19T11:11:28Z</time></trkpt><trkpt lat="45.94200718885514" lon="12.791721074134815"><ele>26.0</ele><time>2026-04-19T11:11:31Z</time></trkpt><trkpt lat="45.9420330538905" lon="12.79184544612282"><ele>25.999999999999996</ele><time>2026-04-19T11:11:34Z</time></trkpt><trkpt lat="45.94200536497675" lon="12.791952208746693"><ele>26.0</ele><time>2026-04-19T11:11:36Z</time></trkpt><trkpt lat="45.941964808329" lon="12.792066261627188"><ele>26.200000000000003</ele><time>2026-04-19T11:11:39Z</time></trkpt><trkpt lat="45.94195649933522" lon="12.792185937004316"><ele>26.400000000000002</ele><time>2026-04-19T11:11:42Z</time></trkpt><trkpt lat="45.941937994909004" lon="12.79231654078784"><ele>26.6</ele><time>2026-04-19T11:11:45Z</time></trkpt><trkpt lat="45.94204303069443" lon="12.792429092875295"><ele>26.8</ele><time>2026-04-19T11:11:47Z</time></trkpt><trkpt lat="45.942123803639454" lon="12.792483564166027"><ele>27.0</ele><time>2026-04-19T11:11:48Z</time></trkpt><trkpt lat="45.94219526820251" lon="12.792576026798624"><ele>27.0</ele><time>2026-04-19T11:11:49Z</time></trkpt><trkpt lat="45.9422710407132" lon="12.792659589512073"><ele>27.0</ele><time>2026-04-19T11:11:50Z</time></trkpt><trkpt lat="45.94236265385539" lon="12.792745718689636"><ele>27.0</ele><time>2026-04-19T11:11:51Z</time></trkpt><trkpt lat="45.94246336526748" lon="12.792857439825466"><ele>27.0</ele><time>2026-04-19T11:11:52Z</time></trkpt><trkpt lat="45.94257169613066" lon="12.793007188200102"><ele>26.666666666666664</ele><time>2026-04-19T11:11:53Z</time></trkpt><trkpt lat="45.94267414365887" lon="12.793204335685097"><ele>26.333333333333332</ele><time>2026-04-19T11:11:54Z</time></trkpt><trkpt lat="45.94277668880234" lon="12.793441937831554"><ele>26.0</ele><time>2026-04-19T11:11:55Z</time></trkpt><trkpt lat="45.94285987095415" lon="12.793650681110808"><ele>26.75</ele><time>2026-04-19T11:11:56Z</time></trkpt><trkpt lat="45.9429306085352" lon="12.7938162007287"><ele>27.5</ele><time>2026-04-19T11:11:57Z</time></trkpt><trkpt lat="45.9430053917945" lon="12.793947667627235"><ele>28.25</ele><time>2026-04-19T11:11:58Z</time></trkpt><trkpt lat="45.94310229622861" lon="12.794066399993861"><ele>29.0</ele><time>2026-04-19T11:11:59Z</time></trkpt><trkpt lat="45.94323840195212" lon="12.794176305267797"><ele>29.333333333333332</ele><time>2026-04-19T11:12:00Z</time></trkpt><trkpt lat="45.943404826469845" lon="12.794296208844838"><ele>29.666666666666664</ele><time>2026-04-19T11:12:01Z</time></trkpt><trkpt lat="45.943571415517624" lon="12.794444487675586"><ele>30.0</ele><time>2026-04-19T11:12:02Z</time></trkpt><trkpt lat="45.943718680201435" lon="12.794627200337477"><ele>30.333333333333336</ele><time>2026-04-19T11:12:03Z</time></trkpt><trkpt lat="45.94386514057492" lon="12.79476322353281"><ele>30.666666666666668</ele><time>2026-04-19T11:12:04Z</time></trkpt><trkpt lat="45.94398582741632" lon="12.794916666935126"><ele>31.0</ele><time>2026-04-19T11:12:05Z</time></trkpt><trkpt lat="45.94409964462694" lon="12.79504102427949"><ele>31.0</ele><time>2026-04-19T11:12:06Z</time></trkpt><trkpt lat="45.94420560328861" lon="12.795160726566712"><ele>31.0</ele><time>2026-04-19T11:12:07Z</time></trkpt><trkpt lat="45.94430285568459" lon="12.795269343499497"><ele>31.0</ele><time>2026-04-19T11:12:08Z</time></trkpt><trkpt lat="45.94440223402015" lon="12.795376682142555"><ele>31.0</ele><time>2026-04-19T11:12:09Z</time></trkpt><trkpt lat="45.94449454058496" lon="12.7954738140899"><ele>31.0</ele><time>2026-04-19T11:12:10Z</time></trkpt><trkpt lat="45.944583399422235" lon="12.795585124969186"><ele>31.0</ele><time>2026-04-19T11:12:11Z</time></trkpt><trkpt lat="45.944665181695804" lon="12.795686744161591"><ele>31.0</ele><time>2026-04-19T11:12:12Z</time></trkpt><trkpt lat="45.94474254828134" lon="12.795773570310963"><ele>31.0</ele><time>2026-04-19T11:12:13Z</time></trkpt><trkpt lat="45.94482386835255" lon="12.795847641768143"><ele>31.0</ele><time>2026-04-19T11:12:14Z</time></trkpt><trkpt lat="45.944931033979145" lon="12.79589058821649"><ele>31.0</ele><time>2026-04-19T11:12:15Z</time></trkpt><trkpt lat="45.94503116429836" lon="12.795940510138346"><ele>31.0</ele><time>2026-04-19T11:12:16Z</time></trkpt><trkpt lat="45.94512816267413" lon="12.796012535289673"><ele>31.0</ele><time>2026-04-19T11:12:17Z</time></trkpt><trkpt lat="45.94523280327825" lon="12.796043432534333"><ele>31.0</ele><time>2026-04-19T11:12:18Z</time></trkpt><trkpt lat="45.9453373820847" lon="12.796097740229264"><ele>31.0</ele><time>2026-04-19T11:12:19Z</time></trkpt><trkpt lat="45.945439382222126" lon="12.796150066432846"><ele>31.200000000000003</ele><time>2026-04-19T11:12:20Z</time></trkpt><trkpt lat="45.94554143381104" lon="12.796195534719827"><ele>31.400000000000002</ele><time>2026-04-19T11:12:21Z</time></trkpt><trkpt lat="45.94563014968093" lon="12.796231281761983"><ele>31.6</ele><time>2026-04-19T11:12:22Z</time></trkpt><trkpt lat="45.94570936498061" lon="12.796254653881407"><ele>31.8</ele><time>2026-04-19T11:12:23Z</time></trkpt><trkpt lat="45.945775186002315" lon="12.796274195835833"><ele>32.0</ele><time>2026-04-19T11:12:24Z</time></trkpt><trkpt lat="45.94588582710849" lon="12.796292596244053"><ele>32.0</ele><time>2026-04-19T11:12:26Z</time></trkpt><trkpt lat="45.945961489476254" lon="12.796272038570224"><ele>31.999999999999996</ele><time>2026-04-19T11:12:28Z</time></trkpt><trkpt lat="45.94592616831779" lon="12.796358196249239"><ele>32.0</ele><time>2026-04-19T11:12:37Z</time></trkpt><trkpt lat="45.94590033325275" lon="12.796447306770741"><ele>32.0</ele><time>2026-04-19T11:14:55Z</time></trkpt><trkpt lat="45.94593439761093" lon="12.796358592813425"><ele>31.999999999999996</ele><time>2026-04-19T11:15:04Z</time></trkpt><trkpt lat="45.9459504197386" lon="12.79626694635387"><ele>32.0</ele><time>2026-04-19T11:15:11Z</time></trkpt><trkpt lat="45.945876334683824" lon="12.796259042631226"><ele>32.0</ele><time>2026-04-19T11:15:17Z</time></trkpt><trkpt lat="45.94581066461075" lon="12.796239072961281"><ele>32.0</ele><time>2026-04-19T11:15:23Z</time></trkpt><trkpt lat="45.945749110836466" lon="12.796271143282366"><ele>32.0</ele><time>2026-04-19T11:15:29Z</time></trkpt><trkpt lat="45.94572299999297" lon="12.796442753696022"><ele>32.0</ele><time>2026-04-19T11:16:11Z</time></trkpt></trkseg></trk></gpx>